<?xml version="1.0" encoding="UTF-8" standalone="no" ?>
<gpx xmlns="http://www.topografix.com/GPX/1/1" xmlns:xsi="http://www.w3.org/2001/XMLSchema-instance" xsi:schemaLocation="http://www.topografix.com/GPX/1/1 http://www.topografix.com/GPX/1/1/gpx.xsd" version="1.1" creator="VisuGPX - https://www.visugpx.com">
  <metadata>
    <name>Traversée N-S des Pics de Berlanche</name>
    <desc><![CDATA[Traversée N-S des Pics de Berlanche. 
Montée depuis le Gleyzin vers l'Aup Bernard, puis en direction du Praillet jusque sous le Téléphérique EDF. De là montée vers l'Enfer de Berlanche jusqu'au Pic N, puis jusqu'au Pic S par les crêtes et le col éponyme. Redescente par un sentier peu marqué depuis le col vers l'Aup du Pont. Passage le long du barrage du Carré vers le plan de l'Ours à partir duquel on remonte vers le Praillet. Descente finalement vers le Gleyzin.]]></desc>
  </metadata>
  <trk>
    <name><![CDATA[Trk086-S1-MNT-F]]></name>
    <trkseg>
      <trkpt lat="45.33534" lon="6.11957">
        <ele>1088.283569</ele>
        <time>2016-08-27T07:31:08Z</time>
      </trkpt>
      <trkpt lat="45.33534" lon="6.11957">
        <ele>1088.283569</ele>
        <time>2016-08-27T07:31:13Z</time>
      </trkpt>
      <trkpt lat="45.33534" lon="6.11957">
        <ele>1088.283569</ele>
        <time>2016-08-27T07:31:18Z</time>
      </trkpt>
      <trkpt lat="45.33534" lon="6.11957">
        <ele>1088.265137</ele>
        <time>2016-08-27T07:31:23Z</time>
      </trkpt>
      <trkpt lat="45.33534" lon="6.11957">
        <ele>1088.265137</ele>
        <time>2016-08-27T07:31:28Z</time>
      </trkpt>
      <trkpt lat="45.33534" lon="6.11956">
        <ele>1088.246582</ele>
        <time>2016-08-27T07:31:33Z</time>
      </trkpt>
      <trkpt lat="45.33534" lon="6.11956">
        <ele>1088.246582</ele>
        <time>2016-08-27T07:31:38Z</time>
      </trkpt>
      <trkpt lat="45.33534" lon="6.11956">
        <ele>1088.246582</ele>
        <time>2016-08-27T07:31:43Z</time>
      </trkpt>
      <trkpt lat="45.33534" lon="6.11956">
        <ele>1088.246582</ele>
        <time>2016-08-27T07:31:48Z</time>
      </trkpt>
      <trkpt lat="45.33532" lon="6.11956">
        <ele>1087.919189</ele>
        <time>2016-08-27T07:31:53Z</time>
      </trkpt>
      <trkpt lat="45.33957" lon="6.12399">
        <ele>1260.565063</ele>
        <time>2016-08-27T07:53:06Z</time>
      </trkpt>
      <trkpt lat="45.33961" lon="6.12399">
        <ele>1260.806274</ele>
        <time>2016-08-27T07:53:11Z</time>
      </trkpt>
      <trkpt lat="45.33967" lon="6.12393">
        <ele>1259.221191</ele>
        <time>2016-08-27T07:53:16Z</time>
      </trkpt>
      <trkpt lat="45.33968" lon="6.1239">
        <ele>1258.246338</ele>
        <time>2016-08-27T07:53:21Z</time>
      </trkpt>
      <trkpt lat="45.33974" lon="6.1239">
        <ele>1258.489624</ele>
        <time>2016-08-27T07:53:26Z</time>
      </trkpt>
      <trkpt lat="45.33979" lon="6.12392">
        <ele>1259.147827</ele>
        <time>2016-08-27T07:53:31Z</time>
      </trkpt>
      <trkpt lat="45.3398" lon="6.12392">
        <ele>1259.140259</ele>
        <time>2016-08-27T07:53:36Z</time>
      </trkpt>
      <trkpt lat="45.33989" lon="6.12396">
        <ele>1260.199341</ele>
        <time>2016-08-27T07:53:41Z</time>
      </trkpt>
      <trkpt lat="45.33989" lon="6.12388">
        <ele>1258.114136</ele>
        <time>2016-08-27T07:53:46Z</time>
      </trkpt>
      <trkpt lat="45.33996" lon="6.12388">
        <ele>1258.345947</ele>
        <time>2016-08-27T07:53:51Z</time>
      </trkpt>
      <trkpt lat="45.34004" lon="6.12388">
        <ele>1258.404541</ele>
        <time>2016-08-27T07:53:56Z</time>
      </trkpt>
      <trkpt lat="45.34005" lon="6.12389">
        <ele>1258.544067</ele>
        <time>2016-08-27T07:54:01Z</time>
      </trkpt>
      <trkpt lat="45.34008" lon="6.12391">
        <ele>1259.248779</ele>
        <time>2016-08-27T07:54:26Z</time>
      </trkpt>
      <trkpt lat="45.34014" lon="6.1239">
        <ele>1259.031616</ele>
        <time>2016-08-27T07:54:31Z</time>
      </trkpt>
      <trkpt lat="45.34017" lon="6.12381">
        <ele>1256.7229</ele>
        <time>2016-08-27T07:54:36Z</time>
      </trkpt>
      <trkpt lat="45.3402" lon="6.12377">
        <ele>1255.860962</ele>
        <time>2016-08-27T07:54:41Z</time>
      </trkpt>
      <trkpt lat="45.34024" lon="6.12378">
        <ele>1256.260376</ele>
        <time>2016-08-27T07:54:46Z</time>
      </trkpt>
      <trkpt lat="45.34028" lon="6.1238">
        <ele>1256.802856</ele>
        <time>2016-08-27T07:54:51Z</time>
      </trkpt>
      <trkpt lat="45.34033" lon="6.12389">
        <ele>1258.967041</ele>
        <time>2016-08-27T07:54:56Z</time>
      </trkpt>
      <trkpt lat="45.34036" lon="6.12394">
        <ele>1260.224487</ele>
        <time>2016-08-27T07:55:01Z</time>
      </trkpt>
      <trkpt lat="45.34041" lon="6.12398">
        <ele>1261.174072</ele>
        <time>2016-08-27T07:55:06Z</time>
      </trkpt>
      <trkpt lat="45.34042" lon="6.12397">
        <ele>1260.845459</ele>
        <time>2016-08-27T07:55:11Z</time>
      </trkpt>
      <trkpt lat="45.34044" lon="6.12398">
        <ele>1261.112549</ele>
        <time>2016-08-27T07:55:16Z</time>
      </trkpt>
      <trkpt lat="45.34049" lon="6.12401">
        <ele>1261.805298</ele>
        <time>2016-08-27T07:55:21Z</time>
      </trkpt>
      <trkpt lat="45.34056" lon="6.12404">
        <ele>1262.910522</ele>
        <time>2016-08-27T07:55:26Z</time>
      </trkpt>
      <trkpt lat="45.34062" lon="6.12405">
        <ele>1263.122803</ele>
        <time>2016-08-27T07:55:31Z</time>
      </trkpt>
      <trkpt lat="45.34067" lon="6.12408">
        <ele>1263.865356</ele>
        <time>2016-08-27T07:55:36Z</time>
      </trkpt>
      <trkpt lat="45.3407" lon="6.12413">
        <ele>1265.343018</ele>
        <time>2016-08-27T07:55:41Z</time>
      </trkpt>
      <trkpt lat="45.34073" lon="6.12421">
        <ele>1267.620117</ele>
        <time>2016-08-27T07:55:46Z</time>
      </trkpt>
      <trkpt lat="45.34073" lon="6.12423">
        <ele>1268.095947</ele>
        <time>2016-08-27T07:55:51Z</time>
      </trkpt>
      <trkpt lat="45.34079" lon="6.12423">
        <ele>1267.860718</ele>
        <time>2016-08-27T07:55:56Z</time>
      </trkpt>
      <trkpt lat="45.34088" lon="6.12422">
        <ele>1267.431519</ele>
        <time>2016-08-27T07:56:01Z</time>
      </trkpt>
      <trkpt lat="45.34098" lon="6.12418">
        <ele>1266.136353</ele>
        <time>2016-08-27T07:56:06Z</time>
      </trkpt>
      <trkpt lat="45.34105" lon="6.12415">
        <ele>1265.544556</ele>
        <time>2016-08-27T07:56:11Z</time>
      </trkpt>
      <trkpt lat="45.34112" lon="6.12413">
        <ele>1264.931396</ele>
        <time>2016-08-27T07:56:16Z</time>
      </trkpt>
      <trkpt lat="45.34117" lon="6.12412">
        <ele>1264.923462</ele>
        <time>2016-08-27T07:56:21Z</time>
      </trkpt>
      <trkpt lat="45.34123" lon="6.12411">
        <ele>1264.724243</ele>
        <time>2016-08-27T07:56:26Z</time>
      </trkpt>
      <trkpt lat="45.34129" lon="6.1241">
        <ele>1264.72644</ele>
        <time>2016-08-27T07:56:31Z</time>
      </trkpt>
      <trkpt lat="45.34134" lon="6.12412">
        <ele>1265.251831</ele>
        <time>2016-08-27T07:56:36Z</time>
      </trkpt>
      <trkpt lat="45.3414" lon="6.12412">
        <ele>1265.520752</ele>
        <time>2016-08-27T07:56:41Z</time>
      </trkpt>
      <trkpt lat="45.34145" lon="6.12416">
        <ele>1266.356323</ele>
        <time>2016-08-27T07:56:46Z</time>
      </trkpt>
      <trkpt lat="45.34148" lon="6.12424">
        <ele>1268.092773</ele>
        <time>2016-08-27T07:56:51Z</time>
      </trkpt>
      <trkpt lat="45.3415" lon="6.12431">
        <ele>1269.693237</ele>
        <time>2016-08-27T07:56:56Z</time>
      </trkpt>
      <trkpt lat="45.34152" lon="6.12435">
        <ele>1270.511719</ele>
        <time>2016-08-27T07:57:01Z</time>
      </trkpt>
      <trkpt lat="45.34154" lon="6.12439">
        <ele>1271.337158</ele>
        <time>2016-08-27T07:57:06Z</time>
      </trkpt>
      <trkpt lat="45.34159" lon="6.12441">
        <ele>1272.055176</ele>
        <time>2016-08-27T07:57:11Z</time>
      </trkpt>
      <trkpt lat="45.34166" lon="6.12437">
        <ele>1272.189087</ele>
        <time>2016-08-27T07:57:16Z</time>
      </trkpt>
      <trkpt lat="45.34166" lon="6.12433">
        <ele>1271.338013</ele>
        <time>2016-08-27T07:57:21Z</time>
      </trkpt>
      <trkpt lat="45.34171" lon="6.12433">
        <ele>1271.938354</ele>
        <time>2016-08-27T07:57:26Z</time>
      </trkpt>
      <trkpt lat="45.34176" lon="6.12432">
        <ele>1272.355591</ele>
        <time>2016-08-27T07:57:31Z</time>
      </trkpt>
      <trkpt lat="45.34175" lon="6.12433">
        <ele>1272.392334</ele>
        <time>2016-08-27T07:57:36Z</time>
      </trkpt>
      <trkpt lat="45.34179" lon="6.12433">
        <ele>1273.020996</ele>
        <time>2016-08-27T07:57:41Z</time>
      </trkpt>
      <trkpt lat="45.34187" lon="6.12432">
        <ele>1273.730225</ele>
        <time>2016-08-27T07:57:46Z</time>
      </trkpt>
      <trkpt lat="45.34198" lon="6.12434">
        <ele>1275.3396</ele>
        <time>2016-08-27T07:57:51Z</time>
      </trkpt>
      <trkpt lat="45.34208" lon="6.12435">
        <ele>1277.339966</ele>
        <time>2016-08-27T07:57:56Z</time>
      </trkpt>
      <trkpt lat="45.34212" lon="6.12436">
        <ele>1278.401611</ele>
        <time>2016-08-27T07:58:01Z</time>
      </trkpt>
      <trkpt lat="45.34222" lon="6.12431">
        <ele>1279.444824</ele>
        <time>2016-08-27T07:58:06Z</time>
      </trkpt>
      <trkpt lat="45.34226" lon="6.12428">
        <ele>1279.401855</ele>
        <time>2016-08-27T07:58:11Z</time>
      </trkpt>
      <trkpt lat="45.34228" lon="6.12425">
        <ele>1278.926392</ele>
        <time>2016-08-27T07:58:16Z</time>
      </trkpt>
      <trkpt lat="45.34232" lon="6.12425">
        <ele>1279.973633</ele>
        <time>2016-08-27T07:58:21Z</time>
      </trkpt>
      <trkpt lat="45.34235" lon="6.12425">
        <ele>1280.474121</ele>
        <time>2016-08-27T07:58:26Z</time>
      </trkpt>
      <trkpt lat="45.34239" lon="6.12426">
        <ele>1281.355469</ele>
        <time>2016-08-27T07:58:31Z</time>
      </trkpt>
      <trkpt lat="45.34241" lon="6.12429">
        <ele>1282.623657</ele>
        <time>2016-08-27T07:58:36Z</time>
      </trkpt>
      <trkpt lat="45.34243" lon="6.12431">
        <ele>1283.919312</ele>
        <time>2016-08-27T07:58:41Z</time>
      </trkpt>
      <trkpt lat="45.34245" lon="6.12431">
        <ele>1284.155273</ele>
        <time>2016-08-27T07:58:46Z</time>
      </trkpt>
      <trkpt lat="45.34245" lon="6.12429">
        <ele>1283.657227</ele>
        <time>2016-08-27T07:58:51Z</time>
      </trkpt>
      <trkpt lat="45.34246" lon="6.12424">
        <ele>1282.360229</ele>
        <time>2016-08-27T07:58:56Z</time>
      </trkpt>
      <trkpt lat="45.34247" lon="6.1242">
        <ele>1281.52832</ele>
        <time>2016-08-27T07:59:01Z</time>
      </trkpt>
      <trkpt lat="45.34249" lon="6.12419">
        <ele>1281.867554</ele>
        <time>2016-08-27T07:59:06Z</time>
      </trkpt>
      <trkpt lat="45.34255" lon="6.12412">
        <ele>1282.012939</ele>
        <time>2016-08-27T07:59:11Z</time>
      </trkpt>
      <trkpt lat="45.34254" lon="6.12413">
        <ele>1281.939819</ele>
        <time>2016-08-27T07:59:16Z</time>
      </trkpt>
      <trkpt lat="45.34251" lon="6.12411">
        <ele>1280.738647</ele>
        <time>2016-08-27T07:59:21Z</time>
      </trkpt>
      <trkpt lat="45.34258" lon="6.12408">
        <ele>1282.495483</ele>
        <time>2016-08-27T07:59:26Z</time>
      </trkpt>
      <trkpt lat="45.34271" lon="6.12404">
        <ele>1285.874023</ele>
        <time>2016-08-27T07:59:31Z</time>
      </trkpt>
      <trkpt lat="45.34277" lon="6.124">
        <ele>1287.037842</ele>
        <time>2016-08-27T07:59:36Z</time>
      </trkpt>
      <trkpt lat="45.3428" lon="6.12396">
        <ele>1287.381592</ele>
        <time>2016-08-27T07:59:41Z</time>
      </trkpt>
      <trkpt lat="45.34282" lon="6.12396">
        <ele>1288.111206</ele>
        <time>2016-08-27T07:59:46Z</time>
      </trkpt>
      <trkpt lat="45.34284" lon="6.12398">
        <ele>1288.714478</ele>
        <time>2016-08-27T07:59:51Z</time>
      </trkpt>
      <trkpt lat="45.34285" lon="6.12401">
        <ele>1289.754028</ele>
        <time>2016-08-27T07:59:56Z</time>
      </trkpt>
      <trkpt lat="45.34288" lon="6.12406">
        <ele>1292.007568</ele>
        <time>2016-08-27T08:00:01Z</time>
      </trkpt>
      <trkpt lat="45.34288" lon="6.12407">
        <ele>1292.357056</ele>
        <time>2016-08-27T08:00:06Z</time>
      </trkpt>
      <trkpt lat="45.34287" lon="6.12409">
        <ele>1292.275024</ele>
        <time>2016-08-27T08:00:11Z</time>
      </trkpt>
      <trkpt lat="45.34289" lon="6.12411">
        <ele>1293.396362</ele>
        <time>2016-08-27T08:00:41Z</time>
      </trkpt>
      <trkpt lat="45.34294" lon="6.12414">
        <ele>1295.78894</ele>
        <time>2016-08-27T08:00:46Z</time>
      </trkpt>
      <trkpt lat="45.34293" lon="6.12413">
        <ele>1295.306396</ele>
        <time>2016-08-27T08:00:51Z</time>
      </trkpt>
      <trkpt lat="45.34292" lon="6.12414">
        <ele>1295.285278</ele>
        <time>2016-08-27T08:00:56Z</time>
      </trkpt>
      <trkpt lat="45.34294" lon="6.12413">
        <ele>1295.612671</ele>
        <time>2016-08-27T08:01:01Z</time>
      </trkpt>
      <trkpt lat="45.34299" lon="6.12414">
        <ele>1296.911133</ele>
        <time>2016-08-27T08:01:06Z</time>
      </trkpt>
      <trkpt lat="45.34303" lon="6.12413">
        <ele>1297.624878</ele>
        <time>2016-08-27T08:01:11Z</time>
      </trkpt>
      <trkpt lat="45.34306" lon="6.1241">
        <ele>1297.822388</ele>
        <time>2016-08-27T08:01:16Z</time>
      </trkpt>
      <trkpt lat="45.34311" lon="6.12419">
        <ele>1301.025757</ele>
        <time>2016-08-27T08:01:21Z</time>
      </trkpt>
      <trkpt lat="45.34312" lon="6.12423">
        <ele>1302.247803</ele>
        <time>2016-08-27T08:01:26Z</time>
      </trkpt>
      <trkpt lat="45.34315" lon="6.12425">
        <ele>1303.859985</ele>
        <time>2016-08-27T08:01:31Z</time>
      </trkpt>
      <trkpt lat="45.34324" lon="6.12427">
        <ele>1306.522095</ele>
        <time>2016-08-27T08:01:36Z</time>
      </trkpt>
      <trkpt lat="45.34332" lon="6.12426">
        <ele>1308.273315</ele>
        <time>2016-08-27T08:01:41Z</time>
      </trkpt>
      <trkpt lat="45.34336" lon="6.12423">
        <ele>1308.474609</ele>
        <time>2016-08-27T08:01:46Z</time>
      </trkpt>
      <trkpt lat="45.34339" lon="6.12424">
        <ele>1309.365601</ele>
        <time>2016-08-27T08:01:51Z</time>
      </trkpt>
      <trkpt lat="45.34344" lon="6.12425">
        <ele>1311.035889</ele>
        <time>2016-08-27T08:01:56Z</time>
      </trkpt>
      <trkpt lat="45.34346" lon="6.12425">
        <ele>1311.613892</ele>
        <time>2016-08-27T08:02:01Z</time>
      </trkpt>
      <trkpt lat="45.34348" lon="6.12425">
        <ele>1311.986938</ele>
        <time>2016-08-27T08:02:06Z</time>
      </trkpt>
      <trkpt lat="45.34349" lon="6.12422">
        <ele>1311.347168</ele>
        <time>2016-08-27T08:02:11Z</time>
      </trkpt>
      <trkpt lat="45.34349" lon="6.12419">
        <ele>1310.54248</ele>
        <time>2016-08-27T08:02:16Z</time>
      </trkpt>
      <trkpt lat="45.34351" lon="6.12416">
        <ele>1310.422485</ele>
        <time>2016-08-27T08:02:21Z</time>
      </trkpt>
      <trkpt lat="45.34355" lon="6.1242">
        <ele>1312.349976</ele>
        <time>2016-08-27T08:02:26Z</time>
      </trkpt>
      <trkpt lat="45.34357" lon="6.12424">
        <ele>1313.865112</ele>
        <time>2016-08-27T08:02:31Z</time>
      </trkpt>
      <trkpt lat="45.34358" lon="6.12426">
        <ele>1314.779175</ele>
        <time>2016-08-27T08:02:36Z</time>
      </trkpt>
      <trkpt lat="45.34358" lon="6.12427">
        <ele>1315.303833</ele>
        <time>2016-08-27T08:02:41Z</time>
      </trkpt>
      <trkpt lat="45.34358" lon="6.12427">
        <ele>1315.094238</ele>
        <time>2016-08-27T08:02:46Z</time>
      </trkpt>
      <trkpt lat="45.34359" lon="6.12427">
        <ele>1315.494995</ele>
        <time>2016-08-27T08:02:51Z</time>
      </trkpt>
      <trkpt lat="45.34364" lon="6.12427">
        <ele>1316.488159</ele>
        <time>2016-08-27T08:02:56Z</time>
      </trkpt>
      <trkpt lat="45.34368" lon="6.12425">
        <ele>1317.002808</ele>
        <time>2016-08-27T08:03:01Z</time>
      </trkpt>
      <trkpt lat="45.34371" lon="6.12423">
        <ele>1317.052979</ele>
        <time>2016-08-27T08:03:06Z</time>
      </trkpt>
      <trkpt lat="45.34373" lon="6.12421">
        <ele>1317.08252</ele>
        <time>2016-08-27T08:03:11Z</time>
      </trkpt>
      <trkpt lat="45.34377" lon="6.12424">
        <ele>1318.948608</ele>
        <time>2016-08-27T08:03:16Z</time>
      </trkpt>
      <trkpt lat="45.3438" lon="6.12429">
        <ele>1321.123657</ele>
        <time>2016-08-27T08:03:21Z</time>
      </trkpt>
      <trkpt lat="45.34382" lon="6.12433">
        <ele>1322.855225</ele>
        <time>2016-08-27T08:03:26Z</time>
      </trkpt>
      <trkpt lat="45.34382" lon="6.12435">
        <ele>1323.668701</ele>
        <time>2016-08-27T08:03:31Z</time>
      </trkpt>
      <trkpt lat="45.3438" lon="6.12434">
        <ele>1322.818359</ele>
        <time>2016-08-27T08:03:36Z</time>
      </trkpt>
      <trkpt lat="45.34379" lon="6.12433">
        <ele>1322.335327</ele>
        <time>2016-08-27T08:03:41Z</time>
      </trkpt>
      <trkpt lat="45.34382" lon="6.1244">
        <ele>1325.036011</ele>
        <time>2016-08-27T08:03:46Z</time>
      </trkpt>
      <trkpt lat="45.34384" lon="6.12444">
        <ele>1326.88501</ele>
        <time>2016-08-27T08:03:51Z</time>
      </trkpt>
      <trkpt lat="45.34384" lon="6.12449">
        <ele>1328.366211</ele>
        <time>2016-08-27T08:03:56Z</time>
      </trkpt>
      <trkpt lat="45.34384" lon="6.12453">
        <ele>1329.826294</ele>
        <time>2016-08-27T08:04:01Z</time>
      </trkpt>
      <trkpt lat="45.34385" lon="6.12456">
        <ele>1330.787476</ele>
        <time>2016-08-27T08:04:06Z</time>
      </trkpt>
      <trkpt lat="45.34387" lon="6.1246">
        <ele>1332.621216</ele>
        <time>2016-08-27T08:04:11Z</time>
      </trkpt>
      <trkpt lat="45.34391" lon="6.12463">
        <ele>1334.397461</ele>
        <time>2016-08-27T08:04:16Z</time>
      </trkpt>
      <trkpt lat="45.3439" lon="6.12463">
        <ele>1334.288696</ele>
        <time>2016-08-27T08:04:21Z</time>
      </trkpt>
      <trkpt lat="45.34391" lon="6.12464">
        <ele>1335.067505</ele>
        <time>2016-08-27T08:04:26Z</time>
      </trkpt>
      <trkpt lat="45.34391" lon="6.12466">
        <ele>1335.453735</ele>
        <time>2016-08-27T08:04:31Z</time>
      </trkpt>
      <trkpt lat="45.34393" lon="6.12468">
        <ele>1336.668701</ele>
        <time>2016-08-27T08:04:36Z</time>
      </trkpt>
      <trkpt lat="45.34395" lon="6.12468">
        <ele>1337.182495</ele>
        <time>2016-08-27T08:04:41Z</time>
      </trkpt>
      <trkpt lat="45.34395" lon="6.12469">
        <ele>1337.709961</ele>
        <time>2016-08-27T08:04:46Z</time>
      </trkpt>
      <trkpt lat="45.34398" lon="6.12472">
        <ele>1339.35376</ele>
        <time>2016-08-27T08:04:51Z</time>
      </trkpt>
      <trkpt lat="45.34401" lon="6.12474">
        <ele>1340.643799</ele>
        <time>2016-08-27T08:04:56Z</time>
      </trkpt>
      <trkpt lat="45.34403" lon="6.12476">
        <ele>1341.813721</ele>
        <time>2016-08-27T08:05:01Z</time>
      </trkpt>
      <trkpt lat="45.34405" lon="6.12476">
        <ele>1342.351318</ele>
        <time>2016-08-27T08:05:06Z</time>
      </trkpt>
      <trkpt lat="45.34405" lon="6.12475">
        <ele>1342.140015</ele>
        <time>2016-08-27T08:05:11Z</time>
      </trkpt>
      <trkpt lat="45.34408" lon="6.12475">
        <ele>1342.984985</ele>
        <time>2016-08-27T08:05:16Z</time>
      </trkpt>
      <trkpt lat="45.3441" lon="6.12478">
        <ele>1344.243774</ele>
        <time>2016-08-27T08:05:21Z</time>
      </trkpt>
      <trkpt lat="45.34413" lon="6.1248">
        <ele>1345.857544</ele>
        <time>2016-08-27T08:05:26Z</time>
      </trkpt>
      <trkpt lat="45.34414" lon="6.12473">
        <ele>1344.05127</ele>
        <time>2016-08-27T08:05:31Z</time>
      </trkpt>
      <trkpt lat="45.34416" lon="6.12468">
        <ele>1342.778809</ele>
        <time>2016-08-27T08:05:36Z</time>
      </trkpt>
      <trkpt lat="45.34417" lon="6.12464">
        <ele>1341.89624</ele>
        <time>2016-08-27T08:05:41Z</time>
      </trkpt>
      <trkpt lat="45.3442" lon="6.12461">
        <ele>1341.5625</ele>
        <time>2016-08-27T08:05:46Z</time>
      </trkpt>
      <trkpt lat="45.34424" lon="6.1246">
        <ele>1342.574951</ele>
        <time>2016-08-27T08:05:51Z</time>
      </trkpt>
      <trkpt lat="45.34427" lon="6.1246">
        <ele>1343.275635</ele>
        <time>2016-08-27T08:05:56Z</time>
      </trkpt>
      <trkpt lat="45.3443" lon="6.12463">
        <ele>1345.199219</ele>
        <time>2016-08-27T08:06:01Z</time>
      </trkpt>
      <trkpt lat="45.34432" lon="6.12463">
        <ele>1345.476196</ele>
        <time>2016-08-27T08:06:06Z</time>
      </trkpt>
      <trkpt lat="45.34436" lon="6.12466">
        <ele>1347.520386</ele>
        <time>2016-08-27T08:06:11Z</time>
      </trkpt>
      <trkpt lat="45.34441" lon="6.12468">
        <ele>1349.663208</ele>
        <time>2016-08-27T08:06:16Z</time>
      </trkpt>
      <trkpt lat="45.34443" lon="6.12467">
        <ele>1349.710083</ele>
        <time>2016-08-27T08:06:21Z</time>
      </trkpt>
      <trkpt lat="45.34447" lon="6.12467">
        <ele>1350.802734</ele>
        <time>2016-08-27T08:06:26Z</time>
      </trkpt>
      <trkpt lat="45.34449" lon="6.12465">
        <ele>1350.684814</ele>
        <time>2016-08-27T08:06:31Z</time>
      </trkpt>
      <trkpt lat="45.34451" lon="6.12459">
        <ele>1348.996338</ele>
        <time>2016-08-27T08:06:36Z</time>
      </trkpt>
      <trkpt lat="45.34456" lon="6.12456">
        <ele>1349.270996</ele>
        <time>2016-08-27T08:06:41Z</time>
      </trkpt>
      <trkpt lat="45.34458" lon="6.12453">
        <ele>1348.938965</ele>
        <time>2016-08-27T08:06:46Z</time>
      </trkpt>
      <trkpt lat="45.34462" lon="6.12451">
        <ele>1349.091919</ele>
        <time>2016-08-27T08:06:51Z</time>
      </trkpt>
      <trkpt lat="45.34464" lon="6.12451">
        <ele>1349.574585</ele>
        <time>2016-08-27T08:06:56Z</time>
      </trkpt>
      <trkpt lat="45.34466" lon="6.12449">
        <ele>1349.485229</ele>
        <time>2016-08-27T08:07:01Z</time>
      </trkpt>
      <trkpt lat="45.3447" lon="6.1245">
        <ele>1350.633179</ele>
        <time>2016-08-27T08:07:06Z</time>
      </trkpt>
      <trkpt lat="45.34473" lon="6.12451">
        <ele>1351.895996</ele>
        <time>2016-08-27T08:07:11Z</time>
      </trkpt>
      <trkpt lat="45.34477" lon="6.12452">
        <ele>1352.925293</ele>
        <time>2016-08-27T08:07:16Z</time>
      </trkpt>
      <trkpt lat="45.34482" lon="6.12454">
        <ele>1354.336548</ele>
        <time>2016-08-27T08:07:21Z</time>
      </trkpt>
      <trkpt lat="45.34485" lon="6.12457">
        <ele>1356.061523</ele>
        <time>2016-08-27T08:07:26Z</time>
      </trkpt>
      <trkpt lat="45.34491" lon="6.12461">
        <ele>1358.414185</ele>
        <time>2016-08-27T08:07:31Z</time>
      </trkpt>
      <trkpt lat="45.34492" lon="6.12462">
        <ele>1358.97644</ele>
        <time>2016-08-27T08:07:36Z</time>
      </trkpt>
      <trkpt lat="45.34494" lon="6.12466">
        <ele>1360.776245</ele>
        <time>2016-08-27T08:07:41Z</time>
      </trkpt>
      <trkpt lat="45.34496" lon="6.12466">
        <ele>1361.190552</ele>
        <time>2016-08-27T08:07:46Z</time>
      </trkpt>
      <trkpt lat="45.34493" lon="6.12465">
        <ele>1360.031372</ele>
        <time>2016-08-27T08:08:46Z</time>
      </trkpt>
      <trkpt lat="45.34491" lon="6.12467">
        <ele>1360.452515</ele>
        <time>2016-08-27T08:08:51Z</time>
      </trkpt>
      <trkpt lat="45.34489" lon="6.12468">
        <ele>1360.480225</ele>
        <time>2016-08-27T08:08:56Z</time>
      </trkpt>
      <trkpt lat="45.3449" lon="6.12473">
        <ele>1362.479126</ele>
        <time>2016-08-27T08:09:01Z</time>
      </trkpt>
      <trkpt lat="45.34492" lon="6.12482">
        <ele>1366.304932</ele>
        <time>2016-08-27T08:09:06Z</time>
      </trkpt>
      <trkpt lat="45.34495" lon="6.12492">
        <ele>1370.632324</ele>
        <time>2016-08-27T08:09:11Z</time>
      </trkpt>
      <trkpt lat="45.34494" lon="6.12499">
        <ele>1373.334229</ele>
        <time>2016-08-27T08:09:16Z</time>
      </trkpt>
      <trkpt lat="45.34495" lon="6.12504">
        <ele>1376.085938</ele>
        <time>2016-08-27T08:09:21Z</time>
      </trkpt>
      <trkpt lat="45.34493" lon="6.12505">
        <ele>1376.172974</ele>
        <time>2016-08-27T08:10:26Z</time>
      </trkpt>
      <trkpt lat="45.34496" lon="6.12506">
        <ele>1376.888306</ele>
        <time>2016-08-27T08:10:31Z</time>
      </trkpt>
      <trkpt lat="45.34499" lon="6.12507">
        <ele>1378.115723</ele>
        <time>2016-08-27T08:10:36Z</time>
      </trkpt>
      <trkpt lat="45.34503" lon="6.12508">
        <ele>1379.564331</ele>
        <time>2016-08-27T08:10:41Z</time>
      </trkpt>
      <trkpt lat="45.3451" lon="6.1251">
        <ele>1381.380493</ele>
        <time>2016-08-27T08:10:46Z</time>
      </trkpt>
      <trkpt lat="45.34515" lon="6.12511">
        <ele>1382.705688</ele>
        <time>2016-08-27T08:10:51Z</time>
      </trkpt>
      <trkpt lat="45.34518" lon="6.12513">
        <ele>1384.341675</ele>
        <time>2016-08-27T08:10:56Z</time>
      </trkpt>
      <trkpt lat="45.34521" lon="6.12516">
        <ele>1385.898926</ele>
        <time>2016-08-27T08:11:01Z</time>
      </trkpt>
      <trkpt lat="45.34523" lon="6.12516">
        <ele>1386.213379</ele>
        <time>2016-08-27T08:11:06Z</time>
      </trkpt>
      <trkpt lat="45.34527" lon="6.12517">
        <ele>1387.266724</ele>
        <time>2016-08-27T08:11:11Z</time>
      </trkpt>
      <trkpt lat="45.3453" lon="6.12519">
        <ele>1388.515137</ele>
        <time>2016-08-27T08:11:16Z</time>
      </trkpt>
      <trkpt lat="45.34533" lon="6.12521">
        <ele>1389.695313</ele>
        <time>2016-08-27T08:11:21Z</time>
      </trkpt>
      <trkpt lat="45.34536" lon="6.12524">
        <ele>1391.414307</ele>
        <time>2016-08-27T08:11:26Z</time>
      </trkpt>
      <trkpt lat="45.34537" lon="6.1252">
        <ele>1390.026733</ele>
        <time>2016-08-27T08:11:31Z</time>
      </trkpt>
      <trkpt lat="45.34539" lon="6.1252">
        <ele>1390.211792</ele>
        <time>2016-08-27T08:11:36Z</time>
      </trkpt>
      <trkpt lat="45.34539" lon="6.12521">
        <ele>1390.541382</ele>
        <time>2016-08-27T08:11:41Z</time>
      </trkpt>
      <trkpt lat="45.34541" lon="6.12519">
        <ele>1390.024292</ele>
        <time>2016-08-27T08:11:46Z</time>
      </trkpt>
      <trkpt lat="45.34541" lon="6.12517">
        <ele>1389.592529</ele>
        <time>2016-08-27T08:11:51Z</time>
      </trkpt>
      <trkpt lat="45.34544" lon="6.12519">
        <ele>1390.591675</ele>
        <time>2016-08-27T08:11:56Z</time>
      </trkpt>
      <trkpt lat="45.34548" lon="6.1252">
        <ele>1391.4375</ele>
        <time>2016-08-27T08:12:01Z</time>
      </trkpt>
      <trkpt lat="45.34549" lon="6.12516">
        <ele>1390.166992</ele>
        <time>2016-08-27T08:12:06Z</time>
      </trkpt>
      <trkpt lat="45.34554" lon="6.1252">
        <ele>1392.499023</ele>
        <time>2016-08-27T08:12:11Z</time>
      </trkpt>
      <trkpt lat="45.3456" lon="6.12523">
        <ele>1394.816895</ele>
        <time>2016-08-27T08:12:16Z</time>
      </trkpt>
      <trkpt lat="45.34565" lon="6.12526">
        <ele>1396.363647</ele>
        <time>2016-08-27T08:12:21Z</time>
      </trkpt>
      <trkpt lat="45.3457" lon="6.12529">
        <ele>1397.950073</ele>
        <time>2016-08-27T08:12:26Z</time>
      </trkpt>
      <trkpt lat="45.34574" lon="6.1253">
        <ele>1398.612183</ele>
        <time>2016-08-27T08:12:31Z</time>
      </trkpt>
      <trkpt lat="45.34575" lon="6.1253">
        <ele>1398.819336</ele>
        <time>2016-08-27T08:12:36Z</time>
      </trkpt>
      <trkpt lat="45.34578" lon="6.12532">
        <ele>1399.776123</ele>
        <time>2016-08-27T08:12:41Z</time>
      </trkpt>
      <trkpt lat="45.34579" lon="6.1253">
        <ele>1399.13562</ele>
        <time>2016-08-27T08:12:46Z</time>
      </trkpt>
      <trkpt lat="45.34582" lon="6.12532">
        <ele>1400.110596</ele>
        <time>2016-08-27T08:12:51Z</time>
      </trkpt>
      <trkpt lat="45.34585" lon="6.12536">
        <ele>1402.216309</ele>
        <time>2016-08-27T08:12:56Z</time>
      </trkpt>
      <trkpt lat="45.34588" lon="6.12539">
        <ele>1403.324097</ele>
        <time>2016-08-27T08:13:01Z</time>
      </trkpt>
      <trkpt lat="45.34591" lon="6.12541">
        <ele>1404.46167</ele>
        <time>2016-08-27T08:13:06Z</time>
      </trkpt>
      <trkpt lat="45.34593" lon="6.12544">
        <ele>1406.117065</ele>
        <time>2016-08-27T08:13:11Z</time>
      </trkpt>
      <trkpt lat="45.34595" lon="6.12545">
        <ele>1406.635986</ele>
        <time>2016-08-27T08:13:43Z</time>
      </trkpt>
      <trkpt lat="45.34593" lon="6.12548">
        <ele>1407.397583</ele>
        <time>2016-08-27T08:13:48Z</time>
      </trkpt>
      <trkpt lat="45.3459" lon="6.12551">
        <ele>1408.197388</ele>
        <time>2016-08-27T08:13:53Z</time>
      </trkpt>
      <trkpt lat="45.34589" lon="6.12561">
        <ele>1412.135864</ele>
        <time>2016-08-27T08:13:58Z</time>
      </trkpt>
      <trkpt lat="45.34585" lon="6.12563">
        <ele>1412.634033</ele>
        <time>2016-08-27T08:14:03Z</time>
      </trkpt>
      <trkpt lat="45.34581" lon="6.12566">
        <ele>1413.090088</ele>
        <time>2016-08-27T08:14:08Z</time>
      </trkpt>
      <trkpt lat="45.34577" lon="6.12567">
        <ele>1413.288452</ele>
        <time>2016-08-27T08:14:13Z</time>
      </trkpt>
      <trkpt lat="45.34573" lon="6.12567">
        <ele>1412.842773</ele>
        <time>2016-08-27T08:14:18Z</time>
      </trkpt>
      <trkpt lat="45.34568" lon="6.12566">
        <ele>1412.145264</ele>
        <time>2016-08-27T08:14:23Z</time>
      </trkpt>
      <trkpt lat="45.34564" lon="6.12562">
        <ele>1410.400879</ele>
        <time>2016-08-27T08:14:28Z</time>
      </trkpt>
      <trkpt lat="45.34561" lon="6.12564">
        <ele>1410.786621</ele>
        <time>2016-08-27T08:14:33Z</time>
      </trkpt>
      <trkpt lat="45.3456" lon="6.12565">
        <ele>1410.976807</ele>
        <time>2016-08-27T08:14:38Z</time>
      </trkpt>
      <trkpt lat="45.34558" lon="6.12569">
        <ele>1412.254272</ele>
        <time>2016-08-27T08:14:43Z</time>
      </trkpt>
      <trkpt lat="45.34557" lon="6.12574">
        <ele>1413.826904</ele>
        <time>2016-08-27T08:14:48Z</time>
      </trkpt>
      <trkpt lat="45.34559" lon="6.12579">
        <ele>1415.622925</ele>
        <time>2016-08-27T08:14:53Z</time>
      </trkpt>
      <trkpt lat="45.34556" lon="6.12582">
        <ele>1416.306519</ele>
        <time>2016-08-27T08:14:58Z</time>
      </trkpt>
      <trkpt lat="45.34554" lon="6.12585">
        <ele>1417.179321</ele>
        <time>2016-08-27T08:15:03Z</time>
      </trkpt>
      <trkpt lat="45.34551" lon="6.12588">
        <ele>1417.987427</ele>
        <time>2016-08-27T08:15:08Z</time>
      </trkpt>
      <trkpt lat="45.34548" lon="6.12591">
        <ele>1418.472534</ele>
        <time>2016-08-27T08:15:13Z</time>
      </trkpt>
      <trkpt lat="45.34545" lon="6.12591">
        <ele>1418.364136</ele>
        <time>2016-08-27T08:15:18Z</time>
      </trkpt>
      <trkpt lat="45.34544" lon="6.12593">
        <ele>1418.811401</ele>
        <time>2016-08-27T08:15:23Z</time>
      </trkpt>
      <trkpt lat="45.34542" lon="6.12594">
        <ele>1418.991211</ele>
        <time>2016-08-27T08:15:28Z</time>
      </trkpt>
      <trkpt lat="45.34542" lon="6.12596">
        <ele>1419.616943</ele>
        <time>2016-08-27T08:15:33Z</time>
      </trkpt>
      <trkpt lat="45.34538" lon="6.12596">
        <ele>1419.018555</ele>
        <time>2016-08-27T08:15:38Z</time>
      </trkpt>
      <trkpt lat="45.34535" lon="6.12595">
        <ele>1418.690674</ele>
        <time>2016-08-27T08:15:43Z</time>
      </trkpt>
      <trkpt lat="45.34533" lon="6.12597">
        <ele>1419.118408</ele>
        <time>2016-08-27T08:15:48Z</time>
      </trkpt>
      <trkpt lat="45.34533" lon="6.12605">
        <ele>1421.970947</ele>
        <time>2016-08-27T08:15:53Z</time>
      </trkpt>
      <trkpt lat="45.34531" lon="6.12608">
        <ele>1422.689087</ele>
        <time>2016-08-27T08:15:58Z</time>
      </trkpt>
      <trkpt lat="45.34531" lon="6.12612">
        <ele>1423.887939</ele>
        <time>2016-08-27T08:16:03Z</time>
      </trkpt>
      <trkpt lat="45.34532" lon="6.12615">
        <ele>1425.258667</ele>
        <time>2016-08-27T08:16:08Z</time>
      </trkpt>
      <trkpt lat="45.34533" lon="6.12622">
        <ele>1427.460205</ele>
        <time>2016-08-27T08:16:13Z</time>
      </trkpt>
      <trkpt lat="45.34535" lon="6.12632">
        <ele>1431.565918</ele>
        <time>2016-08-27T08:16:18Z</time>
      </trkpt>
      <trkpt lat="45.34536" lon="6.12638">
        <ele>1434.080078</ele>
        <time>2016-08-27T08:16:23Z</time>
      </trkpt>
      <trkpt lat="45.34533" lon="6.12637">
        <ele>1433.231689</ele>
        <time>2016-08-27T08:16:28Z</time>
      </trkpt>
      <trkpt lat="45.34532" lon="6.1264">
        <ele>1434.591309</ele>
        <time>2016-08-27T08:16:33Z</time>
      </trkpt>
      <trkpt lat="45.34533" lon="6.12641">
        <ele>1434.819946</ele>
        <time>2016-08-27T08:16:38Z</time>
      </trkpt>
      <trkpt lat="45.34535" lon="6.12643">
        <ele>1435.987183</ele>
        <time>2016-08-27T08:16:43Z</time>
      </trkpt>
      <trkpt lat="45.34537" lon="6.12645">
        <ele>1436.878418</ele>
        <time>2016-08-27T08:16:48Z</time>
      </trkpt>
      <trkpt lat="45.3454" lon="6.12645">
        <ele>1437.184326</ele>
        <time>2016-08-27T08:16:53Z</time>
      </trkpt>
      <trkpt lat="45.3454" lon="6.12644">
        <ele>1436.678223</ele>
        <time>2016-08-27T08:16:58Z</time>
      </trkpt>
      <trkpt lat="45.34546" lon="6.12647">
        <ele>1438.764404</ele>
        <time>2016-08-27T08:17:03Z</time>
      </trkpt>
      <trkpt lat="45.34549" lon="6.12645">
        <ele>1438.241089</ele>
        <time>2016-08-27T08:17:08Z</time>
      </trkpt>
      <trkpt lat="45.34552" lon="6.12644">
        <ele>1438.186157</ele>
        <time>2016-08-27T08:17:13Z</time>
      </trkpt>
      <trkpt lat="45.34556" lon="6.12647">
        <ele>1439.618896</ele>
        <time>2016-08-27T08:17:18Z</time>
      </trkpt>
      <trkpt lat="45.34557" lon="6.12647">
        <ele>1439.888916</ele>
        <time>2016-08-27T08:17:23Z</time>
      </trkpt>
      <trkpt lat="45.3456" lon="6.12652">
        <ele>1442.357544</ele>
        <time>2016-08-27T08:17:28Z</time>
      </trkpt>
      <trkpt lat="45.34563" lon="6.12655">
        <ele>1444.262695</ele>
        <time>2016-08-27T08:17:33Z</time>
      </trkpt>
      <trkpt lat="45.34566" lon="6.12659">
        <ele>1446.362183</ele>
        <time>2016-08-27T08:17:38Z</time>
      </trkpt>
      <trkpt lat="45.34566" lon="6.1266">
        <ele>1447.015259</ele>
        <time>2016-08-27T08:17:43Z</time>
      </trkpt>
      <trkpt lat="45.34566" lon="6.12662">
        <ele>1447.564697</ele>
        <time>2016-08-27T08:17:48Z</time>
      </trkpt>
      <trkpt lat="45.34565" lon="6.12663">
        <ele>1447.931152</ele>
        <time>2016-08-27T08:17:53Z</time>
      </trkpt>
      <trkpt lat="45.34565" lon="6.12669">
        <ele>1450.372559</ele>
        <time>2016-08-27T08:17:58Z</time>
      </trkpt>
      <trkpt lat="45.34565" lon="6.12673">
        <ele>1452.37854</ele>
        <time>2016-08-27T08:18:03Z</time>
      </trkpt>
      <trkpt lat="45.34564" lon="6.12676">
        <ele>1453.430542</ele>
        <time>2016-08-27T08:18:08Z</time>
      </trkpt>
      <trkpt lat="45.34563" lon="6.12679">
        <ele>1454.324585</ele>
        <time>2016-08-27T08:18:13Z</time>
      </trkpt>
      <trkpt lat="45.34561" lon="6.1268">
        <ele>1454.312744</ele>
        <time>2016-08-27T08:18:18Z</time>
      </trkpt>
      <trkpt lat="45.34558" lon="6.12678">
        <ele>1452.824219</ele>
        <time>2016-08-27T08:18:23Z</time>
      </trkpt>
      <trkpt lat="45.34555" lon="6.12675">
        <ele>1451.073486</ele>
        <time>2016-08-27T08:18:28Z</time>
      </trkpt>
      <trkpt lat="45.34551" lon="6.12675">
        <ele>1450.497559</ele>
        <time>2016-08-27T08:18:33Z</time>
      </trkpt>
      <trkpt lat="45.34548" lon="6.12674">
        <ele>1450.024292</ele>
        <time>2016-08-27T08:18:38Z</time>
      </trkpt>
      <trkpt lat="45.34545" lon="6.12674">
        <ele>1449.583374</ele>
        <time>2016-08-27T08:18:43Z</time>
      </trkpt>
      <trkpt lat="45.34544" lon="6.1268">
        <ele>1451.738647</ele>
        <time>2016-08-27T08:18:48Z</time>
      </trkpt>
      <trkpt lat="45.34544" lon="6.12686">
        <ele>1454.216553</ele>
        <time>2016-08-27T08:18:53Z</time>
      </trkpt>
      <trkpt lat="45.34545" lon="6.1269">
        <ele>1456.187988</ele>
        <time>2016-08-27T08:18:58Z</time>
      </trkpt>
      <trkpt lat="45.34543" lon="6.1269">
        <ele>1455.822632</ele>
        <time>2016-08-27T08:19:03Z</time>
      </trkpt>
      <trkpt lat="45.3454" lon="6.12688">
        <ele>1454.642822</ele>
        <time>2016-08-27T08:19:08Z</time>
      </trkpt>
      <trkpt lat="45.34538" lon="6.1269">
        <ele>1455.034912</ele>
        <time>2016-08-27T08:19:13Z</time>
      </trkpt>
      <trkpt lat="45.34538" lon="6.12691">
        <ele>1455.814819</ele>
        <time>2016-08-27T08:19:18Z</time>
      </trkpt>
      <trkpt lat="45.34536" lon="6.12692">
        <ele>1455.701782</ele>
        <time>2016-08-27T08:19:23Z</time>
      </trkpt>
      <trkpt lat="45.34535" lon="6.12695">
        <ele>1457.000122</ele>
        <time>2016-08-27T08:19:28Z</time>
      </trkpt>
      <trkpt lat="45.34532" lon="6.12699">
        <ele>1458.841431</ele>
        <time>2016-08-27T08:19:33Z</time>
      </trkpt>
      <trkpt lat="45.3453" lon="6.12701">
        <ele>1459.172729</ele>
        <time>2016-08-27T08:19:38Z</time>
      </trkpt>
      <trkpt lat="45.34527" lon="6.12703">
        <ele>1460.162109</ele>
        <time>2016-08-27T08:19:43Z</time>
      </trkpt>
      <trkpt lat="45.34525" lon="6.12706">
        <ele>1461.467407</ele>
        <time>2016-08-27T08:19:48Z</time>
      </trkpt>
      <trkpt lat="45.34525" lon="6.12708">
        <ele>1461.986572</ele>
        <time>2016-08-27T08:19:53Z</time>
      </trkpt>
      <trkpt lat="45.34523" lon="6.1271">
        <ele>1463.089966</ele>
        <time>2016-08-27T08:19:58Z</time>
      </trkpt>
      <trkpt lat="45.34523" lon="6.12712">
        <ele>1463.977417</ele>
        <time>2016-08-27T08:20:03Z</time>
      </trkpt>
      <trkpt lat="45.34526" lon="6.12715">
        <ele>1465.830811</ele>
        <time>2016-08-27T08:20:08Z</time>
      </trkpt>
      <trkpt lat="45.34528" lon="6.1272">
        <ele>1468.275269</ele>
        <time>2016-08-27T08:20:13Z</time>
      </trkpt>
      <trkpt lat="45.34531" lon="6.12726">
        <ele>1471.460083</ele>
        <time>2016-08-27T08:20:18Z</time>
      </trkpt>
      <trkpt lat="45.34531" lon="6.12727">
        <ele>1471.921509</ele>
        <time>2016-08-27T08:20:23Z</time>
      </trkpt>
      <trkpt lat="45.34531" lon="6.12728">
        <ele>1472.379395</ele>
        <time>2016-08-27T08:20:28Z</time>
      </trkpt>
      <trkpt lat="45.3453" lon="6.12726">
        <ele>1471.127319</ele>
        <time>2016-08-27T08:20:33Z</time>
      </trkpt>
      <trkpt lat="45.34535" lon="6.12731">
        <ele>1474.031128</ele>
        <time>2016-08-27T08:20:38Z</time>
      </trkpt>
      <trkpt lat="45.34537" lon="6.12731">
        <ele>1474.282959</ele>
        <time>2016-08-27T08:20:43Z</time>
      </trkpt>
      <trkpt lat="45.34539" lon="6.12732">
        <ele>1474.899536</ele>
        <time>2016-08-27T08:20:48Z</time>
      </trkpt>
      <trkpt lat="45.34541" lon="6.12732">
        <ele>1475.332764</ele>
        <time>2016-08-27T08:20:53Z</time>
      </trkpt>
      <trkpt lat="45.34542" lon="6.12734">
        <ele>1476.19104</ele>
        <time>2016-08-27T08:20:58Z</time>
      </trkpt>
      <trkpt lat="45.34544" lon="6.12734">
        <ele>1476.269287</ele>
        <time>2016-08-27T08:21:03Z</time>
      </trkpt>
      <trkpt lat="45.34546" lon="6.12731">
        <ele>1475.265625</ele>
        <time>2016-08-27T08:21:08Z</time>
      </trkpt>
      <trkpt lat="45.34549" lon="6.12734">
        <ele>1476.605225</ele>
        <time>2016-08-27T08:21:13Z</time>
      </trkpt>
      <trkpt lat="45.34553" lon="6.12736">
        <ele>1478.339233</ele>
        <time>2016-08-27T08:21:18Z</time>
      </trkpt>
      <trkpt lat="45.34556" lon="6.12741">
        <ele>1481.009644</ele>
        <time>2016-08-27T08:21:23Z</time>
      </trkpt>
      <trkpt lat="45.34561" lon="6.12744">
        <ele>1483.197144</ele>
        <time>2016-08-27T08:21:28Z</time>
      </trkpt>
      <trkpt lat="45.34564" lon="6.12746">
        <ele>1484.80249</ele>
        <time>2016-08-27T08:21:33Z</time>
      </trkpt>
      <trkpt lat="45.34567" lon="6.12747">
        <ele>1486.064087</ele>
        <time>2016-08-27T08:21:38Z</time>
      </trkpt>
      <trkpt lat="45.34569" lon="6.12747">
        <ele>1486.279175</ele>
        <time>2016-08-27T08:21:43Z</time>
      </trkpt>
      <trkpt lat="45.3457" lon="6.12749">
        <ele>1487.562622</ele>
        <time>2016-08-27T08:21:48Z</time>
      </trkpt>
      <trkpt lat="45.34572" lon="6.12748">
        <ele>1487.462158</ele>
        <time>2016-08-27T08:21:53Z</time>
      </trkpt>
      <trkpt lat="45.34573" lon="6.12749">
        <ele>1488.025269</ele>
        <time>2016-08-27T08:21:58Z</time>
      </trkpt>
      <trkpt lat="45.34575" lon="6.1275">
        <ele>1488.770386</ele>
        <time>2016-08-27T08:22:03Z</time>
      </trkpt>
      <trkpt lat="45.34576" lon="6.12749">
        <ele>1488.599854</ele>
        <time>2016-08-27T08:22:08Z</time>
      </trkpt>
      <trkpt lat="45.34579" lon="6.12748">
        <ele>1488.607056</ele>
        <time>2016-08-27T08:22:13Z</time>
      </trkpt>
      <trkpt lat="45.34581" lon="6.12745">
        <ele>1487.812256</ele>
        <time>2016-08-27T08:22:18Z</time>
      </trkpt>
      <trkpt lat="45.34585" lon="6.12743">
        <ele>1487.761841</ele>
        <time>2016-08-27T08:22:23Z</time>
      </trkpt>
      <trkpt lat="45.34589" lon="6.12743">
        <ele>1488.442505</ele>
        <time>2016-08-27T08:22:28Z</time>
      </trkpt>
      <trkpt lat="45.34588" lon="6.12738">
        <ele>1486.104004</ele>
        <time>2016-08-27T08:22:33Z</time>
      </trkpt>
      <trkpt lat="45.34591" lon="6.1274">
        <ele>1487.459473</ele>
        <time>2016-08-27T08:22:38Z</time>
      </trkpt>
      <trkpt lat="45.34594" lon="6.1274">
        <ele>1487.943726</ele>
        <time>2016-08-27T08:22:43Z</time>
      </trkpt>
      <trkpt lat="45.34597" lon="6.1274">
        <ele>1488.617432</ele>
        <time>2016-08-27T08:22:48Z</time>
      </trkpt>
      <trkpt lat="45.34599" lon="6.12742">
        <ele>1489.68335</ele>
        <time>2016-08-27T08:22:53Z</time>
      </trkpt>
      <trkpt lat="45.346" lon="6.12744">
        <ele>1491.140991</ele>
        <time>2016-08-27T08:22:58Z</time>
      </trkpt>
      <trkpt lat="45.346" lon="6.1275">
        <ele>1493.788696</ele>
        <time>2016-08-27T08:23:03Z</time>
      </trkpt>
      <trkpt lat="45.346" lon="6.12756">
        <ele>1496.224854</ele>
        <time>2016-08-27T08:23:08Z</time>
      </trkpt>
      <trkpt lat="45.34598" lon="6.12756">
        <ele>1496.140869</ele>
        <time>2016-08-27T08:23:13Z</time>
      </trkpt>
      <trkpt lat="45.34597" lon="6.12756">
        <ele>1495.650024</ele>
        <time>2016-08-27T08:23:18Z</time>
      </trkpt>
      <trkpt lat="45.34597" lon="6.12756">
        <ele>1495.882568</ele>
        <time>2016-08-27T08:23:23Z</time>
      </trkpt>
      <trkpt lat="45.34594" lon="6.12759">
        <ele>1496.586182</ele>
        <time>2016-08-27T08:23:28Z</time>
      </trkpt>
      <trkpt lat="45.3459" lon="6.12762">
        <ele>1497.138916</ele>
        <time>2016-08-27T08:23:33Z</time>
      </trkpt>
      <trkpt lat="45.34587" lon="6.12764">
        <ele>1497.36731</ele>
        <time>2016-08-27T08:23:38Z</time>
      </trkpt>
      <trkpt lat="45.34581" lon="6.12769">
        <ele>1498.507568</ele>
        <time>2016-08-27T08:23:43Z</time>
      </trkpt>
      <trkpt lat="45.34576" lon="6.12771">
        <ele>1498.610229</ele>
        <time>2016-08-27T08:23:48Z</time>
      </trkpt>
      <trkpt lat="45.34573" lon="6.12771">
        <ele>1498.106323</ele>
        <time>2016-08-27T08:23:53Z</time>
      </trkpt>
      <trkpt lat="45.34572" lon="6.12773">
        <ele>1498.859863</ele>
        <time>2016-08-27T08:23:58Z</time>
      </trkpt>
      <trkpt lat="45.34572" lon="6.12776">
        <ele>1500.120483</ele>
        <time>2016-08-27T08:24:03Z</time>
      </trkpt>
      <trkpt lat="45.34569" lon="6.12779">
        <ele>1501.235596</ele>
        <time>2016-08-27T08:24:08Z</time>
      </trkpt>
      <trkpt lat="45.34567" lon="6.12782">
        <ele>1502.356689</ele>
        <time>2016-08-27T08:24:13Z</time>
      </trkpt>
      <trkpt lat="45.34567" lon="6.12788">
        <ele>1505.101807</ele>
        <time>2016-08-27T08:24:18Z</time>
      </trkpt>
      <trkpt lat="45.34567" lon="6.12792">
        <ele>1507.041626</ele>
        <time>2016-08-27T08:24:23Z</time>
      </trkpt>
      <trkpt lat="45.34566" lon="6.12796">
        <ele>1508.684448</ele>
        <time>2016-08-27T08:24:28Z</time>
      </trkpt>
      <trkpt lat="45.34564" lon="6.128">
        <ele>1510.507813</ele>
        <time>2016-08-27T08:24:33Z</time>
      </trkpt>
      <trkpt lat="45.34565" lon="6.12802">
        <ele>1511.666992</ele>
        <time>2016-08-27T08:24:38Z</time>
      </trkpt>
      <trkpt lat="45.34564" lon="6.12803">
        <ele>1511.685303</ele>
        <time>2016-08-27T08:24:43Z</time>
      </trkpt>
      <trkpt lat="45.34561" lon="6.12802">
        <ele>1510.892456</ele>
        <time>2016-08-27T08:24:48Z</time>
      </trkpt>
      <trkpt lat="45.34556" lon="6.12799">
        <ele>1508.900391</ele>
        <time>2016-08-27T08:24:53Z</time>
      </trkpt>
      <trkpt lat="45.34556" lon="6.128">
        <ele>1509.5177</ele>
        <time>2016-08-27T08:24:58Z</time>
      </trkpt>
      <trkpt lat="45.34554" lon="6.12801">
        <ele>1509.806641</ele>
        <time>2016-08-27T08:25:03Z</time>
      </trkpt>
      <trkpt lat="45.34551" lon="6.12807">
        <ele>1512.112183</ele>
        <time>2016-08-27T08:25:08Z</time>
      </trkpt>
      <trkpt lat="45.34549" lon="6.12811">
        <ele>1513.953491</ele>
        <time>2016-08-27T08:25:13Z</time>
      </trkpt>
      <trkpt lat="45.34547" lon="6.12812">
        <ele>1514.151001</ele>
        <time>2016-08-27T08:25:18Z</time>
      </trkpt>
      <trkpt lat="45.34543" lon="6.1281">
        <ele>1513.372925</ele>
        <time>2016-08-27T08:25:23Z</time>
      </trkpt>
      <trkpt lat="45.34542" lon="6.12812">
        <ele>1514.069092</ele>
        <time>2016-08-27T08:25:28Z</time>
      </trkpt>
      <trkpt lat="45.34543" lon="6.12811">
        <ele>1513.944458</ele>
        <time>2016-08-27T08:25:33Z</time>
      </trkpt>
      <trkpt lat="45.34541" lon="6.12815">
        <ele>1515.62915</ele>
        <time>2016-08-27T08:25:38Z</time>
      </trkpt>
      <trkpt lat="45.34539" lon="6.12819">
        <ele>1517.133179</ele>
        <time>2016-08-27T08:25:43Z</time>
      </trkpt>
      <trkpt lat="45.34537" lon="6.1282">
        <ele>1517.545776</ele>
        <time>2016-08-27T08:25:48Z</time>
      </trkpt>
      <trkpt lat="45.34535" lon="6.12823">
        <ele>1518.338745</ele>
        <time>2016-08-27T08:25:53Z</time>
      </trkpt>
      <trkpt lat="45.34534" lon="6.12826">
        <ele>1519.294678</ele>
        <time>2016-08-27T08:25:58Z</time>
      </trkpt>
      <trkpt lat="45.34533" lon="6.12829">
        <ele>1520.203613</ele>
        <time>2016-08-27T08:26:03Z</time>
      </trkpt>
      <trkpt lat="45.34534" lon="6.12831">
        <ele>1521.007568</ele>
        <time>2016-08-27T08:26:08Z</time>
      </trkpt>
      <trkpt lat="45.34535" lon="6.12832">
        <ele>1521.478027</ele>
        <time>2016-08-27T08:26:13Z</time>
      </trkpt>
      <trkpt lat="45.34531" lon="6.12832">
        <ele>1521.259155</ele>
        <time>2016-08-27T08:26:18Z</time>
      </trkpt>
      <trkpt lat="45.34528" lon="6.12836">
        <ele>1522.224731</ele>
        <time>2016-08-27T08:26:23Z</time>
      </trkpt>
      <trkpt lat="45.34525" lon="6.12839">
        <ele>1523.129761</ele>
        <time>2016-08-27T08:26:28Z</time>
      </trkpt>
      <trkpt lat="45.3452" lon="6.12842">
        <ele>1523.817871</ele>
        <time>2016-08-27T08:26:33Z</time>
      </trkpt>
      <trkpt lat="45.34516" lon="6.12847">
        <ele>1525.022949</ele>
        <time>2016-08-27T08:26:38Z</time>
      </trkpt>
      <trkpt lat="45.34514" lon="6.12848">
        <ele>1525.385132</ele>
        <time>2016-08-27T08:26:43Z</time>
      </trkpt>
      <trkpt lat="45.3451" lon="6.12845">
        <ele>1524.275635</ele>
        <time>2016-08-27T08:26:48Z</time>
      </trkpt>
      <trkpt lat="45.34505" lon="6.12845">
        <ele>1523.799194</ele>
        <time>2016-08-27T08:26:53Z</time>
      </trkpt>
      <trkpt lat="45.34502" lon="6.12849">
        <ele>1525.005005</ele>
        <time>2016-08-27T08:26:58Z</time>
      </trkpt>
      <trkpt lat="45.34502" lon="6.12857">
        <ele>1527.39502</ele>
        <time>2016-08-27T08:27:03Z</time>
      </trkpt>
      <trkpt lat="45.34502" lon="6.12862">
        <ele>1529.094971</ele>
        <time>2016-08-27T08:27:08Z</time>
      </trkpt>
      <trkpt lat="45.34501" lon="6.12866">
        <ele>1530.170044</ele>
        <time>2016-08-27T08:27:13Z</time>
      </trkpt>
      <trkpt lat="45.345" lon="6.12867">
        <ele>1530.469971</ele>
        <time>2016-08-27T08:27:18Z</time>
      </trkpt>
      <trkpt lat="45.34499" lon="6.12872">
        <ele>1531.824951</ele>
        <time>2016-08-27T08:27:23Z</time>
      </trkpt>
      <trkpt lat="45.345" lon="6.12877">
        <ele>1533.474976</ele>
        <time>2016-08-27T08:27:28Z</time>
      </trkpt>
      <trkpt lat="45.34502" lon="6.12881">
        <ele>1534.531616</ele>
        <time>2016-08-27T08:27:33Z</time>
      </trkpt>
      <trkpt lat="45.34501" lon="6.12887">
        <ele>1535.250244</ele>
        <time>2016-08-27T08:27:38Z</time>
      </trkpt>
      <trkpt lat="45.34496" lon="6.12888">
        <ele>1535.058594</ele>
        <time>2016-08-27T08:27:43Z</time>
      </trkpt>
      <trkpt lat="45.34491" lon="6.12892">
        <ele>1535.244385</ele>
        <time>2016-08-27T08:27:48Z</time>
      </trkpt>
      <trkpt lat="45.3449" lon="6.12896">
        <ele>1535.828369</ele>
        <time>2016-08-27T08:27:53Z</time>
      </trkpt>
      <trkpt lat="45.34489" lon="6.12899">
        <ele>1536.136963</ele>
        <time>2016-08-27T08:27:58Z</time>
      </trkpt>
      <trkpt lat="45.34486" lon="6.12903">
        <ele>1536.449951</ele>
        <time>2016-08-27T08:28:03Z</time>
      </trkpt>
      <trkpt lat="45.34483" lon="6.12906">
        <ele>1536.567993</ele>
        <time>2016-08-27T08:28:08Z</time>
      </trkpt>
      <trkpt lat="45.34477" lon="6.12909">
        <ele>1536.45752</ele>
        <time>2016-08-27T08:28:13Z</time>
      </trkpt>
      <trkpt lat="45.34473" lon="6.12912">
        <ele>1536.387207</ele>
        <time>2016-08-27T08:28:18Z</time>
      </trkpt>
      <trkpt lat="45.34469" lon="6.12915">
        <ele>1536.522461</ele>
        <time>2016-08-27T08:28:23Z</time>
      </trkpt>
      <trkpt lat="45.34466" lon="6.12918">
        <ele>1536.582642</ele>
        <time>2016-08-27T08:28:28Z</time>
      </trkpt>
      <trkpt lat="45.3446" lon="6.12918">
        <ele>1535.932617</ele>
        <time>2016-08-27T08:28:33Z</time>
      </trkpt>
      <trkpt lat="45.34458" lon="6.12921">
        <ele>1536.07251</ele>
        <time>2016-08-27T08:28:38Z</time>
      </trkpt>
      <trkpt lat="45.34457" lon="6.12925">
        <ele>1536.423096</ele>
        <time>2016-08-27T08:28:43Z</time>
      </trkpt>
      <trkpt lat="45.34454" lon="6.1293">
        <ele>1536.731201</ele>
        <time>2016-08-27T08:28:48Z</time>
      </trkpt>
      <trkpt lat="45.34452" lon="6.12936">
        <ele>1537.135498</ele>
        <time>2016-08-27T08:28:53Z</time>
      </trkpt>
      <trkpt lat="45.3445" lon="6.12937">
        <ele>1537.024292</ele>
        <time>2016-08-27T08:28:58Z</time>
      </trkpt>
      <trkpt lat="45.34449" lon="6.12941">
        <ele>1537.435547</ele>
        <time>2016-08-27T08:29:03Z</time>
      </trkpt>
      <trkpt lat="45.34448" lon="6.12944">
        <ele>1537.688965</ele>
        <time>2016-08-27T08:29:08Z</time>
      </trkpt>
      <trkpt lat="45.34443" lon="6.12948">
        <ele>1537.590942</ele>
        <time>2016-08-27T08:29:13Z</time>
      </trkpt>
      <trkpt lat="45.3444" lon="6.12949">
        <ele>1537.248047</ele>
        <time>2016-08-27T08:29:18Z</time>
      </trkpt>
      <trkpt lat="45.34439" lon="6.12954">
        <ele>1537.800415</ele>
        <time>2016-08-27T08:29:23Z</time>
      </trkpt>
      <trkpt lat="45.34437" lon="6.12957">
        <ele>1537.810181</ele>
        <time>2016-08-27T08:29:28Z</time>
      </trkpt>
      <trkpt lat="45.3444" lon="6.12964">
        <ele>1539.159058</ele>
        <time>2016-08-27T08:29:33Z</time>
      </trkpt>
      <trkpt lat="45.34438" lon="6.12973">
        <ele>1540.044922</ele>
        <time>2016-08-27T08:29:38Z</time>
      </trkpt>
      <trkpt lat="45.34437" lon="6.12981">
        <ele>1541.117065</ele>
        <time>2016-08-27T08:29:43Z</time>
      </trkpt>
      <trkpt lat="45.34436" lon="6.12988">
        <ele>1541.904053</ele>
        <time>2016-08-27T08:29:48Z</time>
      </trkpt>
      <trkpt lat="45.34438" lon="6.12989">
        <ele>1542.422119</ele>
        <time>2016-08-27T08:29:53Z</time>
      </trkpt>
      <trkpt lat="45.3444" lon="6.12997">
        <ele>1543.705933</ele>
        <time>2016-08-27T08:29:58Z</time>
      </trkpt>
      <trkpt lat="45.34441" lon="6.13001">
        <ele>1544.394043</ele>
        <time>2016-08-27T08:30:03Z</time>
      </trkpt>
      <trkpt lat="45.34443" lon="6.13006">
        <ele>1545.295654</ele>
        <time>2016-08-27T08:30:08Z</time>
      </trkpt>
      <trkpt lat="45.34446" lon="6.1301">
        <ele>1546.371582</ele>
        <time>2016-08-27T08:30:13Z</time>
      </trkpt>
      <trkpt lat="45.3444" lon="6.13012">
        <ele>1546.029053</ele>
        <time>2016-08-27T08:30:18Z</time>
      </trkpt>
      <trkpt lat="45.34437" lon="6.13014">
        <ele>1546.089478</ele>
        <time>2016-08-27T08:30:23Z</time>
      </trkpt>
      <trkpt lat="45.34437" lon="6.13022">
        <ele>1547.290894</ele>
        <time>2016-08-27T08:30:28Z</time>
      </trkpt>
      <trkpt lat="45.34437" lon="6.13027">
        <ele>1548.159546</ele>
        <time>2016-08-27T08:30:33Z</time>
      </trkpt>
      <trkpt lat="45.34438" lon="6.13029">
        <ele>1548.540405</ele>
        <time>2016-08-27T08:30:38Z</time>
      </trkpt>
      <trkpt lat="45.3444" lon="6.13033">
        <ele>1549.514038</ele>
        <time>2016-08-27T08:30:43Z</time>
      </trkpt>
      <trkpt lat="45.3444" lon="6.13035">
        <ele>1549.774292</ele>
        <time>2016-08-27T08:30:48Z</time>
      </trkpt>
      <trkpt lat="45.3444" lon="6.1304">
        <ele>1550.724243</ele>
        <time>2016-08-27T08:30:53Z</time>
      </trkpt>
      <trkpt lat="45.34441" lon="6.13048">
        <ele>1552.037109</ele>
        <time>2016-08-27T08:30:58Z</time>
      </trkpt>
      <trkpt lat="45.3444" lon="6.13054">
        <ele>1553.020386</ele>
        <time>2016-08-27T08:31:03Z</time>
      </trkpt>
      <trkpt lat="45.34439" lon="6.13059">
        <ele>1553.64856</ele>
        <time>2016-08-27T08:31:08Z</time>
      </trkpt>
      <trkpt lat="45.34439" lon="6.13059">
        <ele>1553.713257</ele>
        <time>2016-08-27T08:31:13Z</time>
      </trkpt>
      <trkpt lat="45.3444" lon="6.13062">
        <ele>1554.22522</ele>
        <time>2016-08-27T08:31:18Z</time>
      </trkpt>
      <trkpt lat="45.34439" lon="6.13064">
        <ele>1554.533569</ele>
        <time>2016-08-27T08:31:23Z</time>
      </trkpt>
      <trkpt lat="45.34437" lon="6.13066">
        <ele>1554.822021</ele>
        <time>2016-08-27T08:31:28Z</time>
      </trkpt>
      <trkpt lat="45.34437" lon="6.13072">
        <ele>1556.021606</ele>
        <time>2016-08-27T08:31:33Z</time>
      </trkpt>
      <trkpt lat="45.34436" lon="6.13077">
        <ele>1557.17688</ele>
        <time>2016-08-27T08:31:38Z</time>
      </trkpt>
      <trkpt lat="45.34435" lon="6.13081">
        <ele>1558.03125</ele>
        <time>2016-08-27T08:31:43Z</time>
      </trkpt>
      <trkpt lat="45.34435" lon="6.13083">
        <ele>1558.498413</ele>
        <time>2016-08-27T08:31:48Z</time>
      </trkpt>
      <trkpt lat="45.34434" lon="6.13084">
        <ele>1558.516724</ele>
        <time>2016-08-27T08:31:53Z</time>
      </trkpt>
      <trkpt lat="45.34431" lon="6.13086">
        <ele>1558.936523</ele>
        <time>2016-08-27T08:31:58Z</time>
      </trkpt>
      <trkpt lat="45.34431" lon="6.13088">
        <ele>1559.411865</ele>
        <time>2016-08-27T08:32:03Z</time>
      </trkpt>
      <trkpt lat="45.34431" lon="6.1309">
        <ele>1559.764893</ele>
        <time>2016-08-27T08:32:08Z</time>
      </trkpt>
      <trkpt lat="45.3443" lon="6.13096">
        <ele>1561.012207</ele>
        <time>2016-08-27T08:32:13Z</time>
      </trkpt>
      <trkpt lat="45.34425" lon="6.13095">
        <ele>1560.621338</ele>
        <time>2016-08-27T08:32:18Z</time>
      </trkpt>
      <trkpt lat="45.34424" lon="6.13098">
        <ele>1561.163574</ele>
        <time>2016-08-27T08:32:23Z</time>
      </trkpt>
      <trkpt lat="45.34424" lon="6.13101">
        <ele>1561.874146</ele>
        <time>2016-08-27T08:32:28Z</time>
      </trkpt>
      <trkpt lat="45.3442" lon="6.13101">
        <ele>1561.729248</ele>
        <time>2016-08-27T08:32:33Z</time>
      </trkpt>
      <trkpt lat="45.3442" lon="6.13105">
        <ele>1562.677856</ele>
        <time>2016-08-27T08:32:38Z</time>
      </trkpt>
      <trkpt lat="45.34418" lon="6.1311">
        <ele>1563.759766</ele>
        <time>2016-08-27T08:32:43Z</time>
      </trkpt>
      <trkpt lat="45.34417" lon="6.13115">
        <ele>1564.766724</ele>
        <time>2016-08-27T08:32:48Z</time>
      </trkpt>
      <trkpt lat="45.34417" lon="6.13119">
        <ele>1565.816528</ele>
        <time>2016-08-27T08:32:53Z</time>
      </trkpt>
      <trkpt lat="45.34415" lon="6.13124">
        <ele>1566.858643</ele>
        <time>2016-08-27T08:32:58Z</time>
      </trkpt>
      <trkpt lat="45.34411" lon="6.13128">
        <ele>1567.767944</ele>
        <time>2016-08-27T08:33:03Z</time>
      </trkpt>
      <trkpt lat="45.34407" lon="6.13132">
        <ele>1568.501221</ele>
        <time>2016-08-27T08:33:08Z</time>
      </trkpt>
      <trkpt lat="45.34401" lon="6.13136">
        <ele>1569.25769</ele>
        <time>2016-08-27T08:33:13Z</time>
      </trkpt>
      <trkpt lat="45.34398" lon="6.1314">
        <ele>1570.138672</ele>
        <time>2016-08-27T08:33:18Z</time>
      </trkpt>
      <trkpt lat="45.34395" lon="6.13144">
        <ele>1570.967407</ele>
        <time>2016-08-27T08:33:23Z</time>
      </trkpt>
      <trkpt lat="45.34391" lon="6.13146">
        <ele>1571.262085</ele>
        <time>2016-08-27T08:33:28Z</time>
      </trkpt>
      <trkpt lat="45.34387" lon="6.13149">
        <ele>1571.67627</ele>
        <time>2016-08-27T08:33:33Z</time>
      </trkpt>
      <trkpt lat="45.34385" lon="6.13153">
        <ele>1572.558716</ele>
        <time>2016-08-27T08:33:38Z</time>
      </trkpt>
      <trkpt lat="45.34383" lon="6.13157">
        <ele>1573.424194</ele>
        <time>2016-08-27T08:33:43Z</time>
      </trkpt>
      <trkpt lat="45.3438" lon="6.1316">
        <ele>1574.031616</ele>
        <time>2016-08-27T08:33:48Z</time>
      </trkpt>
      <trkpt lat="45.34378" lon="6.13164">
        <ele>1574.843506</ele>
        <time>2016-08-27T08:33:53Z</time>
      </trkpt>
      <trkpt lat="45.34377" lon="6.1317">
        <ele>1576.402832</ele>
        <time>2016-08-27T08:33:58Z</time>
      </trkpt>
      <trkpt lat="45.34375" lon="6.13175">
        <ele>1577.578003</ele>
        <time>2016-08-27T08:34:03Z</time>
      </trkpt>
      <trkpt lat="45.34373" lon="6.13176">
        <ele>1577.660278</ele>
        <time>2016-08-27T08:34:08Z</time>
      </trkpt>
      <trkpt lat="45.3437" lon="6.13181">
        <ele>1578.544067</ele>
        <time>2016-08-27T08:34:13Z</time>
      </trkpt>
      <trkpt lat="45.34379" lon="6.13189">
        <ele>1581.569946</ele>
        <time>2016-08-27T08:37:58Z</time>
      </trkpt>
      <trkpt lat="45.3438" lon="6.13185">
        <ele>1580.745117</ele>
        <time>2016-08-27T08:38:03Z</time>
      </trkpt>
      <trkpt lat="45.34382" lon="6.13185">
        <ele>1580.719604</ele>
        <time>2016-08-27T08:38:08Z</time>
      </trkpt>
      <trkpt lat="45.34383" lon="6.13185">
        <ele>1580.822266</ele>
        <time>2016-08-27T08:38:13Z</time>
      </trkpt>
      <trkpt lat="45.34384" lon="6.13185">
        <ele>1580.941772</ele>
        <time>2016-08-27T08:38:18Z</time>
      </trkpt>
      <trkpt lat="45.34385" lon="6.13185">
        <ele>1580.994995</ele>
        <time>2016-08-27T08:38:23Z</time>
      </trkpt>
      <trkpt lat="45.34388" lon="6.13187">
        <ele>1581.861816</ele>
        <time>2016-08-27T08:38:28Z</time>
      </trkpt>
      <trkpt lat="45.34391" lon="6.13188">
        <ele>1582.443848</ele>
        <time>2016-08-27T08:38:33Z</time>
      </trkpt>
      <trkpt lat="45.34394" lon="6.13188">
        <ele>1582.758911</ele>
        <time>2016-08-27T08:38:38Z</time>
      </trkpt>
      <trkpt lat="45.34398" lon="6.13192">
        <ele>1584.037476</ele>
        <time>2016-08-27T08:38:43Z</time>
      </trkpt>
      <trkpt lat="45.34401" lon="6.13194">
        <ele>1584.837524</ele>
        <time>2016-08-27T08:38:48Z</time>
      </trkpt>
      <trkpt lat="45.34404" lon="6.13196">
        <ele>1585.778198</ele>
        <time>2016-08-27T08:38:53Z</time>
      </trkpt>
      <trkpt lat="45.34408" lon="6.13198">
        <ele>1586.548706</ele>
        <time>2016-08-27T08:38:58Z</time>
      </trkpt>
      <trkpt lat="45.34409" lon="6.13197">
        <ele>1586.431885</ele>
        <time>2016-08-27T08:39:03Z</time>
      </trkpt>
      <trkpt lat="45.34411" lon="6.13197">
        <ele>1586.737061</ele>
        <time>2016-08-27T08:39:08Z</time>
      </trkpt>
      <trkpt lat="45.34414" lon="6.132">
        <ele>1587.645996</ele>
        <time>2016-08-27T08:39:13Z</time>
      </trkpt>
      <trkpt lat="45.34416" lon="6.13201">
        <ele>1588.02002</ele>
        <time>2016-08-27T08:39:18Z</time>
      </trkpt>
      <trkpt lat="45.34419" lon="6.13202">
        <ele>1588.603516</ele>
        <time>2016-08-27T08:39:23Z</time>
      </trkpt>
      <trkpt lat="45.34424" lon="6.13204">
        <ele>1589.547241</ele>
        <time>2016-08-27T08:39:28Z</time>
      </trkpt>
      <trkpt lat="45.34427" lon="6.13202">
        <ele>1589.490967</ele>
        <time>2016-08-27T08:39:33Z</time>
      </trkpt>
      <trkpt lat="45.34431" lon="6.13204">
        <ele>1590.239136</ele>
        <time>2016-08-27T08:39:38Z</time>
      </trkpt>
      <trkpt lat="45.34435" lon="6.13204">
        <ele>1590.76001</ele>
        <time>2016-08-27T08:39:43Z</time>
      </trkpt>
      <trkpt lat="45.34436" lon="6.132">
        <ele>1589.942749</ele>
        <time>2016-08-27T08:39:48Z</time>
      </trkpt>
      <trkpt lat="45.34439" lon="6.132">
        <ele>1590.031372</ele>
        <time>2016-08-27T08:39:53Z</time>
      </trkpt>
      <trkpt lat="45.3444" lon="6.13198">
        <ele>1589.775269</ele>
        <time>2016-08-27T08:39:58Z</time>
      </trkpt>
      <trkpt lat="45.34442" lon="6.13199">
        <ele>1590.194336</ele>
        <time>2016-08-27T08:40:03Z</time>
      </trkpt>
      <trkpt lat="45.34446" lon="6.13202">
        <ele>1591.443726</ele>
        <time>2016-08-27T08:40:08Z</time>
      </trkpt>
      <trkpt lat="45.3445" lon="6.13203">
        <ele>1591.592529</ele>
        <time>2016-08-27T08:40:13Z</time>
      </trkpt>
      <trkpt lat="45.34453" lon="6.13207">
        <ele>1592.633789</ele>
        <time>2016-08-27T08:40:18Z</time>
      </trkpt>
      <trkpt lat="45.34456" lon="6.1321">
        <ele>1593.356201</ele>
        <time>2016-08-27T08:40:23Z</time>
      </trkpt>
      <trkpt lat="45.34457" lon="6.13213">
        <ele>1594.036255</ele>
        <time>2016-08-27T08:40:28Z</time>
      </trkpt>
      <trkpt lat="45.34461" lon="6.13217">
        <ele>1594.928711</ele>
        <time>2016-08-27T08:40:33Z</time>
      </trkpt>
      <trkpt lat="45.34462" lon="6.13218">
        <ele>1595.183716</ele>
        <time>2016-08-27T08:40:38Z</time>
      </trkpt>
      <trkpt lat="45.34466" lon="6.1322">
        <ele>1595.651245</ele>
        <time>2016-08-27T08:40:43Z</time>
      </trkpt>
      <trkpt lat="45.34468" lon="6.13222">
        <ele>1596.224976</ele>
        <time>2016-08-27T08:40:48Z</time>
      </trkpt>
      <trkpt lat="45.34471" lon="6.13224">
        <ele>1596.713745</ele>
        <time>2016-08-27T08:40:53Z</time>
      </trkpt>
      <trkpt lat="45.34474" lon="6.13226">
        <ele>1597.096191</ele>
        <time>2016-08-27T08:40:58Z</time>
      </trkpt>
      <trkpt lat="45.34477" lon="6.13231">
        <ele>1598.371216</ele>
        <time>2016-08-27T08:41:03Z</time>
      </trkpt>
      <trkpt lat="45.34482" lon="6.13232">
        <ele>1598.689941</ele>
        <time>2016-08-27T08:41:08Z</time>
      </trkpt>
      <trkpt lat="45.34485" lon="6.13235">
        <ele>1599.518799</ele>
        <time>2016-08-27T08:41:13Z</time>
      </trkpt>
      <trkpt lat="45.3449" lon="6.13238">
        <ele>1600.092529</ele>
        <time>2016-08-27T08:41:18Z</time>
      </trkpt>
      <trkpt lat="45.34492" lon="6.13241">
        <ele>1601.071045</ele>
        <time>2016-08-27T08:41:23Z</time>
      </trkpt>
      <trkpt lat="45.34494" lon="6.13242">
        <ele>1601.539429</ele>
        <time>2016-08-27T08:41:28Z</time>
      </trkpt>
      <trkpt lat="45.34496" lon="6.13243">
        <ele>1601.851685</ele>
        <time>2016-08-27T08:41:33Z</time>
      </trkpt>
      <trkpt lat="45.34499" lon="6.13244">
        <ele>1602.289673</ele>
        <time>2016-08-27T08:41:38Z</time>
      </trkpt>
      <trkpt lat="45.34504" lon="6.13246">
        <ele>1603.157104</ele>
        <time>2016-08-27T08:41:43Z</time>
      </trkpt>
      <trkpt lat="45.34505" lon="6.13249">
        <ele>1604.012817</ele>
        <time>2016-08-27T08:41:48Z</time>
      </trkpt>
      <trkpt lat="45.34508" lon="6.1325">
        <ele>1604.312622</ele>
        <time>2016-08-27T08:41:53Z</time>
      </trkpt>
      <trkpt lat="45.3451" lon="6.1325">
        <ele>1604.512329</ele>
        <time>2016-08-27T08:41:58Z</time>
      </trkpt>
      <trkpt lat="45.34511" lon="6.13251">
        <ele>1604.73999</ele>
        <time>2016-08-27T08:42:03Z</time>
      </trkpt>
      <trkpt lat="45.34512" lon="6.13252">
        <ele>1605.02832</ele>
        <time>2016-08-27T08:42:08Z</time>
      </trkpt>
      <trkpt lat="45.34514" lon="6.13254">
        <ele>1605.661743</ele>
        <time>2016-08-27T08:42:13Z</time>
      </trkpt>
      <trkpt lat="45.34515" lon="6.13254">
        <ele>1605.810425</ele>
        <time>2016-08-27T08:42:18Z</time>
      </trkpt>
      <trkpt lat="45.34518" lon="6.13256">
        <ele>1606.52063</ele>
        <time>2016-08-27T08:42:23Z</time>
      </trkpt>
      <trkpt lat="45.3452" lon="6.13258">
        <ele>1606.995972</ele>
        <time>2016-08-27T08:42:28Z</time>
      </trkpt>
      <trkpt lat="45.34522" lon="6.13259">
        <ele>1607.381958</ele>
        <time>2016-08-27T08:42:33Z</time>
      </trkpt>
      <trkpt lat="45.34527" lon="6.13263">
        <ele>1608.51709</ele>
        <time>2016-08-27T08:42:38Z</time>
      </trkpt>
      <trkpt lat="45.3453" lon="6.13264">
        <ele>1609.130005</ele>
        <time>2016-08-27T08:42:43Z</time>
      </trkpt>
      <trkpt lat="45.34533" lon="6.13266">
        <ele>1609.598022</ele>
        <time>2016-08-27T08:42:48Z</time>
      </trkpt>
      <trkpt lat="45.34536" lon="6.13265">
        <ele>1609.738892</ele>
        <time>2016-08-27T08:42:53Z</time>
      </trkpt>
      <trkpt lat="45.34538" lon="6.13268">
        <ele>1610.677124</ele>
        <time>2016-08-27T08:42:58Z</time>
      </trkpt>
      <trkpt lat="45.34541" lon="6.13268">
        <ele>1611.204712</ele>
        <time>2016-08-27T08:43:03Z</time>
      </trkpt>
      <trkpt lat="45.34543" lon="6.13267">
        <ele>1611.323975</ele>
        <time>2016-08-27T08:43:08Z</time>
      </trkpt>
      <trkpt lat="45.34546" lon="6.13269">
        <ele>1612.186523</ele>
        <time>2016-08-27T08:43:13Z</time>
      </trkpt>
      <trkpt lat="45.34549" lon="6.13269">
        <ele>1612.601929</ele>
        <time>2016-08-27T08:43:18Z</time>
      </trkpt>
      <trkpt lat="45.34552" lon="6.1327">
        <ele>1613.18335</ele>
        <time>2016-08-27T08:43:23Z</time>
      </trkpt>
      <trkpt lat="45.34556" lon="6.13268">
        <ele>1613.234863</ele>
        <time>2016-08-27T08:43:28Z</time>
      </trkpt>
      <trkpt lat="45.34559" lon="6.13267">
        <ele>1613.33728</ele>
        <time>2016-08-27T08:43:33Z</time>
      </trkpt>
      <trkpt lat="45.34562" lon="6.13268">
        <ele>1613.949219</ele>
        <time>2016-08-27T08:43:38Z</time>
      </trkpt>
      <trkpt lat="45.34566" lon="6.13269">
        <ele>1615.025879</ele>
        <time>2016-08-27T08:43:43Z</time>
      </trkpt>
      <trkpt lat="45.34567" lon="6.13271">
        <ele>1615.541748</ele>
        <time>2016-08-27T08:43:48Z</time>
      </trkpt>
      <trkpt lat="45.34571" lon="6.13272">
        <ele>1616.236694</ele>
        <time>2016-08-27T08:43:53Z</time>
      </trkpt>
      <trkpt lat="45.34571" lon="6.13275">
        <ele>1617.062744</ele>
        <time>2016-08-27T08:43:58Z</time>
      </trkpt>
      <trkpt lat="45.34575" lon="6.13277">
        <ele>1618.174805</ele>
        <time>2016-08-27T08:44:03Z</time>
      </trkpt>
      <trkpt lat="45.34578" lon="6.13278">
        <ele>1618.715454</ele>
        <time>2016-08-27T08:44:08Z</time>
      </trkpt>
      <trkpt lat="45.34581" lon="6.13278">
        <ele>1619.29248</ele>
        <time>2016-08-27T08:44:13Z</time>
      </trkpt>
      <trkpt lat="45.34586" lon="6.1328">
        <ele>1620.467773</ele>
        <time>2016-08-27T08:44:18Z</time>
      </trkpt>
      <trkpt lat="45.34589" lon="6.13279">
        <ele>1620.836548</ele>
        <time>2016-08-27T08:44:23Z</time>
      </trkpt>
      <trkpt lat="45.34593" lon="6.13278">
        <ele>1621.147461</ele>
        <time>2016-08-27T08:44:28Z</time>
      </trkpt>
      <trkpt lat="45.34594" lon="6.13281">
        <ele>1622.008667</ele>
        <time>2016-08-27T08:44:33Z</time>
      </trkpt>
      <trkpt lat="45.34596" lon="6.1328">
        <ele>1622.105469</ele>
        <time>2016-08-27T08:44:38Z</time>
      </trkpt>
      <trkpt lat="45.34599" lon="6.13281">
        <ele>1622.807251</ele>
        <time>2016-08-27T08:44:43Z</time>
      </trkpt>
      <trkpt lat="45.34604" lon="6.13281">
        <ele>1623.586548</ele>
        <time>2016-08-27T08:44:48Z</time>
      </trkpt>
      <trkpt lat="45.34607" lon="6.13284">
        <ele>1624.805054</ele>
        <time>2016-08-27T08:44:53Z</time>
      </trkpt>
      <trkpt lat="45.3461" lon="6.13284">
        <ele>1625.309937</ele>
        <time>2016-08-27T08:44:58Z</time>
      </trkpt>
      <trkpt lat="45.34616" lon="6.13282">
        <ele>1625.712402</ele>
        <time>2016-08-27T08:45:03Z</time>
      </trkpt>
      <trkpt lat="45.34619" lon="6.13282">
        <ele>1626.200439</ele>
        <time>2016-08-27T08:45:08Z</time>
      </trkpt>
      <trkpt lat="45.34621" lon="6.13284">
        <ele>1627.038574</ele>
        <time>2016-08-27T08:45:13Z</time>
      </trkpt>
      <trkpt lat="45.34624" lon="6.13283">
        <ele>1627.206299</ele>
        <time>2016-08-27T08:45:18Z</time>
      </trkpt>
      <trkpt lat="45.34628" lon="6.13284">
        <ele>1628.236938</ele>
        <time>2016-08-27T08:45:23Z</time>
      </trkpt>
      <trkpt lat="45.34632" lon="6.13286">
        <ele>1629.386841</ele>
        <time>2016-08-27T08:45:28Z</time>
      </trkpt>
      <trkpt lat="45.34636" lon="6.1329">
        <ele>1631.018311</ele>
        <time>2016-08-27T08:45:33Z</time>
      </trkpt>
      <trkpt lat="45.34641" lon="6.13291">
        <ele>1631.964722</ele>
        <time>2016-08-27T08:45:38Z</time>
      </trkpt>
      <trkpt lat="45.34645" lon="6.13292">
        <ele>1633.001953</ele>
        <time>2016-08-27T08:45:43Z</time>
      </trkpt>
      <trkpt lat="45.34646" lon="6.1329">
        <ele>1632.788452</ele>
        <time>2016-08-27T08:45:48Z</time>
      </trkpt>
      <trkpt lat="45.34649" lon="6.13294">
        <ele>1634.169434</ele>
        <time>2016-08-27T08:45:53Z</time>
      </trkpt>
      <trkpt lat="45.34655" lon="6.13295">
        <ele>1635.592163</ele>
        <time>2016-08-27T08:45:58Z</time>
      </trkpt>
      <trkpt lat="45.34658" lon="6.13297">
        <ele>1636.469238</ele>
        <time>2016-08-27T08:46:03Z</time>
      </trkpt>
      <trkpt lat="45.34663" lon="6.13298">
        <ele>1637.589355</ele>
        <time>2016-08-27T08:46:08Z</time>
      </trkpt>
      <trkpt lat="45.34665" lon="6.13303">
        <ele>1639.11145</ele>
        <time>2016-08-27T08:46:13Z</time>
      </trkpt>
      <trkpt lat="45.34668" lon="6.13303">
        <ele>1639.696411</ele>
        <time>2016-08-27T08:46:18Z</time>
      </trkpt>
      <trkpt lat="45.34674" lon="6.13303">
        <ele>1640.945313</ele>
        <time>2016-08-27T08:46:23Z</time>
      </trkpt>
      <trkpt lat="45.34676" lon="6.13306">
        <ele>1642.154053</ele>
        <time>2016-08-27T08:46:28Z</time>
      </trkpt>
      <trkpt lat="45.34678" lon="6.13305">
        <ele>1642.341187</ele>
        <time>2016-08-27T08:46:33Z</time>
      </trkpt>
      <trkpt lat="45.34682" lon="6.13308">
        <ele>1643.864258</ele>
        <time>2016-08-27T08:46:38Z</time>
      </trkpt>
      <trkpt lat="45.34684" lon="6.13307">
        <ele>1644.076416</ele>
        <time>2016-08-27T08:46:43Z</time>
      </trkpt>
      <trkpt lat="45.34686" lon="6.13309">
        <ele>1645.130249</ele>
        <time>2016-08-27T08:46:48Z</time>
      </trkpt>
      <trkpt lat="45.3469" lon="6.13312">
        <ele>1646.42395</ele>
        <time>2016-08-27T08:46:53Z</time>
      </trkpt>
      <trkpt lat="45.34694" lon="6.13311">
        <ele>1647.25293</ele>
        <time>2016-08-27T08:46:58Z</time>
      </trkpt>
      <trkpt lat="45.34697" lon="6.13308">
        <ele>1647.004395</ele>
        <time>2016-08-27T08:47:03Z</time>
      </trkpt>
      <trkpt lat="45.347" lon="6.13307">
        <ele>1647.212158</ele>
        <time>2016-08-27T08:47:08Z</time>
      </trkpt>
      <trkpt lat="45.34702" lon="6.13308">
        <ele>1648.153931</ele>
        <time>2016-08-27T08:47:13Z</time>
      </trkpt>
      <trkpt lat="45.34707" lon="6.13306">
        <ele>1648.505981</ele>
        <time>2016-08-27T08:47:18Z</time>
      </trkpt>
      <trkpt lat="45.34709" lon="6.13304">
        <ele>1648.181763</ele>
        <time>2016-08-27T08:47:23Z</time>
      </trkpt>
      <trkpt lat="45.34713" lon="6.13303">
        <ele>1648.752075</ele>
        <time>2016-08-27T08:47:28Z</time>
      </trkpt>
      <trkpt lat="45.34718" lon="6.13299">
        <ele>1648.627075</ele>
        <time>2016-08-27T08:47:33Z</time>
      </trkpt>
      <trkpt lat="45.34721" lon="6.13299">
        <ele>1649.661133</ele>
        <time>2016-08-27T08:47:38Z</time>
      </trkpt>
      <trkpt lat="45.34724" lon="6.13297">
        <ele>1649.494141</ele>
        <time>2016-08-27T08:47:43Z</time>
      </trkpt>
      <trkpt lat="45.34727" lon="6.13294">
        <ele>1649.41333</ele>
        <time>2016-08-27T08:47:48Z</time>
      </trkpt>
      <trkpt lat="45.34731" lon="6.13297">
        <ele>1651.287964</ele>
        <time>2016-08-27T08:47:53Z</time>
      </trkpt>
      <trkpt lat="45.34733" lon="6.13297">
        <ele>1651.484131</ele>
        <time>2016-08-27T08:47:58Z</time>
      </trkpt>
      <trkpt lat="45.34735" lon="6.13297">
        <ele>1652.180908</ele>
        <time>2016-08-27T08:48:03Z</time>
      </trkpt>
      <trkpt lat="45.34739" lon="6.13298">
        <ele>1653.331177</ele>
        <time>2016-08-27T08:48:08Z</time>
      </trkpt>
      <trkpt lat="45.34743" lon="6.13297">
        <ele>1653.979614</ele>
        <time>2016-08-27T08:48:13Z</time>
      </trkpt>
      <trkpt lat="45.34746" lon="6.13296">
        <ele>1654.321167</ele>
        <time>2016-08-27T08:48:18Z</time>
      </trkpt>
      <trkpt lat="45.34752" lon="6.13295">
        <ele>1655.411377</ele>
        <time>2016-08-27T08:48:23Z</time>
      </trkpt>
      <trkpt lat="45.34757" lon="6.13293">
        <ele>1655.845337</ele>
        <time>2016-08-27T08:48:28Z</time>
      </trkpt>
      <trkpt lat="45.34762" lon="6.13288">
        <ele>1655.572876</ele>
        <time>2016-08-27T08:48:33Z</time>
      </trkpt>
      <trkpt lat="45.34766" lon="6.13284">
        <ele>1655.117676</ele>
        <time>2016-08-27T08:48:38Z</time>
      </trkpt>
      <trkpt lat="45.34771" lon="6.1328">
        <ele>1654.798828</ele>
        <time>2016-08-27T08:48:43Z</time>
      </trkpt>
      <trkpt lat="45.34774" lon="6.13279">
        <ele>1655.18335</ele>
        <time>2016-08-27T08:48:48Z</time>
      </trkpt>
      <trkpt lat="45.34775" lon="6.13278">
        <ele>1654.928589</ele>
        <time>2016-08-27T08:48:53Z</time>
      </trkpt>
      <trkpt lat="45.34779" lon="6.13277">
        <ele>1655.456787</ele>
        <time>2016-08-27T08:48:58Z</time>
      </trkpt>
      <trkpt lat="45.34785" lon="6.13273">
        <ele>1655.632568</ele>
        <time>2016-08-27T08:49:03Z</time>
      </trkpt>
      <trkpt lat="45.34788" lon="6.13272">
        <ele>1655.815063</ele>
        <time>2016-08-27T08:49:08Z</time>
      </trkpt>
      <trkpt lat="45.34792" lon="6.13268">
        <ele>1655.575195</ele>
        <time>2016-08-27T08:49:13Z</time>
      </trkpt>
      <trkpt lat="45.34797" lon="6.13261">
        <ele>1654.418335</ele>
        <time>2016-08-27T08:49:18Z</time>
      </trkpt>
      <trkpt lat="45.34804" lon="6.13261">
        <ele>1655.726929</ele>
        <time>2016-08-27T08:49:23Z</time>
      </trkpt>
      <trkpt lat="45.34808" lon="6.13259">
        <ele>1655.9375</ele>
        <time>2016-08-27T08:49:28Z</time>
      </trkpt>
      <trkpt lat="45.34811" lon="6.13257">
        <ele>1656.117554</ele>
        <time>2016-08-27T08:49:33Z</time>
      </trkpt>
      <trkpt lat="45.34815" lon="6.13257">
        <ele>1656.86377</ele>
        <time>2016-08-27T08:49:38Z</time>
      </trkpt>
      <trkpt lat="45.34819" lon="6.13256">
        <ele>1657.461182</ele>
        <time>2016-08-27T08:49:43Z</time>
      </trkpt>
      <trkpt lat="45.34824" lon="6.13256">
        <ele>1658.757568</ele>
        <time>2016-08-27T08:49:48Z</time>
      </trkpt>
      <trkpt lat="45.34828" lon="6.13255">
        <ele>1659.217529</ele>
        <time>2016-08-27T08:49:53Z</time>
      </trkpt>
      <trkpt lat="45.3483" lon="6.13251">
        <ele>1658.63623</ele>
        <time>2016-08-27T08:49:58Z</time>
      </trkpt>
      <trkpt lat="45.34835" lon="6.1325">
        <ele>1659.224976</ele>
        <time>2016-08-27T08:50:03Z</time>
      </trkpt>
      <trkpt lat="45.3484" lon="6.1325">
        <ele>1660.44751</ele>
        <time>2016-08-27T08:50:08Z</time>
      </trkpt>
      <trkpt lat="45.34846" lon="6.13248">
        <ele>1661.14502</ele>
        <time>2016-08-27T08:50:13Z</time>
      </trkpt>
      <trkpt lat="45.3485" lon="6.13248">
        <ele>1661.905029</ele>
        <time>2016-08-27T08:50:18Z</time>
      </trkpt>
      <trkpt lat="45.34853" lon="6.13245">
        <ele>1661.765015</ele>
        <time>2016-08-27T08:50:23Z</time>
      </trkpt>
      <trkpt lat="45.34857" lon="6.1324">
        <ele>1661.282471</ele>
        <time>2016-08-27T08:50:28Z</time>
      </trkpt>
      <trkpt lat="45.34863" lon="6.13236">
        <ele>1661.22876</ele>
        <time>2016-08-27T08:50:33Z</time>
      </trkpt>
      <trkpt lat="45.34865" lon="6.13234">
        <ele>1661.089966</ele>
        <time>2016-08-27T08:50:38Z</time>
      </trkpt>
      <trkpt lat="45.34865" lon="6.13233">
        <ele>1660.876221</ele>
        <time>2016-08-27T08:50:43Z</time>
      </trkpt>
      <trkpt lat="45.34865" lon="6.13234">
        <ele>1661.184937</ele>
        <time>2016-08-27T08:50:48Z</time>
      </trkpt>
      <trkpt lat="45.34865" lon="6.13236">
        <ele>1661.628784</ele>
        <time>2016-08-27T08:50:53Z</time>
      </trkpt>
      <trkpt lat="45.3487" lon="6.13237">
        <ele>1663.111206</ele>
        <time>2016-08-27T08:50:58Z</time>
      </trkpt>
      <trkpt lat="45.34873" lon="6.13235">
        <ele>1663.03125</ele>
        <time>2016-08-27T08:51:03Z</time>
      </trkpt>
      <trkpt lat="45.34876" lon="6.1323">
        <ele>1662.286255</ele>
        <time>2016-08-27T08:51:08Z</time>
      </trkpt>
      <trkpt lat="45.34881" lon="6.13225">
        <ele>1661.849976</ele>
        <time>2016-08-27T08:51:13Z</time>
      </trkpt>
      <trkpt lat="45.34885" lon="6.13222">
        <ele>1661.875977</ele>
        <time>2016-08-27T08:51:18Z</time>
      </trkpt>
      <trkpt lat="45.34887" lon="6.13218">
        <ele>1661.590576</ele>
        <time>2016-08-27T08:51:23Z</time>
      </trkpt>
      <trkpt lat="45.34891" lon="6.13216">
        <ele>1661.628174</ele>
        <time>2016-08-27T08:51:28Z</time>
      </trkpt>
      <trkpt lat="45.34897" lon="6.13212">
        <ele>1661.945923</ele>
        <time>2016-08-27T08:51:33Z</time>
      </trkpt>
      <trkpt lat="45.349" lon="6.13209">
        <ele>1661.952515</ele>
        <time>2016-08-27T08:51:38Z</time>
      </trkpt>
      <trkpt lat="45.34904" lon="6.1321">
        <ele>1662.872559</ele>
        <time>2016-08-27T08:51:43Z</time>
      </trkpt>
      <trkpt lat="45.34908" lon="6.13207">
        <ele>1662.975708</ele>
        <time>2016-08-27T08:51:48Z</time>
      </trkpt>
      <trkpt lat="45.34913" lon="6.13204">
        <ele>1662.871948</ele>
        <time>2016-08-27T08:51:53Z</time>
      </trkpt>
      <trkpt lat="45.34914" lon="6.13198">
        <ele>1661.934326</ele>
        <time>2016-08-27T08:51:58Z</time>
      </trkpt>
      <trkpt lat="45.3492" lon="6.13195">
        <ele>1662.068726</ele>
        <time>2016-08-27T08:52:03Z</time>
      </trkpt>
      <trkpt lat="45.34924" lon="6.13194">
        <ele>1662.732788</ele>
        <time>2016-08-27T08:52:08Z</time>
      </trkpt>
      <trkpt lat="45.34926" lon="6.13195">
        <ele>1663.270874</ele>
        <time>2016-08-27T08:52:13Z</time>
      </trkpt>
      <trkpt lat="45.34928" lon="6.13195">
        <ele>1663.774658</ele>
        <time>2016-08-27T08:52:18Z</time>
      </trkpt>
      <trkpt lat="45.34931" lon="6.13196">
        <ele>1664.40625</ele>
        <time>2016-08-27T08:52:23Z</time>
      </trkpt>
      <trkpt lat="45.34933" lon="6.13198">
        <ele>1665.354858</ele>
        <time>2016-08-27T08:52:28Z</time>
      </trkpt>
      <trkpt lat="45.34935" lon="6.13199">
        <ele>1665.894287</ele>
        <time>2016-08-27T08:52:33Z</time>
      </trkpt>
      <trkpt lat="45.34935" lon="6.132">
        <ele>1666.249146</ele>
        <time>2016-08-27T08:52:38Z</time>
      </trkpt>
      <trkpt lat="45.34936" lon="6.13199">
        <ele>1666.390137</ele>
        <time>2016-08-27T08:52:43Z</time>
      </trkpt>
      <trkpt lat="45.34938" lon="6.13202">
        <ele>1667.286011</ele>
        <time>2016-08-27T08:52:48Z</time>
      </trkpt>
      <trkpt lat="45.3494" lon="6.13201">
        <ele>1667.530151</ele>
        <time>2016-08-27T08:52:53Z</time>
      </trkpt>
      <trkpt lat="45.34942" lon="6.13202">
        <ele>1668.17627</ele>
        <time>2016-08-27T08:52:58Z</time>
      </trkpt>
      <trkpt lat="45.34944" lon="6.13202">
        <ele>1668.753784</ele>
        <time>2016-08-27T08:53:03Z</time>
      </trkpt>
      <trkpt lat="45.34948" lon="6.13204">
        <ele>1669.976196</ele>
        <time>2016-08-27T08:53:08Z</time>
      </trkpt>
      <trkpt lat="45.34951" lon="6.13206">
        <ele>1671.476318</ele>
        <time>2016-08-27T08:53:13Z</time>
      </trkpt>
      <trkpt lat="45.34954" lon="6.13208">
        <ele>1672.530029</ele>
        <time>2016-08-27T08:53:18Z</time>
      </trkpt>
      <trkpt lat="45.34955" lon="6.13208">
        <ele>1672.953735</ele>
        <time>2016-08-27T08:53:23Z</time>
      </trkpt>
      <trkpt lat="45.34958" lon="6.13209">
        <ele>1673.849976</ele>
        <time>2016-08-27T08:53:28Z</time>
      </trkpt>
      <trkpt lat="45.34961" lon="6.13209">
        <ele>1674.734985</ele>
        <time>2016-08-27T08:53:33Z</time>
      </trkpt>
      <trkpt lat="45.34963" lon="6.13209">
        <ele>1675.03125</ele>
        <time>2016-08-27T08:53:38Z</time>
      </trkpt>
      <trkpt lat="45.34965" lon="6.13208">
        <ele>1675.222534</ele>
        <time>2016-08-27T08:53:43Z</time>
      </trkpt>
      <trkpt lat="45.34968" lon="6.13212">
        <ele>1676.962524</ele>
        <time>2016-08-27T08:53:48Z</time>
      </trkpt>
      <trkpt lat="45.34969" lon="6.13213">
        <ele>1677.630005</ele>
        <time>2016-08-27T08:53:53Z</time>
      </trkpt>
      <trkpt lat="45.34972" lon="6.13214">
        <ele>1678.574951</ele>
        <time>2016-08-27T08:53:58Z</time>
      </trkpt>
      <trkpt lat="45.34973" lon="6.13214">
        <ele>1678.908691</ele>
        <time>2016-08-27T08:54:03Z</time>
      </trkpt>
      <trkpt lat="45.34976" lon="6.13213">
        <ele>1679.381226</ele>
        <time>2016-08-27T08:54:08Z</time>
      </trkpt>
      <trkpt lat="45.34979" lon="6.13211">
        <ele>1679.606201</ele>
        <time>2016-08-27T08:54:13Z</time>
      </trkpt>
      <trkpt lat="45.34979" lon="6.1321">
        <ele>1679.456299</ele>
        <time>2016-08-27T08:54:18Z</time>
      </trkpt>
      <trkpt lat="45.34981" lon="6.1321">
        <ele>1679.883789</ele>
        <time>2016-08-27T08:54:23Z</time>
      </trkpt>
      <trkpt lat="45.34983" lon="6.13212">
        <ele>1680.716309</ele>
        <time>2016-08-27T08:54:28Z</time>
      </trkpt>
      <trkpt lat="45.34985" lon="6.13213">
        <ele>1681.537476</ele>
        <time>2016-08-27T08:54:33Z</time>
      </trkpt>
      <trkpt lat="45.34988" lon="6.13214">
        <ele>1682.556641</ele>
        <time>2016-08-27T08:54:38Z</time>
      </trkpt>
      <trkpt lat="45.3499" lon="6.13213">
        <ele>1683.069946</ele>
        <time>2016-08-27T08:54:43Z</time>
      </trkpt>
      <trkpt lat="45.34993" lon="6.13212">
        <ele>1683.614014</ele>
        <time>2016-08-27T08:54:48Z</time>
      </trkpt>
      <trkpt lat="45.34995" lon="6.13211">
        <ele>1684.097778</ele>
        <time>2016-08-27T08:54:53Z</time>
      </trkpt>
      <trkpt lat="45.34997" lon="6.1321">
        <ele>1684.614868</ele>
        <time>2016-08-27T08:54:58Z</time>
      </trkpt>
      <trkpt lat="45.34999" lon="6.1321">
        <ele>1685.290283</ele>
        <time>2016-08-27T08:55:03Z</time>
      </trkpt>
      <trkpt lat="45.35001" lon="6.13212">
        <ele>1686.540771</ele>
        <time>2016-08-27T08:55:08Z</time>
      </trkpt>
      <trkpt lat="45.35003" lon="6.13212">
        <ele>1686.817871</ele>
        <time>2016-08-27T08:55:13Z</time>
      </trkpt>
      <trkpt lat="45.35003" lon="6.13211">
        <ele>1686.770142</ele>
        <time>2016-08-27T08:55:18Z</time>
      </trkpt>
      <trkpt lat="45.35006" lon="6.13211">
        <ele>1687.599731</ele>
        <time>2016-08-27T08:55:23Z</time>
      </trkpt>
      <trkpt lat="45.3501" lon="6.13212">
        <ele>1689.186401</ele>
        <time>2016-08-27T08:55:28Z</time>
      </trkpt>
      <trkpt lat="45.35013" lon="6.13215">
        <ele>1691.016846</ele>
        <time>2016-08-27T08:55:33Z</time>
      </trkpt>
      <trkpt lat="45.35013" lon="6.13213">
        <ele>1690.610352</ele>
        <time>2016-08-27T08:55:38Z</time>
      </trkpt>
      <trkpt lat="45.35015" lon="6.13211">
        <ele>1690.447632</ele>
        <time>2016-08-27T08:55:43Z</time>
      </trkpt>
      <trkpt lat="45.35017" lon="6.1321">
        <ele>1691.09729</ele>
        <time>2016-08-27T08:55:48Z</time>
      </trkpt>
      <trkpt lat="45.35021" lon="6.13206">
        <ele>1690.964478</ele>
        <time>2016-08-27T08:55:53Z</time>
      </trkpt>
      <trkpt lat="45.35026" lon="6.13203">
        <ele>1691.730713</ele>
        <time>2016-08-27T08:55:58Z</time>
      </trkpt>
      <trkpt lat="45.35029" lon="6.13198">
        <ele>1690.934937</ele>
        <time>2016-08-27T08:56:03Z</time>
      </trkpt>
      <trkpt lat="45.3503" lon="6.13192">
        <ele>1689.738037</ele>
        <time>2016-08-27T08:56:08Z</time>
      </trkpt>
      <trkpt lat="45.35032" lon="6.13189">
        <ele>1689.393433</ele>
        <time>2016-08-27T08:56:13Z</time>
      </trkpt>
      <trkpt lat="45.35034" lon="6.13188">
        <ele>1689.827515</ele>
        <time>2016-08-27T08:56:18Z</time>
      </trkpt>
      <trkpt lat="45.35037" lon="6.13191">
        <ele>1691.73999</ele>
        <time>2016-08-27T08:56:23Z</time>
      </trkpt>
      <trkpt lat="45.35039" lon="6.13193">
        <ele>1693.202515</ele>
        <time>2016-08-27T08:56:28Z</time>
      </trkpt>
      <trkpt lat="45.35043" lon="6.13194">
        <ele>1694.844971</ele>
        <time>2016-08-27T08:56:33Z</time>
      </trkpt>
      <trkpt lat="45.35046" lon="6.13192">
        <ele>1695.834961</ele>
        <time>2016-08-27T08:56:38Z</time>
      </trkpt>
      <trkpt lat="45.35048" lon="6.13192">
        <ele>1696.217529</ele>
        <time>2016-08-27T08:56:43Z</time>
      </trkpt>
      <trkpt lat="45.35051" lon="6.13191">
        <ele>1697.252563</ele>
        <time>2016-08-27T08:56:48Z</time>
      </trkpt>
      <trkpt lat="45.35054" lon="6.13182">
        <ele>1695.52002</ele>
        <time>2016-08-27T08:56:53Z</time>
      </trkpt>
      <trkpt lat="45.35057" lon="6.13179">
        <ele>1695.834961</ele>
        <time>2016-08-27T08:56:58Z</time>
      </trkpt>
      <trkpt lat="45.3506" lon="6.13178">
        <ele>1696.80249</ele>
        <time>2016-08-27T08:57:03Z</time>
      </trkpt>
      <trkpt lat="45.35061" lon="6.13175">
        <ele>1696.554932</ele>
        <time>2016-08-27T08:57:08Z</time>
      </trkpt>
      <trkpt lat="45.35062" lon="6.13171">
        <ele>1695.42041</ele>
        <time>2016-08-27T08:57:13Z</time>
      </trkpt>
      <trkpt lat="45.35061" lon="6.13168">
        <ele>1694.191895</ele>
        <time>2016-08-27T08:57:18Z</time>
      </trkpt>
      <trkpt lat="45.35062" lon="6.13166">
        <ele>1693.741089</ele>
        <time>2016-08-27T08:57:23Z</time>
      </trkpt>
      <trkpt lat="45.35067" lon="6.13166">
        <ele>1695.709106</ele>
        <time>2016-08-27T08:57:28Z</time>
      </trkpt>
      <trkpt lat="45.35071" lon="6.13164">
        <ele>1696.631958</ele>
        <time>2016-08-27T08:57:33Z</time>
      </trkpt>
      <trkpt lat="45.35076" lon="6.13162">
        <ele>1697.869263</ele>
        <time>2016-08-27T08:57:38Z</time>
      </trkpt>
      <trkpt lat="45.35081" lon="6.13162">
        <ele>1699.393799</ele>
        <time>2016-08-27T08:57:43Z</time>
      </trkpt>
      <trkpt lat="45.35084" lon="6.13157">
        <ele>1698.954956</ele>
        <time>2016-08-27T08:57:48Z</time>
      </trkpt>
      <trkpt lat="45.35088" lon="6.13156">
        <ele>1700.068726</ele>
        <time>2016-08-27T08:57:53Z</time>
      </trkpt>
      <trkpt lat="45.35092" lon="6.13152">
        <ele>1700.064941</ele>
        <time>2016-08-27T08:57:58Z</time>
      </trkpt>
      <trkpt lat="45.35099" lon="6.13152">
        <ele>1702.757446</ele>
        <time>2016-08-27T08:58:03Z</time>
      </trkpt>
      <trkpt lat="45.35101" lon="6.13151">
        <ele>1703.574951</ele>
        <time>2016-08-27T08:58:08Z</time>
      </trkpt>
      <trkpt lat="45.35103" lon="6.13147">
        <ele>1702.45752</ele>
        <time>2016-08-27T08:58:13Z</time>
      </trkpt>
      <trkpt lat="45.35107" lon="6.13149">
        <ele>1704.621216</ele>
        <time>2016-08-27T08:58:18Z</time>
      </trkpt>
      <trkpt lat="45.3511" lon="6.13149">
        <ele>1705.888794</ele>
        <time>2016-08-27T08:58:23Z</time>
      </trkpt>
      <trkpt lat="45.35114" lon="6.1315">
        <ele>1707.842529</ele>
        <time>2016-08-27T08:58:28Z</time>
      </trkpt>
      <trkpt lat="45.35117" lon="6.1315">
        <ele>1709.106201</ele>
        <time>2016-08-27T08:58:33Z</time>
      </trkpt>
      <trkpt lat="45.35122" lon="6.13148">
        <ele>1710.0625</ele>
        <time>2016-08-27T08:58:38Z</time>
      </trkpt>
      <trkpt lat="45.35126" lon="6.13147">
        <ele>1711.266235</ele>
        <time>2016-08-27T08:58:43Z</time>
      </trkpt>
      <trkpt lat="45.3513" lon="6.13143">
        <ele>1711.189331</ele>
        <time>2016-08-27T08:58:48Z</time>
      </trkpt>
      <trkpt lat="45.35133" lon="6.13141">
        <ele>1711.986328</ele>
        <time>2016-08-27T08:58:53Z</time>
      </trkpt>
      <trkpt lat="45.35135" lon="6.13137">
        <ele>1711.144409</ele>
        <time>2016-08-27T08:58:58Z</time>
      </trkpt>
      <trkpt lat="45.35137" lon="6.13137">
        <ele>1712.011475</ele>
        <time>2016-08-27T08:59:03Z</time>
      </trkpt>
      <trkpt lat="45.35141" lon="6.13137">
        <ele>1713.398804</ele>
        <time>2016-08-27T08:59:08Z</time>
      </trkpt>
      <trkpt lat="45.35145" lon="6.13137">
        <ele>1714.717651</ele>
        <time>2016-08-27T08:59:13Z</time>
      </trkpt>
      <trkpt lat="45.35148" lon="6.13135">
        <ele>1715.147217</ele>
        <time>2016-08-27T08:59:18Z</time>
      </trkpt>
      <trkpt lat="45.35154" lon="6.13132">
        <ele>1716.501953</ele>
        <time>2016-08-27T08:59:23Z</time>
      </trkpt>
      <trkpt lat="45.35158" lon="6.13128">
        <ele>1716.961426</ele>
        <time>2016-08-27T08:59:28Z</time>
      </trkpt>
      <trkpt lat="45.35161" lon="6.13125">
        <ele>1717.07019</ele>
        <time>2016-08-27T08:59:33Z</time>
      </trkpt>
      <trkpt lat="45.35165" lon="6.13123">
        <ele>1718.223389</ele>
        <time>2016-08-27T08:59:38Z</time>
      </trkpt>
      <trkpt lat="45.35169" lon="6.13121">
        <ele>1719.234985</ele>
        <time>2016-08-27T08:59:43Z</time>
      </trkpt>
      <trkpt lat="45.3517" lon="6.13118">
        <ele>1718.900757</ele>
        <time>2016-08-27T08:59:48Z</time>
      </trkpt>
      <trkpt lat="45.35175" lon="6.13115">
        <ele>1719.722656</ele>
        <time>2016-08-27T08:59:53Z</time>
      </trkpt>
      <trkpt lat="45.35183" lon="6.1312">
        <ele>1723.541992</ele>
        <time>2016-08-27T08:59:58Z</time>
      </trkpt>
      <trkpt lat="45.35185" lon="6.13118">
        <ele>1723.859985</ele>
        <time>2016-08-27T09:00:03Z</time>
      </trkpt>
      <trkpt lat="45.35183" lon="6.13118">
        <ele>1723.346436</ele>
        <time>2016-08-27T09:00:08Z</time>
      </trkpt>
      <trkpt lat="45.35186" lon="6.13117">
        <ele>1724.030396</ele>
        <time>2016-08-27T09:00:13Z</time>
      </trkpt>
      <trkpt lat="45.3519" lon="6.13112">
        <ele>1723.879883</ele>
        <time>2016-08-27T09:00:18Z</time>
      </trkpt>
      <trkpt lat="45.35195" lon="6.13108">
        <ele>1724.249268</ele>
        <time>2016-08-27T09:00:23Z</time>
      </trkpt>
      <trkpt lat="45.35202" lon="6.13103">
        <ele>1725.286865</ele>
        <time>2016-08-27T09:00:28Z</time>
      </trkpt>
      <trkpt lat="45.35205" lon="6.13101">
        <ele>1725.569092</ele>
        <time>2016-08-27T09:00:33Z</time>
      </trkpt>
      <trkpt lat="45.35207" lon="6.131">
        <ele>1726.235474</ele>
        <time>2016-08-27T09:00:38Z</time>
      </trkpt>
      <trkpt lat="45.35212" lon="6.13095">
        <ele>1726.519897</ele>
        <time>2016-08-27T09:00:43Z</time>
      </trkpt>
      <trkpt lat="45.35217" lon="6.13092">
        <ele>1727.589478</ele>
        <time>2016-08-27T09:00:48Z</time>
      </trkpt>
      <trkpt lat="45.3522" lon="6.13092">
        <ele>1728.210571</ele>
        <time>2016-08-27T09:00:53Z</time>
      </trkpt>
      <trkpt lat="45.35222" lon="6.13089">
        <ele>1727.94165</ele>
        <time>2016-08-27T09:00:58Z</time>
      </trkpt>
      <trkpt lat="45.35225" lon="6.13084">
        <ele>1727.24353</ele>
        <time>2016-08-27T09:01:03Z</time>
      </trkpt>
      <trkpt lat="45.35228" lon="6.13081">
        <ele>1727.469116</ele>
        <time>2016-08-27T09:01:08Z</time>
      </trkpt>
      <trkpt lat="45.35232" lon="6.13075">
        <ele>1727.099487</ele>
        <time>2016-08-27T09:01:13Z</time>
      </trkpt>
      <trkpt lat="45.35238" lon="6.13073">
        <ele>1728.268433</ele>
        <time>2016-08-27T09:01:18Z</time>
      </trkpt>
      <trkpt lat="45.35242" lon="6.1307">
        <ele>1728.806274</ele>
        <time>2016-08-27T09:01:23Z</time>
      </trkpt>
      <trkpt lat="45.35244" lon="6.13068">
        <ele>1728.751343</ele>
        <time>2016-08-27T09:01:28Z</time>
      </trkpt>
      <trkpt lat="45.35245" lon="6.13067">
        <ele>1729.052002</ele>
        <time>2016-08-27T09:01:33Z</time>
      </trkpt>
      <trkpt lat="45.35244" lon="6.13065">
        <ele>1728.326294</ele>
        <time>2016-08-27T09:01:38Z</time>
      </trkpt>
      <trkpt lat="45.35241" lon="6.13061">
        <ele>1726.105713</ele>
        <time>2016-08-27T09:01:43Z</time>
      </trkpt>
      <trkpt lat="45.35239" lon="6.13059">
        <ele>1725.108765</ele>
        <time>2016-08-27T09:01:48Z</time>
      </trkpt>
      <trkpt lat="45.35234" lon="6.13061">
        <ele>1724.161499</ele>
        <time>2016-08-27T09:01:53Z</time>
      </trkpt>
      <trkpt lat="45.35236" lon="6.13063">
        <ele>1725.295898</ele>
        <time>2016-08-27T09:01:58Z</time>
      </trkpt>
      <trkpt lat="45.35243" lon="6.13063">
        <ele>1727.243652</ele>
        <time>2016-08-27T09:02:03Z</time>
      </trkpt>
      <trkpt lat="45.35248" lon="6.13062">
        <ele>1728.654785</ele>
        <time>2016-08-27T09:02:08Z</time>
      </trkpt>
      <trkpt lat="45.35254" lon="6.13058">
        <ele>1729.516113</ele>
        <time>2016-08-27T09:02:13Z</time>
      </trkpt>
      <trkpt lat="45.35257" lon="6.13059">
        <ele>1730.668091</ele>
        <time>2016-08-27T09:02:18Z</time>
      </trkpt>
      <trkpt lat="45.35261" lon="6.13057">
        <ele>1731.609985</ele>
        <time>2016-08-27T09:02:23Z</time>
      </trkpt>
      <trkpt lat="45.35264" lon="6.13051">
        <ele>1730.952881</ele>
        <time>2016-08-27T09:02:28Z</time>
      </trkpt>
      <trkpt lat="45.35268" lon="6.13048">
        <ele>1730.887329</ele>
        <time>2016-08-27T09:02:33Z</time>
      </trkpt>
      <trkpt lat="45.35272" lon="6.13043">
        <ele>1730.219238</ele>
        <time>2016-08-27T09:02:38Z</time>
      </trkpt>
      <trkpt lat="45.35272" lon="6.13039">
        <ele>1729.280029</ele>
        <time>2016-08-27T09:02:43Z</time>
      </trkpt>
      <trkpt lat="45.35273" lon="6.13041">
        <ele>1729.99292</ele>
        <time>2016-08-27T09:02:48Z</time>
      </trkpt>
      <trkpt lat="45.35278" lon="6.13036">
        <ele>1729.545166</ele>
        <time>2016-08-27T09:02:53Z</time>
      </trkpt>
      <trkpt lat="45.35284" lon="6.13035">
        <ele>1730.102051</ele>
        <time>2016-08-27T09:02:58Z</time>
      </trkpt>
      <trkpt lat="45.35289" lon="6.13035">
        <ele>1731.0448</ele>
        <time>2016-08-27T09:03:03Z</time>
      </trkpt>
      <trkpt lat="45.35287" lon="6.13032">
        <ele>1729.782104</ele>
        <time>2016-08-27T09:04:58Z</time>
      </trkpt>
      <trkpt lat="45.35285" lon="6.13032">
        <ele>1729.590088</ele>
        <time>2016-08-27T09:05:03Z</time>
      </trkpt>
      <trkpt lat="45.35285" lon="6.13038">
        <ele>1730.976929</ele>
        <time>2016-08-27T09:05:08Z</time>
      </trkpt>
      <trkpt lat="45.35283" lon="6.13043">
        <ele>1731.949341</ele>
        <time>2016-08-27T09:05:13Z</time>
      </trkpt>
      <trkpt lat="45.35284" lon="6.13045">
        <ele>1732.417603</ele>
        <time>2016-08-27T09:05:18Z</time>
      </trkpt>
      <trkpt lat="45.35285" lon="6.13048">
        <ele>1733.336792</ele>
        <time>2016-08-27T09:05:23Z</time>
      </trkpt>
      <trkpt lat="45.35288" lon="6.1305">
        <ele>1734.346069</ele>
        <time>2016-08-27T09:05:28Z</time>
      </trkpt>
      <trkpt lat="45.35288" lon="6.13053">
        <ele>1735.027588</ele>
        <time>2016-08-27T09:05:33Z</time>
      </trkpt>
      <trkpt lat="45.35291" lon="6.13056">
        <ele>1736.182861</ele>
        <time>2016-08-27T09:05:38Z</time>
      </trkpt>
      <trkpt lat="45.35293" lon="6.13057">
        <ele>1736.827393</ele>
        <time>2016-08-27T09:05:43Z</time>
      </trkpt>
      <trkpt lat="45.35296" lon="6.1306">
        <ele>1738.230713</ele>
        <time>2016-08-27T09:05:48Z</time>
      </trkpt>
      <trkpt lat="45.35297" lon="6.13062">
        <ele>1738.755737</ele>
        <time>2016-08-27T09:05:53Z</time>
      </trkpt>
      <trkpt lat="45.35294" lon="6.13065">
        <ele>1739.053467</ele>
        <time>2016-08-27T09:05:58Z</time>
      </trkpt>
      <trkpt lat="45.35297" lon="6.13069">
        <ele>1740.390625</ele>
        <time>2016-08-27T09:06:03Z</time>
      </trkpt>
      <trkpt lat="45.353" lon="6.13072">
        <ele>1741.627197</ele>
        <time>2016-08-27T09:06:08Z</time>
      </trkpt>
      <trkpt lat="45.35299" lon="6.13075">
        <ele>1742.155762</ele>
        <time>2016-08-27T09:06:13Z</time>
      </trkpt>
      <trkpt lat="45.35301" lon="6.13075">
        <ele>1742.437866</ele>
        <time>2016-08-27T09:06:18Z</time>
      </trkpt>
      <trkpt lat="45.35299" lon="6.13084">
        <ele>1744.261719</ele>
        <time>2016-08-27T09:06:23Z</time>
      </trkpt>
      <trkpt lat="45.35297" lon="6.13089">
        <ele>1745.020386</ele>
        <time>2016-08-27T09:06:28Z</time>
      </trkpt>
      <trkpt lat="45.35294" lon="6.1309">
        <ele>1744.890137</ele>
        <time>2016-08-27T09:06:33Z</time>
      </trkpt>
      <trkpt lat="45.35292" lon="6.13091">
        <ele>1744.760498</ele>
        <time>2016-08-27T09:06:38Z</time>
      </trkpt>
      <trkpt lat="45.35288" lon="6.13094">
        <ele>1744.772095</ele>
        <time>2016-08-27T09:06:43Z</time>
      </trkpt>
      <trkpt lat="45.35284" lon="6.13096">
        <ele>1744.574951</ele>
        <time>2016-08-27T09:06:48Z</time>
      </trkpt>
      <trkpt lat="45.35283" lon="6.13097">
        <ele>1744.602661</ele>
        <time>2016-08-27T09:06:53Z</time>
      </trkpt>
      <trkpt lat="45.35282" lon="6.13098">
        <ele>1744.629761</ele>
        <time>2016-08-27T09:06:58Z</time>
      </trkpt>
      <trkpt lat="45.3528" lon="6.13104">
        <ele>1745.638672</ele>
        <time>2016-08-27T09:07:03Z</time>
      </trkpt>
      <trkpt lat="45.35278" lon="6.13109">
        <ele>1746.493896</ele>
        <time>2016-08-27T09:07:08Z</time>
      </trkpt>
      <trkpt lat="45.3528" lon="6.13113">
        <ele>1747.810181</ele>
        <time>2016-08-27T09:07:13Z</time>
      </trkpt>
      <trkpt lat="45.35282" lon="6.13116">
        <ele>1749.005493</ele>
        <time>2016-08-27T09:07:18Z</time>
      </trkpt>
      <trkpt lat="45.35286" lon="6.13119">
        <ele>1750.22168</ele>
        <time>2016-08-27T09:07:23Z</time>
      </trkpt>
      <trkpt lat="45.35286" lon="6.1312">
        <ele>1750.507568</ele>
        <time>2016-08-27T09:07:28Z</time>
      </trkpt>
      <trkpt lat="45.35286" lon="6.13122">
        <ele>1751.029297</ele>
        <time>2016-08-27T09:07:33Z</time>
      </trkpt>
      <trkpt lat="45.35287" lon="6.13128">
        <ele>1752.6073</ele>
        <time>2016-08-27T09:07:38Z</time>
      </trkpt>
      <trkpt lat="45.35287" lon="6.13134">
        <ele>1754.209839</ele>
        <time>2016-08-27T09:07:43Z</time>
      </trkpt>
      <trkpt lat="45.35287" lon="6.13139">
        <ele>1755.624146</ele>
        <time>2016-08-27T09:07:48Z</time>
      </trkpt>
      <trkpt lat="45.35287" lon="6.1314">
        <ele>1755.896484</ele>
        <time>2016-08-27T09:07:53Z</time>
      </trkpt>
      <trkpt lat="45.35288" lon="6.13145">
        <ele>1757.498291</ele>
        <time>2016-08-27T09:07:58Z</time>
      </trkpt>
      <trkpt lat="45.35284" lon="6.13146">
        <ele>1756.972778</ele>
        <time>2016-08-27T09:08:03Z</time>
      </trkpt>
      <trkpt lat="45.35282" lon="6.13154">
        <ele>1758.627197</ele>
        <time>2016-08-27T09:08:08Z</time>
      </trkpt>
      <trkpt lat="45.35279" lon="6.13153">
        <ele>1757.857544</ele>
        <time>2016-08-27T09:08:13Z</time>
      </trkpt>
      <trkpt lat="45.35276" lon="6.13152">
        <ele>1756.972046</ele>
        <time>2016-08-27T09:08:18Z</time>
      </trkpt>
      <trkpt lat="45.3527" lon="6.13152">
        <ele>1755.961914</ele>
        <time>2016-08-27T09:08:23Z</time>
      </trkpt>
      <trkpt lat="45.35269" lon="6.13154">
        <ele>1756.252808</ele>
        <time>2016-08-27T09:08:28Z</time>
      </trkpt>
      <trkpt lat="45.35269" lon="6.13157">
        <ele>1757.016724</ele>
        <time>2016-08-27T09:08:33Z</time>
      </trkpt>
      <trkpt lat="45.35273" lon="6.13163">
        <ele>1759.345215</ele>
        <time>2016-08-27T09:08:41Z</time>
      </trkpt>
      <trkpt lat="45.35269" lon="6.13162">
        <ele>1758.39502</ele>
        <time>2016-08-27T09:08:46Z</time>
      </trkpt>
      <trkpt lat="45.35271" lon="6.1317">
        <ele>1760.72998</ele>
        <time>2016-08-27T09:08:51Z</time>
      </trkpt>
      <trkpt lat="45.35276" lon="6.1318">
        <ele>1764.352173</ele>
        <time>2016-08-27T09:08:56Z</time>
      </trkpt>
      <trkpt lat="45.35279" lon="6.13186">
        <ele>1766.617676</ele>
        <time>2016-08-27T09:09:01Z</time>
      </trkpt>
      <trkpt lat="45.35272" lon="6.13189">
        <ele>1765.848145</ele>
        <time>2016-08-27T09:09:06Z</time>
      </trkpt>
      <trkpt lat="45.35272" lon="6.13194">
        <ele>1767.036255</ele>
        <time>2016-08-27T09:09:11Z</time>
      </trkpt>
      <trkpt lat="45.35272" lon="6.13198">
        <ele>1767.849243</ele>
        <time>2016-08-27T09:09:16Z</time>
      </trkpt>
      <trkpt lat="45.35273" lon="6.13201">
        <ele>1768.948975</ele>
        <time>2016-08-27T09:09:21Z</time>
      </trkpt>
      <trkpt lat="45.35272" lon="6.13207">
        <ele>1770.086304</ele>
        <time>2016-08-27T09:09:26Z</time>
      </trkpt>
      <trkpt lat="45.35272" lon="6.13212">
        <ele>1771.183472</ele>
        <time>2016-08-27T09:09:31Z</time>
      </trkpt>
      <trkpt lat="45.3527" lon="6.13217">
        <ele>1772.058228</ele>
        <time>2016-08-27T09:09:36Z</time>
      </trkpt>
      <trkpt lat="45.35268" lon="6.13217">
        <ele>1771.614624</ele>
        <time>2016-08-27T09:09:41Z</time>
      </trkpt>
      <trkpt lat="45.35265" lon="6.13215">
        <ele>1770.470337</ele>
        <time>2016-08-27T09:09:46Z</time>
      </trkpt>
      <trkpt lat="45.35263" lon="6.13215">
        <ele>1770.037354</ele>
        <time>2016-08-27T09:09:51Z</time>
      </trkpt>
      <trkpt lat="45.3526" lon="6.13217">
        <ele>1769.918701</ele>
        <time>2016-08-27T09:09:56Z</time>
      </trkpt>
      <trkpt lat="45.35261" lon="6.13222">
        <ele>1771.133911</ele>
        <time>2016-08-27T09:10:01Z</time>
      </trkpt>
      <trkpt lat="45.3526" lon="6.1323">
        <ele>1772.700317</ele>
        <time>2016-08-27T09:10:06Z</time>
      </trkpt>
      <trkpt lat="45.35259" lon="6.13235">
        <ele>1773.728516</ele>
        <time>2016-08-27T09:10:11Z</time>
      </trkpt>
      <trkpt lat="45.3526" lon="6.1324">
        <ele>1774.982178</ele>
        <time>2016-08-27T09:10:16Z</time>
      </trkpt>
      <trkpt lat="45.3526" lon="6.13244">
        <ele>1776.013428</ele>
        <time>2016-08-27T09:10:21Z</time>
      </trkpt>
      <trkpt lat="45.35259" lon="6.13248">
        <ele>1776.729248</ele>
        <time>2016-08-27T09:10:26Z</time>
      </trkpt>
      <trkpt lat="45.35259" lon="6.13252">
        <ele>1777.670898</ele>
        <time>2016-08-27T09:10:31Z</time>
      </trkpt>
      <trkpt lat="45.35259" lon="6.13257">
        <ele>1779.043335</ele>
        <time>2016-08-27T09:10:36Z</time>
      </trkpt>
      <trkpt lat="45.35257" lon="6.13262">
        <ele>1779.834106</ele>
        <time>2016-08-27T09:10:41Z</time>
      </trkpt>
      <trkpt lat="45.35256" lon="6.13265">
        <ele>1780.417358</ele>
        <time>2016-08-27T09:10:46Z</time>
      </trkpt>
      <trkpt lat="45.35255" lon="6.13267">
        <ele>1781.065186</ele>
        <time>2016-08-27T09:10:51Z</time>
      </trkpt>
      <trkpt lat="45.35255" lon="6.13271">
        <ele>1781.915405</ele>
        <time>2016-08-27T09:10:56Z</time>
      </trkpt>
      <trkpt lat="45.35255" lon="6.13273">
        <ele>1782.487427</ele>
        <time>2016-08-27T09:11:01Z</time>
      </trkpt>
      <trkpt lat="45.35254" lon="6.13275">
        <ele>1783.090454</ele>
        <time>2016-08-27T09:11:06Z</time>
      </trkpt>
      <trkpt lat="45.35256" lon="6.13277">
        <ele>1783.678955</ele>
        <time>2016-08-27T09:11:11Z</time>
      </trkpt>
      <trkpt lat="45.35257" lon="6.13278">
        <ele>1784.365601</ele>
        <time>2016-08-27T09:11:16Z</time>
      </trkpt>
      <trkpt lat="45.35258" lon="6.13282">
        <ele>1785.616333</ele>
        <time>2016-08-27T09:11:21Z</time>
      </trkpt>
      <trkpt lat="45.35259" lon="6.13287">
        <ele>1786.91748</ele>
        <time>2016-08-27T09:11:26Z</time>
      </trkpt>
      <trkpt lat="45.35259" lon="6.1329">
        <ele>1787.617676</ele>
        <time>2016-08-27T09:11:31Z</time>
      </trkpt>
      <trkpt lat="45.35256" lon="6.13292">
        <ele>1787.839111</ele>
        <time>2016-08-27T09:11:36Z</time>
      </trkpt>
      <trkpt lat="45.35254" lon="6.13293">
        <ele>1787.674438</ele>
        <time>2016-08-27T09:11:41Z</time>
      </trkpt>
      <trkpt lat="45.35252" lon="6.13294">
        <ele>1787.759277</ele>
        <time>2016-08-27T09:11:46Z</time>
      </trkpt>
      <trkpt lat="45.35249" lon="6.13295">
        <ele>1787.557617</ele>
        <time>2016-08-27T09:11:51Z</time>
      </trkpt>
      <trkpt lat="45.35248" lon="6.13298">
        <ele>1787.923462</ele>
        <time>2016-08-27T09:11:56Z</time>
      </trkpt>
      <trkpt lat="45.35245" lon="6.13301">
        <ele>1788.179932</ele>
        <time>2016-08-27T09:12:01Z</time>
      </trkpt>
      <trkpt lat="45.35242" lon="6.13304">
        <ele>1788.429932</ele>
        <time>2016-08-27T09:12:06Z</time>
      </trkpt>
      <trkpt lat="45.35239" lon="6.13305">
        <ele>1788.335938</ele>
        <time>2016-08-27T09:12:11Z</time>
      </trkpt>
      <trkpt lat="45.35234" lon="6.13305">
        <ele>1787.351563</ele>
        <time>2016-08-27T09:12:16Z</time>
      </trkpt>
      <trkpt lat="45.35231" lon="6.13307">
        <ele>1787.240723</ele>
        <time>2016-08-27T09:12:21Z</time>
      </trkpt>
      <trkpt lat="45.3523" lon="6.1331">
        <ele>1788.085327</ele>
        <time>2016-08-27T09:12:26Z</time>
      </trkpt>
      <trkpt lat="45.35229" lon="6.13314">
        <ele>1789.271729</ele>
        <time>2016-08-27T09:12:31Z</time>
      </trkpt>
      <trkpt lat="45.35226" lon="6.13316">
        <ele>1789.600952</ele>
        <time>2016-08-27T09:12:36Z</time>
      </trkpt>
      <trkpt lat="45.35223" lon="6.13319">
        <ele>1790.317383</ele>
        <time>2016-08-27T09:12:41Z</time>
      </trkpt>
      <trkpt lat="45.35217" lon="6.1332">
        <ele>1789.487549</ele>
        <time>2016-08-27T09:12:46Z</time>
      </trkpt>
      <trkpt lat="45.35215" lon="6.13324">
        <ele>1790.695679</ele>
        <time>2016-08-27T09:12:51Z</time>
      </trkpt>
      <trkpt lat="45.35214" lon="6.13328">
        <ele>1791.999146</ele>
        <time>2016-08-27T09:12:56Z</time>
      </trkpt>
      <trkpt lat="45.35214" lon="6.13334">
        <ele>1794.084106</ele>
        <time>2016-08-27T09:13:01Z</time>
      </trkpt>
      <trkpt lat="45.35211" lon="6.1334">
        <ele>1795.985229</ele>
        <time>2016-08-27T09:13:06Z</time>
      </trkpt>
      <trkpt lat="45.35208" lon="6.13344">
        <ele>1797.367554</ele>
        <time>2016-08-27T09:13:11Z</time>
      </trkpt>
      <trkpt lat="45.35205" lon="6.13348">
        <ele>1797.890625</ele>
        <time>2016-08-27T09:13:16Z</time>
      </trkpt>
      <trkpt lat="45.35202" lon="6.13351">
        <ele>1798.505981</ele>
        <time>2016-08-27T09:13:21Z</time>
      </trkpt>
      <trkpt lat="45.35203" lon="6.13354">
        <ele>1799.759766</ele>
        <time>2016-08-27T09:13:26Z</time>
      </trkpt>
      <trkpt lat="45.35202" lon="6.13358">
        <ele>1801.012329</ele>
        <time>2016-08-27T09:13:31Z</time>
      </trkpt>
      <trkpt lat="45.35202" lon="6.13361">
        <ele>1802.211426</ele>
        <time>2016-08-27T09:13:36Z</time>
      </trkpt>
      <trkpt lat="45.35201" lon="6.13364">
        <ele>1803.191895</ele>
        <time>2016-08-27T09:13:41Z</time>
      </trkpt>
      <trkpt lat="45.352" lon="6.13366">
        <ele>1803.486694</ele>
        <time>2016-08-27T09:13:46Z</time>
      </trkpt>
      <trkpt lat="45.35199" lon="6.13369">
        <ele>1804.372437</ele>
        <time>2016-08-27T09:13:51Z</time>
      </trkpt>
      <trkpt lat="45.35196" lon="6.13372">
        <ele>1804.914673</ele>
        <time>2016-08-27T09:13:56Z</time>
      </trkpt>
      <trkpt lat="45.35195" lon="6.13376">
        <ele>1806.070679</ele>
        <time>2016-08-27T09:14:01Z</time>
      </trkpt>
      <trkpt lat="45.35195" lon="6.1338">
        <ele>1807.346924</ele>
        <time>2016-08-27T09:14:06Z</time>
      </trkpt>
      <trkpt lat="45.35195" lon="6.13386">
        <ele>1809.001953</ele>
        <time>2016-08-27T09:14:11Z</time>
      </trkpt>
      <trkpt lat="45.35194" lon="6.1339">
        <ele>1810.262695</ele>
        <time>2016-08-27T09:14:16Z</time>
      </trkpt>
      <trkpt lat="45.35194" lon="6.1339">
        <ele>1823</ele>
        <time>2016-08-27T09:14:16Z</time>
      </trkpt>
      <trkpt lat="45.35193" lon="6.13394">
        <ele>1821</ele>
        <time>2016-08-27T09:14:21Z</time>
      </trkpt>
      <trkpt lat="45.35193" lon="6.13397">
        <ele>1821</ele>
        <time>2016-08-27T09:14:26Z</time>
      </trkpt>
      <trkpt lat="45.35191" lon="6.134">
        <ele>1819</ele>
        <time>2016-08-27T09:14:31Z</time>
      </trkpt>
      <trkpt lat="45.35191" lon="6.13403">
        <ele>1818</ele>
        <time>2016-08-27T09:14:36Z</time>
      </trkpt>
      <trkpt lat="45.35191" lon="6.13407">
        <ele>1820</ele>
        <time>2016-08-27T09:14:41Z</time>
      </trkpt>
      <trkpt lat="45.3519" lon="6.13409">
        <ele>1818</ele>
        <time>2016-08-27T09:14:46Z</time>
      </trkpt>
      <trkpt lat="45.3519" lon="6.13412">
        <ele>1819</ele>
        <time>2016-08-27T09:14:51Z</time>
      </trkpt>
      <trkpt lat="45.35187" lon="6.13415">
        <ele>1820</ele>
        <time>2016-08-27T09:14:56Z</time>
      </trkpt>
      <trkpt lat="45.35186" lon="6.13418">
        <ele>1823</ele>
        <time>2016-08-27T09:15:01Z</time>
      </trkpt>
      <trkpt lat="45.35183" lon="6.13421">
        <ele>1825</ele>
        <time>2016-08-27T09:15:06Z</time>
      </trkpt>
      <trkpt lat="45.35182" lon="6.13425">
        <ele>1826</ele>
        <time>2016-08-27T09:15:11Z</time>
      </trkpt>
      <trkpt lat="45.3518" lon="6.13428">
        <ele>1829</ele>
        <time>2016-08-27T09:15:16Z</time>
      </trkpt>
      <trkpt lat="45.35178" lon="6.13432">
        <ele>1829</ele>
        <time>2016-08-27T09:15:21Z</time>
      </trkpt>
      <trkpt lat="45.35176" lon="6.13437">
        <ele>1829</ele>
        <time>2016-08-27T09:15:26Z</time>
      </trkpt>
      <trkpt lat="45.35173" lon="6.1344">
        <ele>1830</ele>
        <time>2016-08-27T09:15:31Z</time>
      </trkpt>
      <trkpt lat="45.3517" lon="6.13444">
        <ele>1832</ele>
        <time>2016-08-27T09:15:36Z</time>
      </trkpt>
      <trkpt lat="45.35167" lon="6.13446">
        <ele>1833</ele>
        <time>2016-08-27T09:15:41Z</time>
      </trkpt>
      <trkpt lat="45.35165" lon="6.13446">
        <ele>1833</ele>
        <time>2016-08-27T09:15:46Z</time>
      </trkpt>
      <trkpt lat="45.35164" lon="6.13445">
        <ele>1833</ele>
        <time>2016-08-27T09:15:51Z</time>
      </trkpt>
      <trkpt lat="45.35164" lon="6.13445">
        <ele>1834</ele>
        <time>2016-08-27T09:15:56Z</time>
      </trkpt>
      <trkpt lat="45.35164" lon="6.13445">
        <ele>1834</ele>
        <time>2016-08-27T09:16:01Z</time>
      </trkpt>
      <trkpt lat="45.35164" lon="6.13445">
        <ele>1834</ele>
        <time>2016-08-27T09:16:06Z</time>
      </trkpt>
      <trkpt lat="45.35164" lon="6.13445">
        <ele>1834</ele>
        <time>2016-08-27T09:16:11Z</time>
      </trkpt>
      <trkpt lat="45.35164" lon="6.13446">
        <ele>1834</ele>
        <time>2016-08-27T09:16:16Z</time>
      </trkpt>
      <trkpt lat="45.35164" lon="6.13447">
        <ele>1834</ele>
        <time>2016-08-27T09:16:21Z</time>
      </trkpt>
      <trkpt lat="45.35164" lon="6.13447">
        <ele>1834</ele>
        <time>2016-08-27T09:16:26Z</time>
      </trkpt>
      <trkpt lat="45.35161" lon="6.13448">
        <ele>1834</ele>
        <time>2016-08-27T09:16:31Z</time>
      </trkpt>
      <trkpt lat="45.35155" lon="6.13447">
        <ele>1834</ele>
        <time>2016-08-27T09:16:36Z</time>
      </trkpt>
      <trkpt lat="45.35155" lon="6.13448">
        <ele>1834</ele>
        <time>2016-08-27T09:16:41Z</time>
      </trkpt>
      <trkpt lat="45.35156" lon="6.13449">
        <ele>1835</ele>
        <time>2016-08-27T09:16:46Z</time>
      </trkpt>
      <trkpt lat="45.35154" lon="6.13452">
        <ele>1835</ele>
        <time>2016-08-27T09:16:51Z</time>
      </trkpt>
      <trkpt lat="45.35151" lon="6.13455">
        <ele>1835</ele>
        <time>2016-08-27T09:16:56Z</time>
      </trkpt>
      <trkpt lat="45.35147" lon="6.13458">
        <ele>1836</ele>
        <time>2016-08-27T09:17:01Z</time>
      </trkpt>
      <trkpt lat="45.35143" lon="6.13463">
        <ele>1833</ele>
        <time>2016-08-27T09:17:06Z</time>
      </trkpt>
      <trkpt lat="45.35139" lon="6.13467">
        <ele>1833</ele>
        <time>2016-08-27T09:17:11Z</time>
      </trkpt>
      <trkpt lat="45.35136" lon="6.1347">
        <ele>1834</ele>
        <time>2016-08-27T09:17:16Z</time>
      </trkpt>
      <trkpt lat="45.35132" lon="6.13472">
        <ele>1835</ele>
        <time>2016-08-27T09:17:21Z</time>
      </trkpt>
      <trkpt lat="45.35128" lon="6.13474">
        <ele>1833</ele>
        <time>2016-08-27T09:17:26Z</time>
      </trkpt>
      <trkpt lat="45.35124" lon="6.13475">
        <ele>1831</ele>
        <time>2016-08-27T09:17:31Z</time>
      </trkpt>
      <trkpt lat="45.35122" lon="6.13476">
        <ele>1830</ele>
        <time>2016-08-27T09:17:36Z</time>
      </trkpt>
      <trkpt lat="45.35121" lon="6.13477">
        <ele>1829</ele>
        <time>2016-08-27T09:17:41Z</time>
      </trkpt>
      <trkpt lat="45.35117" lon="6.13479">
        <ele>1828</ele>
        <time>2016-08-27T09:17:46Z</time>
      </trkpt>
      <trkpt lat="45.35114" lon="6.13479">
        <ele>1828</ele>
        <time>2016-08-27T09:17:51Z</time>
      </trkpt>
      <trkpt lat="45.35112" lon="6.13479">
        <ele>1827</ele>
        <time>2016-08-27T09:17:56Z</time>
      </trkpt>
      <trkpt lat="45.35109" lon="6.13479">
        <ele>1828</ele>
        <time>2016-08-27T09:18:01Z</time>
      </trkpt>
      <trkpt lat="45.35106" lon="6.1348">
        <ele>1828</ele>
        <time>2016-08-27T09:18:06Z</time>
      </trkpt>
      <trkpt lat="45.35103" lon="6.13479">
        <ele>1827</ele>
        <time>2016-08-27T09:18:11Z</time>
      </trkpt>
      <trkpt lat="45.35104" lon="6.13479">
        <ele>1827</ele>
        <time>2016-08-27T09:18:16Z</time>
      </trkpt>
      <trkpt lat="45.35104" lon="6.1348">
        <ele>1825</ele>
        <time>2016-08-27T09:18:21Z</time>
      </trkpt>
      <trkpt lat="45.35104" lon="6.1348">
        <ele>1824</ele>
        <time>2016-08-27T09:18:26Z</time>
      </trkpt>
      <trkpt lat="45.35101" lon="6.13481">
        <ele>1824</ele>
        <time>2016-08-27T09:18:31Z</time>
      </trkpt>
      <trkpt lat="45.35098" lon="6.13483">
        <ele>1825</ele>
        <time>2016-08-27T09:18:36Z</time>
      </trkpt>
      <trkpt lat="45.35095" lon="6.13486">
        <ele>1827</ele>
        <time>2016-08-27T09:18:41Z</time>
      </trkpt>
      <trkpt lat="45.35093" lon="6.13489">
        <ele>1828</ele>
        <time>2016-08-27T09:18:46Z</time>
      </trkpt>
      <trkpt lat="45.35091" lon="6.13493">
        <ele>1829</ele>
        <time>2016-08-27T09:18:51Z</time>
      </trkpt>
      <trkpt lat="45.35087" lon="6.13498">
        <ele>1829</ele>
        <time>2016-08-27T09:18:56Z</time>
      </trkpt>
      <trkpt lat="45.35084" lon="6.135">
        <ele>1830</ele>
        <time>2016-08-27T09:19:01Z</time>
      </trkpt>
      <trkpt lat="45.35082" lon="6.13502">
        <ele>1830</ele>
        <time>2016-08-27T09:19:06Z</time>
      </trkpt>
      <trkpt lat="45.3508" lon="6.13502">
        <ele>1830</ele>
        <time>2016-08-27T09:19:11Z</time>
      </trkpt>
      <trkpt lat="45.35076" lon="6.13503">
        <ele>1829</ele>
        <time>2016-08-27T09:19:16Z</time>
      </trkpt>
      <trkpt lat="45.35072" lon="6.13507">
        <ele>1828</ele>
        <time>2016-08-27T09:19:21Z</time>
      </trkpt>
      <trkpt lat="45.35068" lon="6.1351">
        <ele>1827</ele>
        <time>2016-08-27T09:19:26Z</time>
      </trkpt>
      <trkpt lat="45.35064" lon="6.13513">
        <ele>1826</ele>
        <time>2016-08-27T09:19:31Z</time>
      </trkpt>
      <trkpt lat="45.3506" lon="6.13516">
        <ele>1826</ele>
        <time>2016-08-27T09:19:36Z</time>
      </trkpt>
      <trkpt lat="45.35058" lon="6.1352">
        <ele>1827</ele>
        <time>2016-08-27T09:19:41Z</time>
      </trkpt>
      <trkpt lat="45.35056" lon="6.13523">
        <ele>1828</ele>
        <time>2016-08-27T09:19:46Z</time>
      </trkpt>
      <trkpt lat="45.35056" lon="6.13526">
        <ele>1830</ele>
        <time>2016-08-27T09:19:51Z</time>
      </trkpt>
      <trkpt lat="45.35056" lon="6.1353">
        <ele>1831</ele>
        <time>2016-08-27T09:19:56Z</time>
      </trkpt>
      <trkpt lat="45.35056" lon="6.13531">
        <ele>1832</ele>
        <time>2016-08-27T09:20:01Z</time>
      </trkpt>
      <trkpt lat="45.35056" lon="6.13533">
        <ele>1832</ele>
        <time>2016-08-27T09:20:06Z</time>
      </trkpt>
      <trkpt lat="45.35055" lon="6.13537">
        <ele>1833</ele>
        <time>2016-08-27T09:20:11Z</time>
      </trkpt>
      <trkpt lat="45.35054" lon="6.1354">
        <ele>1834</ele>
        <time>2016-08-27T09:20:16Z</time>
      </trkpt>
      <trkpt lat="45.35053" lon="6.13542">
        <ele>1835</ele>
        <time>2016-08-27T09:20:21Z</time>
      </trkpt>
      <trkpt lat="45.35053" lon="6.13545">
        <ele>1836</ele>
        <time>2016-08-27T09:20:26Z</time>
      </trkpt>
      <trkpt lat="45.35053" lon="6.13548">
        <ele>1837</ele>
        <time>2016-08-27T09:20:31Z</time>
      </trkpt>
      <trkpt lat="45.35053" lon="6.13549">
        <ele>1838</ele>
        <time>2016-08-27T09:20:36Z</time>
      </trkpt>
      <trkpt lat="45.35054" lon="6.1355">
        <ele>1838</ele>
        <time>2016-08-27T09:20:41Z</time>
      </trkpt>
      <trkpt lat="45.35056" lon="6.1355">
        <ele>1839</ele>
        <time>2016-08-27T09:20:46Z</time>
      </trkpt>
      <trkpt lat="45.35057" lon="6.1355">
        <ele>1843</ele>
        <time>2016-08-27T09:20:51Z</time>
      </trkpt>
      <trkpt lat="45.35056" lon="6.13551">
        <ele>1845</ele>
        <time>2016-08-27T09:20:56Z</time>
      </trkpt>
      <trkpt lat="45.35056" lon="6.13554">
        <ele>1846</ele>
        <time>2016-08-27T09:21:01Z</time>
      </trkpt>
      <trkpt lat="45.35054" lon="6.13556">
        <ele>1846</ele>
        <time>2016-08-27T09:21:06Z</time>
      </trkpt>
      <trkpt lat="45.35053" lon="6.13559">
        <ele>1847</ele>
        <time>2016-08-27T09:21:11Z</time>
      </trkpt>
      <trkpt lat="45.3505" lon="6.13559">
        <ele>1847</ele>
        <time>2016-08-27T09:21:16Z</time>
      </trkpt>
      <trkpt lat="45.35048" lon="6.13561">
        <ele>1848</ele>
        <time>2016-08-27T09:21:21Z</time>
      </trkpt>
      <trkpt lat="45.35045" lon="6.13562">
        <ele>1848</ele>
        <time>2016-08-27T09:21:26Z</time>
      </trkpt>
      <trkpt lat="45.35043" lon="6.13566">
        <ele>1849</ele>
        <time>2016-08-27T09:21:31Z</time>
      </trkpt>
      <trkpt lat="45.35043" lon="6.13568">
        <ele>1850</ele>
        <time>2016-08-27T09:21:36Z</time>
      </trkpt>
      <trkpt lat="45.35044" lon="6.1357">
        <ele>1850</ele>
        <time>2016-08-27T09:21:41Z</time>
      </trkpt>
      <trkpt lat="45.35045" lon="6.13572">
        <ele>1851</ele>
        <time>2016-08-27T09:21:46Z</time>
      </trkpt>
      <trkpt lat="45.35047" lon="6.13573">
        <ele>1851</ele>
        <time>2016-08-27T09:21:51Z</time>
      </trkpt>
      <trkpt lat="45.35048" lon="6.13575">
        <ele>1851</ele>
        <time>2016-08-27T09:21:56Z</time>
      </trkpt>
      <trkpt lat="45.35047" lon="6.13576">
        <ele>1851</ele>
        <time>2016-08-27T09:22:01Z</time>
      </trkpt>
      <trkpt lat="45.35045" lon="6.13577">
        <ele>1852</ele>
        <time>2016-08-27T09:22:06Z</time>
      </trkpt>
      <trkpt lat="45.35042" lon="6.13578">
        <ele>1853</ele>
        <time>2016-08-27T09:22:11Z</time>
      </trkpt>
      <trkpt lat="45.35039" lon="6.1358">
        <ele>1851</ele>
        <time>2016-08-27T09:22:16Z</time>
      </trkpt>
      <trkpt lat="45.35038" lon="6.13582">
        <ele>1853</ele>
        <time>2016-08-27T09:22:21Z</time>
      </trkpt>
      <trkpt lat="45.35037" lon="6.13585">
        <ele>1854</ele>
        <time>2016-08-27T09:22:26Z</time>
      </trkpt>
      <trkpt lat="45.35037" lon="6.13588">
        <ele>1855</ele>
        <time>2016-08-27T09:22:31Z</time>
      </trkpt>
      <trkpt lat="45.35034" lon="6.1359">
        <ele>1857</ele>
        <time>2016-08-27T09:22:36Z</time>
      </trkpt>
      <trkpt lat="45.3503" lon="6.13592">
        <ele>1857</ele>
        <time>2016-08-27T09:22:41Z</time>
      </trkpt>
      <trkpt lat="45.35027" lon="6.13595">
        <ele>1857</ele>
        <time>2016-08-27T09:22:46Z</time>
      </trkpt>
      <trkpt lat="45.35024" lon="6.13597">
        <ele>1857</ele>
        <time>2016-08-27T09:22:51Z</time>
      </trkpt>
      <trkpt lat="45.3502" lon="6.13601">
        <ele>1857</ele>
        <time>2016-08-27T09:22:56Z</time>
      </trkpt>
      <trkpt lat="45.35017" lon="6.13606">
        <ele>1856</ele>
        <time>2016-08-27T09:23:01Z</time>
      </trkpt>
      <trkpt lat="45.35014" lon="6.13613">
        <ele>1855</ele>
        <time>2016-08-27T09:23:06Z</time>
      </trkpt>
      <trkpt lat="45.35014" lon="6.13618">
        <ele>1854</ele>
        <time>2016-08-27T09:23:11Z</time>
      </trkpt>
      <trkpt lat="45.35012" lon="6.13624">
        <ele>1854</ele>
        <time>2016-08-27T09:23:16Z</time>
      </trkpt>
      <trkpt lat="45.35011" lon="6.13629">
        <ele>1855</ele>
        <time>2016-08-27T09:23:21Z</time>
      </trkpt>
      <trkpt lat="45.35011" lon="6.13635">
        <ele>1855</ele>
        <time>2016-08-27T09:23:26Z</time>
      </trkpt>
      <trkpt lat="45.35013" lon="6.13638">
        <ele>1856</ele>
        <time>2016-08-27T09:23:31Z</time>
      </trkpt>
      <trkpt lat="45.35014" lon="6.13641">
        <ele>1856</ele>
        <time>2016-08-27T09:23:36Z</time>
      </trkpt>
      <trkpt lat="45.35016" lon="6.13644">
        <ele>1857</ele>
        <time>2016-08-27T09:23:41Z</time>
      </trkpt>
      <trkpt lat="45.35016" lon="6.13646">
        <ele>1858</ele>
        <time>2016-08-27T09:23:46Z</time>
      </trkpt>
      <trkpt lat="45.35016" lon="6.13647">
        <ele>1857</ele>
        <time>2016-08-27T09:23:51Z</time>
      </trkpt>
      <trkpt lat="45.35017" lon="6.13647">
        <ele>1858</ele>
        <time>2016-08-27T09:23:56Z</time>
      </trkpt>
      <trkpt lat="45.35017" lon="6.13647">
        <ele>1859</ele>
        <time>2016-08-27T09:24:01Z</time>
      </trkpt>
      <trkpt lat="45.35018" lon="6.13643">
        <ele>1859</ele>
        <time>2016-08-27T09:24:06Z</time>
      </trkpt>
      <trkpt lat="45.3502" lon="6.13638">
        <ele>1858</ele>
        <time>2016-08-27T09:24:11Z</time>
      </trkpt>
      <trkpt lat="45.35022" lon="6.13632">
        <ele>1857</ele>
        <time>2016-08-27T09:24:16Z</time>
      </trkpt>
      <trkpt lat="45.35024" lon="6.13631">
        <ele>1856</ele>
        <time>2016-08-27T09:24:21Z</time>
      </trkpt>
      <trkpt lat="45.35025" lon="6.13628">
        <ele>1857</ele>
        <time>2016-08-27T09:24:26Z</time>
      </trkpt>
      <trkpt lat="45.35025" lon="6.13627">
        <ele>1857</ele>
        <time>2016-08-27T09:24:31Z</time>
      </trkpt>
      <trkpt lat="45.35026" lon="6.13625">
        <ele>1857</ele>
        <time>2016-08-27T09:24:36Z</time>
      </trkpt>
      <trkpt lat="45.35027" lon="6.13624">
        <ele>1857</ele>
        <time>2016-08-27T09:24:41Z</time>
      </trkpt>
      <trkpt lat="45.35027" lon="6.13624">
        <ele>1856</ele>
        <time>2016-08-27T09:24:46Z</time>
      </trkpt>
      <trkpt lat="45.35027" lon="6.13623">
        <ele>1856</ele>
        <time>2016-08-27T09:24:51Z</time>
      </trkpt>
      <trkpt lat="45.35027" lon="6.13622">
        <ele>1856</ele>
        <time>2016-08-27T09:24:56Z</time>
      </trkpt>
      <trkpt lat="45.35027" lon="6.13623">
        <ele>1856</ele>
        <time>2016-08-27T09:25:01Z</time>
      </trkpt>
      <trkpt lat="45.3503" lon="6.13621">
        <ele>1856</ele>
        <time>2016-08-27T09:25:06Z</time>
      </trkpt>
      <trkpt lat="45.3503" lon="6.1362">
        <ele>1857</ele>
        <time>2016-08-27T09:25:11Z</time>
      </trkpt>
      <trkpt lat="45.35032" lon="6.13617">
        <ele>1857</ele>
        <time>2016-08-27T09:25:16Z</time>
      </trkpt>
      <trkpt lat="45.35032" lon="6.13617">
        <ele>1857</ele>
        <time>2016-08-27T09:25:21Z</time>
      </trkpt>
      <trkpt lat="45.35032" lon="6.13617">
        <ele>1857</ele>
        <time>2016-08-27T09:25:26Z</time>
      </trkpt>
      <trkpt lat="45.35031" lon="6.13617">
        <ele>1856</ele>
        <time>2016-08-27T09:25:31Z</time>
      </trkpt>
      <trkpt lat="45.35031" lon="6.13617">
        <ele>1856</ele>
        <time>2016-08-27T09:25:36Z</time>
      </trkpt>
      <trkpt lat="45.35031" lon="6.13617">
        <ele>1856</ele>
        <time>2016-08-27T09:25:41Z</time>
      </trkpt>
      <trkpt lat="45.35031" lon="6.13617">
        <ele>1855</ele>
        <time>2016-08-27T09:25:46Z</time>
      </trkpt>
      <trkpt lat="45.3503" lon="6.13619">
        <ele>1855</ele>
        <time>2016-08-27T09:25:51Z</time>
      </trkpt>
      <trkpt lat="45.3503" lon="6.1362">
        <ele>1855</ele>
        <time>2016-08-27T09:25:56Z</time>
      </trkpt>
      <trkpt lat="45.3503" lon="6.13619">
        <ele>1854</ele>
        <time>2016-08-27T09:26:01Z</time>
      </trkpt>
      <trkpt lat="45.35029" lon="6.13619">
        <ele>1854</ele>
        <time>2016-08-27T09:26:06Z</time>
      </trkpt>
      <trkpt lat="45.35029" lon="6.13619">
        <ele>1855</ele>
        <time>2016-08-27T09:26:11Z</time>
      </trkpt>
      <trkpt lat="45.35029" lon="6.13619">
        <ele>1855</ele>
        <time>2016-08-27T09:26:16Z</time>
      </trkpt>
      <trkpt lat="45.35027" lon="6.13619">
        <ele>1854</ele>
        <time>2016-08-27T09:26:21Z</time>
      </trkpt>
      <trkpt lat="45.35028" lon="6.13619">
        <ele>1853</ele>
        <time>2016-08-27T09:26:26Z</time>
      </trkpt>
      <trkpt lat="45.35027" lon="6.1362">
        <ele>1853</ele>
        <time>2016-08-27T09:26:31Z</time>
      </trkpt>
      <trkpt lat="45.35025" lon="6.13622">
        <ele>1852</ele>
        <time>2016-08-27T09:26:36Z</time>
      </trkpt>
      <trkpt lat="45.35023" lon="6.13623">
        <ele>1851</ele>
        <time>2016-08-27T09:26:41Z</time>
      </trkpt>
      <trkpt lat="45.35022" lon="6.13627">
        <ele>1851</ele>
        <time>2016-08-27T09:26:46Z</time>
      </trkpt>
      <trkpt lat="45.35019" lon="6.13634">
        <ele>1850</ele>
        <time>2016-08-27T09:26:51Z</time>
      </trkpt>
      <trkpt lat="45.35017" lon="6.13635">
        <ele>1850</ele>
        <time>2016-08-27T09:26:56Z</time>
      </trkpt>
      <trkpt lat="45.35017" lon="6.13635">
        <ele>1850</ele>
        <time>2016-08-27T09:27:01Z</time>
      </trkpt>
      <trkpt lat="45.35018" lon="6.13636">
        <ele>1850</ele>
        <time>2016-08-27T09:27:06Z</time>
      </trkpt>
      <trkpt lat="45.35017" lon="6.1364">
        <ele>1851</ele>
        <time>2016-08-27T09:27:11Z</time>
      </trkpt>
      <trkpt lat="45.35015" lon="6.13646">
        <ele>1851</ele>
        <time>2016-08-27T09:27:16Z</time>
      </trkpt>
      <trkpt lat="45.35014" lon="6.13651">
        <ele>1852</ele>
        <time>2016-08-27T09:27:21Z</time>
      </trkpt>
      <trkpt lat="45.35011" lon="6.13655">
        <ele>1854</ele>
        <time>2016-08-27T09:27:26Z</time>
      </trkpt>
      <trkpt lat="45.35008" lon="6.1366">
        <ele>1854</ele>
        <time>2016-08-27T09:27:31Z</time>
      </trkpt>
      <trkpt lat="45.35007" lon="6.13664">
        <ele>1855</ele>
        <time>2016-08-27T09:27:36Z</time>
      </trkpt>
      <trkpt lat="45.35006" lon="6.13667">
        <ele>1856</ele>
        <time>2016-08-27T09:27:41Z</time>
      </trkpt>
      <trkpt lat="45.35004" lon="6.1367">
        <ele>1857</ele>
        <time>2016-08-27T09:27:46Z</time>
      </trkpt>
      <trkpt lat="45.35004" lon="6.13672">
        <ele>1859</ele>
        <time>2016-08-27T09:27:51Z</time>
      </trkpt>
      <trkpt lat="45.35004" lon="6.13674">
        <ele>1860</ele>
        <time>2016-08-27T09:27:56Z</time>
      </trkpt>
      <trkpt lat="45.35006" lon="6.13676">
        <ele>1862</ele>
        <time>2016-08-27T09:28:01Z</time>
      </trkpt>
      <trkpt lat="45.35004" lon="6.13677">
        <ele>1862</ele>
        <time>2016-08-27T09:28:06Z</time>
      </trkpt>
      <trkpt lat="45.35004" lon="6.13678">
        <ele>1863</ele>
        <time>2016-08-27T09:28:11Z</time>
      </trkpt>
      <trkpt lat="45.35006" lon="6.13679">
        <ele>1865</ele>
        <time>2016-08-27T09:28:16Z</time>
      </trkpt>
      <trkpt lat="45.35006" lon="6.13682">
        <ele>1866</ele>
        <time>2016-08-27T09:28:21Z</time>
      </trkpt>
      <trkpt lat="45.35005" lon="6.13684">
        <ele>1865</ele>
        <time>2016-08-27T09:28:26Z</time>
      </trkpt>
      <trkpt lat="45.35005" lon="6.13685">
        <ele>1865</ele>
        <time>2016-08-27T09:28:31Z</time>
      </trkpt>
      <trkpt lat="45.35005" lon="6.13686">
        <ele>1864</ele>
        <time>2016-08-27T09:28:36Z</time>
      </trkpt>
      <trkpt lat="45.35004" lon="6.13688">
        <ele>1865</ele>
        <time>2016-08-27T09:28:41Z</time>
      </trkpt>
      <trkpt lat="45.35004" lon="6.13693">
        <ele>1865</ele>
        <time>2016-08-27T09:28:46Z</time>
      </trkpt>
      <trkpt lat="45.35005" lon="6.13699">
        <ele>1865</ele>
        <time>2016-08-27T09:28:51Z</time>
      </trkpt>
      <trkpt lat="45.35005" lon="6.13705">
        <ele>1865</ele>
        <time>2016-08-27T09:28:56Z</time>
      </trkpt>
      <trkpt lat="45.35005" lon="6.13709">
        <ele>1865</ele>
        <time>2016-08-27T09:29:01Z</time>
      </trkpt>
      <trkpt lat="45.35005" lon="6.13713">
        <ele>1865</ele>
        <time>2016-08-27T09:29:06Z</time>
      </trkpt>
      <trkpt lat="45.35004" lon="6.13718">
        <ele>1865</ele>
        <time>2016-08-27T09:29:11Z</time>
      </trkpt>
      <trkpt lat="45.35004" lon="6.13722">
        <ele>1865</ele>
        <time>2016-08-27T09:29:16Z</time>
      </trkpt>
      <trkpt lat="45.35003" lon="6.13725">
        <ele>1867</ele>
        <time>2016-08-27T09:29:21Z</time>
      </trkpt>
      <trkpt lat="45.35002" lon="6.13727">
        <ele>1868</ele>
        <time>2016-08-27T09:29:26Z</time>
      </trkpt>
      <trkpt lat="45.35001" lon="6.13729">
        <ele>1868</ele>
        <time>2016-08-27T09:29:31Z</time>
      </trkpt>
      <trkpt lat="45.35001" lon="6.13733">
        <ele>1869</ele>
        <time>2016-08-27T09:29:36Z</time>
      </trkpt>
      <trkpt lat="45.35" lon="6.13737">
        <ele>1870</ele>
        <time>2016-08-27T09:29:41Z</time>
      </trkpt>
      <trkpt lat="45.34999" lon="6.1374">
        <ele>1871</ele>
        <time>2016-08-27T09:29:46Z</time>
      </trkpt>
      <trkpt lat="45.34999" lon="6.13743">
        <ele>1872</ele>
        <time>2016-08-27T09:29:51Z</time>
      </trkpt>
      <trkpt lat="45.34998" lon="6.13745">
        <ele>1872</ele>
        <time>2016-08-27T09:29:56Z</time>
      </trkpt>
      <trkpt lat="45.34998" lon="6.13748">
        <ele>1872</ele>
        <time>2016-08-27T09:30:01Z</time>
      </trkpt>
      <trkpt lat="45.34997" lon="6.1375">
        <ele>1873</ele>
        <time>2016-08-27T09:30:06Z</time>
      </trkpt>
      <trkpt lat="45.34996" lon="6.13753">
        <ele>1874</ele>
        <time>2016-08-27T09:30:11Z</time>
      </trkpt>
      <trkpt lat="45.34996" lon="6.13754">
        <ele>1875</ele>
        <time>2016-08-27T09:30:16Z</time>
      </trkpt>
      <trkpt lat="45.34996" lon="6.13756">
        <ele>1877</ele>
        <time>2016-08-27T09:30:21Z</time>
      </trkpt>
      <trkpt lat="45.34995" lon="6.13758">
        <ele>1878</ele>
        <time>2016-08-27T09:30:26Z</time>
      </trkpt>
      <trkpt lat="45.34994" lon="6.1376">
        <ele>1879</ele>
        <time>2016-08-27T09:30:31Z</time>
      </trkpt>
      <trkpt lat="45.34993" lon="6.13761">
        <ele>1879</ele>
        <time>2016-08-27T09:30:36Z</time>
      </trkpt>
      <trkpt lat="45.34992" lon="6.13763">
        <ele>1878</ele>
        <time>2016-08-27T09:30:41Z</time>
      </trkpt>
      <trkpt lat="45.34991" lon="6.13764">
        <ele>1879</ele>
        <time>2016-08-27T09:30:46Z</time>
      </trkpt>
      <trkpt lat="45.34991" lon="6.13767">
        <ele>1880</ele>
        <time>2016-08-27T09:30:51Z</time>
      </trkpt>
      <trkpt lat="45.34991" lon="6.13768">
        <ele>1881</ele>
        <time>2016-08-27T09:30:56Z</time>
      </trkpt>
      <trkpt lat="45.34991" lon="6.13771">
        <ele>1882</ele>
        <time>2016-08-27T09:31:01Z</time>
      </trkpt>
      <trkpt lat="45.34991" lon="6.13771">
        <ele>1883</ele>
        <time>2016-08-27T09:31:06Z</time>
      </trkpt>
      <trkpt lat="45.3499" lon="6.13772">
        <ele>1883</ele>
        <time>2016-08-27T09:31:11Z</time>
      </trkpt>
      <trkpt lat="45.3499" lon="6.13774">
        <ele>1884</ele>
        <time>2016-08-27T09:31:16Z</time>
      </trkpt>
      <trkpt lat="45.34989" lon="6.13775">
        <ele>1885</ele>
        <time>2016-08-27T09:31:21Z</time>
      </trkpt>
      <trkpt lat="45.34988" lon="6.13775">
        <ele>1885</ele>
        <time>2016-08-27T09:31:26Z</time>
      </trkpt>
      <trkpt lat="45.34986" lon="6.13775">
        <ele>1885</ele>
        <time>2016-08-27T09:31:31Z</time>
      </trkpt>
      <trkpt lat="45.34985" lon="6.13775">
        <ele>1886</ele>
        <time>2016-08-27T09:31:36Z</time>
      </trkpt>
      <trkpt lat="45.34984" lon="6.13775">
        <ele>1887</ele>
        <time>2016-08-27T09:31:41Z</time>
      </trkpt>
      <trkpt lat="45.34984" lon="6.13775">
        <ele>1887</ele>
        <time>2016-08-27T09:31:46Z</time>
      </trkpt>
      <trkpt lat="45.34982" lon="6.13775">
        <ele>1888</ele>
        <time>2016-08-27T09:31:51Z</time>
      </trkpt>
      <trkpt lat="45.34982" lon="6.13774">
        <ele>1889</ele>
        <time>2016-08-27T09:31:56Z</time>
      </trkpt>
      <trkpt lat="45.34981" lon="6.13772">
        <ele>1890</ele>
        <time>2016-08-27T09:32:01Z</time>
      </trkpt>
      <trkpt lat="45.3498" lon="6.13774">
        <ele>1891</ele>
        <time>2016-08-27T09:32:06Z</time>
      </trkpt>
      <trkpt lat="45.3498" lon="6.13776">
        <ele>1891</ele>
        <time>2016-08-27T09:32:11Z</time>
      </trkpt>
      <trkpt lat="45.3498" lon="6.13779">
        <ele>1892</ele>
        <time>2016-08-27T09:32:16Z</time>
      </trkpt>
      <trkpt lat="45.3498" lon="6.1378">
        <ele>1893</ele>
        <time>2016-08-27T09:32:21Z</time>
      </trkpt>
      <trkpt lat="45.3498" lon="6.13782">
        <ele>1895</ele>
        <time>2016-08-27T09:32:26Z</time>
      </trkpt>
      <trkpt lat="45.3498" lon="6.13783">
        <ele>1896</ele>
        <time>2016-08-27T09:32:31Z</time>
      </trkpt>
      <trkpt lat="45.3498" lon="6.13785">
        <ele>1897</ele>
        <time>2016-08-27T09:32:36Z</time>
      </trkpt>
      <trkpt lat="45.3498" lon="6.13787">
        <ele>1899</ele>
        <time>2016-08-27T09:32:41Z</time>
      </trkpt>
      <trkpt lat="45.3498" lon="6.13789">
        <ele>1900</ele>
        <time>2016-08-27T09:32:46Z</time>
      </trkpt>
      <trkpt lat="45.34979" lon="6.13789">
        <ele>1900</ele>
        <time>2016-08-27T09:32:51Z</time>
      </trkpt>
      <trkpt lat="45.34978" lon="6.13789">
        <ele>1900</ele>
        <time>2016-08-27T09:32:56Z</time>
      </trkpt>
      <trkpt lat="45.34977" lon="6.13788">
        <ele>1901</ele>
        <time>2016-08-27T09:33:01Z</time>
      </trkpt>
      <trkpt lat="45.34976" lon="6.13789">
        <ele>1902</ele>
        <time>2016-08-27T09:33:06Z</time>
      </trkpt>
      <trkpt lat="45.34974" lon="6.13788">
        <ele>1902</ele>
        <time>2016-08-27T09:33:11Z</time>
      </trkpt>
      <trkpt lat="45.34972" lon="6.13786">
        <ele>1903</ele>
        <time>2016-08-27T09:33:16Z</time>
      </trkpt>
      <trkpt lat="45.34971" lon="6.13786">
        <ele>1904</ele>
        <time>2016-08-27T09:33:21Z</time>
      </trkpt>
      <trkpt lat="45.34969" lon="6.13785">
        <ele>1906</ele>
        <time>2016-08-27T09:33:26Z</time>
      </trkpt>
      <trkpt lat="45.34968" lon="6.13783">
        <ele>1908</ele>
        <time>2016-08-27T09:33:31Z</time>
      </trkpt>
      <trkpt lat="45.34966" lon="6.13782">
        <ele>1911</ele>
        <time>2016-08-27T09:33:36Z</time>
      </trkpt>
      <trkpt lat="45.34965" lon="6.13782">
        <ele>1913</ele>
        <time>2016-08-27T09:33:41Z</time>
      </trkpt>
      <trkpt lat="45.34965" lon="6.13781">
        <ele>1915</ele>
        <time>2016-08-27T09:33:46Z</time>
      </trkpt>
      <trkpt lat="45.34966" lon="6.13783">
        <ele>1916</ele>
        <time>2016-08-27T09:33:51Z</time>
      </trkpt>
      <trkpt lat="45.34966" lon="6.13784">
        <ele>1917</ele>
        <time>2016-08-27T09:33:56Z</time>
      </trkpt>
      <trkpt lat="45.34965" lon="6.13783">
        <ele>1918</ele>
        <time>2016-08-27T09:34:01Z</time>
      </trkpt>
      <trkpt lat="45.34964" lon="6.13784">
        <ele>1919</ele>
        <time>2016-08-27T09:34:06Z</time>
      </trkpt>
      <trkpt lat="45.34963" lon="6.13785">
        <ele>1920</ele>
        <time>2016-08-27T09:34:11Z</time>
      </trkpt>
      <trkpt lat="45.34961" lon="6.13782">
        <ele>1921</ele>
        <time>2016-08-27T09:34:16Z</time>
      </trkpt>
      <trkpt lat="45.34962" lon="6.13785">
        <ele>1922</ele>
        <time>2016-08-27T09:34:21Z</time>
      </trkpt>
      <trkpt lat="45.34962" lon="6.13786">
        <ele>1923</ele>
        <time>2016-08-27T09:34:26Z</time>
      </trkpt>
      <trkpt lat="45.34961" lon="6.13788">
        <ele>1924</ele>
        <time>2016-08-27T09:34:31Z</time>
      </trkpt>
      <trkpt lat="45.34961" lon="6.1379">
        <ele>1925</ele>
        <time>2016-08-27T09:34:36Z</time>
      </trkpt>
      <trkpt lat="45.34959" lon="6.13791">
        <ele>1925</ele>
        <time>2016-08-27T09:34:41Z</time>
      </trkpt>
      <trkpt lat="45.34958" lon="6.13792">
        <ele>1926</ele>
        <time>2016-08-27T09:34:46Z</time>
      </trkpt>
      <trkpt lat="45.34957" lon="6.13793">
        <ele>1927</ele>
        <time>2016-08-27T09:34:51Z</time>
      </trkpt>
      <trkpt lat="45.34956" lon="6.13795">
        <ele>1928</ele>
        <time>2016-08-27T09:34:56Z</time>
      </trkpt>
      <trkpt lat="45.34955" lon="6.13795">
        <ele>1929</ele>
        <time>2016-08-27T09:35:01Z</time>
      </trkpt>
      <trkpt lat="45.34954" lon="6.13796">
        <ele>1930</ele>
        <time>2016-08-27T09:35:06Z</time>
      </trkpt>
      <trkpt lat="45.34953" lon="6.13797">
        <ele>1930</ele>
        <time>2016-08-27T09:35:11Z</time>
      </trkpt>
      <trkpt lat="45.34952" lon="6.13798">
        <ele>1930</ele>
        <time>2016-08-27T09:35:16Z</time>
      </trkpt>
      <trkpt lat="45.34951" lon="6.13799">
        <ele>1929</ele>
        <time>2016-08-27T09:35:21Z</time>
      </trkpt>
      <trkpt lat="45.34949" lon="6.13799">
        <ele>1928</ele>
        <time>2016-08-27T09:35:26Z</time>
      </trkpt>
      <trkpt lat="45.34948" lon="6.13799">
        <ele>1928</ele>
        <time>2016-08-27T09:35:31Z</time>
      </trkpt>
      <trkpt lat="45.34948" lon="6.13797">
        <ele>1928</ele>
        <time>2016-08-27T09:35:36Z</time>
      </trkpt>
      <trkpt lat="45.34948" lon="6.13796">
        <ele>1929</ele>
        <time>2016-08-27T09:35:41Z</time>
      </trkpt>
      <trkpt lat="45.34948" lon="6.13794">
        <ele>1929</ele>
        <time>2016-08-27T09:35:46Z</time>
      </trkpt>
      <trkpt lat="45.34949" lon="6.13793">
        <ele>1930</ele>
        <time>2016-08-27T09:35:51Z</time>
      </trkpt>
      <trkpt lat="45.34949" lon="6.13792">
        <ele>1931</ele>
        <time>2016-08-27T09:35:56Z</time>
      </trkpt>
      <trkpt lat="45.34948" lon="6.13791">
        <ele>1931</ele>
        <time>2016-08-27T09:36:01Z</time>
      </trkpt>
      <trkpt lat="45.34949" lon="6.13791">
        <ele>1931</ele>
        <time>2016-08-27T09:36:06Z</time>
      </trkpt>
      <trkpt lat="45.34949" lon="6.13791">
        <ele>1933</ele>
        <time>2016-08-27T09:36:11Z</time>
      </trkpt>
      <trkpt lat="45.34948" lon="6.1379">
        <ele>1933</ele>
        <time>2016-08-27T09:36:16Z</time>
      </trkpt>
      <trkpt lat="45.34946" lon="6.13792">
        <ele>1932</ele>
        <time>2016-08-27T09:36:21Z</time>
      </trkpt>
      <trkpt lat="45.34945" lon="6.13794">
        <ele>1932</ele>
        <time>2016-08-27T09:36:26Z</time>
      </trkpt>
      <trkpt lat="45.34943" lon="6.13796">
        <ele>1931</ele>
        <time>2016-08-27T09:36:31Z</time>
      </trkpt>
      <trkpt lat="45.34943" lon="6.13797">
        <ele>1932</ele>
        <time>2016-08-27T09:36:36Z</time>
      </trkpt>
      <trkpt lat="45.34943" lon="6.13798">
        <ele>1933</ele>
        <time>2016-08-27T09:36:41Z</time>
      </trkpt>
      <trkpt lat="45.34944" lon="6.138">
        <ele>1935</ele>
        <time>2016-08-27T09:36:46Z</time>
      </trkpt>
      <trkpt lat="45.34944" lon="6.13802">
        <ele>1935</ele>
        <time>2016-08-27T09:36:51Z</time>
      </trkpt>
      <trkpt lat="45.34943" lon="6.13803">
        <ele>1936</ele>
        <time>2016-08-27T09:36:56Z</time>
      </trkpt>
      <trkpt lat="45.34942" lon="6.13805">
        <ele>1937</ele>
        <time>2016-08-27T09:37:01Z</time>
      </trkpt>
      <trkpt lat="45.34942" lon="6.13808">
        <ele>1938</ele>
        <time>2016-08-27T09:37:06Z</time>
      </trkpt>
      <trkpt lat="45.34943" lon="6.13809">
        <ele>1938</ele>
        <time>2016-08-27T09:37:11Z</time>
      </trkpt>
      <trkpt lat="45.34943" lon="6.1381">
        <ele>1939</ele>
        <time>2016-08-27T09:37:16Z</time>
      </trkpt>
      <trkpt lat="45.34943" lon="6.1381">
        <ele>1938</ele>
        <time>2016-08-27T09:37:21Z</time>
      </trkpt>
      <trkpt lat="45.34942" lon="6.1381">
        <ele>1938</ele>
        <time>2016-08-27T09:37:26Z</time>
      </trkpt>
      <trkpt lat="45.34942" lon="6.1381">
        <ele>1938</ele>
        <time>2016-08-27T09:37:31Z</time>
      </trkpt>
      <trkpt lat="45.34942" lon="6.13811">
        <ele>1938</ele>
        <time>2016-08-27T09:37:36Z</time>
      </trkpt>
      <trkpt lat="45.34941" lon="6.13811">
        <ele>1939</ele>
        <time>2016-08-27T09:37:41Z</time>
      </trkpt>
      <trkpt lat="45.34939" lon="6.13812">
        <ele>1940</ele>
        <time>2016-08-27T09:37:46Z</time>
      </trkpt>
      <trkpt lat="45.34938" lon="6.13813">
        <ele>1940</ele>
        <time>2016-08-27T09:37:51Z</time>
      </trkpt>
      <trkpt lat="45.34938" lon="6.13814">
        <ele>1941</ele>
        <time>2016-08-27T09:37:56Z</time>
      </trkpt>
      <trkpt lat="45.34936" lon="6.13815">
        <ele>1941</ele>
        <time>2016-08-27T09:38:01Z</time>
      </trkpt>
      <trkpt lat="45.34936" lon="6.13815">
        <ele>1942</ele>
        <time>2016-08-27T09:38:06Z</time>
      </trkpt>
      <trkpt lat="45.34934" lon="6.13815">
        <ele>1943</ele>
        <time>2016-08-27T09:38:11Z</time>
      </trkpt>
      <trkpt lat="45.34933" lon="6.13815">
        <ele>1943</ele>
        <time>2016-08-27T09:38:16Z</time>
      </trkpt>
      <trkpt lat="45.34932" lon="6.13816">
        <ele>1944</ele>
        <time>2016-08-27T09:38:21Z</time>
      </trkpt>
      <trkpt lat="45.34931" lon="6.13817">
        <ele>1946</ele>
        <time>2016-08-27T09:38:26Z</time>
      </trkpt>
      <trkpt lat="45.3493" lon="6.13816">
        <ele>1947</ele>
        <time>2016-08-27T09:38:31Z</time>
      </trkpt>
      <trkpt lat="45.3493" lon="6.13817">
        <ele>1947</ele>
        <time>2016-08-27T09:38:36Z</time>
      </trkpt>
      <trkpt lat="45.3493" lon="6.13818">
        <ele>1946</ele>
        <time>2016-08-27T09:38:41Z</time>
      </trkpt>
      <trkpt lat="45.34931" lon="6.13818">
        <ele>1946</ele>
        <time>2016-08-27T09:38:46Z</time>
      </trkpt>
      <trkpt lat="45.34931" lon="6.13819">
        <ele>1946</ele>
        <time>2016-08-27T09:38:51Z</time>
      </trkpt>
      <trkpt lat="45.34931" lon="6.13819">
        <ele>1945</ele>
        <time>2016-08-27T09:38:56Z</time>
      </trkpt>
      <trkpt lat="45.34929" lon="6.13818">
        <ele>1946</ele>
        <time>2016-08-27T09:39:01Z</time>
      </trkpt>
      <trkpt lat="45.34927" lon="6.13817">
        <ele>1948</ele>
        <time>2016-08-27T09:39:06Z</time>
      </trkpt>
      <trkpt lat="45.34926" lon="6.13814">
        <ele>1949</ele>
        <time>2016-08-27T09:39:11Z</time>
      </trkpt>
      <trkpt lat="45.34925" lon="6.13812">
        <ele>1950</ele>
        <time>2016-08-27T09:39:16Z</time>
      </trkpt>
      <trkpt lat="45.34926" lon="6.13807">
        <ele>1952</ele>
        <time>2016-08-27T09:39:21Z</time>
      </trkpt>
      <trkpt lat="45.34925" lon="6.13804">
        <ele>1953</ele>
        <time>2016-08-27T09:39:26Z</time>
      </trkpt>
      <trkpt lat="45.34924" lon="6.13803">
        <ele>1953</ele>
        <time>2016-08-27T09:39:31Z</time>
      </trkpt>
      <trkpt lat="45.34922" lon="6.13803">
        <ele>1954</ele>
        <time>2016-08-27T09:39:36Z</time>
      </trkpt>
      <trkpt lat="45.34921" lon="6.13804">
        <ele>1954</ele>
        <time>2016-08-27T09:39:41Z</time>
      </trkpt>
      <trkpt lat="45.3492" lon="6.13805">
        <ele>1955</ele>
        <time>2016-08-27T09:39:46Z</time>
      </trkpt>
      <trkpt lat="45.34918" lon="6.13805">
        <ele>1955</ele>
        <time>2016-08-27T09:39:51Z</time>
      </trkpt>
      <trkpt lat="45.34916" lon="6.13805">
        <ele>1955</ele>
        <time>2016-08-27T09:39:56Z</time>
      </trkpt>
      <trkpt lat="45.34915" lon="6.13805">
        <ele>1956</ele>
        <time>2016-08-27T09:40:01Z</time>
      </trkpt>
      <trkpt lat="45.34914" lon="6.13804">
        <ele>1956</ele>
        <time>2016-08-27T09:40:06Z</time>
      </trkpt>
      <trkpt lat="45.34913" lon="6.13804">
        <ele>1956</ele>
        <time>2016-08-27T09:40:11Z</time>
      </trkpt>
      <trkpt lat="45.34911" lon="6.13805">
        <ele>1957</ele>
        <time>2016-08-27T09:40:16Z</time>
      </trkpt>
      <trkpt lat="45.34911" lon="6.13806">
        <ele>1957</ele>
        <time>2016-08-27T09:40:21Z</time>
      </trkpt>
      <trkpt lat="45.34911" lon="6.13806">
        <ele>1957</ele>
        <time>2016-08-27T09:40:26Z</time>
      </trkpt>
      <trkpt lat="45.34911" lon="6.13808">
        <ele>1958</ele>
        <time>2016-08-27T09:40:31Z</time>
      </trkpt>
      <trkpt lat="45.3491" lon="6.13809">
        <ele>1959</ele>
        <time>2016-08-27T09:40:36Z</time>
      </trkpt>
      <trkpt lat="45.3491" lon="6.1381">
        <ele>1961</ele>
        <time>2016-08-27T09:40:41Z</time>
      </trkpt>
      <trkpt lat="45.34908" lon="6.13811">
        <ele>1961</ele>
        <time>2016-08-27T09:40:46Z</time>
      </trkpt>
      <trkpt lat="45.34906" lon="6.13811">
        <ele>1963</ele>
        <time>2016-08-27T09:40:51Z</time>
      </trkpt>
      <trkpt lat="45.34905" lon="6.1381">
        <ele>1966</ele>
        <time>2016-08-27T09:40:56Z</time>
      </trkpt>
      <trkpt lat="45.34904" lon="6.13812">
        <ele>1966</ele>
        <time>2016-08-27T09:41:01Z</time>
      </trkpt>
      <trkpt lat="45.34904" lon="6.13811">
        <ele>1966</ele>
        <time>2016-08-27T09:41:06Z</time>
      </trkpt>
      <trkpt lat="45.34904" lon="6.13812">
        <ele>1967</ele>
        <time>2016-08-27T09:41:11Z</time>
      </trkpt>
      <trkpt lat="45.34904" lon="6.13813">
        <ele>1967</ele>
        <time>2016-08-27T09:41:16Z</time>
      </trkpt>
      <trkpt lat="45.34903" lon="6.13816">
        <ele>1967</ele>
        <time>2016-08-27T09:41:21Z</time>
      </trkpt>
      <trkpt lat="45.34902" lon="6.13817">
        <ele>1968</ele>
        <time>2016-08-27T09:41:26Z</time>
      </trkpt>
      <trkpt lat="45.34902" lon="6.13819">
        <ele>1969</ele>
        <time>2016-08-27T09:41:31Z</time>
      </trkpt>
      <trkpt lat="45.349" lon="6.1382">
        <ele>1971</ele>
        <time>2016-08-27T09:41:36Z</time>
      </trkpt>
      <trkpt lat="45.34899" lon="6.1382">
        <ele>1973</ele>
        <time>2016-08-27T09:41:41Z</time>
      </trkpt>
      <trkpt lat="45.34898" lon="6.13821">
        <ele>1974</ele>
        <time>2016-08-27T09:41:46Z</time>
      </trkpt>
      <trkpt lat="45.34897" lon="6.13823">
        <ele>1976</ele>
        <time>2016-08-27T09:41:51Z</time>
      </trkpt>
      <trkpt lat="45.34896" lon="6.13824">
        <ele>1978</ele>
        <time>2016-08-27T09:41:56Z</time>
      </trkpt>
      <trkpt lat="45.34895" lon="6.13826">
        <ele>1980</ele>
        <time>2016-08-27T09:42:01Z</time>
      </trkpt>
      <trkpt lat="45.34893" lon="6.13829">
        <ele>1980</ele>
        <time>2016-08-27T09:42:06Z</time>
      </trkpt>
      <trkpt lat="45.34893" lon="6.13833">
        <ele>1979</ele>
        <time>2016-08-27T09:42:11Z</time>
      </trkpt>
      <trkpt lat="45.34892" lon="6.13836">
        <ele>1979</ele>
        <time>2016-08-27T09:42:16Z</time>
      </trkpt>
      <trkpt lat="45.34892" lon="6.13838">
        <ele>1979</ele>
        <time>2016-08-27T09:42:21Z</time>
      </trkpt>
      <trkpt lat="45.34892" lon="6.13839">
        <ele>1977</ele>
        <time>2016-08-27T09:42:26Z</time>
      </trkpt>
      <trkpt lat="45.34893" lon="6.13842">
        <ele>1975</ele>
        <time>2016-08-27T09:42:31Z</time>
      </trkpt>
      <trkpt lat="45.34892" lon="6.13843">
        <ele>1969</ele>
        <time>2016-08-27T09:47:01Z</time>
      </trkpt>
      <trkpt lat="45.3489" lon="6.13844">
        <ele>1971</ele>
        <time>2016-08-27T09:47:06Z</time>
      </trkpt>
      <trkpt lat="45.34888" lon="6.13845">
        <ele>1974</ele>
        <time>2016-08-27T09:47:11Z</time>
      </trkpt>
      <trkpt lat="45.34887" lon="6.13845">
        <ele>1977</ele>
        <time>2016-08-27T09:47:16Z</time>
      </trkpt>
      <trkpt lat="45.34886" lon="6.13847">
        <ele>1979</ele>
        <time>2016-08-27T09:47:21Z</time>
      </trkpt>
      <trkpt lat="45.34885" lon="6.13849">
        <ele>1980</ele>
        <time>2016-08-27T09:47:26Z</time>
      </trkpt>
      <trkpt lat="45.34885" lon="6.13851">
        <ele>1982</ele>
        <time>2016-08-27T09:47:31Z</time>
      </trkpt>
      <trkpt lat="45.34884" lon="6.13852">
        <ele>1983</ele>
        <time>2016-08-27T09:47:36Z</time>
      </trkpt>
      <trkpt lat="45.34883" lon="6.13853">
        <ele>1986</ele>
        <time>2016-08-27T09:47:41Z</time>
      </trkpt>
      <trkpt lat="45.34882" lon="6.13856">
        <ele>1986</ele>
        <time>2016-08-27T09:47:46Z</time>
      </trkpt>
      <trkpt lat="45.34882" lon="6.13859">
        <ele>1986</ele>
        <time>2016-08-27T09:47:51Z</time>
      </trkpt>
      <trkpt lat="45.34881" lon="6.13862">
        <ele>1986</ele>
        <time>2016-08-27T09:47:56Z</time>
      </trkpt>
      <trkpt lat="45.3488" lon="6.13864">
        <ele>1986</ele>
        <time>2016-08-27T09:48:01Z</time>
      </trkpt>
      <trkpt lat="45.34879" lon="6.13866">
        <ele>1986</ele>
        <time>2016-08-27T09:48:06Z</time>
      </trkpt>
      <trkpt lat="45.34879" lon="6.13868">
        <ele>1987</ele>
        <time>2016-08-27T09:48:11Z</time>
      </trkpt>
      <trkpt lat="45.34877" lon="6.13869">
        <ele>1988</ele>
        <time>2016-08-27T09:48:16Z</time>
      </trkpt>
      <trkpt lat="45.34876" lon="6.13871">
        <ele>1989</ele>
        <time>2016-08-27T09:48:21Z</time>
      </trkpt>
      <trkpt lat="45.34875" lon="6.13874">
        <ele>1989</ele>
        <time>2016-08-27T09:48:26Z</time>
      </trkpt>
      <trkpt lat="45.34874" lon="6.13876">
        <ele>1990</ele>
        <time>2016-08-27T09:48:31Z</time>
      </trkpt>
      <trkpt lat="45.34874" lon="6.13878">
        <ele>1991</ele>
        <time>2016-08-27T09:48:36Z</time>
      </trkpt>
      <trkpt lat="45.34873" lon="6.13879">
        <ele>1992</ele>
        <time>2016-08-27T09:48:41Z</time>
      </trkpt>
      <trkpt lat="45.34871" lon="6.13881">
        <ele>1993</ele>
        <time>2016-08-27T09:48:46Z</time>
      </trkpt>
      <trkpt lat="45.34871" lon="6.13883">
        <ele>1994</ele>
        <time>2016-08-27T09:48:51Z</time>
      </trkpt>
      <trkpt lat="45.34871" lon="6.13885">
        <ele>1995</ele>
        <time>2016-08-27T09:48:56Z</time>
      </trkpt>
      <trkpt lat="45.3487" lon="6.13887">
        <ele>1996</ele>
        <time>2016-08-27T09:49:01Z</time>
      </trkpt>
      <trkpt lat="45.34869" lon="6.13889">
        <ele>1996</ele>
        <time>2016-08-27T09:49:06Z</time>
      </trkpt>
      <trkpt lat="45.34868" lon="6.13889">
        <ele>1999</ele>
        <time>2016-08-27T09:49:11Z</time>
      </trkpt>
      <trkpt lat="45.34867" lon="6.1389">
        <ele>2000</ele>
        <time>2016-08-27T09:49:16Z</time>
      </trkpt>
      <trkpt lat="45.34866" lon="6.13892">
        <ele>2000</ele>
        <time>2016-08-27T09:49:21Z</time>
      </trkpt>
      <trkpt lat="45.34866" lon="6.13893">
        <ele>2001</ele>
        <time>2016-08-27T09:49:26Z</time>
      </trkpt>
      <trkpt lat="45.34866" lon="6.13894">
        <ele>2003</ele>
        <time>2016-08-27T09:49:31Z</time>
      </trkpt>
      <trkpt lat="45.34867" lon="6.13896">
        <ele>2001</ele>
        <time>2016-08-27T09:49:36Z</time>
      </trkpt>
      <trkpt lat="45.34867" lon="6.13897">
        <ele>2000</ele>
        <time>2016-08-27T09:49:41Z</time>
      </trkpt>
      <trkpt lat="45.34867" lon="6.13897">
        <ele>2000</ele>
        <time>2016-08-27T09:49:46Z</time>
      </trkpt>
      <trkpt lat="45.34867" lon="6.13897">
        <ele>2000</ele>
        <time>2016-08-27T09:49:51Z</time>
      </trkpt>
      <trkpt lat="45.34868" lon="6.13898">
        <ele>2000</ele>
        <time>2016-08-27T09:49:56Z</time>
      </trkpt>
      <trkpt lat="45.34869" lon="6.13899">
        <ele>1999</ele>
        <time>2016-08-27T09:50:01Z</time>
      </trkpt>
      <trkpt lat="45.34869" lon="6.13899">
        <ele>1999</ele>
        <time>2016-08-27T09:50:06Z</time>
      </trkpt>
      <trkpt lat="45.34871" lon="6.13899">
        <ele>2000</ele>
        <time>2016-08-27T09:50:11Z</time>
      </trkpt>
      <trkpt lat="45.34874" lon="6.13899">
        <ele>2002</ele>
        <time>2016-08-27T09:50:16Z</time>
      </trkpt>
      <trkpt lat="45.34874" lon="6.13898">
        <ele>2002</ele>
        <time>2016-08-27T09:50:21Z</time>
      </trkpt>
      <trkpt lat="45.34875" lon="6.13898">
        <ele>2004</ele>
        <time>2016-08-27T09:50:26Z</time>
      </trkpt>
      <trkpt lat="45.34877" lon="6.13899">
        <ele>2002</ele>
        <time>2016-08-27T09:50:31Z</time>
      </trkpt>
      <trkpt lat="45.3488" lon="6.13902">
        <ele>2001</ele>
        <time>2016-08-27T09:50:36Z</time>
      </trkpt>
      <trkpt lat="45.34882" lon="6.13903">
        <ele>2001</ele>
        <time>2016-08-27T09:50:41Z</time>
      </trkpt>
      <trkpt lat="45.34884" lon="6.13905">
        <ele>2001</ele>
        <time>2016-08-27T09:50:46Z</time>
      </trkpt>
      <trkpt lat="45.34885" lon="6.13906">
        <ele>2002</ele>
        <time>2016-08-27T09:50:51Z</time>
      </trkpt>
      <trkpt lat="45.34887" lon="6.13907">
        <ele>2003</ele>
        <time>2016-08-27T09:50:56Z</time>
      </trkpt>
      <trkpt lat="45.34889" lon="6.13906">
        <ele>2004</ele>
        <time>2016-08-27T09:51:01Z</time>
      </trkpt>
      <trkpt lat="45.34891" lon="6.13907">
        <ele>2006</ele>
        <time>2016-08-27T09:51:06Z</time>
      </trkpt>
      <trkpt lat="45.34894" lon="6.13906">
        <ele>2006</ele>
        <time>2016-08-27T09:51:11Z</time>
      </trkpt>
      <trkpt lat="45.34897" lon="6.13907">
        <ele>2007</ele>
        <time>2016-08-27T09:51:16Z</time>
      </trkpt>
      <trkpt lat="45.34895" lon="6.13908">
        <ele>2008</ele>
        <time>2016-08-27T09:51:21Z</time>
      </trkpt>
      <trkpt lat="45.34894" lon="6.13911">
        <ele>2009</ele>
        <time>2016-08-27T09:51:26Z</time>
      </trkpt>
      <trkpt lat="45.34892" lon="6.13913">
        <ele>2010</ele>
        <time>2016-08-27T09:51:31Z</time>
      </trkpt>
      <trkpt lat="45.34892" lon="6.13916">
        <ele>2010</ele>
        <time>2016-08-27T09:51:36Z</time>
      </trkpt>
      <trkpt lat="45.3489" lon="6.13917">
        <ele>2011</ele>
        <time>2016-08-27T09:51:41Z</time>
      </trkpt>
      <trkpt lat="45.34889" lon="6.13917">
        <ele>2013</ele>
        <time>2016-08-27T09:51:46Z</time>
      </trkpt>
      <trkpt lat="45.34888" lon="6.13918">
        <ele>2015</ele>
        <time>2016-08-27T09:51:51Z</time>
      </trkpt>
      <trkpt lat="45.34889" lon="6.13919">
        <ele>2016</ele>
        <time>2016-08-27T09:51:56Z</time>
      </trkpt>
      <trkpt lat="45.34887" lon="6.13921">
        <ele>2017</ele>
        <time>2016-08-27T09:52:01Z</time>
      </trkpt>
      <trkpt lat="45.34886" lon="6.13923">
        <ele>2018</ele>
        <time>2016-08-27T09:52:06Z</time>
      </trkpt>
      <trkpt lat="45.34884" lon="6.13922">
        <ele>2018</ele>
        <time>2016-08-27T09:52:11Z</time>
      </trkpt>
      <trkpt lat="45.34881" lon="6.13924">
        <ele>2019</ele>
        <time>2016-08-27T09:52:16Z</time>
      </trkpt>
      <trkpt lat="45.3488" lon="6.13926">
        <ele>2020</ele>
        <time>2016-08-27T09:52:21Z</time>
      </trkpt>
      <trkpt lat="45.3488" lon="6.13927">
        <ele>2021</ele>
        <time>2016-08-27T09:52:26Z</time>
      </trkpt>
      <trkpt lat="45.34879" lon="6.1393">
        <ele>2021</ele>
        <time>2016-08-27T09:52:31Z</time>
      </trkpt>
      <trkpt lat="45.34877" lon="6.13932">
        <ele>2022</ele>
        <time>2016-08-27T09:52:36Z</time>
      </trkpt>
      <trkpt lat="45.34876" lon="6.13934">
        <ele>2023</ele>
        <time>2016-08-27T09:52:41Z</time>
      </trkpt>
      <trkpt lat="45.34874" lon="6.13936">
        <ele>2025</ele>
        <time>2016-08-27T09:52:46Z</time>
      </trkpt>
      <trkpt lat="45.34874" lon="6.13938">
        <ele>2026</ele>
        <time>2016-08-27T09:52:51Z</time>
      </trkpt>
      <trkpt lat="45.34873" lon="6.13939">
        <ele>2028</ele>
        <time>2016-08-27T09:52:56Z</time>
      </trkpt>
      <trkpt lat="45.34872" lon="6.13942">
        <ele>2026</ele>
        <time>2016-08-27T09:53:01Z</time>
      </trkpt>
      <trkpt lat="45.3487" lon="6.13944">
        <ele>2025</ele>
        <time>2016-08-27T09:53:06Z</time>
      </trkpt>
      <trkpt lat="45.34869" lon="6.13945">
        <ele>2023</ele>
        <time>2016-08-27T09:53:11Z</time>
      </trkpt>
      <trkpt lat="45.34869" lon="6.13946">
        <ele>2023</ele>
        <time>2016-08-27T09:53:16Z</time>
      </trkpt>
      <trkpt lat="45.34869" lon="6.13946">
        <ele>2023</ele>
        <time>2016-08-27T09:53:21Z</time>
      </trkpt>
      <trkpt lat="45.34869" lon="6.13946">
        <ele>2023</ele>
        <time>2016-08-27T09:53:26Z</time>
      </trkpt>
      <trkpt lat="45.34866" lon="6.13947">
        <ele>2024</ele>
        <time>2016-08-27T09:53:31Z</time>
      </trkpt>
      <trkpt lat="45.34862" lon="6.13947">
        <ele>2025</ele>
        <time>2016-08-27T09:53:36Z</time>
      </trkpt>
      <trkpt lat="45.3486" lon="6.13947">
        <ele>2026</ele>
        <time>2016-08-27T09:53:41Z</time>
      </trkpt>
      <trkpt lat="45.34858" lon="6.13949">
        <ele>2027</ele>
        <time>2016-08-27T09:53:46Z</time>
      </trkpt>
      <trkpt lat="45.34856" lon="6.13948">
        <ele>2028</ele>
        <time>2016-08-27T09:53:51Z</time>
      </trkpt>
      <trkpt lat="45.34854" lon="6.13947">
        <ele>2029</ele>
        <time>2016-08-27T09:53:56Z</time>
      </trkpt>
      <trkpt lat="45.34852" lon="6.1395">
        <ele>2029</ele>
        <time>2016-08-27T09:54:01Z</time>
      </trkpt>
      <trkpt lat="45.3485" lon="6.13954">
        <ele>2030</ele>
        <time>2016-08-27T09:54:06Z</time>
      </trkpt>
      <trkpt lat="45.34847" lon="6.13958">
        <ele>2031</ele>
        <time>2016-08-27T09:54:11Z</time>
      </trkpt>
      <trkpt lat="45.34844" lon="6.13961">
        <ele>2032</ele>
        <time>2016-08-27T09:54:16Z</time>
      </trkpt>
      <trkpt lat="45.34841" lon="6.13963">
        <ele>2034</ele>
        <time>2016-08-27T09:54:21Z</time>
      </trkpt>
      <trkpt lat="45.34838" lon="6.13966">
        <ele>2035</ele>
        <time>2016-08-27T09:54:26Z</time>
      </trkpt>
      <trkpt lat="45.34836" lon="6.13969">
        <ele>2036</ele>
        <time>2016-08-27T09:54:31Z</time>
      </trkpt>
      <trkpt lat="45.34833" lon="6.13971">
        <ele>2037</ele>
        <time>2016-08-27T09:54:36Z</time>
      </trkpt>
      <trkpt lat="45.34829" lon="6.13974">
        <ele>2037</ele>
        <time>2016-08-27T09:54:41Z</time>
      </trkpt>
      <trkpt lat="45.34827" lon="6.13977">
        <ele>2036</ele>
        <time>2016-08-27T09:54:46Z</time>
      </trkpt>
      <trkpt lat="45.34823" lon="6.13977">
        <ele>2040</ele>
        <time>2016-08-27T09:54:51Z</time>
      </trkpt>
      <trkpt lat="45.34821" lon="6.13976">
        <ele>2044</ele>
        <time>2016-08-27T09:54:56Z</time>
      </trkpt>
      <trkpt lat="45.34817" lon="6.13975">
        <ele>2047</ele>
        <time>2016-08-27T09:55:01Z</time>
      </trkpt>
      <trkpt lat="45.34814" lon="6.13976">
        <ele>2048</ele>
        <time>2016-08-27T09:55:06Z</time>
      </trkpt>
      <trkpt lat="45.34815" lon="6.13978">
        <ele>2046</ele>
        <time>2016-08-27T09:55:11Z</time>
      </trkpt>
      <trkpt lat="45.34816" lon="6.13981">
        <ele>2045</ele>
        <time>2016-08-27T09:55:16Z</time>
      </trkpt>
      <trkpt lat="45.34816" lon="6.13981">
        <ele>2044</ele>
        <time>2016-08-27T09:55:21Z</time>
      </trkpt>
      <trkpt lat="45.34815" lon="6.13984">
        <ele>2043</ele>
        <time>2016-08-27T09:55:26Z</time>
      </trkpt>
      <trkpt lat="45.34816" lon="6.13985">
        <ele>2042</ele>
        <time>2016-08-27T09:55:31Z</time>
      </trkpt>
      <trkpt lat="45.34814" lon="6.13987">
        <ele>2041</ele>
        <time>2016-08-27T09:55:36Z</time>
      </trkpt>
      <trkpt lat="45.34812" lon="6.13991">
        <ele>2041</ele>
        <time>2016-08-27T09:55:41Z</time>
      </trkpt>
      <trkpt lat="45.3481" lon="6.13994">
        <ele>2042</ele>
        <time>2016-08-27T09:55:46Z</time>
      </trkpt>
      <trkpt lat="45.34808" lon="6.13997">
        <ele>2042</ele>
        <time>2016-08-27T09:55:51Z</time>
      </trkpt>
      <trkpt lat="45.34807" lon="6.13999">
        <ele>2043</ele>
        <time>2016-08-27T09:55:56Z</time>
      </trkpt>
      <trkpt lat="45.34805" lon="6.14001">
        <ele>2044</ele>
        <time>2016-08-27T09:56:01Z</time>
      </trkpt>
      <trkpt lat="45.34802" lon="6.14002">
        <ele>2045</ele>
        <time>2016-08-27T09:56:06Z</time>
      </trkpt>
      <trkpt lat="45.34799" lon="6.14005">
        <ele>2045</ele>
        <time>2016-08-27T09:56:11Z</time>
      </trkpt>
      <trkpt lat="45.34799" lon="6.14005">
        <ele>2047</ele>
        <time>2016-08-27T09:56:16Z</time>
      </trkpt>
      <trkpt lat="45.34797" lon="6.14006">
        <ele>2046</ele>
        <time>2016-08-27T09:56:21Z</time>
      </trkpt>
      <trkpt lat="45.34795" lon="6.14009">
        <ele>2047</ele>
        <time>2016-08-27T09:56:26Z</time>
      </trkpt>
      <trkpt lat="45.34793" lon="6.1401">
        <ele>2049</ele>
        <time>2016-08-27T09:56:31Z</time>
      </trkpt>
      <trkpt lat="45.34792" lon="6.14013">
        <ele>2049</ele>
        <time>2016-08-27T09:56:36Z</time>
      </trkpt>
      <trkpt lat="45.34791" lon="6.14017">
        <ele>2049</ele>
        <time>2016-08-27T09:56:41Z</time>
      </trkpt>
      <trkpt lat="45.34788" lon="6.14019">
        <ele>2049</ele>
        <time>2016-08-27T09:56:46Z</time>
      </trkpt>
      <trkpt lat="45.34785" lon="6.1402">
        <ele>2050</ele>
        <time>2016-08-27T09:56:51Z</time>
      </trkpt>
      <trkpt lat="45.34783" lon="6.14022">
        <ele>2051</ele>
        <time>2016-08-27T09:56:56Z</time>
      </trkpt>
      <trkpt lat="45.34781" lon="6.14024">
        <ele>2051</ele>
        <time>2016-08-27T09:57:01Z</time>
      </trkpt>
      <trkpt lat="45.34779" lon="6.14025">
        <ele>2052</ele>
        <time>2016-08-27T09:57:06Z</time>
      </trkpt>
      <trkpt lat="45.34776" lon="6.14027">
        <ele>2053</ele>
        <time>2016-08-27T09:57:11Z</time>
      </trkpt>
      <trkpt lat="45.34773" lon="6.1403">
        <ele>2053</ele>
        <time>2016-08-27T09:57:16Z</time>
      </trkpt>
      <trkpt lat="45.34772" lon="6.14032">
        <ele>2054</ele>
        <time>2016-08-27T09:57:21Z</time>
      </trkpt>
      <trkpt lat="45.34771" lon="6.14035">
        <ele>2055</ele>
        <time>2016-08-27T09:57:26Z</time>
      </trkpt>
      <trkpt lat="45.3477" lon="6.14038">
        <ele>2055</ele>
        <time>2016-08-27T09:57:31Z</time>
      </trkpt>
      <trkpt lat="45.34767" lon="6.1404">
        <ele>2056</ele>
        <time>2016-08-27T09:57:36Z</time>
      </trkpt>
      <trkpt lat="45.34765" lon="6.14043">
        <ele>2057</ele>
        <time>2016-08-27T09:57:41Z</time>
      </trkpt>
      <trkpt lat="45.34763" lon="6.14045">
        <ele>2058</ele>
        <time>2016-08-27T09:57:46Z</time>
      </trkpt>
      <trkpt lat="45.3476" lon="6.14046">
        <ele>2058</ele>
        <time>2016-08-27T09:57:51Z</time>
      </trkpt>
      <trkpt lat="45.34757" lon="6.14049">
        <ele>2059</ele>
        <time>2016-08-27T09:57:56Z</time>
      </trkpt>
      <trkpt lat="45.34755" lon="6.14051">
        <ele>2060</ele>
        <time>2016-08-27T09:58:01Z</time>
      </trkpt>
      <trkpt lat="45.34752" lon="6.14054">
        <ele>2061</ele>
        <time>2016-08-27T09:58:06Z</time>
      </trkpt>
      <trkpt lat="45.34749" lon="6.14058">
        <ele>2061</ele>
        <time>2016-08-27T09:58:11Z</time>
      </trkpt>
      <trkpt lat="45.34747" lon="6.14061">
        <ele>2062</ele>
        <time>2016-08-27T09:58:16Z</time>
      </trkpt>
      <trkpt lat="45.34745" lon="6.14064">
        <ele>2063</ele>
        <time>2016-08-27T09:58:21Z</time>
      </trkpt>
      <trkpt lat="45.34743" lon="6.14066">
        <ele>2064</ele>
        <time>2016-08-27T09:58:26Z</time>
      </trkpt>
      <trkpt lat="45.3474" lon="6.14069">
        <ele>2064</ele>
        <time>2016-08-27T09:58:31Z</time>
      </trkpt>
      <trkpt lat="45.34737" lon="6.14072">
        <ele>2065</ele>
        <time>2016-08-27T09:58:36Z</time>
      </trkpt>
      <trkpt lat="45.34734" lon="6.14073">
        <ele>2066</ele>
        <time>2016-08-27T09:58:41Z</time>
      </trkpt>
      <trkpt lat="45.34733" lon="6.14074">
        <ele>2066</ele>
        <time>2016-08-27T09:58:46Z</time>
      </trkpt>
      <trkpt lat="45.34731" lon="6.14075">
        <ele>2066</ele>
        <time>2016-08-27T09:58:51Z</time>
      </trkpt>
      <trkpt lat="45.34731" lon="6.14075">
        <ele>2066</ele>
        <time>2016-08-27T09:58:56Z</time>
      </trkpt>
      <trkpt lat="45.34731" lon="6.14076">
        <ele>2066</ele>
        <time>2016-08-27T09:59:01Z</time>
      </trkpt>
      <trkpt lat="45.34731" lon="6.14076">
        <ele>2066</ele>
        <time>2016-08-27T09:59:06Z</time>
      </trkpt>
      <trkpt lat="45.34731" lon="6.14076">
        <ele>2066</ele>
        <time>2016-08-27T09:59:11Z</time>
      </trkpt>
      <trkpt lat="45.34731" lon="6.14076">
        <ele>2066</ele>
        <time>2016-08-27T09:59:16Z</time>
      </trkpt>
      <trkpt lat="45.34731" lon="6.14076">
        <ele>2066</ele>
        <time>2016-08-27T09:59:21Z</time>
      </trkpt>
      <trkpt lat="45.34731" lon="6.14076">
        <ele>2066</ele>
        <time>2016-08-27T09:59:26Z</time>
      </trkpt>
      <trkpt lat="45.34731" lon="6.14076">
        <ele>2066</ele>
        <time>2016-08-27T09:59:31Z</time>
      </trkpt>
      <trkpt lat="45.3473" lon="6.14077">
        <ele>2066</ele>
        <time>2016-08-27T09:59:36Z</time>
      </trkpt>
      <trkpt lat="45.3473" lon="6.14077">
        <ele>2065</ele>
        <time>2016-08-27T09:59:41Z</time>
      </trkpt>
      <trkpt lat="45.3473" lon="6.14077">
        <ele>2065</ele>
        <time>2016-08-27T09:59:46Z</time>
      </trkpt>
      <trkpt lat="45.3473" lon="6.14077">
        <ele>2065</ele>
        <time>2016-08-27T09:59:51Z</time>
      </trkpt>
      <trkpt lat="45.34728" lon="6.14079">
        <ele>2065</ele>
        <time>2016-08-27T09:59:56Z</time>
      </trkpt>
      <trkpt lat="45.34725" lon="6.14082">
        <ele>2065</ele>
        <time>2016-08-27T10:00:01Z</time>
      </trkpt>
      <trkpt lat="45.34725" lon="6.14082">
        <ele>2065</ele>
        <time>2016-08-27T10:00:06Z</time>
      </trkpt>
      <trkpt lat="45.34725" lon="6.14082">
        <ele>2065</ele>
        <time>2016-08-27T10:00:11Z</time>
      </trkpt>
      <trkpt lat="45.34725" lon="6.14082">
        <ele>2065</ele>
        <time>2016-08-27T10:00:16Z</time>
      </trkpt>
      <trkpt lat="45.34725" lon="6.14082">
        <ele>2065</ele>
        <time>2016-08-27T10:00:21Z</time>
      </trkpt>
      <trkpt lat="45.34725" lon="6.14082">
        <ele>2066</ele>
        <time>2016-08-27T10:00:26Z</time>
      </trkpt>
      <trkpt lat="45.34725" lon="6.14082">
        <ele>2066</ele>
        <time>2016-08-27T10:00:31Z</time>
      </trkpt>
      <trkpt lat="45.34725" lon="6.14081">
        <ele>2066</ele>
        <time>2016-08-27T10:00:36Z</time>
      </trkpt>
      <trkpt lat="45.34725" lon="6.14081">
        <ele>2066</ele>
        <time>2016-08-27T10:00:41Z</time>
      </trkpt>
      <trkpt lat="45.34725" lon="6.14081">
        <ele>2066</ele>
        <time>2016-08-27T10:00:46Z</time>
      </trkpt>
      <trkpt lat="45.34725" lon="6.14081">
        <ele>2066</ele>
        <time>2016-08-27T10:00:51Z</time>
      </trkpt>
      <trkpt lat="45.34725" lon="6.14081">
        <ele>2066</ele>
        <time>2016-08-27T10:00:56Z</time>
      </trkpt>
      <trkpt lat="45.34724" lon="6.14082">
        <ele>2066</ele>
        <time>2016-08-27T10:01:01Z</time>
      </trkpt>
      <trkpt lat="45.3472" lon="6.14083">
        <ele>2065</ele>
        <time>2016-08-27T10:01:06Z</time>
      </trkpt>
      <trkpt lat="45.34716" lon="6.14085">
        <ele>2065</ele>
        <time>2016-08-27T10:01:11Z</time>
      </trkpt>
      <trkpt lat="45.34711" lon="6.14088">
        <ele>2064</ele>
        <time>2016-08-27T10:01:16Z</time>
      </trkpt>
      <trkpt lat="45.34706" lon="6.1409">
        <ele>2064</ele>
        <time>2016-08-27T10:01:21Z</time>
      </trkpt>
      <trkpt lat="45.34701" lon="6.1409">
        <ele>2064</ele>
        <time>2016-08-27T10:01:26Z</time>
      </trkpt>
      <trkpt lat="45.34696" lon="6.14091">
        <ele>2064</ele>
        <time>2016-08-27T10:01:31Z</time>
      </trkpt>
      <trkpt lat="45.34691" lon="6.14094">
        <ele>2064</ele>
        <time>2016-08-27T10:01:36Z</time>
      </trkpt>
      <trkpt lat="45.34688" lon="6.14096">
        <ele>2064</ele>
        <time>2016-08-27T10:01:41Z</time>
      </trkpt>
      <trkpt lat="45.34683" lon="6.14098">
        <ele>2064</ele>
        <time>2016-08-27T10:01:46Z</time>
      </trkpt>
      <trkpt lat="45.34679" lon="6.141">
        <ele>2064</ele>
        <time>2016-08-27T10:01:51Z</time>
      </trkpt>
      <trkpt lat="45.34674" lon="6.14102">
        <ele>2064</ele>
        <time>2016-08-27T10:01:56Z</time>
      </trkpt>
      <trkpt lat="45.34669" lon="6.14104">
        <ele>2064</ele>
        <time>2016-08-27T10:02:01Z</time>
      </trkpt>
      <trkpt lat="45.34665" lon="6.14105">
        <ele>2063</ele>
        <time>2016-08-27T10:02:06Z</time>
      </trkpt>
      <trkpt lat="45.3466" lon="6.14108">
        <ele>2063</ele>
        <time>2016-08-27T10:02:11Z</time>
      </trkpt>
      <trkpt lat="45.34655" lon="6.1411">
        <ele>2064</ele>
        <time>2016-08-27T10:02:16Z</time>
      </trkpt>
      <trkpt lat="45.34652" lon="6.14111">
        <ele>2065</ele>
        <time>2016-08-27T10:02:21Z</time>
      </trkpt>
      <trkpt lat="45.34649" lon="6.14112">
        <ele>2065</ele>
        <time>2016-08-27T10:02:26Z</time>
      </trkpt>
      <trkpt lat="45.34646" lon="6.14114">
        <ele>2066</ele>
        <time>2016-08-27T10:02:31Z</time>
      </trkpt>
      <trkpt lat="45.34642" lon="6.14114">
        <ele>2066</ele>
        <time>2016-08-27T10:02:36Z</time>
      </trkpt>
      <trkpt lat="45.34639" lon="6.14116">
        <ele>2067</ele>
        <time>2016-08-27T10:02:41Z</time>
      </trkpt>
      <trkpt lat="45.34635" lon="6.14117">
        <ele>2067</ele>
        <time>2016-08-27T10:02:46Z</time>
      </trkpt>
      <trkpt lat="45.34632" lon="6.14117">
        <ele>2068</ele>
        <time>2016-08-27T10:02:51Z</time>
      </trkpt>
      <trkpt lat="45.34629" lon="6.14118">
        <ele>2069</ele>
        <time>2016-08-27T10:02:56Z</time>
      </trkpt>
      <trkpt lat="45.34627" lon="6.14117">
        <ele>2070</ele>
        <time>2016-08-27T10:03:01Z</time>
      </trkpt>
      <trkpt lat="45.34625" lon="6.14117">
        <ele>2070</ele>
        <time>2016-08-27T10:03:06Z</time>
      </trkpt>
      <trkpt lat="45.34624" lon="6.14119">
        <ele>2071</ele>
        <time>2016-08-27T10:03:11Z</time>
      </trkpt>
      <trkpt lat="45.34623" lon="6.14119">
        <ele>2071</ele>
        <time>2016-08-27T10:03:16Z</time>
      </trkpt>
      <trkpt lat="45.34623" lon="6.14121">
        <ele>2072</ele>
        <time>2016-08-27T10:03:21Z</time>
      </trkpt>
      <trkpt lat="45.34623" lon="6.14123">
        <ele>2072</ele>
        <time>2016-08-27T10:03:26Z</time>
      </trkpt>
      <trkpt lat="45.34622" lon="6.14125">
        <ele>2072</ele>
        <time>2016-08-27T10:03:31Z</time>
      </trkpt>
      <trkpt lat="45.3462" lon="6.14128">
        <ele>2073</ele>
        <time>2016-08-27T10:03:36Z</time>
      </trkpt>
      <trkpt lat="45.34618" lon="6.14127">
        <ele>2074</ele>
        <time>2016-08-27T10:03:41Z</time>
      </trkpt>
      <trkpt lat="45.34617" lon="6.14126">
        <ele>2076</ele>
        <time>2016-08-27T10:03:46Z</time>
      </trkpt>
      <trkpt lat="45.34615" lon="6.14128">
        <ele>2076</ele>
        <time>2016-08-27T10:03:51Z</time>
      </trkpt>
      <trkpt lat="45.34612" lon="6.14131">
        <ele>2077</ele>
        <time>2016-08-27T10:03:56Z</time>
      </trkpt>
      <trkpt lat="45.3461" lon="6.14133">
        <ele>2077</ele>
        <time>2016-08-27T10:04:01Z</time>
      </trkpt>
      <trkpt lat="45.3461" lon="6.14133">
        <ele>2077</ele>
        <time>2016-08-27T10:04:06Z</time>
      </trkpt>
      <trkpt lat="45.3461" lon="6.14133">
        <ele>2077</ele>
        <time>2016-08-27T10:04:11Z</time>
      </trkpt>
      <trkpt lat="45.3461" lon="6.14133">
        <ele>2078</ele>
        <time>2016-08-27T10:04:16Z</time>
      </trkpt>
      <trkpt lat="45.3461" lon="6.14133">
        <ele>2078</ele>
        <time>2016-08-27T10:04:21Z</time>
      </trkpt>
      <trkpt lat="45.3461" lon="6.14132">
        <ele>2078</ele>
        <time>2016-08-27T10:04:26Z</time>
      </trkpt>
      <trkpt lat="45.34608" lon="6.14135">
        <ele>2078</ele>
        <time>2016-08-27T10:04:31Z</time>
      </trkpt>
      <trkpt lat="45.34606" lon="6.14136">
        <ele>2079</ele>
        <time>2016-08-27T10:04:36Z</time>
      </trkpt>
      <trkpt lat="45.34603" lon="6.14138">
        <ele>2080</ele>
        <time>2016-08-27T10:04:41Z</time>
      </trkpt>
      <trkpt lat="45.34599" lon="6.14138">
        <ele>2081</ele>
        <time>2016-08-27T10:04:46Z</time>
      </trkpt>
      <trkpt lat="45.34596" lon="6.14139">
        <ele>2082</ele>
        <time>2016-08-27T10:04:51Z</time>
      </trkpt>
      <trkpt lat="45.34593" lon="6.14142">
        <ele>2082</ele>
        <time>2016-08-27T10:04:56Z</time>
      </trkpt>
      <trkpt lat="45.3459" lon="6.14143">
        <ele>2082</ele>
        <time>2016-08-27T10:05:01Z</time>
      </trkpt>
      <trkpt lat="45.3459" lon="6.14143">
        <ele>2082</ele>
        <time>2016-08-27T10:05:06Z</time>
      </trkpt>
      <trkpt lat="45.3459" lon="6.14143">
        <ele>2082</ele>
        <time>2016-08-27T10:05:11Z</time>
      </trkpt>
      <trkpt lat="45.34588" lon="6.14144">
        <ele>2083</ele>
        <time>2016-08-27T10:05:16Z</time>
      </trkpt>
      <trkpt lat="45.34587" lon="6.14144">
        <ele>2083</ele>
        <time>2016-08-27T10:05:21Z</time>
      </trkpt>
      <trkpt lat="45.34586" lon="6.14143">
        <ele>2083</ele>
        <time>2016-08-27T10:05:26Z</time>
      </trkpt>
      <trkpt lat="45.34583" lon="6.14146">
        <ele>2084</ele>
        <time>2016-08-27T10:05:31Z</time>
      </trkpt>
      <trkpt lat="45.3458" lon="6.1415">
        <ele>2084</ele>
        <time>2016-08-27T10:05:36Z</time>
      </trkpt>
      <trkpt lat="45.34577" lon="6.14152">
        <ele>2084</ele>
        <time>2016-08-27T10:05:41Z</time>
      </trkpt>
      <trkpt lat="45.34575" lon="6.14154">
        <ele>2085</ele>
        <time>2016-08-27T10:05:46Z</time>
      </trkpt>
      <trkpt lat="45.34573" lon="6.14155">
        <ele>2086</ele>
        <time>2016-08-27T10:05:51Z</time>
      </trkpt>
      <trkpt lat="45.34571" lon="6.14157">
        <ele>2086</ele>
        <time>2016-08-27T10:05:56Z</time>
      </trkpt>
      <trkpt lat="45.34569" lon="6.14158">
        <ele>2087</ele>
        <time>2016-08-27T10:06:01Z</time>
      </trkpt>
      <trkpt lat="45.34567" lon="6.14159">
        <ele>2088</ele>
        <time>2016-08-27T10:06:06Z</time>
      </trkpt>
      <trkpt lat="45.34564" lon="6.1416">
        <ele>2088</ele>
        <time>2016-08-27T10:06:11Z</time>
      </trkpt>
      <trkpt lat="45.34562" lon="6.14162">
        <ele>2089</ele>
        <time>2016-08-27T10:06:16Z</time>
      </trkpt>
      <trkpt lat="45.3456" lon="6.14164">
        <ele>2088</ele>
        <time>2016-08-27T10:06:21Z</time>
      </trkpt>
      <trkpt lat="45.34557" lon="6.14165">
        <ele>2089</ele>
        <time>2016-08-27T10:06:26Z</time>
      </trkpt>
      <trkpt lat="45.34554" lon="6.14167">
        <ele>2089</ele>
        <time>2016-08-27T10:06:31Z</time>
      </trkpt>
      <trkpt lat="45.34552" lon="6.14167">
        <ele>2090</ele>
        <time>2016-08-27T10:06:36Z</time>
      </trkpt>
      <trkpt lat="45.34549" lon="6.1417">
        <ele>2089</ele>
        <time>2016-08-27T10:06:41Z</time>
      </trkpt>
      <trkpt lat="45.34547" lon="6.14171">
        <ele>2090</ele>
        <time>2016-08-27T10:06:46Z</time>
      </trkpt>
      <trkpt lat="45.34544" lon="6.14171">
        <ele>2090</ele>
        <time>2016-08-27T10:06:51Z</time>
      </trkpt>
      <trkpt lat="45.34541" lon="6.14172">
        <ele>2090</ele>
        <time>2016-08-27T10:06:56Z</time>
      </trkpt>
      <trkpt lat="45.34538" lon="6.14175">
        <ele>2091</ele>
        <time>2016-08-27T10:07:01Z</time>
      </trkpt>
      <trkpt lat="45.34537" lon="6.14175">
        <ele>2091</ele>
        <time>2016-08-27T10:07:06Z</time>
      </trkpt>
      <trkpt lat="45.34534" lon="6.14175">
        <ele>2091</ele>
        <time>2016-08-27T10:07:11Z</time>
      </trkpt>
      <trkpt lat="45.34533" lon="6.14175">
        <ele>2090</ele>
        <time>2016-08-27T10:07:16Z</time>
      </trkpt>
      <trkpt lat="45.34532" lon="6.14176">
        <ele>2090</ele>
        <time>2016-08-27T10:07:21Z</time>
      </trkpt>
      <trkpt lat="45.34531" lon="6.14176">
        <ele>2090</ele>
        <time>2016-08-27T10:07:26Z</time>
      </trkpt>
      <trkpt lat="45.34531" lon="6.14176">
        <ele>2090</ele>
        <time>2016-08-27T10:07:31Z</time>
      </trkpt>
      <trkpt lat="45.34531" lon="6.14177">
        <ele>2090</ele>
        <time>2016-08-27T10:07:36Z</time>
      </trkpt>
      <trkpt lat="45.34531" lon="6.14178">
        <ele>2090</ele>
        <time>2016-08-27T10:07:41Z</time>
      </trkpt>
      <trkpt lat="45.34528" lon="6.1418">
        <ele>2089</ele>
        <time>2016-08-27T10:07:46Z</time>
      </trkpt>
      <trkpt lat="45.34526" lon="6.14182">
        <ele>2089</ele>
        <time>2016-08-27T10:07:51Z</time>
      </trkpt>
      <trkpt lat="45.34525" lon="6.14184">
        <ele>2089</ele>
        <time>2016-08-27T10:07:56Z</time>
      </trkpt>
      <trkpt lat="45.34525" lon="6.14189">
        <ele>2089</ele>
        <time>2016-08-27T10:08:01Z</time>
      </trkpt>
      <trkpt lat="45.34523" lon="6.14194">
        <ele>2090</ele>
        <time>2016-08-27T10:08:06Z</time>
      </trkpt>
      <trkpt lat="45.34523" lon="6.14196">
        <ele>2092</ele>
        <time>2016-08-27T10:08:11Z</time>
      </trkpt>
      <trkpt lat="45.34522" lon="6.14195">
        <ele>2093</ele>
        <time>2016-08-27T10:08:16Z</time>
      </trkpt>
      <trkpt lat="45.34521" lon="6.14195">
        <ele>2094</ele>
        <time>2016-08-27T10:08:21Z</time>
      </trkpt>
      <trkpt lat="45.3452" lon="6.14194">
        <ele>2095</ele>
        <time>2016-08-27T10:08:26Z</time>
      </trkpt>
      <trkpt lat="45.34518" lon="6.14194">
        <ele>2094</ele>
        <time>2016-08-27T10:08:31Z</time>
      </trkpt>
      <trkpt lat="45.34516" lon="6.14195">
        <ele>2095</ele>
        <time>2016-08-27T10:08:36Z</time>
      </trkpt>
      <trkpt lat="45.34516" lon="6.14194">
        <ele>2094</ele>
        <time>2016-08-27T10:08:41Z</time>
      </trkpt>
      <trkpt lat="45.34515" lon="6.14191">
        <ele>2095</ele>
        <time>2016-08-27T10:08:46Z</time>
      </trkpt>
      <trkpt lat="45.34514" lon="6.14191">
        <ele>2096</ele>
        <time>2016-08-27T10:08:51Z</time>
      </trkpt>
      <trkpt lat="45.34513" lon="6.14191">
        <ele>2096</ele>
        <time>2016-08-27T10:08:56Z</time>
      </trkpt>
      <trkpt lat="45.34513" lon="6.14189">
        <ele>2097</ele>
        <time>2016-08-27T10:09:01Z</time>
      </trkpt>
      <trkpt lat="45.34512" lon="6.14187">
        <ele>2098</ele>
        <time>2016-08-27T10:09:06Z</time>
      </trkpt>
      <trkpt lat="45.34511" lon="6.14185">
        <ele>2098</ele>
        <time>2016-08-27T10:09:11Z</time>
      </trkpt>
      <trkpt lat="45.3451" lon="6.14185">
        <ele>2098</ele>
        <time>2016-08-27T10:09:16Z</time>
      </trkpt>
      <trkpt lat="45.34507" lon="6.14187">
        <ele>2099</ele>
        <time>2016-08-27T10:09:21Z</time>
      </trkpt>
      <trkpt lat="45.34506" lon="6.14188">
        <ele>2100</ele>
        <time>2016-08-27T10:09:26Z</time>
      </trkpt>
      <trkpt lat="45.34504" lon="6.1419">
        <ele>2101</ele>
        <time>2016-08-27T10:09:31Z</time>
      </trkpt>
      <trkpt lat="45.34502" lon="6.14191">
        <ele>2102</ele>
        <time>2016-08-27T10:09:36Z</time>
      </trkpt>
      <trkpt lat="45.34502" lon="6.14191">
        <ele>2103</ele>
        <time>2016-08-27T10:09:41Z</time>
      </trkpt>
      <trkpt lat="45.345" lon="6.14192">
        <ele>2104</ele>
        <time>2016-08-27T10:09:46Z</time>
      </trkpt>
      <trkpt lat="45.34499" lon="6.14192">
        <ele>2105</ele>
        <time>2016-08-27T10:09:51Z</time>
      </trkpt>
      <trkpt lat="45.34498" lon="6.14192">
        <ele>2106</ele>
        <time>2016-08-27T10:09:56Z</time>
      </trkpt>
      <trkpt lat="45.34497" lon="6.14193">
        <ele>2107</ele>
        <time>2016-08-27T10:10:01Z</time>
      </trkpt>
      <trkpt lat="45.34496" lon="6.14193">
        <ele>2107</ele>
        <time>2016-08-27T10:10:06Z</time>
      </trkpt>
      <trkpt lat="45.34496" lon="6.14194">
        <ele>2108</ele>
        <time>2016-08-27T10:10:11Z</time>
      </trkpt>
      <trkpt lat="45.34495" lon="6.14194">
        <ele>2108</ele>
        <time>2016-08-27T10:10:16Z</time>
      </trkpt>
      <trkpt lat="45.34495" lon="6.14194">
        <ele>2108</ele>
        <time>2016-08-27T10:10:21Z</time>
      </trkpt>
      <trkpt lat="45.34494" lon="6.14196">
        <ele>2108</ele>
        <time>2016-08-27T10:10:26Z</time>
      </trkpt>
      <trkpt lat="45.34494" lon="6.14197">
        <ele>2108</ele>
        <time>2016-08-27T10:10:31Z</time>
      </trkpt>
      <trkpt lat="45.34493" lon="6.14197">
        <ele>2109</ele>
        <time>2016-08-27T10:10:36Z</time>
      </trkpt>
      <trkpt lat="45.34494" lon="6.14197">
        <ele>2108</ele>
        <time>2016-08-27T10:10:41Z</time>
      </trkpt>
      <trkpt lat="45.34494" lon="6.14198">
        <ele>2109</ele>
        <time>2016-08-27T10:10:46Z</time>
      </trkpt>
      <trkpt lat="45.34494" lon="6.14199">
        <ele>2108</ele>
        <time>2016-08-27T10:10:51Z</time>
      </trkpt>
      <trkpt lat="45.34494" lon="6.14198">
        <ele>2109</ele>
        <time>2016-08-27T10:10:56Z</time>
      </trkpt>
      <trkpt lat="45.34494" lon="6.14198">
        <ele>2109</ele>
        <time>2016-08-27T10:11:01Z</time>
      </trkpt>
      <trkpt lat="45.34493" lon="6.14198">
        <ele>2109</ele>
        <time>2016-08-27T10:11:06Z</time>
      </trkpt>
      <trkpt lat="45.34492" lon="6.14201">
        <ele>2109</ele>
        <time>2016-08-27T10:11:11Z</time>
      </trkpt>
      <trkpt lat="45.34492" lon="6.14204">
        <ele>2109</ele>
        <time>2016-08-27T10:11:16Z</time>
      </trkpt>
      <trkpt lat="45.34492" lon="6.14204">
        <ele>2109</ele>
        <time>2016-08-27T10:11:21Z</time>
      </trkpt>
      <trkpt lat="45.34492" lon="6.14204">
        <ele>2109</ele>
        <time>2016-08-27T10:11:26Z</time>
      </trkpt>
      <trkpt lat="45.34492" lon="6.14204">
        <ele>2109</ele>
        <time>2016-08-27T10:11:31Z</time>
      </trkpt>
      <trkpt lat="45.34492" lon="6.14205">
        <ele>2109</ele>
        <time>2016-08-27T10:11:36Z</time>
      </trkpt>
      <trkpt lat="45.34492" lon="6.14205">
        <ele>2108</ele>
        <time>2016-08-27T10:11:41Z</time>
      </trkpt>
      <trkpt lat="45.34492" lon="6.14205">
        <ele>2108</ele>
        <time>2016-08-27T10:11:46Z</time>
      </trkpt>
      <trkpt lat="45.34491" lon="6.14207">
        <ele>2108</ele>
        <time>2016-08-27T10:11:51Z</time>
      </trkpt>
      <trkpt lat="45.34491" lon="6.14209">
        <ele>2108</ele>
        <time>2016-08-27T10:11:56Z</time>
      </trkpt>
      <trkpt lat="45.3449" lon="6.14211">
        <ele>2108</ele>
        <time>2016-08-27T10:12:01Z</time>
      </trkpt>
      <trkpt lat="45.34491" lon="6.14214">
        <ele>2109</ele>
        <time>2016-08-27T10:12:06Z</time>
      </trkpt>
      <trkpt lat="45.34489" lon="6.14215">
        <ele>2110</ele>
        <time>2016-08-27T10:12:11Z</time>
      </trkpt>
      <trkpt lat="45.34488" lon="6.14216">
        <ele>2112</ele>
        <time>2016-08-27T10:12:16Z</time>
      </trkpt>
      <trkpt lat="45.34486" lon="6.14216">
        <ele>2113</ele>
        <time>2016-08-27T10:12:21Z</time>
      </trkpt>
      <trkpt lat="45.34486" lon="6.14218">
        <ele>2114</ele>
        <time>2016-08-27T10:12:26Z</time>
      </trkpt>
      <trkpt lat="45.34486" lon="6.14221">
        <ele>2116</ele>
        <time>2016-08-27T10:12:31Z</time>
      </trkpt>
      <trkpt lat="45.34485" lon="6.14223">
        <ele>2117</ele>
        <time>2016-08-27T10:12:36Z</time>
      </trkpt>
      <trkpt lat="45.34485" lon="6.14222">
        <ele>2118</ele>
        <time>2016-08-27T10:12:41Z</time>
      </trkpt>
      <trkpt lat="45.34485" lon="6.14219">
        <ele>2119</ele>
        <time>2016-08-27T10:12:46Z</time>
      </trkpt>
      <trkpt lat="45.34484" lon="6.14217">
        <ele>2120</ele>
        <time>2016-08-27T10:12:51Z</time>
      </trkpt>
      <trkpt lat="45.34483" lon="6.14216">
        <ele>2121</ele>
        <time>2016-08-27T10:12:56Z</time>
      </trkpt>
      <trkpt lat="45.34481" lon="6.14215">
        <ele>2121</ele>
        <time>2016-08-27T10:13:01Z</time>
      </trkpt>
      <trkpt lat="45.3448" lon="6.14217">
        <ele>2120</ele>
        <time>2016-08-27T10:13:06Z</time>
      </trkpt>
      <trkpt lat="45.3448" lon="6.14223">
        <ele>2120</ele>
        <time>2016-08-27T10:13:11Z</time>
      </trkpt>
      <trkpt lat="45.34479" lon="6.14226">
        <ele>2121</ele>
        <time>2016-08-27T10:13:16Z</time>
      </trkpt>
      <trkpt lat="45.34477" lon="6.14229">
        <ele>2122</ele>
        <time>2016-08-27T10:13:21Z</time>
      </trkpt>
      <trkpt lat="45.34476" lon="6.1423">
        <ele>2122</ele>
        <time>2016-08-27T10:13:26Z</time>
      </trkpt>
      <trkpt lat="45.34475" lon="6.14233">
        <ele>2123</ele>
        <time>2016-08-27T10:13:31Z</time>
      </trkpt>
      <trkpt lat="45.34474" lon="6.14235">
        <ele>2124</ele>
        <time>2016-08-27T10:13:36Z</time>
      </trkpt>
      <trkpt lat="45.34473" lon="6.14234">
        <ele>2125</ele>
        <time>2016-08-27T10:13:41Z</time>
      </trkpt>
      <trkpt lat="45.34472" lon="6.14233">
        <ele>2126</ele>
        <time>2016-08-27T10:13:46Z</time>
      </trkpt>
      <trkpt lat="45.34471" lon="6.14231">
        <ele>2127</ele>
        <time>2016-08-27T10:13:51Z</time>
      </trkpt>
      <trkpt lat="45.3447" lon="6.14231">
        <ele>2127</ele>
        <time>2016-08-27T10:13:56Z</time>
      </trkpt>
      <trkpt lat="45.34469" lon="6.1423">
        <ele>2128</ele>
        <time>2016-08-27T10:14:01Z</time>
      </trkpt>
      <trkpt lat="45.34469" lon="6.14232">
        <ele>2129</ele>
        <time>2016-08-27T10:14:06Z</time>
      </trkpt>
      <trkpt lat="45.34468" lon="6.14233">
        <ele>2129</ele>
        <time>2016-08-27T10:14:11Z</time>
      </trkpt>
      <trkpt lat="45.34468" lon="6.14232">
        <ele>2130</ele>
        <time>2016-08-27T10:14:16Z</time>
      </trkpt>
      <trkpt lat="45.34468" lon="6.14233">
        <ele>2130</ele>
        <time>2016-08-27T10:14:21Z</time>
      </trkpt>
      <trkpt lat="45.34467" lon="6.14233">
        <ele>2132</ele>
        <time>2016-08-27T10:14:26Z</time>
      </trkpt>
      <trkpt lat="45.34467" lon="6.14233">
        <ele>2133</ele>
        <time>2016-08-27T10:14:31Z</time>
      </trkpt>
      <trkpt lat="45.34466" lon="6.14232">
        <ele>2133</ele>
        <time>2016-08-27T10:14:36Z</time>
      </trkpt>
      <trkpt lat="45.34466" lon="6.14234">
        <ele>2134</ele>
        <time>2016-08-27T10:14:41Z</time>
      </trkpt>
      <trkpt lat="45.34467" lon="6.14235">
        <ele>2136</ele>
        <time>2016-08-27T10:14:46Z</time>
      </trkpt>
      <trkpt lat="45.34466" lon="6.14236">
        <ele>2136</ele>
        <time>2016-08-27T10:14:51Z</time>
      </trkpt>
      <trkpt lat="45.34465" lon="6.14237">
        <ele>2137</ele>
        <time>2016-08-27T10:14:56Z</time>
      </trkpt>
      <trkpt lat="45.34465" lon="6.14237">
        <ele>2138</ele>
        <time>2016-08-27T10:15:01Z</time>
      </trkpt>
      <trkpt lat="45.34464" lon="6.14237">
        <ele>2137</ele>
        <time>2016-08-27T10:15:06Z</time>
      </trkpt>
      <trkpt lat="45.34465" lon="6.14237">
        <ele>2137</ele>
        <time>2016-08-27T10:15:11Z</time>
      </trkpt>
      <trkpt lat="45.34465" lon="6.14238">
        <ele>2137</ele>
        <time>2016-08-27T10:15:16Z</time>
      </trkpt>
      <trkpt lat="45.34464" lon="6.14238">
        <ele>2138</ele>
        <time>2016-08-27T10:15:21Z</time>
      </trkpt>
      <trkpt lat="45.34464" lon="6.14239">
        <ele>2139</ele>
        <time>2016-08-27T10:15:26Z</time>
      </trkpt>
      <trkpt lat="45.34463" lon="6.1424">
        <ele>2140</ele>
        <time>2016-08-27T10:15:31Z</time>
      </trkpt>
      <trkpt lat="45.34463" lon="6.14241">
        <ele>2141</ele>
        <time>2016-08-27T10:15:36Z</time>
      </trkpt>
      <trkpt lat="45.34463" lon="6.14244">
        <ele>2142</ele>
        <time>2016-08-27T10:15:41Z</time>
      </trkpt>
      <trkpt lat="45.34463" lon="6.14245">
        <ele>2143</ele>
        <time>2016-08-27T10:15:46Z</time>
      </trkpt>
      <trkpt lat="45.34463" lon="6.14244">
        <ele>2144</ele>
        <time>2016-08-27T10:15:51Z</time>
      </trkpt>
      <trkpt lat="45.34463" lon="6.14243">
        <ele>2145</ele>
        <time>2016-08-27T10:15:56Z</time>
      </trkpt>
      <trkpt lat="45.34462" lon="6.14242">
        <ele>2146</ele>
        <time>2016-08-27T10:16:01Z</time>
      </trkpt>
      <trkpt lat="45.34461" lon="6.1424">
        <ele>2147</ele>
        <time>2016-08-27T10:16:06Z</time>
      </trkpt>
      <trkpt lat="45.34458" lon="6.1424">
        <ele>2147</ele>
        <time>2016-08-27T10:16:11Z</time>
      </trkpt>
      <trkpt lat="45.34459" lon="6.14241">
        <ele>2148</ele>
        <time>2016-08-27T10:16:16Z</time>
      </trkpt>
      <trkpt lat="45.3446" lon="6.14242">
        <ele>2148</ele>
        <time>2016-08-27T10:16:21Z</time>
      </trkpt>
      <trkpt lat="45.3446" lon="6.14242">
        <ele>2148</ele>
        <time>2016-08-27T10:16:26Z</time>
      </trkpt>
      <trkpt lat="45.3446" lon="6.14242">
        <ele>2148</ele>
        <time>2016-08-27T10:16:31Z</time>
      </trkpt>
      <trkpt lat="45.3446" lon="6.14242">
        <ele>2148</ele>
        <time>2016-08-27T10:16:36Z</time>
      </trkpt>
      <trkpt lat="45.3446" lon="6.14241">
        <ele>2148</ele>
        <time>2016-08-27T10:16:41Z</time>
      </trkpt>
      <trkpt lat="45.3446" lon="6.14241">
        <ele>2148</ele>
        <time>2016-08-27T10:16:46Z</time>
      </trkpt>
      <trkpt lat="45.34459" lon="6.14241">
        <ele>2149</ele>
        <time>2016-08-27T10:16:51Z</time>
      </trkpt>
      <trkpt lat="45.34458" lon="6.14244">
        <ele>2148</ele>
        <time>2016-08-27T10:16:56Z</time>
      </trkpt>
      <trkpt lat="45.34456" lon="6.14248">
        <ele>2149</ele>
        <time>2016-08-27T10:17:01Z</time>
      </trkpt>
      <trkpt lat="45.34455" lon="6.1425">
        <ele>2150</ele>
        <time>2016-08-27T10:17:06Z</time>
      </trkpt>
      <trkpt lat="45.34454" lon="6.1425">
        <ele>2150</ele>
        <time>2016-08-27T10:17:11Z</time>
      </trkpt>
      <trkpt lat="45.34454" lon="6.14249">
        <ele>2151</ele>
        <time>2016-08-27T10:17:16Z</time>
      </trkpt>
      <trkpt lat="45.34454" lon="6.1425">
        <ele>2151</ele>
        <time>2016-08-27T10:17:21Z</time>
      </trkpt>
      <trkpt lat="45.34453" lon="6.14252">
        <ele>2151</ele>
        <time>2016-08-27T10:17:26Z</time>
      </trkpt>
      <trkpt lat="45.34452" lon="6.14254">
        <ele>2152</ele>
        <time>2016-08-27T10:17:31Z</time>
      </trkpt>
      <trkpt lat="45.34452" lon="6.14254">
        <ele>2153</ele>
        <time>2016-08-27T10:17:36Z</time>
      </trkpt>
      <trkpt lat="45.34452" lon="6.14255">
        <ele>2153</ele>
        <time>2016-08-27T10:17:41Z</time>
      </trkpt>
      <trkpt lat="45.34451" lon="6.14258">
        <ele>2155</ele>
        <time>2016-08-27T10:17:46Z</time>
      </trkpt>
      <trkpt lat="45.34449" lon="6.14261">
        <ele>2155</ele>
        <time>2016-08-27T10:17:51Z</time>
      </trkpt>
      <trkpt lat="45.34448" lon="6.14263">
        <ele>2156</ele>
        <time>2016-08-27T10:17:56Z</time>
      </trkpt>
      <trkpt lat="45.34449" lon="6.14263">
        <ele>2156</ele>
        <time>2016-08-27T10:18:01Z</time>
      </trkpt>
      <trkpt lat="45.34449" lon="6.14263">
        <ele>2156</ele>
        <time>2016-08-27T10:18:06Z</time>
      </trkpt>
      <trkpt lat="45.34449" lon="6.14263">
        <ele>2156</ele>
        <time>2016-08-27T10:18:11Z</time>
      </trkpt>
      <trkpt lat="45.34447" lon="6.14266">
        <ele>2156</ele>
        <time>2016-08-27T10:18:16Z</time>
      </trkpt>
      <trkpt lat="45.34448" lon="6.14266">
        <ele>2156</ele>
        <time>2016-08-27T10:18:21Z</time>
      </trkpt>
      <trkpt lat="45.34448" lon="6.14266">
        <ele>2156</ele>
        <time>2016-08-27T10:18:26Z</time>
      </trkpt>
      <trkpt lat="45.34447" lon="6.14266">
        <ele>2155</ele>
        <time>2016-08-27T10:18:31Z</time>
      </trkpt>
      <trkpt lat="45.34447" lon="6.14266">
        <ele>2155</ele>
        <time>2016-08-27T10:18:36Z</time>
      </trkpt>
      <trkpt lat="45.34446" lon="6.14266">
        <ele>2155</ele>
        <time>2016-08-27T10:18:41Z</time>
      </trkpt>
      <trkpt lat="45.34447" lon="6.14266">
        <ele>2156</ele>
        <time>2016-08-27T10:18:46Z</time>
      </trkpt>
      <trkpt lat="45.34445" lon="6.14267">
        <ele>2156</ele>
        <time>2016-08-27T10:18:51Z</time>
      </trkpt>
      <trkpt lat="45.34445" lon="6.1427">
        <ele>2154</ele>
        <time>2016-08-27T10:18:56Z</time>
      </trkpt>
      <trkpt lat="45.34443" lon="6.14272">
        <ele>2153</ele>
        <time>2016-08-27T10:19:01Z</time>
      </trkpt>
      <trkpt lat="45.3444" lon="6.14273">
        <ele>2152</ele>
        <time>2016-08-27T10:19:06Z</time>
      </trkpt>
      <trkpt lat="45.34438" lon="6.14272">
        <ele>2151</ele>
        <time>2016-08-27T10:19:11Z</time>
      </trkpt>
      <trkpt lat="45.34436" lon="6.14274">
        <ele>2149</ele>
        <time>2016-08-27T10:19:16Z</time>
      </trkpt>
      <trkpt lat="45.34432" lon="6.14275">
        <ele>2148</ele>
        <time>2016-08-27T10:19:21Z</time>
      </trkpt>
      <trkpt lat="45.34428" lon="6.14277">
        <ele>2148</ele>
        <time>2016-08-27T10:19:26Z</time>
      </trkpt>
      <trkpt lat="45.34425" lon="6.14282">
        <ele>2148</ele>
        <time>2016-08-27T10:19:31Z</time>
      </trkpt>
      <trkpt lat="45.34424" lon="6.14284">
        <ele>2149</ele>
        <time>2016-08-27T10:19:36Z</time>
      </trkpt>
      <trkpt lat="45.34422" lon="6.14284">
        <ele>2150</ele>
        <time>2016-08-27T10:19:41Z</time>
      </trkpt>
      <trkpt lat="45.34421" lon="6.14283">
        <ele>2151</ele>
        <time>2016-08-27T10:19:46Z</time>
      </trkpt>
      <trkpt lat="45.3442" lon="6.14281">
        <ele>2152</ele>
        <time>2016-08-27T10:19:51Z</time>
      </trkpt>
      <trkpt lat="45.3442" lon="6.1428">
        <ele>2153</ele>
        <time>2016-08-27T10:19:56Z</time>
      </trkpt>
      <trkpt lat="45.34418" lon="6.1428">
        <ele>2154</ele>
        <time>2016-08-27T10:20:01Z</time>
      </trkpt>
      <trkpt lat="45.34416" lon="6.1428">
        <ele>2155</ele>
        <time>2016-08-27T10:20:06Z</time>
      </trkpt>
      <trkpt lat="45.34414" lon="6.14279">
        <ele>2156</ele>
        <time>2016-08-27T10:20:11Z</time>
      </trkpt>
      <trkpt lat="45.34414" lon="6.14277">
        <ele>2156</ele>
        <time>2016-08-27T10:20:16Z</time>
      </trkpt>
      <trkpt lat="45.34411" lon="6.1428">
        <ele>2157</ele>
        <time>2016-08-27T10:20:21Z</time>
      </trkpt>
      <trkpt lat="45.3441" lon="6.14283">
        <ele>2158</ele>
        <time>2016-08-27T10:20:26Z</time>
      </trkpt>
      <trkpt lat="45.3441" lon="6.1428">
        <ele>2158</ele>
        <time>2016-08-27T10:20:31Z</time>
      </trkpt>
      <trkpt lat="45.34409" lon="6.14277">
        <ele>2159</ele>
        <time>2016-08-27T10:20:36Z</time>
      </trkpt>
      <trkpt lat="45.34408" lon="6.14278">
        <ele>2160</ele>
        <time>2016-08-27T10:20:41Z</time>
      </trkpt>
      <trkpt lat="45.34406" lon="6.14281">
        <ele>2160</ele>
        <time>2016-08-27T10:20:46Z</time>
      </trkpt>
      <trkpt lat="45.34405" lon="6.14285">
        <ele>2160</ele>
        <time>2016-08-27T10:20:51Z</time>
      </trkpt>
      <trkpt lat="45.34405" lon="6.14285">
        <ele>2160</ele>
        <time>2016-08-27T10:20:56Z</time>
      </trkpt>
      <trkpt lat="45.34403" lon="6.14289">
        <ele>2159</ele>
        <time>2016-08-27T10:21:01Z</time>
      </trkpt>
      <trkpt lat="45.34401" lon="6.14295">
        <ele>2159</ele>
        <time>2016-08-27T10:21:06Z</time>
      </trkpt>
      <trkpt lat="45.34398" lon="6.14299">
        <ele>2159</ele>
        <time>2016-08-27T10:21:11Z</time>
      </trkpt>
      <trkpt lat="45.34395" lon="6.14298">
        <ele>2159</ele>
        <time>2016-08-27T10:21:16Z</time>
      </trkpt>
      <trkpt lat="45.34391" lon="6.14298">
        <ele>2159</ele>
        <time>2016-08-27T10:21:21Z</time>
      </trkpt>
      <trkpt lat="45.34388" lon="6.14296">
        <ele>2158</ele>
        <time>2016-08-27T10:21:26Z</time>
      </trkpt>
      <trkpt lat="45.34385" lon="6.14293">
        <ele>2158</ele>
        <time>2016-08-27T10:21:31Z</time>
      </trkpt>
      <trkpt lat="45.34382" lon="6.14291">
        <ele>2157</ele>
        <time>2016-08-27T10:21:36Z</time>
      </trkpt>
      <trkpt lat="45.34382" lon="6.14288">
        <ele>2157</ele>
        <time>2016-08-27T10:21:41Z</time>
      </trkpt>
      <trkpt lat="45.34381" lon="6.14287">
        <ele>2157</ele>
        <time>2016-08-27T10:21:46Z</time>
      </trkpt>
      <trkpt lat="45.34381" lon="6.14287">
        <ele>2156</ele>
        <time>2016-08-27T10:21:51Z</time>
      </trkpt>
      <trkpt lat="45.3438" lon="6.14287">
        <ele>2156</ele>
        <time>2016-08-27T10:21:56Z</time>
      </trkpt>
      <trkpt lat="45.3438" lon="6.14287">
        <ele>2156</ele>
        <time>2016-08-27T10:22:01Z</time>
      </trkpt>
      <trkpt lat="45.34379" lon="6.14287">
        <ele>2156</ele>
        <time>2016-08-27T10:22:06Z</time>
      </trkpt>
      <trkpt lat="45.34377" lon="6.14284">
        <ele>2155</ele>
        <time>2016-08-27T10:22:11Z</time>
      </trkpt>
      <trkpt lat="45.34377" lon="6.14282">
        <ele>2155</ele>
        <time>2016-08-27T10:22:16Z</time>
      </trkpt>
      <trkpt lat="45.34377" lon="6.1428">
        <ele>2155</ele>
        <time>2016-08-27T10:22:21Z</time>
      </trkpt>
      <trkpt lat="45.34374" lon="6.14278">
        <ele>2154</ele>
        <time>2016-08-27T10:22:26Z</time>
      </trkpt>
      <trkpt lat="45.34371" lon="6.14279">
        <ele>2153</ele>
        <time>2016-08-27T10:22:31Z</time>
      </trkpt>
      <trkpt lat="45.34368" lon="6.14281">
        <ele>2152</ele>
        <time>2016-08-27T10:22:36Z</time>
      </trkpt>
      <trkpt lat="45.34365" lon="6.1428">
        <ele>2151</ele>
        <time>2016-08-27T10:22:41Z</time>
      </trkpt>
      <trkpt lat="45.34361" lon="6.14281">
        <ele>2150</ele>
        <time>2016-08-27T10:22:46Z</time>
      </trkpt>
      <trkpt lat="45.34357" lon="6.14281">
        <ele>2149</ele>
        <time>2016-08-27T10:22:51Z</time>
      </trkpt>
      <trkpt lat="45.34353" lon="6.1428">
        <ele>2148</ele>
        <time>2016-08-27T10:22:56Z</time>
      </trkpt>
      <trkpt lat="45.3435" lon="6.14277">
        <ele>2148</ele>
        <time>2016-08-27T10:23:01Z</time>
      </trkpt>
      <trkpt lat="45.34349" lon="6.14275">
        <ele>2147</ele>
        <time>2016-08-27T10:23:06Z</time>
      </trkpt>
      <trkpt lat="45.34349" lon="6.14275">
        <ele>2147</ele>
        <time>2016-08-27T10:23:11Z</time>
      </trkpt>
      <trkpt lat="45.34348" lon="6.14275">
        <ele>2147</ele>
        <time>2016-08-27T10:23:16Z</time>
      </trkpt>
      <trkpt lat="45.34348" lon="6.14275">
        <ele>2148</ele>
        <time>2016-08-27T10:23:21Z</time>
      </trkpt>
      <trkpt lat="45.34345" lon="6.14274">
        <ele>2146</ele>
        <time>2016-08-27T10:23:26Z</time>
      </trkpt>
      <trkpt lat="45.34343" lon="6.14275">
        <ele>2146</ele>
        <time>2016-08-27T10:23:31Z</time>
      </trkpt>
      <trkpt lat="45.34342" lon="6.14276">
        <ele>2145</ele>
        <time>2016-08-27T10:23:36Z</time>
      </trkpt>
      <trkpt lat="45.34341" lon="6.14277">
        <ele>2145</ele>
        <time>2016-08-27T10:23:41Z</time>
      </trkpt>
      <trkpt lat="45.3434" lon="6.14279">
        <ele>2144</ele>
        <time>2016-08-27T10:23:46Z</time>
      </trkpt>
      <trkpt lat="45.34339" lon="6.1428">
        <ele>2144</ele>
        <time>2016-08-27T10:23:51Z</time>
      </trkpt>
      <trkpt lat="45.34339" lon="6.14283">
        <ele>2144</ele>
        <time>2016-08-27T10:23:56Z</time>
      </trkpt>
      <trkpt lat="45.34339" lon="6.14286">
        <ele>2142</ele>
        <time>2016-08-27T10:24:01Z</time>
      </trkpt>
      <trkpt lat="45.34338" lon="6.14288">
        <ele>2142</ele>
        <time>2016-08-27T10:24:06Z</time>
      </trkpt>
      <trkpt lat="45.34336" lon="6.14287">
        <ele>2141</ele>
        <time>2016-08-27T10:24:11Z</time>
      </trkpt>
      <trkpt lat="45.34334" lon="6.14285">
        <ele>2139</ele>
        <time>2016-08-27T10:24:16Z</time>
      </trkpt>
      <trkpt lat="45.34332" lon="6.14283">
        <ele>2138</ele>
        <time>2016-08-27T10:24:21Z</time>
      </trkpt>
      <trkpt lat="45.3433" lon="6.14282">
        <ele>2137</ele>
        <time>2016-08-27T10:24:26Z</time>
      </trkpt>
      <trkpt lat="45.34329" lon="6.14282">
        <ele>2135</ele>
        <time>2016-08-27T10:24:31Z</time>
      </trkpt>
      <trkpt lat="45.34326" lon="6.14282">
        <ele>2134</ele>
        <time>2016-08-27T10:24:36Z</time>
      </trkpt>
      <trkpt lat="45.34324" lon="6.14281">
        <ele>2133</ele>
        <time>2016-08-27T10:24:41Z</time>
      </trkpt>
      <trkpt lat="45.3432" lon="6.14285">
        <ele>2132</ele>
        <time>2016-08-27T10:24:46Z</time>
      </trkpt>
      <trkpt lat="45.34319" lon="6.14282">
        <ele>2131</ele>
        <time>2016-08-27T10:24:51Z</time>
      </trkpt>
      <trkpt lat="45.34317" lon="6.14282">
        <ele>2130</ele>
        <time>2016-08-27T10:24:56Z</time>
      </trkpt>
      <trkpt lat="45.34314" lon="6.14283">
        <ele>2129</ele>
        <time>2016-08-27T10:25:01Z</time>
      </trkpt>
      <trkpt lat="45.34312" lon="6.14283">
        <ele>2127</ele>
        <time>2016-08-27T10:25:06Z</time>
      </trkpt>
      <trkpt lat="45.34309" lon="6.14282">
        <ele>2126</ele>
        <time>2016-08-27T10:25:11Z</time>
      </trkpt>
      <trkpt lat="45.34308" lon="6.1428">
        <ele>2125</ele>
        <time>2016-08-27T10:25:16Z</time>
      </trkpt>
      <trkpt lat="45.34306" lon="6.14278">
        <ele>2123</ele>
        <time>2016-08-27T10:25:21Z</time>
      </trkpt>
      <trkpt lat="45.34306" lon="6.14278">
        <ele>2123</ele>
        <time>2016-08-27T10:25:26Z</time>
      </trkpt>
      <trkpt lat="45.34303" lon="6.14279">
        <ele>2124</ele>
        <time>2016-08-27T10:25:31Z</time>
      </trkpt>
      <trkpt lat="45.34301" lon="6.14279">
        <ele>2124</ele>
        <time>2016-08-27T10:25:36Z</time>
      </trkpt>
      <trkpt lat="45.34299" lon="6.14273">
        <ele>2123</ele>
        <time>2016-08-27T10:25:41Z</time>
      </trkpt>
      <trkpt lat="45.34297" lon="6.14268">
        <ele>2123</ele>
        <time>2016-08-27T10:25:46Z</time>
      </trkpt>
      <trkpt lat="45.34295" lon="6.14263">
        <ele>2123</ele>
        <time>2016-08-27T10:25:51Z</time>
      </trkpt>
      <trkpt lat="45.34293" lon="6.14259">
        <ele>2122</ele>
        <time>2016-08-27T10:25:56Z</time>
      </trkpt>
      <trkpt lat="45.34293" lon="6.14255">
        <ele>2122</ele>
        <time>2016-08-27T10:26:01Z</time>
      </trkpt>
      <trkpt lat="45.34293" lon="6.1425">
        <ele>2121</ele>
        <time>2016-08-27T10:26:06Z</time>
      </trkpt>
      <trkpt lat="45.34292" lon="6.14247">
        <ele>2120</ele>
        <time>2016-08-27T10:26:11Z</time>
      </trkpt>
      <trkpt lat="45.34289" lon="6.14245">
        <ele>2118</ele>
        <time>2016-08-27T10:26:16Z</time>
      </trkpt>
      <trkpt lat="45.34286" lon="6.14244">
        <ele>2116</ele>
        <time>2016-08-27T10:26:21Z</time>
      </trkpt>
      <trkpt lat="45.34283" lon="6.14245">
        <ele>2115</ele>
        <time>2016-08-27T10:26:26Z</time>
      </trkpt>
      <trkpt lat="45.34281" lon="6.14245">
        <ele>2114</ele>
        <time>2016-08-27T10:26:31Z</time>
      </trkpt>
      <trkpt lat="45.34279" lon="6.14245">
        <ele>2112</ele>
        <time>2016-08-27T10:26:36Z</time>
      </trkpt>
      <trkpt lat="45.34276" lon="6.14244">
        <ele>2111</ele>
        <time>2016-08-27T10:26:41Z</time>
      </trkpt>
      <trkpt lat="45.34274" lon="6.14243">
        <ele>2109</ele>
        <time>2016-08-27T10:26:46Z</time>
      </trkpt>
      <trkpt lat="45.34271" lon="6.14241">
        <ele>2108</ele>
        <time>2016-08-27T10:26:51Z</time>
      </trkpt>
      <trkpt lat="45.34268" lon="6.14241">
        <ele>2107</ele>
        <time>2016-08-27T10:26:56Z</time>
      </trkpt>
      <trkpt lat="45.34264" lon="6.14239">
        <ele>2106</ele>
        <time>2016-08-27T10:27:01Z</time>
      </trkpt>
      <trkpt lat="45.3426" lon="6.1424">
        <ele>2105</ele>
        <time>2016-08-27T10:27:06Z</time>
      </trkpt>
      <trkpt lat="45.34256" lon="6.14238">
        <ele>2105</ele>
        <time>2016-08-27T10:27:11Z</time>
      </trkpt>
      <trkpt lat="45.34253" lon="6.14236">
        <ele>2104</ele>
        <time>2016-08-27T10:27:16Z</time>
      </trkpt>
      <trkpt lat="45.34248" lon="6.14233">
        <ele>2103</ele>
        <time>2016-08-27T10:27:21Z</time>
      </trkpt>
      <trkpt lat="45.34246" lon="6.14232">
        <ele>2103</ele>
        <time>2016-08-27T10:27:26Z</time>
      </trkpt>
      <trkpt lat="45.34245" lon="6.14231">
        <ele>2103</ele>
        <time>2016-08-27T10:27:31Z</time>
      </trkpt>
      <trkpt lat="45.34245" lon="6.14231">
        <ele>2104</ele>
        <time>2016-08-27T10:27:36Z</time>
      </trkpt>
      <trkpt lat="45.34245" lon="6.14231">
        <ele>2104</ele>
        <time>2016-08-27T10:27:41Z</time>
      </trkpt>
      <trkpt lat="45.34244" lon="6.14232">
        <ele>2104</ele>
        <time>2016-08-27T10:27:46Z</time>
      </trkpt>
      <trkpt lat="45.34241" lon="6.14233">
        <ele>2102</ele>
        <time>2016-08-27T10:27:51Z</time>
      </trkpt>
      <trkpt lat="45.34236" lon="6.14232">
        <ele>2103</ele>
        <time>2016-08-27T10:27:56Z</time>
      </trkpt>
      <trkpt lat="45.34234" lon="6.1423">
        <ele>2104</ele>
        <time>2016-08-27T10:28:01Z</time>
      </trkpt>
      <trkpt lat="45.34233" lon="6.14228">
        <ele>2104</ele>
        <time>2016-08-27T10:28:06Z</time>
      </trkpt>
      <trkpt lat="45.34232" lon="6.14229">
        <ele>2104</ele>
        <time>2016-08-27T10:28:11Z</time>
      </trkpt>
      <trkpt lat="45.34232" lon="6.14229">
        <ele>2103</ele>
        <time>2016-08-27T10:28:16Z</time>
      </trkpt>
      <trkpt lat="45.3423" lon="6.14228">
        <ele>2103</ele>
        <time>2016-08-27T10:28:21Z</time>
      </trkpt>
      <trkpt lat="45.3423" lon="6.14228">
        <ele>2104</ele>
        <time>2016-08-27T10:28:26Z</time>
      </trkpt>
      <trkpt lat="45.34227" lon="6.14231">
        <ele>2102</ele>
        <time>2016-08-27T10:28:31Z</time>
      </trkpt>
      <trkpt lat="45.34223" lon="6.14232">
        <ele>2102</ele>
        <time>2016-08-27T10:28:36Z</time>
      </trkpt>
      <trkpt lat="45.34219" lon="6.14233">
        <ele>2101</ele>
        <time>2016-08-27T10:28:41Z</time>
      </trkpt>
      <trkpt lat="45.34216" lon="6.14233">
        <ele>2102</ele>
        <time>2016-08-27T10:28:46Z</time>
      </trkpt>
      <trkpt lat="45.34213" lon="6.14233">
        <ele>2102</ele>
        <time>2016-08-27T10:28:51Z</time>
      </trkpt>
      <trkpt lat="45.3421" lon="6.14235">
        <ele>2101</ele>
        <time>2016-08-27T10:28:56Z</time>
      </trkpt>
      <trkpt lat="45.34205" lon="6.14234">
        <ele>2101</ele>
        <time>2016-08-27T10:29:01Z</time>
      </trkpt>
      <trkpt lat="45.342" lon="6.14233">
        <ele>2101</ele>
        <time>2016-08-27T10:29:06Z</time>
      </trkpt>
      <trkpt lat="45.34196" lon="6.14232">
        <ele>2101</ele>
        <time>2016-08-27T10:29:11Z</time>
      </trkpt>
      <trkpt lat="45.34192" lon="6.14231">
        <ele>2101</ele>
        <time>2016-08-27T10:29:16Z</time>
      </trkpt>
      <trkpt lat="45.34187" lon="6.14232">
        <ele>2102</ele>
        <time>2016-08-27T10:29:21Z</time>
      </trkpt>
      <trkpt lat="45.34182" lon="6.14231">
        <ele>2101</ele>
        <time>2016-08-27T10:29:26Z</time>
      </trkpt>
      <trkpt lat="45.34179" lon="6.14232">
        <ele>2102</ele>
        <time>2016-08-27T10:29:31Z</time>
      </trkpt>
      <trkpt lat="45.34179" lon="6.14232">
        <ele>2102</ele>
        <time>2016-08-27T10:29:36Z</time>
      </trkpt>
      <trkpt lat="45.34177" lon="6.14232">
        <ele>2101</ele>
        <time>2016-08-27T10:29:41Z</time>
      </trkpt>
      <trkpt lat="45.34177" lon="6.14233">
        <ele>2101</ele>
        <time>2016-08-27T10:29:46Z</time>
      </trkpt>
      <trkpt lat="45.34175" lon="6.14232">
        <ele>2101</ele>
        <time>2016-08-27T10:29:51Z</time>
      </trkpt>
      <trkpt lat="45.3417" lon="6.14234">
        <ele>2101</ele>
        <time>2016-08-27T10:29:56Z</time>
      </trkpt>
      <trkpt lat="45.34165" lon="6.14232">
        <ele>2101</ele>
        <time>2016-08-27T10:30:01Z</time>
      </trkpt>
      <trkpt lat="45.3416" lon="6.14231">
        <ele>2101</ele>
        <time>2016-08-27T10:30:06Z</time>
      </trkpt>
      <trkpt lat="45.34158" lon="6.14231">
        <ele>2102</ele>
        <time>2016-08-27T10:30:11Z</time>
      </trkpt>
      <trkpt lat="45.34155" lon="6.14233">
        <ele>2100</ele>
        <time>2016-08-27T10:30:16Z</time>
      </trkpt>
      <trkpt lat="45.34151" lon="6.14236">
        <ele>2099</ele>
        <time>2016-08-27T10:30:21Z</time>
      </trkpt>
      <trkpt lat="45.34147" lon="6.14236">
        <ele>2099</ele>
        <time>2016-08-27T10:30:26Z</time>
      </trkpt>
      <trkpt lat="45.34144" lon="6.14236">
        <ele>2100</ele>
        <time>2016-08-27T10:30:31Z</time>
      </trkpt>
      <trkpt lat="45.34143" lon="6.14237">
        <ele>2100</ele>
        <time>2016-08-27T10:30:36Z</time>
      </trkpt>
      <trkpt lat="45.34142" lon="6.14238">
        <ele>2100</ele>
        <time>2016-08-27T10:30:41Z</time>
      </trkpt>
      <trkpt lat="45.34142" lon="6.14238">
        <ele>2100</ele>
        <time>2016-08-27T10:30:46Z</time>
      </trkpt>
      <trkpt lat="45.34142" lon="6.14238">
        <ele>2101</ele>
        <time>2016-08-27T10:30:51Z</time>
      </trkpt>
      <trkpt lat="45.34142" lon="6.14238">
        <ele>2100</ele>
        <time>2016-08-27T10:30:56Z</time>
      </trkpt>
      <trkpt lat="45.34141" lon="6.14239">
        <ele>2099</ele>
        <time>2016-08-27T10:31:01Z</time>
      </trkpt>
      <trkpt lat="45.3414" lon="6.14241">
        <ele>2098</ele>
        <time>2016-08-27T10:31:06Z</time>
      </trkpt>
      <trkpt lat="45.34139" lon="6.14243">
        <ele>2097</ele>
        <time>2016-08-27T10:31:11Z</time>
      </trkpt>
      <trkpt lat="45.34138" lon="6.14244">
        <ele>2097</ele>
        <time>2016-08-27T10:31:16Z</time>
      </trkpt>
      <trkpt lat="45.34138" lon="6.14244">
        <ele>2097</ele>
        <time>2016-08-27T10:31:21Z</time>
      </trkpt>
      <trkpt lat="45.34138" lon="6.14243">
        <ele>2096</ele>
        <time>2016-08-27T10:31:26Z</time>
      </trkpt>
      <trkpt lat="45.34137" lon="6.14244">
        <ele>2096</ele>
        <time>2016-08-27T10:31:31Z</time>
      </trkpt>
      <trkpt lat="45.34136" lon="6.14245">
        <ele>2096</ele>
        <time>2016-08-27T10:31:36Z</time>
      </trkpt>
      <trkpt lat="45.34136" lon="6.14245">
        <ele>2096</ele>
        <time>2016-08-27T10:31:41Z</time>
      </trkpt>
      <trkpt lat="45.34136" lon="6.14245">
        <ele>2096</ele>
        <time>2016-08-27T10:31:46Z</time>
      </trkpt>
      <trkpt lat="45.34136" lon="6.14246">
        <ele>2096</ele>
        <time>2016-08-27T10:31:51Z</time>
      </trkpt>
      <trkpt lat="45.34134" lon="6.14248">
        <ele>2095</ele>
        <time>2016-08-27T10:31:56Z</time>
      </trkpt>
      <trkpt lat="45.34132" lon="6.14249">
        <ele>2095</ele>
        <time>2016-08-27T10:32:01Z</time>
      </trkpt>
      <trkpt lat="45.34132" lon="6.14249">
        <ele>2094</ele>
        <time>2016-08-27T10:32:06Z</time>
      </trkpt>
      <trkpt lat="45.34131" lon="6.1425">
        <ele>2093</ele>
        <time>2016-08-27T10:32:11Z</time>
      </trkpt>
      <trkpt lat="45.34129" lon="6.1425">
        <ele>2092</ele>
        <time>2016-08-27T10:32:16Z</time>
      </trkpt>
      <trkpt lat="45.34129" lon="6.1425">
        <ele>2092</ele>
        <time>2016-08-27T10:32:21Z</time>
      </trkpt>
      <trkpt lat="45.34128" lon="6.1425">
        <ele>2091</ele>
        <time>2016-08-27T10:32:26Z</time>
      </trkpt>
      <trkpt lat="45.34129" lon="6.1425">
        <ele>2092</ele>
        <time>2016-08-27T10:32:31Z</time>
      </trkpt>
      <trkpt lat="45.34128" lon="6.1425">
        <ele>2092</ele>
        <time>2016-08-27T10:32:36Z</time>
      </trkpt>
      <trkpt lat="45.34128" lon="6.1425">
        <ele>2092</ele>
        <time>2016-08-27T10:32:41Z</time>
      </trkpt>
      <trkpt lat="45.34127" lon="6.1425">
        <ele>2092</ele>
        <time>2016-08-27T10:32:46Z</time>
      </trkpt>
      <trkpt lat="45.34127" lon="6.1425">
        <ele>2093</ele>
        <time>2016-08-27T10:32:51Z</time>
      </trkpt>
      <trkpt lat="45.34126" lon="6.14252">
        <ele>2093</ele>
        <time>2016-08-27T10:32:56Z</time>
      </trkpt>
      <trkpt lat="45.34126" lon="6.14252">
        <ele>2093</ele>
        <time>2016-08-27T10:33:01Z</time>
      </trkpt>
      <trkpt lat="45.34126" lon="6.14252">
        <ele>2093</ele>
        <time>2016-08-27T10:33:06Z</time>
      </trkpt>
      <trkpt lat="45.34127" lon="6.14252">
        <ele>2093</ele>
        <time>2016-08-27T10:33:11Z</time>
      </trkpt>
      <trkpt lat="45.34127" lon="6.14253">
        <ele>2093</ele>
        <time>2016-08-27T10:33:16Z</time>
      </trkpt>
      <trkpt lat="45.34127" lon="6.14253">
        <ele>2094</ele>
        <time>2016-08-27T10:33:21Z</time>
      </trkpt>
      <trkpt lat="45.34127" lon="6.14253">
        <ele>2094</ele>
        <time>2016-08-27T10:33:26Z</time>
      </trkpt>
      <trkpt lat="45.34128" lon="6.14254">
        <ele>2094</ele>
        <time>2016-08-27T10:33:31Z</time>
      </trkpt>
      <trkpt lat="45.34127" lon="6.14254">
        <ele>2093</ele>
        <time>2016-08-27T10:33:36Z</time>
      </trkpt>
      <trkpt lat="45.34125" lon="6.14256">
        <ele>2093</ele>
        <time>2016-08-27T10:33:41Z</time>
      </trkpt>
      <trkpt lat="45.34123" lon="6.14256">
        <ele>2094</ele>
        <time>2016-08-27T10:33:46Z</time>
      </trkpt>
      <trkpt lat="45.34121" lon="6.14257">
        <ele>2093</ele>
        <time>2016-08-27T10:33:51Z</time>
      </trkpt>
      <trkpt lat="45.34119" lon="6.14259">
        <ele>2093</ele>
        <time>2016-08-27T10:33:56Z</time>
      </trkpt>
      <trkpt lat="45.34119" lon="6.1426">
        <ele>2094</ele>
        <time>2016-08-27T10:34:01Z</time>
      </trkpt>
      <trkpt lat="45.34117" lon="6.14262">
        <ele>2093</ele>
        <time>2016-08-27T10:34:06Z</time>
      </trkpt>
      <trkpt lat="45.34115" lon="6.14264">
        <ele>2092</ele>
        <time>2016-08-27T10:34:11Z</time>
      </trkpt>
      <trkpt lat="45.34113" lon="6.14267">
        <ele>2090</ele>
        <time>2016-08-27T10:34:16Z</time>
      </trkpt>
      <trkpt lat="45.34111" lon="6.14269">
        <ele>2089</ele>
        <time>2016-08-27T10:34:21Z</time>
      </trkpt>
      <trkpt lat="45.3411" lon="6.14268">
        <ele>2087</ele>
        <time>2016-08-27T10:34:26Z</time>
      </trkpt>
      <trkpt lat="45.3411" lon="6.14269">
        <ele>2087</ele>
        <time>2016-08-27T10:34:31Z</time>
      </trkpt>
      <trkpt lat="45.34108" lon="6.1427">
        <ele>2086</ele>
        <time>2016-08-27T10:34:36Z</time>
      </trkpt>
      <trkpt lat="45.34107" lon="6.14272">
        <ele>2085</ele>
        <time>2016-08-27T10:34:41Z</time>
      </trkpt>
      <trkpt lat="45.34102" lon="6.14275">
        <ele>2085</ele>
        <time>2016-08-27T10:34:46Z</time>
      </trkpt>
      <trkpt lat="45.34099" lon="6.14277">
        <ele>2085</ele>
        <time>2016-08-27T10:34:51Z</time>
      </trkpt>
      <trkpt lat="45.34096" lon="6.14278">
        <ele>2085</ele>
        <time>2016-08-27T10:34:56Z</time>
      </trkpt>
      <trkpt lat="45.34092" lon="6.1428">
        <ele>2085</ele>
        <time>2016-08-27T10:35:01Z</time>
      </trkpt>
      <trkpt lat="45.34089" lon="6.14283">
        <ele>2086</ele>
        <time>2016-08-27T10:35:06Z</time>
      </trkpt>
      <trkpt lat="45.34086" lon="6.14286">
        <ele>2086</ele>
        <time>2016-08-27T10:35:11Z</time>
      </trkpt>
      <trkpt lat="45.34083" lon="6.14289">
        <ele>2086</ele>
        <time>2016-08-27T10:35:16Z</time>
      </trkpt>
      <trkpt lat="45.3408" lon="6.14293">
        <ele>2086</ele>
        <time>2016-08-27T10:35:21Z</time>
      </trkpt>
      <trkpt lat="45.34076" lon="6.14294">
        <ele>2087</ele>
        <time>2016-08-27T10:35:26Z</time>
      </trkpt>
      <trkpt lat="45.34072" lon="6.14296">
        <ele>2087</ele>
        <time>2016-08-27T10:35:31Z</time>
      </trkpt>
      <trkpt lat="45.34068" lon="6.14298">
        <ele>2087</ele>
        <time>2016-08-27T10:35:36Z</time>
      </trkpt>
      <trkpt lat="45.34067" lon="6.14301">
        <ele>2088</ele>
        <time>2016-08-27T10:35:41Z</time>
      </trkpt>
      <trkpt lat="45.34065" lon="6.14303">
        <ele>2089</ele>
        <time>2016-08-27T10:35:46Z</time>
      </trkpt>
      <trkpt lat="45.34063" lon="6.14305">
        <ele>2091</ele>
        <time>2016-08-27T10:35:51Z</time>
      </trkpt>
      <trkpt lat="45.34061" lon="6.14305">
        <ele>2090</ele>
        <time>2016-08-27T10:35:56Z</time>
      </trkpt>
      <trkpt lat="45.34058" lon="6.14307">
        <ele>2091</ele>
        <time>2016-08-27T10:36:01Z</time>
      </trkpt>
      <trkpt lat="45.34057" lon="6.1431">
        <ele>2092</ele>
        <time>2016-08-27T10:36:06Z</time>
      </trkpt>
      <trkpt lat="45.34054" lon="6.14312">
        <ele>2091</ele>
        <time>2016-08-27T10:36:11Z</time>
      </trkpt>
      <trkpt lat="45.34052" lon="6.14313">
        <ele>2092</ele>
        <time>2016-08-27T10:36:16Z</time>
      </trkpt>
      <trkpt lat="45.34052" lon="6.14316">
        <ele>2093</ele>
        <time>2016-08-27T10:36:21Z</time>
      </trkpt>
      <trkpt lat="45.34052" lon="6.14318">
        <ele>2094</ele>
        <time>2016-08-27T10:36:26Z</time>
      </trkpt>
      <trkpt lat="45.34051" lon="6.14318">
        <ele>2095</ele>
        <time>2016-08-27T10:36:31Z</time>
      </trkpt>
      <trkpt lat="45.34049" lon="6.1432">
        <ele>2096</ele>
        <time>2016-08-27T10:36:36Z</time>
      </trkpt>
      <trkpt lat="45.34048" lon="6.14321">
        <ele>2097</ele>
        <time>2016-08-27T10:36:41Z</time>
      </trkpt>
      <trkpt lat="45.34045" lon="6.14324">
        <ele>2097</ele>
        <time>2016-08-27T10:36:46Z</time>
      </trkpt>
      <trkpt lat="45.34047" lon="6.14325">
        <ele>2098</ele>
        <time>2016-08-27T10:36:51Z</time>
      </trkpt>
      <trkpt lat="45.34047" lon="6.14325">
        <ele>2098</ele>
        <time>2016-08-27T10:36:56Z</time>
      </trkpt>
      <trkpt lat="45.34045" lon="6.14325">
        <ele>2098</ele>
        <time>2016-08-27T10:37:01Z</time>
      </trkpt>
      <trkpt lat="45.34045" lon="6.14325">
        <ele>2096</ele>
        <time>2016-08-27T10:37:06Z</time>
      </trkpt>
      <trkpt lat="45.34045" lon="6.14325">
        <ele>2095</ele>
        <time>2016-08-27T10:37:11Z</time>
      </trkpt>
      <trkpt lat="45.34046" lon="6.14327">
        <ele>2096</ele>
        <time>2016-08-27T10:37:16Z</time>
      </trkpt>
      <trkpt lat="45.34047" lon="6.14328">
        <ele>2098</ele>
        <time>2016-08-27T10:37:21Z</time>
      </trkpt>
      <trkpt lat="45.34048" lon="6.14328">
        <ele>2098</ele>
        <time>2016-08-27T10:37:26Z</time>
      </trkpt>
      <trkpt lat="45.34049" lon="6.14329">
        <ele>2099</ele>
        <time>2016-08-27T10:37:31Z</time>
      </trkpt>
      <trkpt lat="45.34049" lon="6.14329">
        <ele>2099</ele>
        <time>2016-08-27T10:37:36Z</time>
      </trkpt>
      <trkpt lat="45.34049" lon="6.1433">
        <ele>2099</ele>
        <time>2016-08-27T10:37:41Z</time>
      </trkpt>
      <trkpt lat="45.34049" lon="6.1433">
        <ele>2100</ele>
        <time>2016-08-27T10:37:46Z</time>
      </trkpt>
      <trkpt lat="45.34049" lon="6.1433">
        <ele>2100</ele>
        <time>2016-08-27T10:37:51Z</time>
      </trkpt>
      <trkpt lat="45.34047" lon="6.14331">
        <ele>2099</ele>
        <time>2016-08-27T10:37:56Z</time>
      </trkpt>
      <trkpt lat="45.34044" lon="6.14332">
        <ele>2098</ele>
        <time>2016-08-27T10:38:01Z</time>
      </trkpt>
      <trkpt lat="45.34041" lon="6.14334">
        <ele>2097</ele>
        <time>2016-08-27T10:38:06Z</time>
      </trkpt>
      <trkpt lat="45.34038" lon="6.14336">
        <ele>2097</ele>
        <time>2016-08-27T10:38:11Z</time>
      </trkpt>
      <trkpt lat="45.34035" lon="6.14337">
        <ele>2097</ele>
        <time>2016-08-27T10:38:16Z</time>
      </trkpt>
      <trkpt lat="45.34033" lon="6.1434">
        <ele>2097</ele>
        <time>2016-08-27T10:38:21Z</time>
      </trkpt>
      <trkpt lat="45.34031" lon="6.14343">
        <ele>2098</ele>
        <time>2016-08-27T10:38:26Z</time>
      </trkpt>
      <trkpt lat="45.3403" lon="6.14345">
        <ele>2098</ele>
        <time>2016-08-27T10:38:31Z</time>
      </trkpt>
      <trkpt lat="45.34029" lon="6.14346">
        <ele>2098</ele>
        <time>2016-08-27T10:38:36Z</time>
      </trkpt>
      <trkpt lat="45.34029" lon="6.14348">
        <ele>2098</ele>
        <time>2016-08-27T10:38:41Z</time>
      </trkpt>
      <trkpt lat="45.34027" lon="6.1435">
        <ele>2099</ele>
        <time>2016-08-27T10:38:46Z</time>
      </trkpt>
      <trkpt lat="45.34026" lon="6.14353">
        <ele>2100</ele>
        <time>2016-08-27T10:38:51Z</time>
      </trkpt>
      <trkpt lat="45.34025" lon="6.14355">
        <ele>2101</ele>
        <time>2016-08-27T10:38:56Z</time>
      </trkpt>
      <trkpt lat="45.34025" lon="6.14355">
        <ele>2102</ele>
        <time>2016-08-27T10:39:01Z</time>
      </trkpt>
      <trkpt lat="45.34025" lon="6.14355">
        <ele>2103</ele>
        <time>2016-08-27T10:39:06Z</time>
      </trkpt>
      <trkpt lat="45.34024" lon="6.14355">
        <ele>2103</ele>
        <time>2016-08-27T10:39:11Z</time>
      </trkpt>
      <trkpt lat="45.34023" lon="6.14356">
        <ele>2103</ele>
        <time>2016-08-27T10:39:16Z</time>
      </trkpt>
      <trkpt lat="45.34023" lon="6.14357">
        <ele>2104</ele>
        <time>2016-08-27T10:39:21Z</time>
      </trkpt>
      <trkpt lat="45.34021" lon="6.14356">
        <ele>2104</ele>
        <time>2016-08-27T10:39:26Z</time>
      </trkpt>
      <trkpt lat="45.34019" lon="6.14357">
        <ele>2105</ele>
        <time>2016-08-27T10:39:31Z</time>
      </trkpt>
      <trkpt lat="45.34019" lon="6.14358">
        <ele>2105</ele>
        <time>2016-08-27T10:39:36Z</time>
      </trkpt>
      <trkpt lat="45.34017" lon="6.14358">
        <ele>2105</ele>
        <time>2016-08-27T10:39:41Z</time>
      </trkpt>
      <trkpt lat="45.34015" lon="6.14359">
        <ele>2106</ele>
        <time>2016-08-27T10:39:46Z</time>
      </trkpt>
      <trkpt lat="45.34014" lon="6.14361">
        <ele>2107</ele>
        <time>2016-08-27T10:39:51Z</time>
      </trkpt>
      <trkpt lat="45.34013" lon="6.14363">
        <ele>2108</ele>
        <time>2016-08-27T10:39:56Z</time>
      </trkpt>
      <trkpt lat="45.34012" lon="6.14365">
        <ele>2109</ele>
        <time>2016-08-27T10:40:01Z</time>
      </trkpt>
      <trkpt lat="45.3401" lon="6.14365">
        <ele>2108</ele>
        <time>2016-08-27T10:40:06Z</time>
      </trkpt>
      <trkpt lat="45.34009" lon="6.14365">
        <ele>2109</ele>
        <time>2016-08-27T10:40:11Z</time>
      </trkpt>
      <trkpt lat="45.34009" lon="6.14365">
        <ele>2109</ele>
        <time>2016-08-27T10:40:16Z</time>
      </trkpt>
      <trkpt lat="45.3401" lon="6.14365">
        <ele>2109</ele>
        <time>2016-08-27T10:40:21Z</time>
      </trkpt>
      <trkpt lat="45.34008" lon="6.1437">
        <ele>2109</ele>
        <time>2016-08-27T10:40:26Z</time>
      </trkpt>
      <trkpt lat="45.34007" lon="6.1437">
        <ele>2110</ele>
        <time>2016-08-27T10:40:31Z</time>
      </trkpt>
      <trkpt lat="45.34005" lon="6.14373">
        <ele>2110</ele>
        <time>2016-08-27T10:40:36Z</time>
      </trkpt>
      <trkpt lat="45.34003" lon="6.14376">
        <ele>2111</ele>
        <time>2016-08-27T10:40:41Z</time>
      </trkpt>
      <trkpt lat="45.34001" lon="6.14378">
        <ele>2112</ele>
        <time>2016-08-27T10:40:46Z</time>
      </trkpt>
      <trkpt lat="45.33999" lon="6.14379">
        <ele>2112</ele>
        <time>2016-08-27T10:40:51Z</time>
      </trkpt>
      <trkpt lat="45.33997" lon="6.14378">
        <ele>2113</ele>
        <time>2016-08-27T10:40:56Z</time>
      </trkpt>
      <trkpt lat="45.33995" lon="6.14379">
        <ele>2113</ele>
        <time>2016-08-27T10:41:01Z</time>
      </trkpt>
      <trkpt lat="45.33992" lon="6.1438">
        <ele>2114</ele>
        <time>2016-08-27T10:41:06Z</time>
      </trkpt>
      <trkpt lat="45.33992" lon="6.1438">
        <ele>2117</ele>
        <time>2016-08-27T10:41:11Z</time>
      </trkpt>
      <trkpt lat="45.33994" lon="6.14382">
        <ele>2119</ele>
        <time>2016-08-27T10:41:16Z</time>
      </trkpt>
      <trkpt lat="45.33994" lon="6.14384">
        <ele>2121</ele>
        <time>2016-08-27T10:41:21Z</time>
      </trkpt>
      <trkpt lat="45.33993" lon="6.14385">
        <ele>2121</ele>
        <time>2016-08-27T10:41:26Z</time>
      </trkpt>
      <trkpt lat="45.33995" lon="6.14386">
        <ele>2123</ele>
        <time>2016-08-27T10:41:31Z</time>
      </trkpt>
      <trkpt lat="45.33997" lon="6.14387">
        <ele>2127</ele>
        <time>2016-08-27T10:41:36Z</time>
      </trkpt>
      <trkpt lat="45.33998" lon="6.14388">
        <ele>2127</ele>
        <time>2016-08-27T10:41:41Z</time>
      </trkpt>
      <trkpt lat="45.33997" lon="6.14388">
        <ele>2126</ele>
        <time>2016-08-27T10:41:46Z</time>
      </trkpt>
      <trkpt lat="45.33997" lon="6.14388">
        <ele>2127</ele>
        <time>2016-08-27T10:41:51Z</time>
      </trkpt>
      <trkpt lat="45.33996" lon="6.14389">
        <ele>2128</ele>
        <time>2016-08-27T10:41:56Z</time>
      </trkpt>
      <trkpt lat="45.33994" lon="6.14389">
        <ele>2128</ele>
        <time>2016-08-27T10:42:01Z</time>
      </trkpt>
      <trkpt lat="45.3399" lon="6.14389">
        <ele>2127</ele>
        <time>2016-08-27T10:42:06Z</time>
      </trkpt>
      <trkpt lat="45.33987" lon="6.14389">
        <ele>2127</ele>
        <time>2016-08-27T10:42:11Z</time>
      </trkpt>
      <trkpt lat="45.33985" lon="6.1439">
        <ele>2129</ele>
        <time>2016-08-27T10:42:16Z</time>
      </trkpt>
      <trkpt lat="45.3399" lon="6.14393">
        <ele>2130</ele>
        <time>2016-08-27T10:42:21Z</time>
      </trkpt>
      <trkpt lat="45.3399" lon="6.14396">
        <ele>2131</ele>
        <time>2016-08-27T10:42:26Z</time>
      </trkpt>
      <trkpt lat="45.33989" lon="6.14398">
        <ele>2131</ele>
        <time>2016-08-27T10:42:31Z</time>
      </trkpt>
      <trkpt lat="45.33987" lon="6.14399">
        <ele>2131</ele>
        <time>2016-08-27T10:42:36Z</time>
      </trkpt>
      <trkpt lat="45.33984" lon="6.14399">
        <ele>2131</ele>
        <time>2016-08-27T10:42:41Z</time>
      </trkpt>
      <trkpt lat="45.33982" lon="6.14398">
        <ele>2130</ele>
        <time>2016-08-27T10:42:46Z</time>
      </trkpt>
      <trkpt lat="45.33979" lon="6.14397">
        <ele>2130</ele>
        <time>2016-08-27T10:42:51Z</time>
      </trkpt>
      <trkpt lat="45.33976" lon="6.14398">
        <ele>2130</ele>
        <time>2016-08-27T10:42:56Z</time>
      </trkpt>
      <trkpt lat="45.33974" lon="6.144">
        <ele>2131</ele>
        <time>2016-08-27T10:43:01Z</time>
      </trkpt>
      <trkpt lat="45.33971" lon="6.14401">
        <ele>2130</ele>
        <time>2016-08-27T10:43:06Z</time>
      </trkpt>
      <trkpt lat="45.3397" lon="6.14402">
        <ele>2132</ele>
        <time>2016-08-27T10:43:11Z</time>
      </trkpt>
      <trkpt lat="45.3397" lon="6.14404">
        <ele>2133</ele>
        <time>2016-08-27T10:43:16Z</time>
      </trkpt>
      <trkpt lat="45.3397" lon="6.14407">
        <ele>2134</ele>
        <time>2016-08-27T10:43:21Z</time>
      </trkpt>
      <trkpt lat="45.33968" lon="6.14407">
        <ele>2134</ele>
        <time>2016-08-27T10:43:26Z</time>
      </trkpt>
      <trkpt lat="45.33966" lon="6.14407">
        <ele>2134</ele>
        <time>2016-08-27T10:43:31Z</time>
      </trkpt>
      <trkpt lat="45.33964" lon="6.14406">
        <ele>2135</ele>
        <time>2016-08-27T10:43:36Z</time>
      </trkpt>
      <trkpt lat="45.33962" lon="6.14405">
        <ele>2135</ele>
        <time>2016-08-27T10:43:41Z</time>
      </trkpt>
      <trkpt lat="45.3396" lon="6.14405">
        <ele>2135</ele>
        <time>2016-08-27T10:43:46Z</time>
      </trkpt>
      <trkpt lat="45.33958" lon="6.14405">
        <ele>2136</ele>
        <time>2016-08-27T10:43:51Z</time>
      </trkpt>
      <trkpt lat="45.33957" lon="6.14406">
        <ele>2137</ele>
        <time>2016-08-27T10:43:56Z</time>
      </trkpt>
      <trkpt lat="45.33955" lon="6.14408">
        <ele>2137</ele>
        <time>2016-08-27T10:44:01Z</time>
      </trkpt>
      <trkpt lat="45.33953" lon="6.14407">
        <ele>2138</ele>
        <time>2016-08-27T10:44:06Z</time>
      </trkpt>
      <trkpt lat="45.33951" lon="6.14405">
        <ele>2138</ele>
        <time>2016-08-27T10:44:11Z</time>
      </trkpt>
      <trkpt lat="45.33949" lon="6.14404">
        <ele>2138</ele>
        <time>2016-08-27T10:44:16Z</time>
      </trkpt>
      <trkpt lat="45.33947" lon="6.14403">
        <ele>2138</ele>
        <time>2016-08-27T10:44:21Z</time>
      </trkpt>
      <trkpt lat="45.33946" lon="6.14403">
        <ele>2139</ele>
        <time>2016-08-27T10:44:26Z</time>
      </trkpt>
      <trkpt lat="45.33944" lon="6.14403">
        <ele>2140</ele>
        <time>2016-08-27T10:44:31Z</time>
      </trkpt>
      <trkpt lat="45.33943" lon="6.14404">
        <ele>2143</ele>
        <time>2016-08-27T10:44:36Z</time>
      </trkpt>
      <trkpt lat="45.33943" lon="6.14403">
        <ele>2145</ele>
        <time>2016-08-27T10:44:41Z</time>
      </trkpt>
      <trkpt lat="45.33945" lon="6.14405">
        <ele>2147</ele>
        <time>2016-08-27T10:44:46Z</time>
      </trkpt>
      <trkpt lat="45.33947" lon="6.14407">
        <ele>2148</ele>
        <time>2016-08-27T10:44:51Z</time>
      </trkpt>
      <trkpt lat="45.33948" lon="6.14406">
        <ele>2153</ele>
        <time>2016-08-27T10:44:56Z</time>
      </trkpt>
      <trkpt lat="45.33946" lon="6.14406">
        <ele>2154</ele>
        <time>2016-08-27T10:45:01Z</time>
      </trkpt>
      <trkpt lat="45.33944" lon="6.14406">
        <ele>2155</ele>
        <time>2016-08-27T10:45:06Z</time>
      </trkpt>
      <trkpt lat="45.33942" lon="6.14406">
        <ele>2155</ele>
        <time>2016-08-27T10:45:11Z</time>
      </trkpt>
      <trkpt lat="45.33941" lon="6.14406">
        <ele>2156</ele>
        <time>2016-08-27T10:45:16Z</time>
      </trkpt>
      <trkpt lat="45.33939" lon="6.14406">
        <ele>2157</ele>
        <time>2016-08-27T10:45:21Z</time>
      </trkpt>
      <trkpt lat="45.33939" lon="6.14407">
        <ele>2156</ele>
        <time>2016-08-27T10:45:26Z</time>
      </trkpt>
      <trkpt lat="45.33937" lon="6.14406">
        <ele>2158</ele>
        <time>2016-08-27T10:45:31Z</time>
      </trkpt>
      <trkpt lat="45.33936" lon="6.14404">
        <ele>2162</ele>
        <time>2016-08-27T10:45:36Z</time>
      </trkpt>
      <trkpt lat="45.33935" lon="6.14404">
        <ele>2163</ele>
        <time>2016-08-27T10:45:41Z</time>
      </trkpt>
      <trkpt lat="45.33935" lon="6.14404">
        <ele>2164</ele>
        <time>2016-08-27T10:45:46Z</time>
      </trkpt>
      <trkpt lat="45.33933" lon="6.14405">
        <ele>2163</ele>
        <time>2016-08-27T10:45:51Z</time>
      </trkpt>
      <trkpt lat="45.33932" lon="6.14405">
        <ele>2163</ele>
        <time>2016-08-27T10:45:56Z</time>
      </trkpt>
      <trkpt lat="45.3393" lon="6.14405">
        <ele>2161</ele>
        <time>2016-08-27T10:46:01Z</time>
      </trkpt>
      <trkpt lat="45.3393" lon="6.14407">
        <ele>2160</ele>
        <time>2016-08-27T10:46:06Z</time>
      </trkpt>
      <trkpt lat="45.33929" lon="6.14408">
        <ele>2160</ele>
        <time>2016-08-27T10:46:11Z</time>
      </trkpt>
      <trkpt lat="45.33928" lon="6.14409">
        <ele>2160</ele>
        <time>2016-08-27T10:46:16Z</time>
      </trkpt>
      <trkpt lat="45.33927" lon="6.1441">
        <ele>2160</ele>
        <time>2016-08-27T10:46:21Z</time>
      </trkpt>
      <trkpt lat="45.33927" lon="6.14411">
        <ele>2161</ele>
        <time>2016-08-27T10:46:26Z</time>
      </trkpt>
      <trkpt lat="45.33926" lon="6.14412">
        <ele>2160</ele>
        <time>2016-08-27T10:46:31Z</time>
      </trkpt>
      <trkpt lat="45.33925" lon="6.14414">
        <ele>2161</ele>
        <time>2016-08-27T10:46:36Z</time>
      </trkpt>
      <trkpt lat="45.33925" lon="6.14414">
        <ele>2160</ele>
        <time>2016-08-27T10:46:41Z</time>
      </trkpt>
      <trkpt lat="45.33925" lon="6.14414">
        <ele>2160</ele>
        <time>2016-08-27T10:46:46Z</time>
      </trkpt>
      <trkpt lat="45.33923" lon="6.14416">
        <ele>2160</ele>
        <time>2016-08-27T10:46:51Z</time>
      </trkpt>
      <trkpt lat="45.33922" lon="6.14416">
        <ele>2161</ele>
        <time>2016-08-27T10:46:56Z</time>
      </trkpt>
      <trkpt lat="45.3392" lon="6.14418">
        <ele>2162</ele>
        <time>2016-08-27T10:47:01Z</time>
      </trkpt>
      <trkpt lat="45.3392" lon="6.14419">
        <ele>2164</ele>
        <time>2016-08-27T10:47:06Z</time>
      </trkpt>
      <trkpt lat="45.3392" lon="6.1442">
        <ele>2165</ele>
        <time>2016-08-27T10:47:11Z</time>
      </trkpt>
      <trkpt lat="45.3392" lon="6.14419">
        <ele>2165</ele>
        <time>2016-08-27T10:47:16Z</time>
      </trkpt>
      <trkpt lat="45.33922" lon="6.14421">
        <ele>2167</ele>
        <time>2016-08-27T10:47:21Z</time>
      </trkpt>
      <trkpt lat="45.33922" lon="6.14422">
        <ele>2168</ele>
        <time>2016-08-27T10:47:26Z</time>
      </trkpt>
      <trkpt lat="45.3392" lon="6.14425">
        <ele>2168</ele>
        <time>2016-08-27T10:47:31Z</time>
      </trkpt>
      <trkpt lat="45.33918" lon="6.14427">
        <ele>2169</ele>
        <time>2016-08-27T10:47:36Z</time>
      </trkpt>
      <trkpt lat="45.33918" lon="6.14429">
        <ele>2170</ele>
        <time>2016-08-27T10:47:41Z</time>
      </trkpt>
      <trkpt lat="45.33915" lon="6.1443">
        <ele>2170</ele>
        <time>2016-08-27T10:47:46Z</time>
      </trkpt>
      <trkpt lat="45.33914" lon="6.14431">
        <ele>2170</ele>
        <time>2016-08-27T10:47:51Z</time>
      </trkpt>
      <trkpt lat="45.33914" lon="6.14431">
        <ele>2170</ele>
        <time>2016-08-27T10:47:56Z</time>
      </trkpt>
      <trkpt lat="45.33912" lon="6.14427">
        <ele>2170</ele>
        <time>2016-08-27T10:48:01Z</time>
      </trkpt>
      <trkpt lat="45.3391" lon="6.14427">
        <ele>2171</ele>
        <time>2016-08-27T10:48:06Z</time>
      </trkpt>
      <trkpt lat="45.33909" lon="6.14426">
        <ele>2171</ele>
        <time>2016-08-27T10:48:11Z</time>
      </trkpt>
      <trkpt lat="45.33907" lon="6.14426">
        <ele>2172</ele>
        <time>2016-08-27T10:48:16Z</time>
      </trkpt>
      <trkpt lat="45.33906" lon="6.14425">
        <ele>2172</ele>
        <time>2016-08-27T10:48:21Z</time>
      </trkpt>
      <trkpt lat="45.33906" lon="6.14424">
        <ele>2172</ele>
        <time>2016-08-27T10:48:26Z</time>
      </trkpt>
      <trkpt lat="45.33906" lon="6.14424">
        <ele>2171</ele>
        <time>2016-08-27T10:48:31Z</time>
      </trkpt>
      <trkpt lat="45.33905" lon="6.14421">
        <ele>2171</ele>
        <time>2016-08-27T10:48:36Z</time>
      </trkpt>
      <trkpt lat="45.33905" lon="6.14421">
        <ele>2171</ele>
        <time>2016-08-27T10:48:41Z</time>
      </trkpt>
      <trkpt lat="45.33905" lon="6.14421">
        <ele>2171</ele>
        <time>2016-08-27T10:48:46Z</time>
      </trkpt>
      <trkpt lat="45.33904" lon="6.1442">
        <ele>2171</ele>
        <time>2016-08-27T10:48:51Z</time>
      </trkpt>
      <trkpt lat="45.33904" lon="6.1442">
        <ele>2172</ele>
        <time>2016-08-27T10:48:56Z</time>
      </trkpt>
      <trkpt lat="45.33903" lon="6.1442">
        <ele>2172</ele>
        <time>2016-08-27T10:49:01Z</time>
      </trkpt>
      <trkpt lat="45.33903" lon="6.1442">
        <ele>2172</ele>
        <time>2016-08-27T10:49:06Z</time>
      </trkpt>
      <trkpt lat="45.33902" lon="6.1442">
        <ele>2172</ele>
        <time>2016-08-27T10:49:11Z</time>
      </trkpt>
      <trkpt lat="45.33903" lon="6.14421">
        <ele>2172</ele>
        <time>2016-08-27T10:49:16Z</time>
      </trkpt>
      <trkpt lat="45.33902" lon="6.14421">
        <ele>2171</ele>
        <time>2016-08-27T10:49:21Z</time>
      </trkpt>
      <trkpt lat="45.33902" lon="6.14421">
        <ele>2171</ele>
        <time>2016-08-27T10:49:26Z</time>
      </trkpt>
      <trkpt lat="45.33902" lon="6.14421">
        <ele>2171</ele>
        <time>2016-08-27T10:49:31Z</time>
      </trkpt>
      <trkpt lat="45.33903" lon="6.14421">
        <ele>2172</ele>
        <time>2016-08-27T10:49:36Z</time>
      </trkpt>
      <trkpt lat="45.33902" lon="6.14423">
        <ele>2172</ele>
        <time>2016-08-27T10:49:41Z</time>
      </trkpt>
      <trkpt lat="45.33901" lon="6.14425">
        <ele>2174</ele>
        <time>2016-08-27T10:49:46Z</time>
      </trkpt>
      <trkpt lat="45.339" lon="6.14428">
        <ele>2174</ele>
        <time>2016-08-27T10:49:51Z</time>
      </trkpt>
      <trkpt lat="45.33899" lon="6.14429">
        <ele>2175</ele>
        <time>2016-08-27T10:49:56Z</time>
      </trkpt>
      <trkpt lat="45.33896" lon="6.14429">
        <ele>2176</ele>
        <time>2016-08-27T10:50:01Z</time>
      </trkpt>
      <trkpt lat="45.33894" lon="6.1443">
        <ele>2177</ele>
        <time>2016-08-27T10:50:06Z</time>
      </trkpt>
      <trkpt lat="45.33893" lon="6.14432">
        <ele>2177</ele>
        <time>2016-08-27T10:50:11Z</time>
      </trkpt>
      <trkpt lat="45.33894" lon="6.14432">
        <ele>2177</ele>
        <time>2016-08-27T10:50:16Z</time>
      </trkpt>
      <trkpt lat="45.33893" lon="6.14433">
        <ele>2178</ele>
        <time>2016-08-27T10:50:21Z</time>
      </trkpt>
      <trkpt lat="45.33892" lon="6.14433">
        <ele>2178</ele>
        <time>2016-08-27T10:50:26Z</time>
      </trkpt>
      <trkpt lat="45.33892" lon="6.14433">
        <ele>2178</ele>
        <time>2016-08-27T10:50:31Z</time>
      </trkpt>
      <trkpt lat="45.33891" lon="6.14433">
        <ele>2179</ele>
        <time>2016-08-27T10:50:36Z</time>
      </trkpt>
      <trkpt lat="45.33892" lon="6.14433">
        <ele>2180</ele>
        <time>2016-08-27T10:50:41Z</time>
      </trkpt>
      <trkpt lat="45.33892" lon="6.14434">
        <ele>2181</ele>
        <time>2016-08-27T10:50:46Z</time>
      </trkpt>
      <trkpt lat="45.33889" lon="6.14436">
        <ele>2182</ele>
        <time>2016-08-27T10:50:51Z</time>
      </trkpt>
      <trkpt lat="45.33888" lon="6.14439">
        <ele>2183</ele>
        <time>2016-08-27T10:50:56Z</time>
      </trkpt>
      <trkpt lat="45.33886" lon="6.14442">
        <ele>2184</ele>
        <time>2016-08-27T10:51:01Z</time>
      </trkpt>
      <trkpt lat="45.33885" lon="6.14444">
        <ele>2185</ele>
        <time>2016-08-27T10:51:06Z</time>
      </trkpt>
      <trkpt lat="45.33884" lon="6.14446">
        <ele>2186</ele>
        <time>2016-08-27T10:51:11Z</time>
      </trkpt>
      <trkpt lat="45.33884" lon="6.14447">
        <ele>2186</ele>
        <time>2016-08-27T10:51:16Z</time>
      </trkpt>
      <trkpt lat="45.33883" lon="6.14447">
        <ele>2185</ele>
        <time>2016-08-27T10:51:21Z</time>
      </trkpt>
      <trkpt lat="45.33883" lon="6.14448">
        <ele>2185</ele>
        <time>2016-08-27T10:51:26Z</time>
      </trkpt>
      <trkpt lat="45.3388" lon="6.14447">
        <ele>2186</ele>
        <time>2016-08-27T10:51:31Z</time>
      </trkpt>
      <trkpt lat="45.3388" lon="6.14447">
        <ele>2186</ele>
        <time>2016-08-27T10:51:36Z</time>
      </trkpt>
      <trkpt lat="45.33878" lon="6.14446">
        <ele>2187</ele>
        <time>2016-08-27T10:51:41Z</time>
      </trkpt>
      <trkpt lat="45.33876" lon="6.14445">
        <ele>2187</ele>
        <time>2016-08-27T10:51:46Z</time>
      </trkpt>
      <trkpt lat="45.33875" lon="6.14445">
        <ele>2187</ele>
        <time>2016-08-27T10:51:51Z</time>
      </trkpt>
      <trkpt lat="45.33875" lon="6.14447">
        <ele>2190</ele>
        <time>2016-08-27T10:51:56Z</time>
      </trkpt>
      <trkpt lat="45.33873" lon="6.14447">
        <ele>2191</ele>
        <time>2016-08-27T10:52:01Z</time>
      </trkpt>
      <trkpt lat="45.33872" lon="6.14446">
        <ele>2191</ele>
        <time>2016-08-27T10:52:06Z</time>
      </trkpt>
      <trkpt lat="45.33872" lon="6.14446">
        <ele>2191</ele>
        <time>2016-08-27T10:52:11Z</time>
      </trkpt>
      <trkpt lat="45.33872" lon="6.14446">
        <ele>2191</ele>
        <time>2016-08-27T10:52:16Z</time>
      </trkpt>
      <trkpt lat="45.3387" lon="6.14447">
        <ele>2191</ele>
        <time>2016-08-27T10:52:21Z</time>
      </trkpt>
      <trkpt lat="45.33868" lon="6.14444">
        <ele>2192</ele>
        <time>2016-08-27T10:52:26Z</time>
      </trkpt>
      <trkpt lat="45.33867" lon="6.14444">
        <ele>2193</ele>
        <time>2016-08-27T10:52:31Z</time>
      </trkpt>
      <trkpt lat="45.33866" lon="6.14446">
        <ele>2195</ele>
        <time>2016-08-27T10:52:36Z</time>
      </trkpt>
      <trkpt lat="45.33866" lon="6.14449">
        <ele>2197</ele>
        <time>2016-08-27T10:52:41Z</time>
      </trkpt>
      <trkpt lat="45.33868" lon="6.14453">
        <ele>2198</ele>
        <time>2016-08-27T10:52:46Z</time>
      </trkpt>
      <trkpt lat="45.33871" lon="6.14457">
        <ele>2201</ele>
        <time>2016-08-27T10:52:51Z</time>
      </trkpt>
      <trkpt lat="45.3387" lon="6.14459">
        <ele>2201</ele>
        <time>2016-08-27T10:52:56Z</time>
      </trkpt>
      <trkpt lat="45.3387" lon="6.14463">
        <ele>2202</ele>
        <time>2016-08-27T10:53:01Z</time>
      </trkpt>
      <trkpt lat="45.33871" lon="6.14465">
        <ele>2201</ele>
        <time>2016-08-27T10:53:06Z</time>
      </trkpt>
      <trkpt lat="45.3387" lon="6.14468">
        <ele>2201</ele>
        <time>2016-08-27T10:53:11Z</time>
      </trkpt>
      <trkpt lat="45.33868" lon="6.14471">
        <ele>2201</ele>
        <time>2016-08-27T10:53:16Z</time>
      </trkpt>
      <trkpt lat="45.3387" lon="6.14473">
        <ele>2201</ele>
        <time>2016-08-27T10:53:21Z</time>
      </trkpt>
      <trkpt lat="45.3387" lon="6.14474">
        <ele>2201</ele>
        <time>2016-08-27T10:53:26Z</time>
      </trkpt>
      <trkpt lat="45.3387" lon="6.14474">
        <ele>2201</ele>
        <time>2016-08-27T10:53:31Z</time>
      </trkpt>
      <trkpt lat="45.3387" lon="6.14475">
        <ele>2201</ele>
        <time>2016-08-27T10:53:36Z</time>
      </trkpt>
      <trkpt lat="45.33868" lon="6.14475">
        <ele>2202</ele>
        <time>2016-08-27T10:53:41Z</time>
      </trkpt>
      <trkpt lat="45.33867" lon="6.14477">
        <ele>2203</ele>
        <time>2016-08-27T10:53:46Z</time>
      </trkpt>
      <trkpt lat="45.33866" lon="6.14477">
        <ele>2203</ele>
        <time>2016-08-27T10:53:51Z</time>
      </trkpt>
      <trkpt lat="45.33866" lon="6.14478">
        <ele>2202</ele>
        <time>2016-08-27T10:53:56Z</time>
      </trkpt>
      <trkpt lat="45.33867" lon="6.14478">
        <ele>2203</ele>
        <time>2016-08-27T10:54:01Z</time>
      </trkpt>
      <trkpt lat="45.33866" lon="6.14477">
        <ele>2205</ele>
        <time>2016-08-27T10:54:06Z</time>
      </trkpt>
      <trkpt lat="45.33864" lon="6.14476">
        <ele>2206</ele>
        <time>2016-08-27T10:54:11Z</time>
      </trkpt>
      <trkpt lat="45.33863" lon="6.14477">
        <ele>2206</ele>
        <time>2016-08-27T10:54:16Z</time>
      </trkpt>
      <trkpt lat="45.33861" lon="6.14478">
        <ele>2207</ele>
        <time>2016-08-27T10:54:21Z</time>
      </trkpt>
      <trkpt lat="45.3386" lon="6.14478">
        <ele>2207</ele>
        <time>2016-08-27T10:54:26Z</time>
      </trkpt>
      <trkpt lat="45.3386" lon="6.14478">
        <ele>2207</ele>
        <time>2016-08-27T10:54:31Z</time>
      </trkpt>
      <trkpt lat="45.3386" lon="6.14478">
        <ele>2206</ele>
        <time>2016-08-27T10:54:36Z</time>
      </trkpt>
      <trkpt lat="45.33859" lon="6.14478">
        <ele>2206</ele>
        <time>2016-08-27T10:54:41Z</time>
      </trkpt>
      <trkpt lat="45.33857" lon="6.14481">
        <ele>2207</ele>
        <time>2016-08-27T10:54:46Z</time>
      </trkpt>
      <trkpt lat="45.33856" lon="6.14482">
        <ele>2208</ele>
        <time>2016-08-27T10:54:51Z</time>
      </trkpt>
      <trkpt lat="45.33855" lon="6.14483">
        <ele>2209</ele>
        <time>2016-08-27T10:54:56Z</time>
      </trkpt>
      <trkpt lat="45.33855" lon="6.14481">
        <ele>2210</ele>
        <time>2016-08-27T10:55:01Z</time>
      </trkpt>
      <trkpt lat="45.33854" lon="6.14479">
        <ele>2211</ele>
        <time>2016-08-27T10:55:06Z</time>
      </trkpt>
      <trkpt lat="45.33853" lon="6.1448">
        <ele>2211</ele>
        <time>2016-08-27T10:55:11Z</time>
      </trkpt>
      <trkpt lat="45.33852" lon="6.14482">
        <ele>2212</ele>
        <time>2016-08-27T10:55:16Z</time>
      </trkpt>
      <trkpt lat="45.33851" lon="6.14483">
        <ele>2213</ele>
        <time>2016-08-27T10:55:21Z</time>
      </trkpt>
      <trkpt lat="45.3385" lon="6.14483">
        <ele>2214</ele>
        <time>2016-08-27T10:55:26Z</time>
      </trkpt>
      <trkpt lat="45.3385" lon="6.14483">
        <ele>2214</ele>
        <time>2016-08-27T10:55:31Z</time>
      </trkpt>
      <trkpt lat="45.33848" lon="6.14483">
        <ele>2215</ele>
        <time>2016-08-27T10:55:36Z</time>
      </trkpt>
      <trkpt lat="45.33847" lon="6.14484">
        <ele>2216</ele>
        <time>2016-08-27T10:55:41Z</time>
      </trkpt>
      <trkpt lat="45.33847" lon="6.14483">
        <ele>2216</ele>
        <time>2016-08-27T10:55:46Z</time>
      </trkpt>
      <trkpt lat="45.33847" lon="6.14481">
        <ele>2217</ele>
        <time>2016-08-27T10:55:51Z</time>
      </trkpt>
      <trkpt lat="45.33846" lon="6.14478">
        <ele>2218</ele>
        <time>2016-08-27T10:55:56Z</time>
      </trkpt>
      <trkpt lat="45.33846" lon="6.14476">
        <ele>2218</ele>
        <time>2016-08-27T10:56:01Z</time>
      </trkpt>
      <trkpt lat="45.33845" lon="6.14475">
        <ele>2219</ele>
        <time>2016-08-27T10:56:06Z</time>
      </trkpt>
      <trkpt lat="45.33844" lon="6.14475">
        <ele>2219</ele>
        <time>2016-08-27T10:56:11Z</time>
      </trkpt>
      <trkpt lat="45.33844" lon="6.14473">
        <ele>2220</ele>
        <time>2016-08-27T10:56:16Z</time>
      </trkpt>
      <trkpt lat="45.33844" lon="6.14471">
        <ele>2220</ele>
        <time>2016-08-27T10:56:21Z</time>
      </trkpt>
      <trkpt lat="45.33844" lon="6.14471">
        <ele>2220</ele>
        <time>2016-08-27T10:56:26Z</time>
      </trkpt>
      <trkpt lat="45.33844" lon="6.1447">
        <ele>2220</ele>
        <time>2016-08-27T10:56:31Z</time>
      </trkpt>
      <trkpt lat="45.33843" lon="6.1447">
        <ele>2220</ele>
        <time>2016-08-27T10:56:36Z</time>
      </trkpt>
      <trkpt lat="45.33842" lon="6.14472">
        <ele>2220</ele>
        <time>2016-08-27T10:56:41Z</time>
      </trkpt>
      <trkpt lat="45.3384" lon="6.14474">
        <ele>2221</ele>
        <time>2016-08-27T10:56:46Z</time>
      </trkpt>
      <trkpt lat="45.33839" lon="6.14476">
        <ele>2222</ele>
        <time>2016-08-27T10:56:51Z</time>
      </trkpt>
      <trkpt lat="45.33838" lon="6.14477">
        <ele>2223</ele>
        <time>2016-08-27T10:56:56Z</time>
      </trkpt>
      <trkpt lat="45.33838" lon="6.14476">
        <ele>2223</ele>
        <time>2016-08-27T10:57:01Z</time>
      </trkpt>
      <trkpt lat="45.33837" lon="6.14475">
        <ele>2224</ele>
        <time>2016-08-27T10:57:06Z</time>
      </trkpt>
      <trkpt lat="45.33837" lon="6.14473">
        <ele>2225</ele>
        <time>2016-08-27T10:57:11Z</time>
      </trkpt>
      <trkpt lat="45.33836" lon="6.14472">
        <ele>2225</ele>
        <time>2016-08-27T10:57:16Z</time>
      </trkpt>
      <trkpt lat="45.33836" lon="6.14473">
        <ele>2226</ele>
        <time>2016-08-27T10:57:21Z</time>
      </trkpt>
      <trkpt lat="45.33836" lon="6.14472">
        <ele>2226</ele>
        <time>2016-08-27T10:57:26Z</time>
      </trkpt>
      <trkpt lat="45.33836" lon="6.14469">
        <ele>2227</ele>
        <time>2016-08-27T10:57:31Z</time>
      </trkpt>
      <trkpt lat="45.33836" lon="6.14469">
        <ele>2227</ele>
        <time>2016-08-27T10:57:36Z</time>
      </trkpt>
      <trkpt lat="45.33835" lon="6.1447">
        <ele>2228</ele>
        <time>2016-08-27T10:57:41Z</time>
      </trkpt>
      <trkpt lat="45.33834" lon="6.1447">
        <ele>2229</ele>
        <time>2016-08-27T10:57:46Z</time>
      </trkpt>
      <trkpt lat="45.33834" lon="6.14468">
        <ele>2230</ele>
        <time>2016-08-27T10:57:51Z</time>
      </trkpt>
      <trkpt lat="45.33834" lon="6.14467">
        <ele>2230</ele>
        <time>2016-08-27T10:57:56Z</time>
      </trkpt>
      <trkpt lat="45.33834" lon="6.14466">
        <ele>2231</ele>
        <time>2016-08-27T10:58:01Z</time>
      </trkpt>
      <trkpt lat="45.33834" lon="6.14464">
        <ele>2231</ele>
        <time>2016-08-27T10:58:06Z</time>
      </trkpt>
      <trkpt lat="45.33835" lon="6.14462">
        <ele>2233</ele>
        <time>2016-08-27T10:58:11Z</time>
      </trkpt>
      <trkpt lat="45.33836" lon="6.14462">
        <ele>2234</ele>
        <time>2016-08-27T10:58:16Z</time>
      </trkpt>
      <trkpt lat="45.33837" lon="6.1446">
        <ele>2235</ele>
        <time>2016-08-27T10:58:21Z</time>
      </trkpt>
      <trkpt lat="45.33837" lon="6.1446">
        <ele>2234</ele>
        <time>2016-08-27T10:58:26Z</time>
      </trkpt>
      <trkpt lat="45.33837" lon="6.14459">
        <ele>2233</ele>
        <time>2016-08-27T10:58:31Z</time>
      </trkpt>
      <trkpt lat="45.33837" lon="6.14459">
        <ele>2233</ele>
        <time>2016-08-27T10:58:36Z</time>
      </trkpt>
      <trkpt lat="45.33836" lon="6.14459">
        <ele>2232</ele>
        <time>2016-08-27T10:58:41Z</time>
      </trkpt>
      <trkpt lat="45.33835" lon="6.14461">
        <ele>2232</ele>
        <time>2016-08-27T10:58:46Z</time>
      </trkpt>
      <trkpt lat="45.33833" lon="6.14463">
        <ele>2231</ele>
        <time>2016-08-27T10:58:51Z</time>
      </trkpt>
      <trkpt lat="45.33831" lon="6.14465">
        <ele>2232</ele>
        <time>2016-08-27T10:58:56Z</time>
      </trkpt>
      <trkpt lat="45.3383" lon="6.14467">
        <ele>2233</ele>
        <time>2016-08-27T10:59:01Z</time>
      </trkpt>
      <trkpt lat="45.3383" lon="6.14466">
        <ele>2234</ele>
        <time>2016-08-27T10:59:06Z</time>
      </trkpt>
      <trkpt lat="45.33829" lon="6.14467">
        <ele>2235</ele>
        <time>2016-08-27T10:59:11Z</time>
      </trkpt>
      <trkpt lat="45.33828" lon="6.14466">
        <ele>2236</ele>
        <time>2016-08-27T10:59:16Z</time>
      </trkpt>
      <trkpt lat="45.33827" lon="6.14466">
        <ele>2236</ele>
        <time>2016-08-27T10:59:21Z</time>
      </trkpt>
      <trkpt lat="45.33827" lon="6.14464">
        <ele>2237</ele>
        <time>2016-08-27T10:59:26Z</time>
      </trkpt>
      <trkpt lat="45.33827" lon="6.14464">
        <ele>2238</ele>
        <time>2016-08-27T10:59:31Z</time>
      </trkpt>
      <trkpt lat="45.33827" lon="6.14463">
        <ele>2239</ele>
        <time>2016-08-27T10:59:36Z</time>
      </trkpt>
      <trkpt lat="45.33827" lon="6.14462">
        <ele>2239</ele>
        <time>2016-08-27T10:59:41Z</time>
      </trkpt>
      <trkpt lat="45.33827" lon="6.1446">
        <ele>2240</ele>
        <time>2016-08-27T10:59:46Z</time>
      </trkpt>
      <trkpt lat="45.33826" lon="6.14459">
        <ele>2241</ele>
        <time>2016-08-27T10:59:51Z</time>
      </trkpt>
      <trkpt lat="45.33826" lon="6.14458">
        <ele>2242</ele>
        <time>2016-08-27T10:59:56Z</time>
      </trkpt>
      <trkpt lat="45.33825" lon="6.14456">
        <ele>2242</ele>
        <time>2016-08-27T11:00:01Z</time>
      </trkpt>
      <trkpt lat="45.33825" lon="6.14455">
        <ele>2243</ele>
        <time>2016-08-27T11:00:06Z</time>
      </trkpt>
      <trkpt lat="45.33824" lon="6.14454">
        <ele>2244</ele>
        <time>2016-08-27T11:00:11Z</time>
      </trkpt>
      <trkpt lat="45.33824" lon="6.14452">
        <ele>2245</ele>
        <time>2016-08-27T11:00:16Z</time>
      </trkpt>
      <trkpt lat="45.33823" lon="6.14451">
        <ele>2245</ele>
        <time>2016-08-27T11:00:21Z</time>
      </trkpt>
      <trkpt lat="45.33821" lon="6.14454">
        <ele>2246</ele>
        <time>2016-08-27T11:00:26Z</time>
      </trkpt>
      <trkpt lat="45.3382" lon="6.14457">
        <ele>2247</ele>
        <time>2016-08-27T11:00:31Z</time>
      </trkpt>
      <trkpt lat="45.33819" lon="6.14459">
        <ele>2247</ele>
        <time>2016-08-27T11:00:36Z</time>
      </trkpt>
      <trkpt lat="45.33819" lon="6.1446">
        <ele>2247</ele>
        <time>2016-08-27T11:00:41Z</time>
      </trkpt>
      <trkpt lat="45.33818" lon="6.14463">
        <ele>2247</ele>
        <time>2016-08-27T11:00:46Z</time>
      </trkpt>
      <trkpt lat="45.33817" lon="6.14463">
        <ele>2247</ele>
        <time>2016-08-27T11:00:51Z</time>
      </trkpt>
      <trkpt lat="45.33817" lon="6.14463">
        <ele>2247</ele>
        <time>2016-08-27T11:00:56Z</time>
      </trkpt>
      <trkpt lat="45.33817" lon="6.14464">
        <ele>2247</ele>
        <time>2016-08-27T11:01:01Z</time>
      </trkpt>
      <trkpt lat="45.33817" lon="6.14465">
        <ele>2246</ele>
        <time>2016-08-27T11:01:06Z</time>
      </trkpt>
      <trkpt lat="45.33817" lon="6.14465">
        <ele>2246</ele>
        <time>2016-08-27T11:01:11Z</time>
      </trkpt>
      <trkpt lat="45.33818" lon="6.14463">
        <ele>2249</ele>
        <time>2016-08-27T11:21:25Z</time>
      </trkpt>
      <trkpt lat="45.33818" lon="6.14463">
        <ele>2249</ele>
        <time>2016-08-27T11:21:30Z</time>
      </trkpt>
      <trkpt lat="45.33817" lon="6.14464">
        <ele>2249</ele>
        <time>2016-08-27T11:21:35Z</time>
      </trkpt>
      <trkpt lat="45.33818" lon="6.14465">
        <ele>2249</ele>
        <time>2016-08-27T11:21:40Z</time>
      </trkpt>
      <trkpt lat="45.33818" lon="6.14464">
        <ele>2249</ele>
        <time>2016-08-27T11:21:45Z</time>
      </trkpt>
      <trkpt lat="45.33818" lon="6.14466">
        <ele>2249</ele>
        <time>2016-08-27T11:21:50Z</time>
      </trkpt>
      <trkpt lat="45.33818" lon="6.14468">
        <ele>2248</ele>
        <time>2016-08-27T11:21:55Z</time>
      </trkpt>
      <trkpt lat="45.33818" lon="6.14472">
        <ele>2247</ele>
        <time>2016-08-27T11:22:00Z</time>
      </trkpt>
      <trkpt lat="45.33817" lon="6.14474">
        <ele>2246</ele>
        <time>2016-08-27T11:22:05Z</time>
      </trkpt>
      <trkpt lat="45.33817" lon="6.14477">
        <ele>2245</ele>
        <time>2016-08-27T11:22:10Z</time>
      </trkpt>
      <trkpt lat="45.33817" lon="6.1448">
        <ele>2245</ele>
        <time>2016-08-27T11:22:15Z</time>
      </trkpt>
      <trkpt lat="45.33817" lon="6.14482">
        <ele>2245</ele>
        <time>2016-08-27T11:22:20Z</time>
      </trkpt>
      <trkpt lat="45.33818" lon="6.14482">
        <ele>2244</ele>
        <time>2016-08-27T11:22:25Z</time>
      </trkpt>
      <trkpt lat="45.33819" lon="6.14482">
        <ele>2243</ele>
        <time>2016-08-27T11:22:30Z</time>
      </trkpt>
      <trkpt lat="45.33819" lon="6.14483">
        <ele>2242</ele>
        <time>2016-08-27T11:22:35Z</time>
      </trkpt>
      <trkpt lat="45.33819" lon="6.14486">
        <ele>2241</ele>
        <time>2016-08-27T11:22:40Z</time>
      </trkpt>
      <trkpt lat="45.33818" lon="6.1449">
        <ele>2240</ele>
        <time>2016-08-27T11:22:45Z</time>
      </trkpt>
      <trkpt lat="45.33819" lon="6.14494">
        <ele>2238</ele>
        <time>2016-08-27T11:22:50Z</time>
      </trkpt>
      <trkpt lat="45.33819" lon="6.14495">
        <ele>2237</ele>
        <time>2016-08-27T11:22:55Z</time>
      </trkpt>
      <trkpt lat="45.33819" lon="6.14499">
        <ele>2236</ele>
        <time>2016-08-27T11:23:00Z</time>
      </trkpt>
      <trkpt lat="45.33818" lon="6.14502">
        <ele>2234</ele>
        <time>2016-08-27T11:23:05Z</time>
      </trkpt>
      <trkpt lat="45.33817" lon="6.14506">
        <ele>2232</ele>
        <time>2016-08-27T11:23:10Z</time>
      </trkpt>
      <trkpt lat="45.33816" lon="6.14507">
        <ele>2231</ele>
        <time>2016-08-27T11:23:15Z</time>
      </trkpt>
      <trkpt lat="45.33816" lon="6.14509">
        <ele>2230</ele>
        <time>2016-08-27T11:23:20Z</time>
      </trkpt>
      <trkpt lat="45.33817" lon="6.14512">
        <ele>2228</ele>
        <time>2016-08-27T11:23:25Z</time>
      </trkpt>
      <trkpt lat="45.33817" lon="6.14515">
        <ele>2227</ele>
        <time>2016-08-27T11:23:30Z</time>
      </trkpt>
      <trkpt lat="45.33817" lon="6.14516">
        <ele>2227</ele>
        <time>2016-08-27T11:23:35Z</time>
      </trkpt>
      <trkpt lat="45.33819" lon="6.14518">
        <ele>2229</ele>
        <time>2016-08-27T11:23:40Z</time>
      </trkpt>
      <trkpt lat="45.3382" lon="6.14518">
        <ele>2229</ele>
        <time>2016-08-27T11:23:45Z</time>
      </trkpt>
      <trkpt lat="45.3382" lon="6.1452">
        <ele>2228</ele>
        <time>2016-08-27T11:23:50Z</time>
      </trkpt>
      <trkpt lat="45.3382" lon="6.14521">
        <ele>2227</ele>
        <time>2016-08-27T11:23:55Z</time>
      </trkpt>
      <trkpt lat="45.33821" lon="6.14522">
        <ele>2227</ele>
        <time>2016-08-27T11:24:00Z</time>
      </trkpt>
      <trkpt lat="45.33821" lon="6.14524">
        <ele>2226</ele>
        <time>2016-08-27T11:24:05Z</time>
      </trkpt>
      <trkpt lat="45.33821" lon="6.14526">
        <ele>2224</ele>
        <time>2016-08-27T11:24:10Z</time>
      </trkpt>
      <trkpt lat="45.3382" lon="6.14529">
        <ele>2224</ele>
        <time>2016-08-27T11:24:15Z</time>
      </trkpt>
      <trkpt lat="45.3382" lon="6.14529">
        <ele>2223</ele>
        <time>2016-08-27T11:24:20Z</time>
      </trkpt>
      <trkpt lat="45.3382" lon="6.1453">
        <ele>2223</ele>
        <time>2016-08-27T11:24:25Z</time>
      </trkpt>
      <trkpt lat="45.33822" lon="6.14532">
        <ele>2223</ele>
        <time>2016-08-27T11:24:30Z</time>
      </trkpt>
      <trkpt lat="45.33822" lon="6.14534">
        <ele>2223</ele>
        <time>2016-08-27T11:24:35Z</time>
      </trkpt>
      <trkpt lat="45.33823" lon="6.14532">
        <ele>2224</ele>
        <time>2016-08-27T11:24:40Z</time>
      </trkpt>
      <trkpt lat="45.33824" lon="6.14533">
        <ele>2224</ele>
        <time>2016-08-27T11:24:45Z</time>
      </trkpt>
      <trkpt lat="45.33825" lon="6.14533">
        <ele>2224</ele>
        <time>2016-08-27T11:24:50Z</time>
      </trkpt>
      <trkpt lat="45.33825" lon="6.14532">
        <ele>2223</ele>
        <time>2016-08-27T11:24:55Z</time>
      </trkpt>
      <trkpt lat="45.33826" lon="6.14532">
        <ele>2222</ele>
        <time>2016-08-27T11:25:00Z</time>
      </trkpt>
      <trkpt lat="45.33826" lon="6.1453">
        <ele>2224</ele>
        <time>2016-08-27T11:25:05Z</time>
      </trkpt>
      <trkpt lat="45.33827" lon="6.1453">
        <ele>2224</ele>
        <time>2016-08-27T11:25:10Z</time>
      </trkpt>
      <trkpt lat="45.33827" lon="6.14533">
        <ele>2223</ele>
        <time>2016-08-27T11:25:15Z</time>
      </trkpt>
      <trkpt lat="45.33828" lon="6.14533">
        <ele>2221</ele>
        <time>2016-08-27T11:25:20Z</time>
      </trkpt>
      <trkpt lat="45.33828" lon="6.14534">
        <ele>2220</ele>
        <time>2016-08-27T11:25:25Z</time>
      </trkpt>
      <trkpt lat="45.3383" lon="6.14536">
        <ele>2221</ele>
        <time>2016-08-27T11:25:30Z</time>
      </trkpt>
      <trkpt lat="45.3383" lon="6.14537">
        <ele>2220</ele>
        <time>2016-08-27T11:25:35Z</time>
      </trkpt>
      <trkpt lat="45.33831" lon="6.14536">
        <ele>2221</ele>
        <time>2016-08-27T11:25:40Z</time>
      </trkpt>
      <trkpt lat="45.33831" lon="6.14535">
        <ele>2219</ele>
        <time>2016-08-27T11:25:45Z</time>
      </trkpt>
      <trkpt lat="45.3383" lon="6.14536">
        <ele>2216</ele>
        <time>2016-08-27T11:25:50Z</time>
      </trkpt>
      <trkpt lat="45.33831" lon="6.14537">
        <ele>2214</ele>
        <time>2016-08-27T11:25:55Z</time>
      </trkpt>
      <trkpt lat="45.33832" lon="6.14541">
        <ele>2213</ele>
        <time>2016-08-27T11:26:00Z</time>
      </trkpt>
      <trkpt lat="45.33833" lon="6.14541">
        <ele>2213</ele>
        <time>2016-08-27T11:26:05Z</time>
      </trkpt>
      <trkpt lat="45.33834" lon="6.14541">
        <ele>2214</ele>
        <time>2016-08-27T11:26:10Z</time>
      </trkpt>
      <trkpt lat="45.33835" lon="6.14541">
        <ele>2215</ele>
        <time>2016-08-27T11:26:15Z</time>
      </trkpt>
      <trkpt lat="45.33834" lon="6.1454">
        <ele>2215</ele>
        <time>2016-08-27T11:26:20Z</time>
      </trkpt>
      <trkpt lat="45.33833" lon="6.1454">
        <ele>2214</ele>
        <time>2016-08-27T11:26:25Z</time>
      </trkpt>
      <trkpt lat="45.33832" lon="6.1454">
        <ele>2212</ele>
        <time>2016-08-27T11:26:30Z</time>
      </trkpt>
      <trkpt lat="45.33833" lon="6.14541">
        <ele>2212</ele>
        <time>2016-08-27T11:26:35Z</time>
      </trkpt>
      <trkpt lat="45.33835" lon="6.14537">
        <ele>2214</ele>
        <time>2016-08-27T11:26:40Z</time>
      </trkpt>
      <trkpt lat="45.33837" lon="6.14533">
        <ele>2214</ele>
        <time>2016-08-27T11:26:45Z</time>
      </trkpt>
      <trkpt lat="45.33837" lon="6.14531">
        <ele>2214</ele>
        <time>2016-08-27T11:26:50Z</time>
      </trkpt>
      <trkpt lat="45.33838" lon="6.14533">
        <ele>2212</ele>
        <time>2016-08-27T11:26:55Z</time>
      </trkpt>
      <trkpt lat="45.33839" lon="6.14534">
        <ele>2209</ele>
        <time>2016-08-27T11:27:00Z</time>
      </trkpt>
      <trkpt lat="45.33839" lon="6.14535">
        <ele>2209</ele>
        <time>2016-08-27T11:27:05Z</time>
      </trkpt>
      <trkpt lat="45.33837" lon="6.14535">
        <ele>2207</ele>
        <time>2016-08-27T11:27:10Z</time>
      </trkpt>
      <trkpt lat="45.3384" lon="6.14534">
        <ele>2208</ele>
        <time>2016-08-27T11:27:15Z</time>
      </trkpt>
      <trkpt lat="45.33841" lon="6.14537">
        <ele>2208</ele>
        <time>2016-08-27T11:27:20Z</time>
      </trkpt>
      <trkpt lat="45.33844" lon="6.14535">
        <ele>2211</ele>
        <time>2016-08-27T11:27:25Z</time>
      </trkpt>
      <trkpt lat="45.33846" lon="6.14534">
        <ele>2214</ele>
        <time>2016-08-27T11:27:30Z</time>
      </trkpt>
      <trkpt lat="45.33849" lon="6.14532">
        <ele>2214</ele>
        <time>2016-08-27T11:27:35Z</time>
      </trkpt>
      <trkpt lat="45.33851" lon="6.14533">
        <ele>2211</ele>
        <time>2016-08-27T11:27:40Z</time>
      </trkpt>
      <trkpt lat="45.33852" lon="6.14533">
        <ele>2208</ele>
        <time>2016-08-27T11:27:45Z</time>
      </trkpt>
      <trkpt lat="45.33854" lon="6.14534">
        <ele>2208</ele>
        <time>2016-08-27T11:27:50Z</time>
      </trkpt>
      <trkpt lat="45.33856" lon="6.14533">
        <ele>2210</ele>
        <time>2016-08-27T11:27:55Z</time>
      </trkpt>
      <trkpt lat="45.33859" lon="6.14531">
        <ele>2209</ele>
        <time>2016-08-27T11:28:00Z</time>
      </trkpt>
      <trkpt lat="45.33862" lon="6.1453">
        <ele>2206</ele>
        <time>2016-08-27T11:28:05Z</time>
      </trkpt>
      <trkpt lat="45.33863" lon="6.14532">
        <ele>2203</ele>
        <time>2016-08-27T11:28:10Z</time>
      </trkpt>
      <trkpt lat="45.33864" lon="6.14533">
        <ele>2203</ele>
        <time>2016-08-27T11:28:15Z</time>
      </trkpt>
      <trkpt lat="45.33866" lon="6.14531">
        <ele>2205</ele>
        <time>2016-08-27T11:28:20Z</time>
      </trkpt>
      <trkpt lat="45.3387" lon="6.14527">
        <ele>2205</ele>
        <time>2016-08-27T11:28:25Z</time>
      </trkpt>
      <trkpt lat="45.33873" lon="6.14525">
        <ele>2205</ele>
        <time>2016-08-27T11:28:30Z</time>
      </trkpt>
      <trkpt lat="45.33876" lon="6.14523">
        <ele>2201</ele>
        <time>2016-08-27T11:28:35Z</time>
      </trkpt>
      <trkpt lat="45.33877" lon="6.14522">
        <ele>2199</ele>
        <time>2016-08-27T11:28:40Z</time>
      </trkpt>
      <trkpt lat="45.3388" lon="6.1452">
        <ele>2199</ele>
        <time>2016-08-27T11:28:45Z</time>
      </trkpt>
      <trkpt lat="45.33883" lon="6.1452">
        <ele>2197</ele>
        <time>2016-08-27T11:28:50Z</time>
      </trkpt>
      <trkpt lat="45.33883" lon="6.14521">
        <ele>2196</ele>
        <time>2016-08-27T11:28:55Z</time>
      </trkpt>
      <trkpt lat="45.33884" lon="6.14524">
        <ele>2195</ele>
        <time>2016-08-27T11:29:00Z</time>
      </trkpt>
      <trkpt lat="45.33886" lon="6.14524">
        <ele>2196</ele>
        <time>2016-08-27T11:29:05Z</time>
      </trkpt>
      <trkpt lat="45.33886" lon="6.14523">
        <ele>2190</ele>
        <time>2016-08-27T11:29:10Z</time>
      </trkpt>
      <trkpt lat="45.33886" lon="6.14523">
        <ele>2186</ele>
        <time>2016-08-27T11:29:15Z</time>
      </trkpt>
      <trkpt lat="45.33886" lon="6.14522">
        <ele>2181</ele>
        <time>2016-08-27T11:29:20Z</time>
      </trkpt>
      <trkpt lat="45.33887" lon="6.1452">
        <ele>2178</ele>
        <time>2016-08-27T11:29:25Z</time>
      </trkpt>
      <trkpt lat="45.33889" lon="6.14518">
        <ele>2177</ele>
        <time>2016-08-27T11:29:30Z</time>
      </trkpt>
      <trkpt lat="45.33892" lon="6.14517">
        <ele>2178</ele>
        <time>2016-08-27T11:29:35Z</time>
      </trkpt>
      <trkpt lat="45.33894" lon="6.14514">
        <ele>2177</ele>
        <time>2016-08-27T11:29:40Z</time>
      </trkpt>
      <trkpt lat="45.33896" lon="6.14513">
        <ele>2170</ele>
        <time>2016-08-27T11:29:45Z</time>
      </trkpt>
      <trkpt lat="45.33899" lon="6.14513">
        <ele>2168</ele>
        <time>2016-08-27T11:29:50Z</time>
      </trkpt>
      <trkpt lat="45.33901" lon="6.14513">
        <ele>2164</ele>
        <time>2016-08-27T11:29:55Z</time>
      </trkpt>
      <trkpt lat="45.33905" lon="6.14513">
        <ele>2161</ele>
        <time>2016-08-27T11:30:00Z</time>
      </trkpt>
      <trkpt lat="45.33909" lon="6.14511">
        <ele>2160</ele>
        <time>2016-08-27T11:30:05Z</time>
      </trkpt>
      <trkpt lat="45.33914" lon="6.14511">
        <ele>2161</ele>
        <time>2016-08-27T11:30:10Z</time>
      </trkpt>
      <trkpt lat="45.33918" lon="6.14512">
        <ele>2161</ele>
        <time>2016-08-27T11:30:15Z</time>
      </trkpt>
      <trkpt lat="45.33922" lon="6.14511">
        <ele>2161</ele>
        <time>2016-08-27T11:30:20Z</time>
      </trkpt>
      <trkpt lat="45.33925" lon="6.14509">
        <ele>2160</ele>
        <time>2016-08-27T11:30:25Z</time>
      </trkpt>
      <trkpt lat="45.33928" lon="6.14507">
        <ele>2162</ele>
        <time>2016-08-27T11:30:30Z</time>
      </trkpt>
      <trkpt lat="45.33933" lon="6.14508">
        <ele>2158</ele>
        <time>2016-08-27T11:30:35Z</time>
      </trkpt>
      <trkpt lat="45.33941" lon="6.14509">
        <ele>2155</ele>
        <time>2016-08-27T11:30:40Z</time>
      </trkpt>
      <trkpt lat="45.33947" lon="6.14513">
        <ele>2152</ele>
        <time>2016-08-27T11:30:45Z</time>
      </trkpt>
      <trkpt lat="45.33954" lon="6.14516">
        <ele>2152</ele>
        <time>2016-08-27T11:30:50Z</time>
      </trkpt>
      <trkpt lat="45.33958" lon="6.14516">
        <ele>2152</ele>
        <time>2016-08-27T11:30:55Z</time>
      </trkpt>
      <trkpt lat="45.33959" lon="6.14517">
        <ele>2151</ele>
        <time>2016-08-27T11:31:00Z</time>
      </trkpt>
      <trkpt lat="45.33963" lon="6.14522">
        <ele>2151</ele>
        <time>2016-08-27T11:31:05Z</time>
      </trkpt>
      <trkpt lat="45.33964" lon="6.14522">
        <ele>2153</ele>
        <time>2016-08-27T11:31:10Z</time>
      </trkpt>
      <trkpt lat="45.33963" lon="6.14524">
        <ele>2150</ele>
        <time>2016-08-27T11:31:15Z</time>
      </trkpt>
      <trkpt lat="45.33963" lon="6.14525">
        <ele>2146</ele>
        <time>2016-08-27T11:31:20Z</time>
      </trkpt>
      <trkpt lat="45.33961" lon="6.14521">
        <ele>2149</ele>
        <time>2016-08-27T11:31:25Z</time>
      </trkpt>
      <trkpt lat="45.33956" lon="6.14519">
        <ele>2153</ele>
        <time>2016-08-27T11:31:30Z</time>
      </trkpt>
      <trkpt lat="45.33954" lon="6.14515">
        <ele>2157</ele>
        <time>2016-08-27T11:31:35Z</time>
      </trkpt>
      <trkpt lat="45.33953" lon="6.14506">
        <ele>2161</ele>
        <time>2016-08-27T11:31:40Z</time>
      </trkpt>
      <trkpt lat="45.33951" lon="6.145">
        <ele>2163</ele>
        <time>2016-08-27T11:31:45Z</time>
      </trkpt>
      <trkpt lat="45.33951" lon="6.14496">
        <ele>2164</ele>
        <time>2016-08-27T11:31:50Z</time>
      </trkpt>
      <trkpt lat="45.3395" lon="6.14493">
        <ele>2164</ele>
        <time>2016-08-27T11:31:55Z</time>
      </trkpt>
      <trkpt lat="45.33949" lon="6.14486">
        <ele>2164</ele>
        <time>2016-08-27T11:32:00Z</time>
      </trkpt>
      <trkpt lat="45.33949" lon="6.1448">
        <ele>2164</ele>
        <time>2016-08-27T11:32:05Z</time>
      </trkpt>
      <trkpt lat="45.33949" lon="6.14476">
        <ele>2164</ele>
        <time>2016-08-27T11:32:10Z</time>
      </trkpt>
      <trkpt lat="45.33946" lon="6.1447">
        <ele>2163</ele>
        <time>2016-08-27T11:32:15Z</time>
      </trkpt>
      <trkpt lat="45.33943" lon="6.14463">
        <ele>2164</ele>
        <time>2016-08-27T11:32:20Z</time>
      </trkpt>
      <trkpt lat="45.33942" lon="6.14457">
        <ele>2165</ele>
        <time>2016-08-27T11:32:25Z</time>
      </trkpt>
      <trkpt lat="45.33941" lon="6.14452">
        <ele>2165</ele>
        <time>2016-08-27T11:32:30Z</time>
      </trkpt>
      <trkpt lat="45.33941" lon="6.14449">
        <ele>2162</ele>
        <time>2016-08-27T11:32:35Z</time>
      </trkpt>
      <trkpt lat="45.33942" lon="6.14448">
        <ele>2159</ele>
        <time>2016-08-27T11:32:40Z</time>
      </trkpt>
      <trkpt lat="45.33942" lon="6.14443">
        <ele>2159</ele>
        <time>2016-08-27T11:32:45Z</time>
      </trkpt>
      <trkpt lat="45.3394" lon="6.14439">
        <ele>2159</ele>
        <time>2016-08-27T11:32:50Z</time>
      </trkpt>
      <trkpt lat="45.33938" lon="6.14434">
        <ele>2159</ele>
        <time>2016-08-27T11:32:55Z</time>
      </trkpt>
      <trkpt lat="45.33937" lon="6.14427">
        <ele>2158</ele>
        <time>2016-08-27T11:33:00Z</time>
      </trkpt>
      <trkpt lat="45.33935" lon="6.14425">
        <ele>2159</ele>
        <time>2016-08-27T11:33:05Z</time>
      </trkpt>
      <trkpt lat="45.33935" lon="6.14423">
        <ele>2159</ele>
        <time>2016-08-27T11:33:10Z</time>
      </trkpt>
      <trkpt lat="45.33933" lon="6.1442">
        <ele>2159</ele>
        <time>2016-08-27T11:33:15Z</time>
      </trkpt>
      <trkpt lat="45.33931" lon="6.14417">
        <ele>2160</ele>
        <time>2016-08-27T11:33:20Z</time>
      </trkpt>
      <trkpt lat="45.3393" lon="6.14414">
        <ele>2160</ele>
        <time>2016-08-27T11:33:25Z</time>
      </trkpt>
      <trkpt lat="45.33929" lon="6.14413">
        <ele>2162</ele>
        <time>2016-08-27T11:33:30Z</time>
      </trkpt>
      <trkpt lat="45.33928" lon="6.14411">
        <ele>2161</ele>
        <time>2016-08-27T11:33:35Z</time>
      </trkpt>
      <trkpt lat="45.33927" lon="6.14409">
        <ele>2160</ele>
        <time>2016-08-27T11:33:40Z</time>
      </trkpt>
      <trkpt lat="45.33925" lon="6.14408">
        <ele>2159</ele>
        <time>2016-08-27T11:33:45Z</time>
      </trkpt>
      <trkpt lat="45.33924" lon="6.14406">
        <ele>2157</ele>
        <time>2016-08-27T11:33:50Z</time>
      </trkpt>
      <trkpt lat="45.33923" lon="6.14405">
        <ele>2156</ele>
        <time>2016-08-27T11:33:55Z</time>
      </trkpt>
      <trkpt lat="45.33925" lon="6.14405">
        <ele>2153</ele>
        <time>2016-08-27T11:34:00Z</time>
      </trkpt>
      <trkpt lat="45.33926" lon="6.14406">
        <ele>2150</ele>
        <time>2016-08-27T11:34:05Z</time>
      </trkpt>
      <trkpt lat="45.33928" lon="6.14405">
        <ele>2150</ele>
        <time>2016-08-27T11:34:10Z</time>
      </trkpt>
      <trkpt lat="45.33931" lon="6.14406">
        <ele>2148</ele>
        <time>2016-08-27T11:34:15Z</time>
      </trkpt>
      <trkpt lat="45.33933" lon="6.14406">
        <ele>2149</ele>
        <time>2016-08-27T11:34:20Z</time>
      </trkpt>
      <trkpt lat="45.33935" lon="6.14407">
        <ele>2146</ele>
        <time>2016-08-27T11:34:25Z</time>
      </trkpt>
      <trkpt lat="45.33938" lon="6.14406">
        <ele>2149</ele>
        <time>2016-08-27T11:34:30Z</time>
      </trkpt>
      <trkpt lat="45.33941" lon="6.14406">
        <ele>2148</ele>
        <time>2016-08-27T11:34:35Z</time>
      </trkpt>
      <trkpt lat="45.33942" lon="6.14407">
        <ele>2145</ele>
        <time>2016-08-27T11:34:40Z</time>
      </trkpt>
      <trkpt lat="45.33944" lon="6.14404">
        <ele>2141</ele>
        <time>2016-08-27T11:34:45Z</time>
      </trkpt>
      <trkpt lat="45.33947" lon="6.14407">
        <ele>2134</ele>
        <time>2016-08-27T11:34:50Z</time>
      </trkpt>
      <trkpt lat="45.3395" lon="6.14409">
        <ele>2133</ele>
        <time>2016-08-27T11:34:55Z</time>
      </trkpt>
      <trkpt lat="45.33952" lon="6.14407">
        <ele>2132</ele>
        <time>2016-08-27T11:35:00Z</time>
      </trkpt>
      <trkpt lat="45.33955" lon="6.14406">
        <ele>2130</ele>
        <time>2016-08-27T11:35:05Z</time>
      </trkpt>
      <trkpt lat="45.33958" lon="6.14407">
        <ele>2126</ele>
        <time>2016-08-27T11:35:10Z</time>
      </trkpt>
      <trkpt lat="45.33959" lon="6.14409">
        <ele>2123</ele>
        <time>2016-08-27T11:35:15Z</time>
      </trkpt>
      <trkpt lat="45.33961" lon="6.14405">
        <ele>2122</ele>
        <time>2016-08-27T11:35:20Z</time>
      </trkpt>
      <trkpt lat="45.33963" lon="6.14402">
        <ele>2120</ele>
        <time>2016-08-27T11:35:25Z</time>
      </trkpt>
      <trkpt lat="45.33964" lon="6.14399">
        <ele>2122</ele>
        <time>2016-08-27T11:35:30Z</time>
      </trkpt>
      <trkpt lat="45.33964" lon="6.14398">
        <ele>2123</ele>
        <time>2016-08-27T11:35:35Z</time>
      </trkpt>
      <trkpt lat="45.33964" lon="6.14397">
        <ele>2123</ele>
        <time>2016-08-27T11:35:40Z</time>
      </trkpt>
      <trkpt lat="45.33964" lon="6.14395">
        <ele>2124</ele>
        <time>2016-08-27T11:35:45Z</time>
      </trkpt>
      <trkpt lat="45.33966" lon="6.14391">
        <ele>2126</ele>
        <time>2016-08-27T11:35:50Z</time>
      </trkpt>
      <trkpt lat="45.33968" lon="6.1439">
        <ele>2127</ele>
        <time>2016-08-27T11:35:55Z</time>
      </trkpt>
      <trkpt lat="45.3397" lon="6.1439">
        <ele>2128</ele>
        <time>2016-08-27T11:36:00Z</time>
      </trkpt>
      <trkpt lat="45.33971" lon="6.1439">
        <ele>2128</ele>
        <time>2016-08-27T11:36:05Z</time>
      </trkpt>
      <trkpt lat="45.33973" lon="6.14389">
        <ele>2129</ele>
        <time>2016-08-27T11:36:10Z</time>
      </trkpt>
      <trkpt lat="45.33974" lon="6.14388">
        <ele>2128</ele>
        <time>2016-08-27T11:36:15Z</time>
      </trkpt>
      <trkpt lat="45.33975" lon="6.14388">
        <ele>2128</ele>
        <time>2016-08-27T11:36:20Z</time>
      </trkpt>
      <trkpt lat="45.33978" lon="6.1439">
        <ele>2129</ele>
        <time>2016-08-27T11:36:25Z</time>
      </trkpt>
      <trkpt lat="45.3398" lon="6.1439">
        <ele>2128</ele>
        <time>2016-08-27T11:36:30Z</time>
      </trkpt>
      <trkpt lat="45.33984" lon="6.14394">
        <ele>2130</ele>
        <time>2016-08-27T11:36:35Z</time>
      </trkpt>
      <trkpt lat="45.33987" lon="6.14397">
        <ele>2131</ele>
        <time>2016-08-27T11:36:40Z</time>
      </trkpt>
      <trkpt lat="45.3399" lon="6.14397">
        <ele>2129</ele>
        <time>2016-08-27T11:36:45Z</time>
      </trkpt>
      <trkpt lat="45.33992" lon="6.14397">
        <ele>2129</ele>
        <time>2016-08-27T11:36:50Z</time>
      </trkpt>
      <trkpt lat="45.33994" lon="6.14398">
        <ele>2130</ele>
        <time>2016-08-27T11:36:55Z</time>
      </trkpt>
      <trkpt lat="45.33995" lon="6.14397">
        <ele>2127</ele>
        <time>2016-08-27T11:37:00Z</time>
      </trkpt>
      <trkpt lat="45.33995" lon="6.14395">
        <ele>2125</ele>
        <time>2016-08-27T11:37:05Z</time>
      </trkpt>
      <trkpt lat="45.33996" lon="6.14393">
        <ele>2121</ele>
        <time>2016-08-27T11:37:10Z</time>
      </trkpt>
      <trkpt lat="45.33997" lon="6.14394">
        <ele>2120</ele>
        <time>2016-08-27T11:37:15Z</time>
      </trkpt>
      <trkpt lat="45.33999" lon="6.14394">
        <ele>2120</ele>
        <time>2016-08-27T11:37:20Z</time>
      </trkpt>
      <trkpt lat="45.34001" lon="6.14392">
        <ele>2120</ele>
        <time>2016-08-27T11:37:25Z</time>
      </trkpt>
      <trkpt lat="45.34001" lon="6.14391">
        <ele>2117</ele>
        <time>2016-08-27T11:37:30Z</time>
      </trkpt>
      <trkpt lat="45.34003" lon="6.14393">
        <ele>2117</ele>
        <time>2016-08-27T11:37:35Z</time>
      </trkpt>
      <trkpt lat="45.34005" lon="6.14393">
        <ele>2117</ele>
        <time>2016-08-27T11:37:40Z</time>
      </trkpt>
      <trkpt lat="45.34005" lon="6.14389">
        <ele>2117</ele>
        <time>2016-08-27T11:37:45Z</time>
      </trkpt>
      <trkpt lat="45.34005" lon="6.14386">
        <ele>2116</ele>
        <time>2016-08-27T11:37:50Z</time>
      </trkpt>
      <trkpt lat="45.34006" lon="6.14385">
        <ele>2116</ele>
        <time>2016-08-27T11:37:55Z</time>
      </trkpt>
      <trkpt lat="45.34005" lon="6.14382">
        <ele>2115</ele>
        <time>2016-08-27T11:38:00Z</time>
      </trkpt>
      <trkpt lat="45.34005" lon="6.14377">
        <ele>2115</ele>
        <time>2016-08-27T11:38:05Z</time>
      </trkpt>
      <trkpt lat="45.34005" lon="6.14375">
        <ele>2114</ele>
        <time>2016-08-27T11:38:10Z</time>
      </trkpt>
      <trkpt lat="45.34007" lon="6.14376">
        <ele>2113</ele>
        <time>2016-08-27T11:38:15Z</time>
      </trkpt>
      <trkpt lat="45.34008" lon="6.14372">
        <ele>2111</ele>
        <time>2016-08-27T11:38:20Z</time>
      </trkpt>
      <trkpt lat="45.34009" lon="6.14369">
        <ele>2112</ele>
        <time>2016-08-27T11:38:25Z</time>
      </trkpt>
      <trkpt lat="45.3401" lon="6.14366">
        <ele>2112</ele>
        <time>2016-08-27T11:38:30Z</time>
      </trkpt>
      <trkpt lat="45.3401" lon="6.14364">
        <ele>2112</ele>
        <time>2016-08-27T11:38:35Z</time>
      </trkpt>
      <trkpt lat="45.34011" lon="6.14362">
        <ele>2112</ele>
        <time>2016-08-27T11:38:40Z</time>
      </trkpt>
      <trkpt lat="45.34013" lon="6.14362">
        <ele>2111</ele>
        <time>2016-08-27T11:38:45Z</time>
      </trkpt>
      <trkpt lat="45.34013" lon="6.14361">
        <ele>2111</ele>
        <time>2016-08-27T11:38:50Z</time>
      </trkpt>
      <trkpt lat="45.34014" lon="6.14359">
        <ele>2110</ele>
        <time>2016-08-27T11:38:55Z</time>
      </trkpt>
      <trkpt lat="45.34013" lon="6.14358">
        <ele>2110</ele>
        <time>2016-08-27T11:39:00Z</time>
      </trkpt>
      <trkpt lat="45.34015" lon="6.14358">
        <ele>2111</ele>
        <time>2016-08-27T11:39:05Z</time>
      </trkpt>
      <trkpt lat="45.34017" lon="6.14356">
        <ele>2111</ele>
        <time>2016-08-27T11:39:10Z</time>
      </trkpt>
      <trkpt lat="45.34017" lon="6.14355">
        <ele>2111</ele>
        <time>2016-08-27T11:39:15Z</time>
      </trkpt>
      <trkpt lat="45.34017" lon="6.14354">
        <ele>2110</ele>
        <time>2016-08-27T11:39:20Z</time>
      </trkpt>
      <trkpt lat="45.34017" lon="6.14353">
        <ele>2109</ele>
        <time>2016-08-27T11:39:25Z</time>
      </trkpt>
      <trkpt lat="45.34017" lon="6.14352">
        <ele>2108</ele>
        <time>2016-08-27T11:39:30Z</time>
      </trkpt>
      <trkpt lat="45.34018" lon="6.14349">
        <ele>2106</ele>
        <time>2016-08-27T11:39:35Z</time>
      </trkpt>
      <trkpt lat="45.34018" lon="6.14346">
        <ele>2105</ele>
        <time>2016-08-27T11:39:40Z</time>
      </trkpt>
      <trkpt lat="45.34019" lon="6.14344">
        <ele>2102</ele>
        <time>2016-08-27T11:39:45Z</time>
      </trkpt>
      <trkpt lat="45.3402" lon="6.14341">
        <ele>2100</ele>
        <time>2016-08-27T11:39:50Z</time>
      </trkpt>
      <trkpt lat="45.34021" lon="6.14337">
        <ele>2100</ele>
        <time>2016-08-27T11:39:55Z</time>
      </trkpt>
      <trkpt lat="45.34023" lon="6.14335">
        <ele>2100</ele>
        <time>2016-08-27T11:40:00Z</time>
      </trkpt>
      <trkpt lat="45.34024" lon="6.14333">
        <ele>2099</ele>
        <time>2016-08-27T11:40:05Z</time>
      </trkpt>
      <trkpt lat="45.34026" lon="6.14331">
        <ele>2098</ele>
        <time>2016-08-27T11:40:10Z</time>
      </trkpt>
      <trkpt lat="45.34029" lon="6.14329">
        <ele>2097</ele>
        <time>2016-08-27T11:40:15Z</time>
      </trkpt>
      <trkpt lat="45.34031" lon="6.14328">
        <ele>2096</ele>
        <time>2016-08-27T11:40:20Z</time>
      </trkpt>
      <trkpt lat="45.34033" lon="6.14327">
        <ele>2096</ele>
        <time>2016-08-27T11:40:25Z</time>
      </trkpt>
      <trkpt lat="45.34036" lon="6.14326">
        <ele>2097</ele>
        <time>2016-08-27T11:40:30Z</time>
      </trkpt>
      <trkpt lat="45.34037" lon="6.14322">
        <ele>2096</ele>
        <time>2016-08-27T11:40:35Z</time>
      </trkpt>
      <trkpt lat="45.34039" lon="6.14319">
        <ele>2095</ele>
        <time>2016-08-27T11:40:40Z</time>
      </trkpt>
      <trkpt lat="45.34041" lon="6.14317">
        <ele>2095</ele>
        <time>2016-08-27T11:40:45Z</time>
      </trkpt>
      <trkpt lat="45.34043" lon="6.14315">
        <ele>2094</ele>
        <time>2016-08-27T11:40:50Z</time>
      </trkpt>
      <trkpt lat="45.34045" lon="6.14313">
        <ele>2093</ele>
        <time>2016-08-27T11:40:55Z</time>
      </trkpt>
      <trkpt lat="45.34047" lon="6.1431">
        <ele>2092</ele>
        <time>2016-08-27T11:41:00Z</time>
      </trkpt>
      <trkpt lat="45.34048" lon="6.14307">
        <ele>2092</ele>
        <time>2016-08-27T11:41:05Z</time>
      </trkpt>
      <trkpt lat="45.34049" lon="6.14307">
        <ele>2094</ele>
        <time>2016-08-27T11:41:10Z</time>
      </trkpt>
      <trkpt lat="45.34051" lon="6.14305">
        <ele>2096</ele>
        <time>2016-08-27T11:41:15Z</time>
      </trkpt>
      <trkpt lat="45.34052" lon="6.14305">
        <ele>2097</ele>
        <time>2016-08-27T11:41:20Z</time>
      </trkpt>
      <trkpt lat="45.34051" lon="6.14307">
        <ele>2098</ele>
        <time>2016-08-27T11:41:25Z</time>
      </trkpt>
      <trkpt lat="45.34055" lon="6.14306">
        <ele>2098</ele>
        <time>2016-08-27T11:41:30Z</time>
      </trkpt>
      <trkpt lat="45.34057" lon="6.14303">
        <ele>2098</ele>
        <time>2016-08-27T11:41:35Z</time>
      </trkpt>
      <trkpt lat="45.34059" lon="6.14301">
        <ele>2097</ele>
        <time>2016-08-27T11:41:40Z</time>
      </trkpt>
      <trkpt lat="45.34062" lon="6.14299">
        <ele>2097</ele>
        <time>2016-08-27T11:41:45Z</time>
      </trkpt>
      <trkpt lat="45.34066" lon="6.14296">
        <ele>2096</ele>
        <time>2016-08-27T11:41:50Z</time>
      </trkpt>
      <trkpt lat="45.3407" lon="6.14294">
        <ele>2095</ele>
        <time>2016-08-27T11:41:55Z</time>
      </trkpt>
      <trkpt lat="45.34074" lon="6.1429">
        <ele>2095</ele>
        <time>2016-08-27T11:42:00Z</time>
      </trkpt>
      <trkpt lat="45.34077" lon="6.14287">
        <ele>2093</ele>
        <time>2016-08-27T11:42:05Z</time>
      </trkpt>
      <trkpt lat="45.34081" lon="6.14284">
        <ele>2093</ele>
        <time>2016-08-27T11:42:10Z</time>
      </trkpt>
      <trkpt lat="45.34084" lon="6.14282">
        <ele>2093</ele>
        <time>2016-08-27T11:42:15Z</time>
      </trkpt>
      <trkpt lat="45.34086" lon="6.1428">
        <ele>2092</ele>
        <time>2016-08-27T11:42:20Z</time>
      </trkpt>
      <trkpt lat="45.34086" lon="6.14281">
        <ele>2094</ele>
        <time>2016-08-27T11:42:25Z</time>
      </trkpt>
      <trkpt lat="45.34087" lon="6.1428">
        <ele>2094</ele>
        <time>2016-08-27T11:42:30Z</time>
      </trkpt>
      <trkpt lat="45.34087" lon="6.14279">
        <ele>2093</ele>
        <time>2016-08-27T11:42:35Z</time>
      </trkpt>
      <trkpt lat="45.34091" lon="6.14275">
        <ele>2091</ele>
        <time>2016-08-27T11:42:40Z</time>
      </trkpt>
      <trkpt lat="45.34095" lon="6.14274">
        <ele>2090</ele>
        <time>2016-08-27T11:42:45Z</time>
      </trkpt>
      <trkpt lat="45.341" lon="6.14272">
        <ele>2091</ele>
        <time>2016-08-27T11:42:50Z</time>
      </trkpt>
      <trkpt lat="45.34102" lon="6.1427">
        <ele>2089</ele>
        <time>2016-08-27T11:42:55Z</time>
      </trkpt>
      <trkpt lat="45.34103" lon="6.14268">
        <ele>2088</ele>
        <time>2016-08-27T11:43:00Z</time>
      </trkpt>
      <trkpt lat="45.34105" lon="6.14265">
        <ele>2090</ele>
        <time>2016-08-27T11:43:05Z</time>
      </trkpt>
      <trkpt lat="45.34107" lon="6.14265">
        <ele>2091</ele>
        <time>2016-08-27T11:43:10Z</time>
      </trkpt>
      <trkpt lat="45.34108" lon="6.14263">
        <ele>2094</ele>
        <time>2016-08-27T11:43:15Z</time>
      </trkpt>
      <trkpt lat="45.34108" lon="6.14261">
        <ele>2096</ele>
        <time>2016-08-27T11:43:20Z</time>
      </trkpt>
      <trkpt lat="45.34109" lon="6.14258">
        <ele>2098</ele>
        <time>2016-08-27T11:43:25Z</time>
      </trkpt>
      <trkpt lat="45.3411" lon="6.14258">
        <ele>2099</ele>
        <time>2016-08-27T11:43:30Z</time>
      </trkpt>
      <trkpt lat="45.3411" lon="6.14258">
        <ele>2099</ele>
        <time>2016-08-27T11:43:35Z</time>
      </trkpt>
      <trkpt lat="45.34112" lon="6.14256">
        <ele>2100</ele>
        <time>2016-08-27T11:43:40Z</time>
      </trkpt>
      <trkpt lat="45.34113" lon="6.14254">
        <ele>2101</ele>
        <time>2016-08-27T11:43:45Z</time>
      </trkpt>
      <trkpt lat="45.34117" lon="6.14253">
        <ele>2102</ele>
        <time>2016-08-27T11:43:50Z</time>
      </trkpt>
      <trkpt lat="45.34119" lon="6.14251">
        <ele>2103</ele>
        <time>2016-08-27T11:43:55Z</time>
      </trkpt>
      <trkpt lat="45.34121" lon="6.14251">
        <ele>2104</ele>
        <time>2016-08-27T11:44:00Z</time>
      </trkpt>
      <trkpt lat="45.34124" lon="6.14252">
        <ele>2104</ele>
        <time>2016-08-27T11:44:05Z</time>
      </trkpt>
      <trkpt lat="45.34124" lon="6.14251">
        <ele>2104</ele>
        <time>2016-08-27T11:44:10Z</time>
      </trkpt>
      <trkpt lat="45.34125" lon="6.14251">
        <ele>2105</ele>
        <time>2016-08-27T11:44:15Z</time>
      </trkpt>
      <trkpt lat="45.34128" lon="6.1425">
        <ele>2106</ele>
        <time>2016-08-27T11:44:20Z</time>
      </trkpt>
      <trkpt lat="45.34128" lon="6.14251">
        <ele>2105</ele>
        <time>2016-08-27T11:44:25Z</time>
      </trkpt>
      <trkpt lat="45.34129" lon="6.1425">
        <ele>2106</ele>
        <time>2016-08-27T11:44:30Z</time>
      </trkpt>
      <trkpt lat="45.34131" lon="6.14248">
        <ele>2106</ele>
        <time>2016-08-27T11:44:35Z</time>
      </trkpt>
      <trkpt lat="45.34132" lon="6.14246">
        <ele>2107</ele>
        <time>2016-08-27T11:44:40Z</time>
      </trkpt>
      <trkpt lat="45.34134" lon="6.14245">
        <ele>2109</ele>
        <time>2016-08-27T11:44:45Z</time>
      </trkpt>
      <trkpt lat="45.34134" lon="6.14243">
        <ele>2110</ele>
        <time>2016-08-27T11:44:50Z</time>
      </trkpt>
      <trkpt lat="45.34134" lon="6.14241">
        <ele>2110</ele>
        <time>2016-08-27T11:44:55Z</time>
      </trkpt>
      <trkpt lat="45.34135" lon="6.14238">
        <ele>2111</ele>
        <time>2016-08-27T11:45:00Z</time>
      </trkpt>
      <trkpt lat="45.34136" lon="6.14235">
        <ele>2111</ele>
        <time>2016-08-27T11:45:05Z</time>
      </trkpt>
      <trkpt lat="45.34137" lon="6.14234">
        <ele>2111</ele>
        <time>2016-08-27T11:45:10Z</time>
      </trkpt>
      <trkpt lat="45.3414" lon="6.14233">
        <ele>2110</ele>
        <time>2016-08-27T11:45:15Z</time>
      </trkpt>
      <trkpt lat="45.34144" lon="6.14232">
        <ele>2109</ele>
        <time>2016-08-27T11:45:20Z</time>
      </trkpt>
      <trkpt lat="45.34148" lon="6.14232">
        <ele>2108</ele>
        <time>2016-08-27T11:45:25Z</time>
      </trkpt>
      <trkpt lat="45.34151" lon="6.1423">
        <ele>2109</ele>
        <time>2016-08-27T11:45:30Z</time>
      </trkpt>
      <trkpt lat="45.34153" lon="6.14228">
        <ele>2110</ele>
        <time>2016-08-27T11:45:35Z</time>
      </trkpt>
      <trkpt lat="45.34156" lon="6.14227">
        <ele>2111</ele>
        <time>2016-08-27T11:45:40Z</time>
      </trkpt>
      <trkpt lat="45.34158" lon="6.14225">
        <ele>2108</ele>
        <time>2016-08-27T11:45:45Z</time>
      </trkpt>
      <trkpt lat="45.34163" lon="6.14223">
        <ele>2107</ele>
        <time>2016-08-27T11:45:50Z</time>
      </trkpt>
      <trkpt lat="45.34165" lon="6.14223">
        <ele>2106</ele>
        <time>2016-08-27T11:45:55Z</time>
      </trkpt>
      <trkpt lat="45.34167" lon="6.14225">
        <ele>2105</ele>
        <time>2016-08-27T11:46:00Z</time>
      </trkpt>
      <trkpt lat="45.34172" lon="6.14226">
        <ele>2105</ele>
        <time>2016-08-27T11:46:05Z</time>
      </trkpt>
      <trkpt lat="45.34174" lon="6.14228">
        <ele>2105</ele>
        <time>2016-08-27T11:46:10Z</time>
      </trkpt>
      <trkpt lat="45.34176" lon="6.14226">
        <ele>2105</ele>
        <time>2016-08-27T11:46:15Z</time>
      </trkpt>
      <trkpt lat="45.34176" lon="6.14226">
        <ele>2104</ele>
        <time>2016-08-27T11:46:20Z</time>
      </trkpt>
      <trkpt lat="45.34176" lon="6.14226">
        <ele>2103</ele>
        <time>2016-08-27T11:46:25Z</time>
      </trkpt>
      <trkpt lat="45.34177" lon="6.14227">
        <ele>2102</ele>
        <time>2016-08-27T11:46:30Z</time>
      </trkpt>
      <trkpt lat="45.34182" lon="6.14227">
        <ele>2102</ele>
        <time>2016-08-27T11:46:35Z</time>
      </trkpt>
      <trkpt lat="45.34184" lon="6.14227">
        <ele>2101</ele>
        <time>2016-08-27T11:46:40Z</time>
      </trkpt>
      <trkpt lat="45.34187" lon="6.14229">
        <ele>2100</ele>
        <time>2016-08-27T11:46:45Z</time>
      </trkpt>
      <trkpt lat="45.3419" lon="6.14231">
        <ele>2099</ele>
        <time>2016-08-27T11:46:50Z</time>
      </trkpt>
      <trkpt lat="45.34192" lon="6.14233">
        <ele>2098</ele>
        <time>2016-08-27T11:46:55Z</time>
      </trkpt>
      <trkpt lat="45.34194" lon="6.14236">
        <ele>2098</ele>
        <time>2016-08-27T11:47:00Z</time>
      </trkpt>
      <trkpt lat="45.34196" lon="6.1424">
        <ele>2097</ele>
        <time>2016-08-27T11:47:05Z</time>
      </trkpt>
      <trkpt lat="45.34199" lon="6.14243">
        <ele>2096</ele>
        <time>2016-08-27T11:47:10Z</time>
      </trkpt>
      <trkpt lat="45.342" lon="6.14243">
        <ele>2095</ele>
        <time>2016-08-27T11:47:15Z</time>
      </trkpt>
      <trkpt lat="45.342" lon="6.14244">
        <ele>2094</ele>
        <time>2016-08-27T11:47:20Z</time>
      </trkpt>
      <trkpt lat="45.342" lon="6.14245">
        <ele>2092</ele>
        <time>2016-08-27T11:47:25Z</time>
      </trkpt>
      <trkpt lat="45.34202" lon="6.14246">
        <ele>2092</ele>
        <time>2016-08-27T11:47:30Z</time>
      </trkpt>
      <trkpt lat="45.34202" lon="6.14247">
        <ele>2094</ele>
        <time>2016-08-27T11:47:35Z</time>
      </trkpt>
      <trkpt lat="45.34206" lon="6.14251">
        <ele>2095</ele>
        <time>2016-08-27T11:47:40Z</time>
      </trkpt>
      <trkpt lat="45.34211" lon="6.14256">
        <ele>2095</ele>
        <time>2016-08-27T11:47:45Z</time>
      </trkpt>
      <trkpt lat="45.34214" lon="6.1426">
        <ele>2095</ele>
        <time>2016-08-27T11:47:50Z</time>
      </trkpt>
      <trkpt lat="45.34218" lon="6.14263">
        <ele>2095</ele>
        <time>2016-08-27T11:47:55Z</time>
      </trkpt>
      <trkpt lat="45.34221" lon="6.14267">
        <ele>2095</ele>
        <time>2016-08-27T11:48:00Z</time>
      </trkpt>
      <trkpt lat="45.34223" lon="6.14271">
        <ele>2094</ele>
        <time>2016-08-27T11:48:05Z</time>
      </trkpt>
      <trkpt lat="45.34224" lon="6.14274">
        <ele>2093</ele>
        <time>2016-08-27T11:48:10Z</time>
      </trkpt>
      <trkpt lat="45.34225" lon="6.14275">
        <ele>2098</ele>
        <time>2016-08-27T11:48:15Z</time>
      </trkpt>
      <trkpt lat="45.34225" lon="6.14276">
        <ele>2099</ele>
        <time>2016-08-27T11:48:20Z</time>
      </trkpt>
      <trkpt lat="45.34226" lon="6.14274">
        <ele>2097</ele>
        <time>2016-08-27T11:48:25Z</time>
      </trkpt>
      <trkpt lat="45.34226" lon="6.14277">
        <ele>2097</ele>
        <time>2016-08-27T11:48:30Z</time>
      </trkpt>
      <trkpt lat="45.34225" lon="6.14279">
        <ele>2094</ele>
        <time>2016-08-27T11:48:35Z</time>
      </trkpt>
      <trkpt lat="45.34226" lon="6.14279">
        <ele>2089</ele>
        <time>2016-08-27T11:48:40Z</time>
      </trkpt>
      <trkpt lat="45.34226" lon="6.1428">
        <ele>2087</ele>
        <time>2016-08-27T11:48:45Z</time>
      </trkpt>
      <trkpt lat="45.34226" lon="6.14285">
        <ele>2083</ele>
        <time>2016-08-27T11:48:50Z</time>
      </trkpt>
      <trkpt lat="45.34225" lon="6.14289">
        <ele>2076</ele>
        <time>2016-08-27T11:48:55Z</time>
      </trkpt>
      <trkpt lat="45.34225" lon="6.14297">
        <ele>2073</ele>
        <time>2016-08-27T11:49:00Z</time>
      </trkpt>
      <trkpt lat="45.34229" lon="6.14306">
        <ele>2072</ele>
        <time>2016-08-27T11:49:05Z</time>
      </trkpt>
      <trkpt lat="45.34234" lon="6.14312">
        <ele>2072</ele>
        <time>2016-08-27T11:49:10Z</time>
      </trkpt>
      <trkpt lat="45.34238" lon="6.14317">
        <ele>2071</ele>
        <time>2016-08-27T11:49:15Z</time>
      </trkpt>
      <trkpt lat="45.3424" lon="6.14322">
        <ele>2070</ele>
        <time>2016-08-27T11:49:20Z</time>
      </trkpt>
      <trkpt lat="45.3424" lon="6.14327">
        <ele>2071</ele>
        <time>2016-08-27T11:49:25Z</time>
      </trkpt>
      <trkpt lat="45.34242" lon="6.14334">
        <ele>2071</ele>
        <time>2016-08-27T11:49:30Z</time>
      </trkpt>
      <trkpt lat="45.34243" lon="6.14339">
        <ele>2071</ele>
        <time>2016-08-27T11:49:35Z</time>
      </trkpt>
      <trkpt lat="45.34246" lon="6.14347">
        <ele>2073</ele>
        <time>2016-08-27T11:49:40Z</time>
      </trkpt>
      <trkpt lat="45.3425" lon="6.14354">
        <ele>2073</ele>
        <time>2016-08-27T11:49:45Z</time>
      </trkpt>
      <trkpt lat="45.34252" lon="6.14362">
        <ele>2072</ele>
        <time>2016-08-27T11:49:50Z</time>
      </trkpt>
      <trkpt lat="45.34254" lon="6.1437">
        <ele>2071</ele>
        <time>2016-08-27T11:49:55Z</time>
      </trkpt>
      <trkpt lat="45.34256" lon="6.14377">
        <ele>2070</ele>
        <time>2016-08-27T11:50:00Z</time>
      </trkpt>
      <trkpt lat="45.34258" lon="6.14383">
        <ele>2069</ele>
        <time>2016-08-27T11:50:05Z</time>
      </trkpt>
      <trkpt lat="45.34261" lon="6.1439">
        <ele>2068</ele>
        <time>2016-08-27T11:50:10Z</time>
      </trkpt>
      <trkpt lat="45.34262" lon="6.14397">
        <ele>2068</ele>
        <time>2016-08-27T11:50:15Z</time>
      </trkpt>
      <trkpt lat="45.34264" lon="6.14405">
        <ele>2067</ele>
        <time>2016-08-27T11:50:20Z</time>
      </trkpt>
      <trkpt lat="45.34267" lon="6.14412">
        <ele>2064</ele>
        <time>2016-08-27T11:50:25Z</time>
      </trkpt>
      <trkpt lat="45.3427" lon="6.14419">
        <ele>2061</ele>
        <time>2016-08-27T11:50:30Z</time>
      </trkpt>
      <trkpt lat="45.34273" lon="6.14426">
        <ele>2061</ele>
        <time>2016-08-27T11:50:35Z</time>
      </trkpt>
      <trkpt lat="45.34275" lon="6.14433">
        <ele>2060</ele>
        <time>2016-08-27T11:50:40Z</time>
      </trkpt>
      <trkpt lat="45.34277" lon="6.14439">
        <ele>2061</ele>
        <time>2016-08-27T11:50:45Z</time>
      </trkpt>
      <trkpt lat="45.34279" lon="6.14447">
        <ele>2060</ele>
        <time>2016-08-27T11:50:50Z</time>
      </trkpt>
      <trkpt lat="45.34281" lon="6.14452">
        <ele>2059</ele>
        <time>2016-08-27T11:50:55Z</time>
      </trkpt>
      <trkpt lat="45.34283" lon="6.14457">
        <ele>2059</ele>
        <time>2016-08-27T11:51:00Z</time>
      </trkpt>
      <trkpt lat="45.34284" lon="6.14462">
        <ele>2057</ele>
        <time>2016-08-27T11:51:05Z</time>
      </trkpt>
      <trkpt lat="45.34285" lon="6.14468">
        <ele>2058</ele>
        <time>2016-08-27T11:51:10Z</time>
      </trkpt>
      <trkpt lat="45.34286" lon="6.14472">
        <ele>2057</ele>
        <time>2016-08-27T11:51:15Z</time>
      </trkpt>
      <trkpt lat="45.34287" lon="6.14477">
        <ele>2056</ele>
        <time>2016-08-27T11:51:20Z</time>
      </trkpt>
      <trkpt lat="45.34287" lon="6.14481">
        <ele>2054</ele>
        <time>2016-08-27T11:51:25Z</time>
      </trkpt>
      <trkpt lat="45.34287" lon="6.14485">
        <ele>2052</ele>
        <time>2016-08-27T11:51:30Z</time>
      </trkpt>
      <trkpt lat="45.34287" lon="6.1449">
        <ele>2050</ele>
        <time>2016-08-27T11:51:35Z</time>
      </trkpt>
      <trkpt lat="45.34287" lon="6.14494">
        <ele>2049</ele>
        <time>2016-08-27T11:51:40Z</time>
      </trkpt>
      <trkpt lat="45.34287" lon="6.14498">
        <ele>2049</ele>
        <time>2016-08-27T11:51:45Z</time>
      </trkpt>
      <trkpt lat="45.34288" lon="6.14503">
        <ele>2047</ele>
        <time>2016-08-27T11:51:50Z</time>
      </trkpt>
      <trkpt lat="45.34289" lon="6.14509">
        <ele>2048</ele>
        <time>2016-08-27T11:51:55Z</time>
      </trkpt>
      <trkpt lat="45.3429" lon="6.14515">
        <ele>2047</ele>
        <time>2016-08-27T11:52:00Z</time>
      </trkpt>
      <trkpt lat="45.34293" lon="6.1452">
        <ele>2046</ele>
        <time>2016-08-27T11:52:05Z</time>
      </trkpt>
      <trkpt lat="45.34293" lon="6.14528">
        <ele>2045</ele>
        <time>2016-08-27T11:52:10Z</time>
      </trkpt>
      <trkpt lat="45.34296" lon="6.14536">
        <ele>2045</ele>
        <time>2016-08-27T11:52:15Z</time>
      </trkpt>
      <trkpt lat="45.34297" lon="6.14543">
        <ele>2043</ele>
        <time>2016-08-27T11:52:20Z</time>
      </trkpt>
      <trkpt lat="45.34297" lon="6.1455">
        <ele>2041</ele>
        <time>2016-08-27T11:52:25Z</time>
      </trkpt>
      <trkpt lat="45.34299" lon="6.14555">
        <ele>2039</ele>
        <time>2016-08-27T11:52:30Z</time>
      </trkpt>
      <trkpt lat="45.34301" lon="6.14562">
        <ele>2039</ele>
        <time>2016-08-27T11:52:35Z</time>
      </trkpt>
      <trkpt lat="45.34303" lon="6.1457">
        <ele>2039</ele>
        <time>2016-08-27T11:52:40Z</time>
      </trkpt>
      <trkpt lat="45.34307" lon="6.14576">
        <ele>2040</ele>
        <time>2016-08-27T11:52:45Z</time>
      </trkpt>
      <trkpt lat="45.34307" lon="6.14579">
        <ele>2040</ele>
        <time>2016-08-27T11:52:50Z</time>
      </trkpt>
      <trkpt lat="45.34308" lon="6.1458">
        <ele>2039</ele>
        <time>2016-08-27T11:52:55Z</time>
      </trkpt>
      <trkpt lat="45.34312" lon="6.14584">
        <ele>2038</ele>
        <time>2016-08-27T11:53:00Z</time>
      </trkpt>
      <trkpt lat="45.34316" lon="6.14583">
        <ele>2037</ele>
        <time>2016-08-27T11:53:05Z</time>
      </trkpt>
      <trkpt lat="45.34319" lon="6.14582">
        <ele>2036</ele>
        <time>2016-08-27T11:53:10Z</time>
      </trkpt>
      <trkpt lat="45.34319" lon="6.14583">
        <ele>2036</ele>
        <time>2016-08-27T11:53:15Z</time>
      </trkpt>
      <trkpt lat="45.34321" lon="6.14586">
        <ele>2036</ele>
        <time>2016-08-27T11:53:20Z</time>
      </trkpt>
      <trkpt lat="45.34321" lon="6.14586">
        <ele>2036</ele>
        <time>2016-08-27T11:53:25Z</time>
      </trkpt>
      <trkpt lat="45.34321" lon="6.14591">
        <ele>2034</ele>
        <time>2016-08-27T11:53:30Z</time>
      </trkpt>
      <trkpt lat="45.34319" lon="6.14597">
        <ele>2032</ele>
        <time>2016-08-27T11:53:35Z</time>
      </trkpt>
      <trkpt lat="45.34317" lon="6.14603">
        <ele>2030</ele>
        <time>2016-08-27T11:53:40Z</time>
      </trkpt>
      <trkpt lat="45.34317" lon="6.1461">
        <ele>2030</ele>
        <time>2016-08-27T11:53:45Z</time>
      </trkpt>
      <trkpt lat="45.34319" lon="6.14614">
        <ele>2030</ele>
        <time>2016-08-27T11:53:50Z</time>
      </trkpt>
      <trkpt lat="45.3432" lon="6.14614">
        <ele>2030</ele>
        <time>2016-08-27T11:53:55Z</time>
      </trkpt>
      <trkpt lat="45.3432" lon="6.14614">
        <ele>2030</ele>
        <time>2016-08-27T11:54:00Z</time>
      </trkpt>
      <trkpt lat="45.34321" lon="6.14613">
        <ele>2029</ele>
        <time>2016-08-27T11:54:05Z</time>
      </trkpt>
      <trkpt lat="45.34321" lon="6.14613">
        <ele>2029</ele>
        <time>2016-08-27T11:54:10Z</time>
      </trkpt>
      <trkpt lat="45.34321" lon="6.14613">
        <ele>2029</ele>
        <time>2016-08-27T11:54:15Z</time>
      </trkpt>
      <trkpt lat="45.34322" lon="6.14614">
        <ele>2029</ele>
        <time>2016-08-27T11:54:20Z</time>
      </trkpt>
      <trkpt lat="45.34322" lon="6.14614">
        <ele>2030</ele>
        <time>2016-08-27T11:54:25Z</time>
      </trkpt>
      <trkpt lat="45.34322" lon="6.14614">
        <ele>2030</ele>
        <time>2016-08-27T11:54:30Z</time>
      </trkpt>
      <trkpt lat="45.34325" lon="6.14614">
        <ele>2030</ele>
        <time>2016-08-27T11:54:35Z</time>
      </trkpt>
      <trkpt lat="45.34328" lon="6.14618">
        <ele>2028</ele>
        <time>2016-08-27T11:54:40Z</time>
      </trkpt>
      <trkpt lat="45.34332" lon="6.14619">
        <ele>2027</ele>
        <time>2016-08-27T11:54:45Z</time>
      </trkpt>
      <trkpt lat="45.34335" lon="6.14621">
        <ele>2025</ele>
        <time>2016-08-27T11:54:50Z</time>
      </trkpt>
      <trkpt lat="45.34341" lon="6.1462">
        <ele>2024</ele>
        <time>2016-08-27T11:54:55Z</time>
      </trkpt>
      <trkpt lat="45.34346" lon="6.14619">
        <ele>2023</ele>
        <time>2016-08-27T11:55:00Z</time>
      </trkpt>
      <trkpt lat="45.3435" lon="6.14617">
        <ele>2022</ele>
        <time>2016-08-27T11:55:05Z</time>
      </trkpt>
      <trkpt lat="45.34353" lon="6.14619">
        <ele>2020</ele>
        <time>2016-08-27T11:55:10Z</time>
      </trkpt>
      <trkpt lat="45.34353" lon="6.14625">
        <ele>2019</ele>
        <time>2016-08-27T11:55:15Z</time>
      </trkpt>
      <trkpt lat="45.34353" lon="6.14627">
        <ele>2019</ele>
        <time>2016-08-27T11:55:20Z</time>
      </trkpt>
      <trkpt lat="45.34354" lon="6.14632">
        <ele>2018</ele>
        <time>2016-08-27T11:55:25Z</time>
      </trkpt>
      <trkpt lat="45.34357" lon="6.14636">
        <ele>2017</ele>
        <time>2016-08-27T11:55:30Z</time>
      </trkpt>
      <trkpt lat="45.34361" lon="6.14636">
        <ele>2016</ele>
        <time>2016-08-27T11:55:35Z</time>
      </trkpt>
      <trkpt lat="45.34364" lon="6.14633">
        <ele>2015</ele>
        <time>2016-08-27T11:55:40Z</time>
      </trkpt>
      <trkpt lat="45.34369" lon="6.14634">
        <ele>2015</ele>
        <time>2016-08-27T11:55:45Z</time>
      </trkpt>
      <trkpt lat="45.34374" lon="6.14635">
        <ele>2013</ele>
        <time>2016-08-27T11:55:50Z</time>
      </trkpt>
      <trkpt lat="45.34379" lon="6.14631">
        <ele>2012</ele>
        <time>2016-08-27T11:55:55Z</time>
      </trkpt>
      <trkpt lat="45.34383" lon="6.14631">
        <ele>2011</ele>
        <time>2016-08-27T11:56:00Z</time>
      </trkpt>
      <trkpt lat="45.34387" lon="6.14632">
        <ele>2010</ele>
        <time>2016-08-27T11:56:05Z</time>
      </trkpt>
      <trkpt lat="45.3439" lon="6.14637">
        <ele>2009</ele>
        <time>2016-08-27T11:56:10Z</time>
      </trkpt>
      <trkpt lat="45.34395" lon="6.14643">
        <ele>2009</ele>
        <time>2016-08-27T11:56:15Z</time>
      </trkpt>
      <trkpt lat="45.344" lon="6.14647">
        <ele>2009</ele>
        <time>2016-08-27T11:56:20Z</time>
      </trkpt>
      <trkpt lat="45.34404" lon="6.1465">
        <ele>2008</ele>
        <time>2016-08-27T11:56:25Z</time>
      </trkpt>
      <trkpt lat="45.34407" lon="6.14654">
        <ele>2005</ele>
        <time>2016-08-27T11:56:30Z</time>
      </trkpt>
      <trkpt lat="45.34409" lon="6.14658">
        <ele>2000</ele>
        <time>2016-08-27T11:56:35Z</time>
      </trkpt>
      <trkpt lat="45.3441" lon="6.14666">
        <ele>1998</ele>
        <time>2016-08-27T11:56:40Z</time>
      </trkpt>
      <trkpt lat="45.34412" lon="6.14671">
        <ele>1997</ele>
        <time>2016-08-27T11:56:45Z</time>
      </trkpt>
      <trkpt lat="45.34415" lon="6.14675">
        <ele>1994</ele>
        <time>2016-08-27T11:56:50Z</time>
      </trkpt>
      <trkpt lat="45.34418" lon="6.14677">
        <ele>1993</ele>
        <time>2016-08-27T11:56:55Z</time>
      </trkpt>
      <trkpt lat="45.3442" lon="6.14681">
        <ele>1992</ele>
        <time>2016-08-27T11:57:00Z</time>
      </trkpt>
      <trkpt lat="45.3442" lon="6.14685">
        <ele>1991</ele>
        <time>2016-08-27T11:57:05Z</time>
      </trkpt>
      <trkpt lat="45.3442" lon="6.14685">
        <ele>1990</ele>
        <time>2016-08-27T11:57:10Z</time>
      </trkpt>
      <trkpt lat="45.3442" lon="6.14686">
        <ele>1990</ele>
        <time>2016-08-27T11:57:15Z</time>
      </trkpt>
      <trkpt lat="45.3442" lon="6.14686">
        <ele>1991</ele>
        <time>2016-08-27T11:57:20Z</time>
      </trkpt>
      <trkpt lat="45.3442" lon="6.14688">
        <ele>1991</ele>
        <time>2016-08-27T11:57:25Z</time>
      </trkpt>
      <trkpt lat="45.34422" lon="6.14691">
        <ele>1990</ele>
        <time>2016-08-27T11:57:30Z</time>
      </trkpt>
      <trkpt lat="45.34425" lon="6.14694">
        <ele>1989</ele>
        <time>2016-08-27T11:57:35Z</time>
      </trkpt>
      <trkpt lat="45.34425" lon="6.14696">
        <ele>1989</ele>
        <time>2016-08-27T11:57:40Z</time>
      </trkpt>
      <trkpt lat="45.34425" lon="6.14696">
        <ele>1989</ele>
        <time>2016-08-27T11:57:45Z</time>
      </trkpt>
      <trkpt lat="45.34426" lon="6.14697">
        <ele>1989</ele>
        <time>2016-08-27T11:57:50Z</time>
      </trkpt>
      <trkpt lat="45.34428" lon="6.14699">
        <ele>1988</ele>
        <time>2016-08-27T11:57:55Z</time>
      </trkpt>
      <trkpt lat="45.34428" lon="6.14704">
        <ele>1986</ele>
        <time>2016-08-27T11:58:00Z</time>
      </trkpt>
      <trkpt lat="45.34427" lon="6.14708">
        <ele>1984</ele>
        <time>2016-08-27T11:58:05Z</time>
      </trkpt>
      <trkpt lat="45.34428" lon="6.14712">
        <ele>1983</ele>
        <time>2016-08-27T11:58:10Z</time>
      </trkpt>
      <trkpt lat="45.34427" lon="6.14716">
        <ele>1982</ele>
        <time>2016-08-27T11:58:15Z</time>
      </trkpt>
      <trkpt lat="45.3443" lon="6.14719">
        <ele>1980</ele>
        <time>2016-08-27T11:58:20Z</time>
      </trkpt>
      <trkpt lat="45.34433" lon="6.14722">
        <ele>1979</ele>
        <time>2016-08-27T11:58:25Z</time>
      </trkpt>
      <trkpt lat="45.34435" lon="6.14725">
        <ele>1978</ele>
        <time>2016-08-27T11:58:30Z</time>
      </trkpt>
      <trkpt lat="45.34437" lon="6.14729">
        <ele>1976</ele>
        <time>2016-08-27T11:58:35Z</time>
      </trkpt>
      <trkpt lat="45.3444" lon="6.14731">
        <ele>1975</ele>
        <time>2016-08-27T11:58:40Z</time>
      </trkpt>
      <trkpt lat="45.34441" lon="6.14734">
        <ele>1974</ele>
        <time>2016-08-27T11:58:45Z</time>
      </trkpt>
      <trkpt lat="45.34442" lon="6.14734">
        <ele>1975</ele>
        <time>2016-08-27T11:58:50Z</time>
      </trkpt>
      <trkpt lat="45.34443" lon="6.14736">
        <ele>1974</ele>
        <time>2016-08-27T11:58:55Z</time>
      </trkpt>
      <trkpt lat="45.34444" lon="6.14739">
        <ele>1974</ele>
        <time>2016-08-27T11:59:00Z</time>
      </trkpt>
      <trkpt lat="45.34443" lon="6.14742">
        <ele>1972</ele>
        <time>2016-08-27T11:59:05Z</time>
      </trkpt>
      <trkpt lat="45.34442" lon="6.14745">
        <ele>1971</ele>
        <time>2016-08-27T11:59:10Z</time>
      </trkpt>
      <trkpt lat="45.34441" lon="6.14749">
        <ele>1969</ele>
        <time>2016-08-27T11:59:15Z</time>
      </trkpt>
      <trkpt lat="45.34442" lon="6.14752">
        <ele>1967</ele>
        <time>2016-08-27T11:59:20Z</time>
      </trkpt>
      <trkpt lat="45.34441" lon="6.14755">
        <ele>1965</ele>
        <time>2016-08-27T11:59:25Z</time>
      </trkpt>
      <trkpt lat="45.34438" lon="6.14758">
        <ele>1963</ele>
        <time>2016-08-27T11:59:30Z</time>
      </trkpt>
      <trkpt lat="45.34436" lon="6.14759">
        <ele>1961</ele>
        <time>2016-08-27T11:59:35Z</time>
      </trkpt>
      <trkpt lat="45.34436" lon="6.14762">
        <ele>1961</ele>
        <time>2016-08-27T11:59:40Z</time>
      </trkpt>
      <trkpt lat="45.34434" lon="6.14765">
        <ele>1959</ele>
        <time>2016-08-27T11:59:45Z</time>
      </trkpt>
      <trkpt lat="45.34436" lon="6.14769">
        <ele>1959</ele>
        <time>2016-08-27T11:59:50Z</time>
      </trkpt>
      <trkpt lat="45.34435" lon="6.14773">
        <ele>1958</ele>
        <time>2016-08-27T11:59:55Z</time>
      </trkpt>
      <trkpt lat="45.34435" lon="6.14777">
        <ele>1957</ele>
        <time>2016-08-27T12:00:00Z</time>
      </trkpt>
      <trkpt lat="45.34435" lon="6.14781">
        <ele>1956</ele>
        <time>2016-08-27T12:00:05Z</time>
      </trkpt>
      <trkpt lat="45.34432" lon="6.14786">
        <ele>1953</ele>
        <time>2016-08-27T12:00:10Z</time>
      </trkpt>
      <trkpt lat="45.34432" lon="6.1479">
        <ele>1952</ele>
        <time>2016-08-27T12:00:15Z</time>
      </trkpt>
      <trkpt lat="45.3443" lon="6.14794">
        <ele>1950</ele>
        <time>2016-08-27T12:00:20Z</time>
      </trkpt>
      <trkpt lat="45.34428" lon="6.14797">
        <ele>1949</ele>
        <time>2016-08-27T12:00:25Z</time>
      </trkpt>
      <trkpt lat="45.34427" lon="6.14801">
        <ele>1947</ele>
        <time>2016-08-27T12:00:30Z</time>
      </trkpt>
      <trkpt lat="45.34425" lon="6.14805">
        <ele>1947</ele>
        <time>2016-08-27T12:00:35Z</time>
      </trkpt>
      <trkpt lat="45.34425" lon="6.1481">
        <ele>1944</ele>
        <time>2016-08-27T12:00:40Z</time>
      </trkpt>
      <trkpt lat="45.34425" lon="6.14815">
        <ele>1942</ele>
        <time>2016-08-27T12:00:45Z</time>
      </trkpt>
      <trkpt lat="45.34424" lon="6.1482">
        <ele>1941</ele>
        <time>2016-08-27T12:00:50Z</time>
      </trkpt>
      <trkpt lat="45.34422" lon="6.14823">
        <ele>1939</ele>
        <time>2016-08-27T12:00:55Z</time>
      </trkpt>
      <trkpt lat="45.34421" lon="6.1483">
        <ele>1937</ele>
        <time>2016-08-27T12:01:00Z</time>
      </trkpt>
      <trkpt lat="45.3442" lon="6.14837">
        <ele>1937</ele>
        <time>2016-08-27T12:01:05Z</time>
      </trkpt>
      <trkpt lat="45.3442" lon="6.14842">
        <ele>1937</ele>
        <time>2016-08-27T12:01:10Z</time>
      </trkpt>
      <trkpt lat="45.34421" lon="6.14849">
        <ele>1937</ele>
        <time>2016-08-27T12:01:15Z</time>
      </trkpt>
      <trkpt lat="45.34423" lon="6.14853">
        <ele>1938</ele>
        <time>2016-08-27T12:01:20Z</time>
      </trkpt>
      <trkpt lat="45.34426" lon="6.14857">
        <ele>1938</ele>
        <time>2016-08-27T12:01:25Z</time>
      </trkpt>
      <trkpt lat="45.34427" lon="6.14862">
        <ele>1938</ele>
        <time>2016-08-27T12:01:30Z</time>
      </trkpt>
      <trkpt lat="45.34427" lon="6.14862">
        <ele>1937</ele>
        <time>2016-08-27T12:01:35Z</time>
      </trkpt>
      <trkpt lat="45.34427" lon="6.14862">
        <ele>1938</ele>
        <time>2016-08-27T12:01:40Z</time>
      </trkpt>
      <trkpt lat="45.34427" lon="6.14863">
        <ele>1938</ele>
        <time>2016-08-27T12:01:45Z</time>
      </trkpt>
      <trkpt lat="45.34427" lon="6.14863">
        <ele>1938</ele>
        <time>2016-08-27T12:01:50Z</time>
      </trkpt>
      <trkpt lat="45.34427" lon="6.14863">
        <ele>1938</ele>
        <time>2016-08-27T12:01:55Z</time>
      </trkpt>
      <trkpt lat="45.34428" lon="6.1487">
        <ele>1938</ele>
        <time>2016-08-27T12:02:00Z</time>
      </trkpt>
      <trkpt lat="45.3443" lon="6.14876">
        <ele>1937</ele>
        <time>2016-08-27T12:02:05Z</time>
      </trkpt>
      <trkpt lat="45.34432" lon="6.14883">
        <ele>1937</ele>
        <time>2016-08-27T12:02:10Z</time>
      </trkpt>
      <trkpt lat="45.34435" lon="6.1489">
        <ele>1937</ele>
        <time>2016-08-27T12:02:15Z</time>
      </trkpt>
      <trkpt lat="45.34437" lon="6.14897">
        <ele>1936</ele>
        <time>2016-08-27T12:02:20Z</time>
      </trkpt>
      <trkpt lat="45.34438" lon="6.14904">
        <ele>1935</ele>
        <time>2016-08-27T12:02:25Z</time>
      </trkpt>
      <trkpt lat="45.34437" lon="6.14909">
        <ele>1934</ele>
        <time>2016-08-27T12:02:30Z</time>
      </trkpt>
      <trkpt lat="45.3444" lon="6.14914">
        <ele>1933</ele>
        <time>2016-08-27T12:02:35Z</time>
      </trkpt>
      <trkpt lat="45.34442" lon="6.14921">
        <ele>1932</ele>
        <time>2016-08-27T12:02:40Z</time>
      </trkpt>
      <trkpt lat="45.34445" lon="6.14926">
        <ele>1931</ele>
        <time>2016-08-27T12:02:45Z</time>
      </trkpt>
      <trkpt lat="45.34446" lon="6.14932">
        <ele>1930</ele>
        <time>2016-08-27T12:02:50Z</time>
      </trkpt>
      <trkpt lat="45.34445" lon="6.14938">
        <ele>1929</ele>
        <time>2016-08-27T12:02:55Z</time>
      </trkpt>
      <trkpt lat="45.34447" lon="6.14944">
        <ele>1927</ele>
        <time>2016-08-27T12:03:00Z</time>
      </trkpt>
      <trkpt lat="45.34449" lon="6.14949">
        <ele>1926</ele>
        <time>2016-08-27T12:03:05Z</time>
      </trkpt>
      <trkpt lat="45.34452" lon="6.14954">
        <ele>1924</ele>
        <time>2016-08-27T12:03:10Z</time>
      </trkpt>
      <trkpt lat="45.34456" lon="6.14958">
        <ele>1923</ele>
        <time>2016-08-27T12:03:15Z</time>
      </trkpt>
      <trkpt lat="45.34456" lon="6.14964">
        <ele>1921</ele>
        <time>2016-08-27T12:03:20Z</time>
      </trkpt>
      <trkpt lat="45.34457" lon="6.1497">
        <ele>1919</ele>
        <time>2016-08-27T12:03:25Z</time>
      </trkpt>
      <trkpt lat="45.34458" lon="6.14976">
        <ele>1917</ele>
        <time>2016-08-27T12:03:30Z</time>
      </trkpt>
      <trkpt lat="45.34459" lon="6.14982">
        <ele>1916</ele>
        <time>2016-08-27T12:03:35Z</time>
      </trkpt>
      <trkpt lat="45.34458" lon="6.14987">
        <ele>1913</ele>
        <time>2016-08-27T12:03:40Z</time>
      </trkpt>
      <trkpt lat="45.34455" lon="6.14993">
        <ele>1912</ele>
        <time>2016-08-27T12:03:45Z</time>
      </trkpt>
      <trkpt lat="45.34451" lon="6.14999">
        <ele>1911</ele>
        <time>2016-08-27T12:03:50Z</time>
      </trkpt>
      <trkpt lat="45.34449" lon="6.15004">
        <ele>1910</ele>
        <time>2016-08-27T12:03:55Z</time>
      </trkpt>
      <trkpt lat="45.34447" lon="6.15008">
        <ele>1908</ele>
        <time>2016-08-27T12:04:00Z</time>
      </trkpt>
      <trkpt lat="45.34444" lon="6.15013">
        <ele>1906</ele>
        <time>2016-08-27T12:04:05Z</time>
      </trkpt>
      <trkpt lat="45.34443" lon="6.15017">
        <ele>1904</ele>
        <time>2016-08-27T12:04:10Z</time>
      </trkpt>
      <trkpt lat="45.34442" lon="6.15021">
        <ele>1903</ele>
        <time>2016-08-27T12:04:15Z</time>
      </trkpt>
      <trkpt lat="45.34443" lon="6.15027">
        <ele>1902</ele>
        <time>2016-08-27T12:04:20Z</time>
      </trkpt>
      <trkpt lat="45.3444" lon="6.15031">
        <ele>1901</ele>
        <time>2016-08-27T12:04:25Z</time>
      </trkpt>
      <trkpt lat="45.3444" lon="6.15035">
        <ele>1900</ele>
        <time>2016-08-27T12:04:30Z</time>
      </trkpt>
      <trkpt lat="45.3444" lon="6.15038">
        <ele>1899</ele>
        <time>2016-08-27T12:04:35Z</time>
      </trkpt>
      <trkpt lat="45.3444" lon="6.15043">
        <ele>1898</ele>
        <time>2016-08-27T12:04:40Z</time>
      </trkpt>
      <trkpt lat="45.34436" lon="6.15047">
        <ele>1897</ele>
        <time>2016-08-27T12:04:45Z</time>
      </trkpt>
      <trkpt lat="45.34435" lon="6.15052">
        <ele>1895</ele>
        <time>2016-08-27T12:04:50Z</time>
      </trkpt>
      <trkpt lat="45.34433" lon="6.15055">
        <ele>1892</ele>
        <time>2016-08-27T12:04:55Z</time>
      </trkpt>
      <trkpt lat="45.34432" lon="6.1506">
        <ele>1890</ele>
        <time>2016-08-27T12:05:00Z</time>
      </trkpt>
      <trkpt lat="45.34429" lon="6.15062">
        <ele>1888</ele>
        <time>2016-08-27T12:05:05Z</time>
      </trkpt>
      <trkpt lat="45.34427" lon="6.15064">
        <ele>1887</ele>
        <time>2016-08-27T12:05:10Z</time>
      </trkpt>
      <trkpt lat="45.34423" lon="6.15065">
        <ele>1885</ele>
        <time>2016-08-27T12:05:15Z</time>
      </trkpt>
      <trkpt lat="45.34421" lon="6.15068">
        <ele>1884</ele>
        <time>2016-08-27T12:05:20Z</time>
      </trkpt>
      <trkpt lat="45.34422" lon="6.15073">
        <ele>1882</ele>
        <time>2016-08-27T12:05:25Z</time>
      </trkpt>
      <trkpt lat="45.3442" lon="6.15076">
        <ele>1881</ele>
        <time>2016-08-27T12:05:30Z</time>
      </trkpt>
      <trkpt lat="45.3442" lon="6.15076">
        <ele>1881</ele>
        <time>2016-08-27T12:05:35Z</time>
      </trkpt>
      <trkpt lat="45.3442" lon="6.15075">
        <ele>1880</ele>
        <time>2016-08-27T12:05:40Z</time>
      </trkpt>
      <trkpt lat="45.3442" lon="6.15075">
        <ele>1880</ele>
        <time>2016-08-27T12:05:45Z</time>
      </trkpt>
      <trkpt lat="45.3442" lon="6.15076">
        <ele>1879</ele>
        <time>2016-08-27T12:05:50Z</time>
      </trkpt>
      <trkpt lat="45.3442" lon="6.15076">
        <ele>1879</ele>
        <time>2016-08-27T12:05:55Z</time>
      </trkpt>
      <trkpt lat="45.3442" lon="6.15076">
        <ele>1879</ele>
        <time>2016-08-27T12:06:00Z</time>
      </trkpt>
      <trkpt lat="45.34416" lon="6.15076">
        <ele>1878</ele>
        <time>2016-08-27T12:06:05Z</time>
      </trkpt>
      <trkpt lat="45.34413" lon="6.15076">
        <ele>1877</ele>
        <time>2016-08-27T12:06:10Z</time>
      </trkpt>
      <trkpt lat="45.34411" lon="6.15078">
        <ele>1875</ele>
        <time>2016-08-27T12:06:15Z</time>
      </trkpt>
      <trkpt lat="45.34407" lon="6.15078">
        <ele>1873</ele>
        <time>2016-08-27T12:06:20Z</time>
      </trkpt>
      <trkpt lat="45.34404" lon="6.15081">
        <ele>1872</ele>
        <time>2016-08-27T12:06:25Z</time>
      </trkpt>
      <trkpt lat="45.34405" lon="6.15086">
        <ele>1871</ele>
        <time>2016-08-27T12:06:30Z</time>
      </trkpt>
      <trkpt lat="45.34406" lon="6.15091">
        <ele>1870</ele>
        <time>2016-08-27T12:06:35Z</time>
      </trkpt>
      <trkpt lat="45.34405" lon="6.15097">
        <ele>1869</ele>
        <time>2016-08-27T12:06:40Z</time>
      </trkpt>
      <trkpt lat="45.34404" lon="6.15101">
        <ele>1867</ele>
        <time>2016-08-27T12:06:45Z</time>
      </trkpt>
      <trkpt lat="45.34405" lon="6.15106">
        <ele>1866</ele>
        <time>2016-08-27T12:06:50Z</time>
      </trkpt>
      <trkpt lat="45.34407" lon="6.15112">
        <ele>1864</ele>
        <time>2016-08-27T12:06:55Z</time>
      </trkpt>
      <trkpt lat="45.34406" lon="6.15116">
        <ele>1862</ele>
        <time>2016-08-27T12:07:00Z</time>
      </trkpt>
      <trkpt lat="45.34406" lon="6.15121">
        <ele>1861</ele>
        <time>2016-08-27T12:07:05Z</time>
      </trkpt>
      <trkpt lat="45.34407" lon="6.15126">
        <ele>1860</ele>
        <time>2016-08-27T12:07:10Z</time>
      </trkpt>
      <trkpt lat="45.34406" lon="6.15131">
        <ele>1858</ele>
        <time>2016-08-27T12:07:15Z</time>
      </trkpt>
      <trkpt lat="45.34406" lon="6.15136">
        <ele>1856</ele>
        <time>2016-08-27T12:07:20Z</time>
      </trkpt>
      <trkpt lat="45.34406" lon="6.15139">
        <ele>1856</ele>
        <time>2016-08-27T12:07:25Z</time>
      </trkpt>
      <trkpt lat="45.34405" lon="6.15139">
        <ele>1855</ele>
        <time>2016-08-27T12:07:30Z</time>
      </trkpt>
      <trkpt lat="45.34406" lon="6.1514">
        <ele>1855</ele>
        <time>2016-08-27T12:07:35Z</time>
      </trkpt>
      <trkpt lat="45.34406" lon="6.1514">
        <ele>1854</ele>
        <time>2016-08-27T12:07:40Z</time>
      </trkpt>
      <trkpt lat="45.34406" lon="6.1514">
        <ele>1853</ele>
        <time>2016-08-27T12:07:45Z</time>
      </trkpt>
      <trkpt lat="45.34406" lon="6.1514">
        <ele>1852</ele>
        <time>2016-08-27T12:07:50Z</time>
      </trkpt>
      <trkpt lat="45.34407" lon="6.1514">
        <ele>1851</ele>
        <time>2016-08-27T12:07:55Z</time>
      </trkpt>
      <trkpt lat="45.34406" lon="6.15142">
        <ele>1852</ele>
        <time>2016-08-27T12:08:00Z</time>
      </trkpt>
      <trkpt lat="45.34405" lon="6.15146">
        <ele>1851</ele>
        <time>2016-08-27T12:08:05Z</time>
      </trkpt>
      <trkpt lat="45.34406" lon="6.15152">
        <ele>1851</ele>
        <time>2016-08-27T12:08:10Z</time>
      </trkpt>
      <trkpt lat="45.34405" lon="6.15157">
        <ele>1850</ele>
        <time>2016-08-27T12:08:15Z</time>
      </trkpt>
      <trkpt lat="45.34406" lon="6.15161">
        <ele>1849</ele>
        <time>2016-08-27T12:08:20Z</time>
      </trkpt>
      <trkpt lat="45.34407" lon="6.15164">
        <ele>1848</ele>
        <time>2016-08-27T12:08:25Z</time>
      </trkpt>
      <trkpt lat="45.34402" lon="6.15165">
        <ele>1848</ele>
        <time>2016-08-27T12:08:30Z</time>
      </trkpt>
      <trkpt lat="45.34398" lon="6.15167">
        <ele>1845</ele>
        <time>2016-08-27T12:08:35Z</time>
      </trkpt>
      <trkpt lat="45.34395" lon="6.15171">
        <ele>1846</ele>
        <time>2016-08-27T12:08:40Z</time>
      </trkpt>
      <trkpt lat="45.34397" lon="6.15173">
        <ele>1846</ele>
        <time>2016-08-27T12:08:45Z</time>
      </trkpt>
      <trkpt lat="45.34399" lon="6.15177">
        <ele>1844</ele>
        <time>2016-08-27T12:08:50Z</time>
      </trkpt>
      <trkpt lat="45.34401" lon="6.15182">
        <ele>1842</ele>
        <time>2016-08-27T12:08:55Z</time>
      </trkpt>
      <trkpt lat="45.34402" lon="6.15185">
        <ele>1841</ele>
        <time>2016-08-27T12:09:00Z</time>
      </trkpt>
      <trkpt lat="45.34403" lon="6.15188">
        <ele>1840</ele>
        <time>2016-08-27T12:09:05Z</time>
      </trkpt>
      <trkpt lat="45.34403" lon="6.15189">
        <ele>1839</ele>
        <time>2016-08-27T12:09:10Z</time>
      </trkpt>
      <trkpt lat="45.34402" lon="6.15192">
        <ele>1839</ele>
        <time>2016-08-27T12:09:15Z</time>
      </trkpt>
      <trkpt lat="45.34401" lon="6.15193">
        <ele>1838</ele>
        <time>2016-08-27T12:09:20Z</time>
      </trkpt>
      <trkpt lat="45.34401" lon="6.15194">
        <ele>1838</ele>
        <time>2016-08-27T12:09:25Z</time>
      </trkpt>
      <trkpt lat="45.34402" lon="6.15196">
        <ele>1837</ele>
        <time>2016-08-27T12:09:30Z</time>
      </trkpt>
      <trkpt lat="45.34402" lon="6.15197">
        <ele>1837</ele>
        <time>2016-08-27T12:09:35Z</time>
      </trkpt>
      <trkpt lat="45.34404" lon="6.15201">
        <ele>1836</ele>
        <time>2016-08-27T12:09:40Z</time>
      </trkpt>
      <trkpt lat="45.34407" lon="6.15204">
        <ele>1834</ele>
        <time>2016-08-27T12:09:45Z</time>
      </trkpt>
      <trkpt lat="45.34414" lon="6.15212">
        <ele>1828</ele>
        <time>2016-08-27T12:09:55Z</time>
      </trkpt>
      <trkpt lat="45.3442" lon="6.15213">
        <ele>1825</ele>
        <time>2016-08-27T12:10:00Z</time>
      </trkpt>
      <trkpt lat="45.34423" lon="6.15217">
        <ele>1825</ele>
        <time>2016-08-27T12:10:05Z</time>
      </trkpt>
      <trkpt lat="45.34425" lon="6.15221">
        <ele>1826</ele>
        <time>2016-08-27T12:10:10Z</time>
      </trkpt>
      <trkpt lat="45.34427" lon="6.15225">
        <ele>1825</ele>
        <time>2016-08-27T12:10:15Z</time>
      </trkpt>
      <trkpt lat="45.34428" lon="6.15229">
        <ele>1821</ele>
        <time>2016-08-27T12:10:20Z</time>
      </trkpt>
      <trkpt lat="45.3443" lon="6.15232">
        <ele>1819</ele>
        <time>2016-08-27T12:10:25Z</time>
      </trkpt>
      <trkpt lat="45.34433" lon="6.15237">
        <ele>1816</ele>
        <time>2016-08-27T12:10:30Z</time>
      </trkpt>
      <trkpt lat="45.34432" lon="6.15241">
        <ele>1815</ele>
        <time>2016-08-27T12:10:35Z</time>
      </trkpt>
      <trkpt lat="45.3443" lon="6.15245">
        <ele>1814</ele>
        <time>2016-08-27T12:10:40Z</time>
      </trkpt>
      <trkpt lat="45.34433" lon="6.15248">
        <ele>1812</ele>
        <time>2016-08-27T12:10:45Z</time>
      </trkpt>
      <trkpt lat="45.34434" lon="6.15251">
        <ele>1811</ele>
        <time>2016-08-27T12:10:50Z</time>
      </trkpt>
      <trkpt lat="45.34433" lon="6.15253">
        <ele>1809</ele>
        <time>2016-08-27T12:10:55Z</time>
      </trkpt>
      <trkpt lat="45.34432" lon="6.15256">
        <ele>1809</ele>
        <time>2016-08-27T12:11:00Z</time>
      </trkpt>
      <trkpt lat="45.34433" lon="6.15259">
        <ele>1807</ele>
        <time>2016-08-27T12:11:05Z</time>
      </trkpt>
      <trkpt lat="45.3443" lon="6.15261">
        <ele>1804</ele>
        <time>2016-08-27T12:11:10Z</time>
      </trkpt>
      <trkpt lat="45.34428" lon="6.15264">
        <ele>1803</ele>
        <time>2016-08-27T12:11:15Z</time>
      </trkpt>
      <trkpt lat="45.34427" lon="6.15265">
        <ele>1802</ele>
        <time>2016-08-27T12:11:20Z</time>
      </trkpt>
      <trkpt lat="45.34424" lon="6.15268">
        <ele>1801</ele>
        <time>2016-08-27T12:11:25Z</time>
      </trkpt>
      <trkpt lat="45.34424" lon="6.1527">
        <ele>1800</ele>
        <time>2016-08-27T12:11:30Z</time>
      </trkpt>
      <trkpt lat="45.34425" lon="6.15274">
        <ele>1800</ele>
        <time>2016-08-27T12:11:35Z</time>
      </trkpt>
      <trkpt lat="45.34427" lon="6.15276">
        <ele>1800</ele>
        <time>2016-08-27T12:11:40Z</time>
      </trkpt>
      <trkpt lat="45.3443" lon="6.15278">
        <ele>1799</ele>
        <time>2016-08-27T12:11:45Z</time>
      </trkpt>
      <trkpt lat="45.34431" lon="6.1528">
        <ele>1797</ele>
        <time>2016-08-27T12:11:50Z</time>
      </trkpt>
      <trkpt lat="45.34432" lon="6.15282">
        <ele>1795</ele>
        <time>2016-08-27T12:11:55Z</time>
      </trkpt>
      <trkpt lat="45.3443" lon="6.15285">
        <ele>1793</ele>
        <time>2016-08-27T12:12:00Z</time>
      </trkpt>
      <trkpt lat="45.34428" lon="6.15286">
        <ele>1791</ele>
        <time>2016-08-27T12:12:05Z</time>
      </trkpt>
      <trkpt lat="45.34429" lon="6.1529">
        <ele>1791</ele>
        <time>2016-08-27T12:12:10Z</time>
      </trkpt>
      <trkpt lat="45.34431" lon="6.15292">
        <ele>1791</ele>
        <time>2016-08-27T12:12:15Z</time>
      </trkpt>
      <trkpt lat="45.34432" lon="6.15295">
        <ele>1791</ele>
        <time>2016-08-27T12:12:20Z</time>
      </trkpt>
      <trkpt lat="45.34433" lon="6.15298">
        <ele>1790</ele>
        <time>2016-08-27T12:12:25Z</time>
      </trkpt>
      <trkpt lat="45.34434" lon="6.153">
        <ele>1790</ele>
        <time>2016-08-27T12:12:30Z</time>
      </trkpt>
      <trkpt lat="45.34433" lon="6.15303">
        <ele>1788</ele>
        <time>2016-08-27T12:12:35Z</time>
      </trkpt>
      <trkpt lat="45.34433" lon="6.15304">
        <ele>1786</ele>
        <time>2016-08-27T12:12:40Z</time>
      </trkpt>
      <trkpt lat="45.34434" lon="6.15308">
        <ele>1784</ele>
        <time>2016-08-27T12:12:45Z</time>
      </trkpt>
      <trkpt lat="45.34435" lon="6.15311">
        <ele>1783</ele>
        <time>2016-08-27T12:12:50Z</time>
      </trkpt>
      <trkpt lat="45.34437" lon="6.15312">
        <ele>1783</ele>
        <time>2016-08-27T12:12:55Z</time>
      </trkpt>
      <trkpt lat="45.34436" lon="6.15314">
        <ele>1782</ele>
        <time>2016-08-27T12:13:00Z</time>
      </trkpt>
      <trkpt lat="45.34432" lon="6.15318">
        <ele>1781</ele>
        <time>2016-08-27T12:13:05Z</time>
      </trkpt>
      <trkpt lat="45.3443" lon="6.15319">
        <ele>1780</ele>
        <time>2016-08-27T12:13:10Z</time>
      </trkpt>
      <trkpt lat="45.34428" lon="6.15322">
        <ele>1779</ele>
        <time>2016-08-27T12:13:15Z</time>
      </trkpt>
      <trkpt lat="45.34428" lon="6.15325">
        <ele>1778</ele>
        <time>2016-08-27T12:13:20Z</time>
      </trkpt>
      <trkpt lat="45.34427" lon="6.15329">
        <ele>1776</ele>
        <time>2016-08-27T12:13:25Z</time>
      </trkpt>
      <trkpt lat="45.34425" lon="6.15331">
        <ele>1774</ele>
        <time>2016-08-27T12:13:30Z</time>
      </trkpt>
      <trkpt lat="45.34425" lon="6.15334">
        <ele>1772</ele>
        <time>2016-08-27T12:13:35Z</time>
      </trkpt>
      <trkpt lat="45.34427" lon="6.15337">
        <ele>1771</ele>
        <time>2016-08-27T12:13:40Z</time>
      </trkpt>
      <trkpt lat="45.3443" lon="6.15338">
        <ele>1770</ele>
        <time>2016-08-27T12:13:45Z</time>
      </trkpt>
      <trkpt lat="45.34433" lon="6.15339">
        <ele>1768</ele>
        <time>2016-08-27T12:13:50Z</time>
      </trkpt>
      <trkpt lat="45.34435" lon="6.15342">
        <ele>1767</ele>
        <time>2016-08-27T12:13:55Z</time>
      </trkpt>
      <trkpt lat="45.34433" lon="6.15345">
        <ele>1766</ele>
        <time>2016-08-27T12:14:00Z</time>
      </trkpt>
      <trkpt lat="45.34432" lon="6.15347">
        <ele>1765</ele>
        <time>2016-08-27T12:14:05Z</time>
      </trkpt>
      <trkpt lat="45.34431" lon="6.15349">
        <ele>1763</ele>
        <time>2016-08-27T12:14:10Z</time>
      </trkpt>
      <trkpt lat="45.3443" lon="6.15351">
        <ele>1760</ele>
        <time>2016-08-27T12:14:15Z</time>
      </trkpt>
      <trkpt lat="45.34428" lon="6.15353">
        <ele>1759</ele>
        <time>2016-08-27T12:14:20Z</time>
      </trkpt>
      <trkpt lat="45.34429" lon="6.15356">
        <ele>1757</ele>
        <time>2016-08-27T12:14:25Z</time>
      </trkpt>
      <trkpt lat="45.34428" lon="6.1536">
        <ele>1756</ele>
        <time>2016-08-27T12:14:30Z</time>
      </trkpt>
      <trkpt lat="45.34426" lon="6.15362">
        <ele>1755</ele>
        <time>2016-08-27T12:14:35Z</time>
      </trkpt>
      <trkpt lat="45.34425" lon="6.15365">
        <ele>1754</ele>
        <time>2016-08-27T12:14:40Z</time>
      </trkpt>
      <trkpt lat="45.34425" lon="6.15366">
        <ele>1753</ele>
        <time>2016-08-27T12:14:45Z</time>
      </trkpt>
      <trkpt lat="45.34427" lon="6.15368">
        <ele>1752</ele>
        <time>2016-08-27T12:14:50Z</time>
      </trkpt>
      <trkpt lat="45.34426" lon="6.1537">
        <ele>1752</ele>
        <time>2016-08-27T12:14:55Z</time>
      </trkpt>
      <trkpt lat="45.34427" lon="6.15371">
        <ele>1751</ele>
        <time>2016-08-27T12:15:00Z</time>
      </trkpt>
      <trkpt lat="45.34429" lon="6.15374">
        <ele>1750</ele>
        <time>2016-08-27T12:15:05Z</time>
      </trkpt>
      <trkpt lat="45.34428" lon="6.15378">
        <ele>1749</ele>
        <time>2016-08-27T12:15:10Z</time>
      </trkpt>
      <trkpt lat="45.34426" lon="6.1538">
        <ele>1749</ele>
        <time>2016-08-27T12:15:15Z</time>
      </trkpt>
      <trkpt lat="45.34424" lon="6.15383">
        <ele>1747</ele>
        <time>2016-08-27T12:15:20Z</time>
      </trkpt>
      <trkpt lat="45.34423" lon="6.15388">
        <ele>1746</ele>
        <time>2016-08-27T12:15:25Z</time>
      </trkpt>
      <trkpt lat="45.34423" lon="6.15391">
        <ele>1745</ele>
        <time>2016-08-27T12:15:30Z</time>
      </trkpt>
      <trkpt lat="45.34424" lon="6.15393">
        <ele>1745</ele>
        <time>2016-08-27T12:15:35Z</time>
      </trkpt>
      <trkpt lat="45.34421" lon="6.15398">
        <ele>1748</ele>
        <time>2016-08-27T12:15:40Z</time>
      </trkpt>
      <trkpt lat="45.3442" lon="6.15399">
        <ele>1747</ele>
        <time>2016-08-27T12:15:45Z</time>
      </trkpt>
      <trkpt lat="45.3442" lon="6.15399">
        <ele>1746</ele>
        <time>2016-08-27T12:15:50Z</time>
      </trkpt>
      <trkpt lat="45.34419" lon="6.15399">
        <ele>1745</ele>
        <time>2016-08-27T12:15:55Z</time>
      </trkpt>
      <trkpt lat="45.34419" lon="6.15399">
        <ele>1744</ele>
        <time>2016-08-27T12:16:00Z</time>
      </trkpt>
      <trkpt lat="45.34419" lon="6.15402">
        <ele>1743</ele>
        <time>2016-08-27T12:16:05Z</time>
      </trkpt>
      <trkpt lat="45.34417" lon="6.15407">
        <ele>1743</ele>
        <time>2016-08-27T12:16:10Z</time>
      </trkpt>
      <trkpt lat="45.34414" lon="6.15411">
        <ele>1742</ele>
        <time>2016-08-27T12:16:15Z</time>
      </trkpt>
      <trkpt lat="45.34413" lon="6.15412">
        <ele>1740</ele>
        <time>2016-08-27T12:16:20Z</time>
      </trkpt>
      <trkpt lat="45.34413" lon="6.15414">
        <ele>1739</ele>
        <time>2016-08-27T12:16:25Z</time>
      </trkpt>
      <trkpt lat="45.34414" lon="6.15417">
        <ele>1739</ele>
        <time>2016-08-27T12:16:30Z</time>
      </trkpt>
      <trkpt lat="45.34414" lon="6.15419">
        <ele>1737</ele>
        <time>2016-08-27T12:16:35Z</time>
      </trkpt>
      <trkpt lat="45.34413" lon="6.15423">
        <ele>1735</ele>
        <time>2016-08-27T12:16:40Z</time>
      </trkpt>
      <trkpt lat="45.34414" lon="6.15426">
        <ele>1734</ele>
        <time>2016-08-27T12:16:45Z</time>
      </trkpt>
      <trkpt lat="45.34414" lon="6.15431">
        <ele>1734</ele>
        <time>2016-08-27T12:16:50Z</time>
      </trkpt>
      <trkpt lat="45.34414" lon="6.15432">
        <ele>1733</ele>
        <time>2016-08-27T12:16:55Z</time>
      </trkpt>
      <trkpt lat="45.34415" lon="6.15435">
        <ele>1731</ele>
        <time>2016-08-27T12:17:00Z</time>
      </trkpt>
      <trkpt lat="45.34416" lon="6.15438">
        <ele>1730</ele>
        <time>2016-08-27T12:17:05Z</time>
      </trkpt>
      <trkpt lat="45.34417" lon="6.15442">
        <ele>1730</ele>
        <time>2016-08-27T12:17:10Z</time>
      </trkpt>
      <trkpt lat="45.3442" lon="6.15444">
        <ele>1730</ele>
        <time>2016-08-27T12:17:15Z</time>
      </trkpt>
      <trkpt lat="45.34423" lon="6.15447">
        <ele>1729</ele>
        <time>2016-08-27T12:17:20Z</time>
      </trkpt>
      <trkpt lat="45.34424" lon="6.15451">
        <ele>1729</ele>
        <time>2016-08-27T12:17:25Z</time>
      </trkpt>
      <trkpt lat="45.34425" lon="6.15455">
        <ele>1729</ele>
        <time>2016-08-27T12:17:30Z</time>
      </trkpt>
      <trkpt lat="45.34424" lon="6.1546">
        <ele>1728</ele>
        <time>2016-08-27T12:17:35Z</time>
      </trkpt>
      <trkpt lat="45.34424" lon="6.15465">
        <ele>1727</ele>
        <time>2016-08-27T12:17:40Z</time>
      </trkpt>
      <trkpt lat="45.34424" lon="6.15469">
        <ele>1725</ele>
        <time>2016-08-27T12:17:45Z</time>
      </trkpt>
      <trkpt lat="45.34423" lon="6.15473">
        <ele>1724</ele>
        <time>2016-08-27T12:17:50Z</time>
      </trkpt>
      <trkpt lat="45.34425" lon="6.15475">
        <ele>1722</ele>
        <time>2016-08-27T12:17:55Z</time>
      </trkpt>
      <trkpt lat="45.34428" lon="6.15478">
        <ele>1720</ele>
        <time>2016-08-27T12:18:00Z</time>
      </trkpt>
      <trkpt lat="45.34429" lon="6.15479">
        <ele>1720</ele>
        <time>2016-08-27T12:18:05Z</time>
      </trkpt>
      <trkpt lat="45.3443" lon="6.15481">
        <ele>1720</ele>
        <time>2016-08-27T12:18:10Z</time>
      </trkpt>
      <trkpt lat="45.3443" lon="6.1548">
        <ele>1720</ele>
        <time>2016-08-27T12:18:15Z</time>
      </trkpt>
      <trkpt lat="45.3443" lon="6.15481">
        <ele>1721</ele>
        <time>2016-08-27T12:18:20Z</time>
      </trkpt>
      <trkpt lat="45.34431" lon="6.15488">
        <ele>1723</ele>
        <time>2016-08-27T12:19:09Z</time>
      </trkpt>
      <trkpt lat="45.3443" lon="6.15492">
        <ele>1721</ele>
        <time>2016-08-27T12:19:14Z</time>
      </trkpt>
      <trkpt lat="45.34429" lon="6.15494">
        <ele>1719</ele>
        <time>2016-08-27T12:19:19Z</time>
      </trkpt>
      <trkpt lat="45.34429" lon="6.15498">
        <ele>1716</ele>
        <time>2016-08-27T12:19:24Z</time>
      </trkpt>
      <trkpt lat="45.34429" lon="6.15503">
        <ele>1717</ele>
        <time>2016-08-27T12:19:29Z</time>
      </trkpt>
      <trkpt lat="45.3443" lon="6.15511">
        <ele>1714</ele>
        <time>2016-08-27T12:19:34Z</time>
      </trkpt>
      <trkpt lat="45.34429" lon="6.15518">
        <ele>1714</ele>
        <time>2016-08-27T12:19:39Z</time>
      </trkpt>
      <trkpt lat="45.3443" lon="6.15525">
        <ele>1714</ele>
        <time>2016-08-27T12:19:44Z</time>
      </trkpt>
      <trkpt lat="45.34431" lon="6.15531">
        <ele>1713</ele>
        <time>2016-08-27T12:19:49Z</time>
      </trkpt>
      <trkpt lat="45.34432" lon="6.15537">
        <ele>1711</ele>
        <time>2016-08-27T12:19:54Z</time>
      </trkpt>
      <trkpt lat="45.34432" lon="6.15543">
        <ele>1712</ele>
        <time>2016-08-27T12:19:59Z</time>
      </trkpt>
      <trkpt lat="45.34432" lon="6.15549">
        <ele>1710</ele>
        <time>2016-08-27T12:20:04Z</time>
      </trkpt>
      <trkpt lat="45.34432" lon="6.15556">
        <ele>1708</ele>
        <time>2016-08-27T12:20:09Z</time>
      </trkpt>
      <trkpt lat="45.34431" lon="6.15562">
        <ele>1707</ele>
        <time>2016-08-27T12:20:14Z</time>
      </trkpt>
      <trkpt lat="45.34431" lon="6.15567">
        <ele>1706</ele>
        <time>2016-08-27T12:20:19Z</time>
      </trkpt>
      <trkpt lat="45.34431" lon="6.15574">
        <ele>1705</ele>
        <time>2016-08-27T12:20:24Z</time>
      </trkpt>
      <trkpt lat="45.34433" lon="6.15582">
        <ele>1706</ele>
        <time>2016-08-27T12:20:29Z</time>
      </trkpt>
      <trkpt lat="45.34435" lon="6.15588">
        <ele>1708</ele>
        <time>2016-08-27T12:20:34Z</time>
      </trkpt>
      <trkpt lat="45.34433" lon="6.15598">
        <ele>1709</ele>
        <time>2016-08-27T12:20:39Z</time>
      </trkpt>
      <trkpt lat="45.34431" lon="6.15606">
        <ele>1708</ele>
        <time>2016-08-27T12:20:44Z</time>
      </trkpt>
      <trkpt lat="45.34428" lon="6.15611">
        <ele>1707</ele>
        <time>2016-08-27T12:20:49Z</time>
      </trkpt>
      <trkpt lat="45.34427" lon="6.15616">
        <ele>1705</ele>
        <time>2016-08-27T12:20:54Z</time>
      </trkpt>
      <trkpt lat="45.34427" lon="6.1562">
        <ele>1704</ele>
        <time>2016-08-27T12:20:59Z</time>
      </trkpt>
      <trkpt lat="45.34428" lon="6.15621">
        <ele>1703</ele>
        <time>2016-08-27T12:21:04Z</time>
      </trkpt>
      <trkpt lat="45.3443" lon="6.15627">
        <ele>1703</ele>
        <time>2016-08-27T12:21:09Z</time>
      </trkpt>
      <trkpt lat="45.34431" lon="6.15631">
        <ele>1703</ele>
        <time>2016-08-27T12:21:14Z</time>
      </trkpt>
      <trkpt lat="45.34433" lon="6.15631">
        <ele>1702</ele>
        <time>2016-08-27T12:21:19Z</time>
      </trkpt>
      <trkpt lat="45.34433" lon="6.15633">
        <ele>1701</ele>
        <time>2016-08-27T12:21:24Z</time>
      </trkpt>
      <trkpt lat="45.34433" lon="6.15633">
        <ele>1702</ele>
        <time>2016-08-27T12:21:29Z</time>
      </trkpt>
      <trkpt lat="45.34433" lon="6.15633">
        <ele>1702</ele>
        <time>2016-08-27T12:21:34Z</time>
      </trkpt>
      <trkpt lat="45.34434" lon="6.15632">
        <ele>1703</ele>
        <time>2016-08-27T12:21:39Z</time>
      </trkpt>
      <trkpt lat="45.34433" lon="6.15636">
        <ele>1703</ele>
        <time>2016-08-27T12:21:44Z</time>
      </trkpt>
      <trkpt lat="45.34434" lon="6.15639">
        <ele>1703</ele>
        <time>2016-08-27T12:21:49Z</time>
      </trkpt>
      <trkpt lat="45.34435" lon="6.1564">
        <ele>1703</ele>
        <time>2016-08-27T12:21:54Z</time>
      </trkpt>
      <trkpt lat="45.34435" lon="6.15642">
        <ele>1703</ele>
        <time>2016-08-27T12:21:59Z</time>
      </trkpt>
      <trkpt lat="45.34436" lon="6.15645">
        <ele>1704</ele>
        <time>2016-08-27T12:22:04Z</time>
      </trkpt>
      <trkpt lat="45.34436" lon="6.15648">
        <ele>1704</ele>
        <time>2016-08-27T12:22:09Z</time>
      </trkpt>
      <trkpt lat="45.34435" lon="6.15652">
        <ele>1702</ele>
        <time>2016-08-27T12:22:14Z</time>
      </trkpt>
      <trkpt lat="45.34437" lon="6.15653">
        <ele>1700</ele>
        <time>2016-08-27T12:22:19Z</time>
      </trkpt>
      <trkpt lat="45.34437" lon="6.15656">
        <ele>1700</ele>
        <time>2016-08-27T12:22:24Z</time>
      </trkpt>
      <trkpt lat="45.34437" lon="6.15658">
        <ele>1701</ele>
        <time>2016-08-27T12:22:29Z</time>
      </trkpt>
      <trkpt lat="45.34437" lon="6.1566">
        <ele>1701</ele>
        <time>2016-08-27T12:22:34Z</time>
      </trkpt>
      <trkpt lat="45.34437" lon="6.15661">
        <ele>1702</ele>
        <time>2016-08-27T12:22:39Z</time>
      </trkpt>
      <trkpt lat="45.34437" lon="6.15663">
        <ele>1701</ele>
        <time>2016-08-27T12:22:44Z</time>
      </trkpt>
      <trkpt lat="45.34436" lon="6.15665">
        <ele>1698</ele>
        <time>2016-08-27T12:22:49Z</time>
      </trkpt>
      <trkpt lat="45.34435" lon="6.15665">
        <ele>1699</ele>
        <time>2016-08-27T12:22:54Z</time>
      </trkpt>
      <trkpt lat="45.34435" lon="6.15665">
        <ele>1701</ele>
        <time>2016-08-27T12:22:59Z</time>
      </trkpt>
      <trkpt lat="45.34436" lon="6.15665">
        <ele>1702</ele>
        <time>2016-08-27T12:23:04Z</time>
      </trkpt>
      <trkpt lat="45.34436" lon="6.15667">
        <ele>1702</ele>
        <time>2016-08-27T12:23:09Z</time>
      </trkpt>
      <trkpt lat="45.34436" lon="6.1567">
        <ele>1702</ele>
        <time>2016-08-27T12:23:14Z</time>
      </trkpt>
      <trkpt lat="45.34437" lon="6.15672">
        <ele>1702</ele>
        <time>2016-08-27T12:23:19Z</time>
      </trkpt>
      <trkpt lat="45.34437" lon="6.15674">
        <ele>1699</ele>
        <time>2016-08-27T12:23:24Z</time>
      </trkpt>
      <trkpt lat="45.34437" lon="6.15678">
        <ele>1697</ele>
        <time>2016-08-27T12:23:29Z</time>
      </trkpt>
      <trkpt lat="45.34437" lon="6.15679">
        <ele>1695</ele>
        <time>2016-08-27T12:23:34Z</time>
      </trkpt>
      <trkpt lat="45.34438" lon="6.15679">
        <ele>1692</ele>
        <time>2016-08-27T12:23:39Z</time>
      </trkpt>
      <trkpt lat="45.34438" lon="6.15679">
        <ele>1691</ele>
        <time>2016-08-27T12:23:44Z</time>
      </trkpt>
      <trkpt lat="45.34437" lon="6.15679">
        <ele>1691</ele>
        <time>2016-08-27T12:23:49Z</time>
      </trkpt>
      <trkpt lat="45.34436" lon="6.15676">
        <ele>1690</ele>
        <time>2016-08-27T12:23:54Z</time>
      </trkpt>
      <trkpt lat="45.34437" lon="6.15674">
        <ele>1702</ele>
        <time>2016-08-27T12:24:04Z</time>
      </trkpt>
      <trkpt lat="45.34435" lon="6.15677">
        <ele>1701</ele>
        <time>2016-08-27T12:24:09Z</time>
      </trkpt>
      <trkpt lat="45.34434" lon="6.15673">
        <ele>1703</ele>
        <time>2016-08-27T12:24:14Z</time>
      </trkpt>
      <trkpt lat="45.34434" lon="6.15673">
        <ele>1705</ele>
        <time>2016-08-27T12:24:19Z</time>
      </trkpt>
      <trkpt lat="45.34434" lon="6.1567">
        <ele>1702</ele>
        <time>2016-08-27T12:24:24Z</time>
      </trkpt>
      <trkpt lat="45.34433" lon="6.15668">
        <ele>1699</ele>
        <time>2016-08-27T12:24:29Z</time>
      </trkpt>
      <trkpt lat="45.34433" lon="6.15666">
        <ele>1698</ele>
        <time>2016-08-27T12:24:34Z</time>
      </trkpt>
      <trkpt lat="45.34431" lon="6.15665">
        <ele>1699</ele>
        <time>2016-08-27T12:24:39Z</time>
      </trkpt>
      <trkpt lat="45.3443" lon="6.15663">
        <ele>1701</ele>
        <time>2016-08-27T12:24:44Z</time>
      </trkpt>
      <trkpt lat="45.3443" lon="6.15662">
        <ele>1703</ele>
        <time>2016-08-27T12:24:49Z</time>
      </trkpt>
      <trkpt lat="45.3443" lon="6.1566">
        <ele>1702</ele>
        <time>2016-08-27T12:24:54Z</time>
      </trkpt>
      <trkpt lat="45.34431" lon="6.15659">
        <ele>1702</ele>
        <time>2016-08-27T12:24:59Z</time>
      </trkpt>
      <trkpt lat="45.34432" lon="6.15656">
        <ele>1703</ele>
        <time>2016-08-27T12:25:04Z</time>
      </trkpt>
      <trkpt lat="45.34433" lon="6.15654">
        <ele>1704</ele>
        <time>2016-08-27T12:25:09Z</time>
      </trkpt>
      <trkpt lat="45.34433" lon="6.15648">
        <ele>1703</ele>
        <time>2016-08-27T12:25:14Z</time>
      </trkpt>
      <trkpt lat="45.34435" lon="6.15644">
        <ele>1704</ele>
        <time>2016-08-27T12:25:19Z</time>
      </trkpt>
      <trkpt lat="45.34436" lon="6.15639">
        <ele>1705</ele>
        <time>2016-08-27T12:25:24Z</time>
      </trkpt>
      <trkpt lat="45.34437" lon="6.15636">
        <ele>1705</ele>
        <time>2016-08-27T12:25:29Z</time>
      </trkpt>
      <trkpt lat="45.34436" lon="6.15632">
        <ele>1705</ele>
        <time>2016-08-27T12:25:34Z</time>
      </trkpt>
      <trkpt lat="45.34435" lon="6.15627">
        <ele>1704</ele>
        <time>2016-08-27T12:25:39Z</time>
      </trkpt>
      <trkpt lat="45.34434" lon="6.15624">
        <ele>1705</ele>
        <time>2016-08-27T12:25:44Z</time>
      </trkpt>
      <trkpt lat="45.34433" lon="6.1562">
        <ele>1705</ele>
        <time>2016-08-27T12:25:49Z</time>
      </trkpt>
      <trkpt lat="45.34435" lon="6.15615">
        <ele>1706</ele>
        <time>2016-08-27T12:25:54Z</time>
      </trkpt>
      <trkpt lat="45.34435" lon="6.15613">
        <ele>1707</ele>
        <time>2016-08-27T12:25:59Z</time>
      </trkpt>
      <trkpt lat="45.34436" lon="6.15609">
        <ele>1707</ele>
        <time>2016-08-27T12:26:04Z</time>
      </trkpt>
      <trkpt lat="45.34435" lon="6.15604">
        <ele>1708</ele>
        <time>2016-08-27T12:26:09Z</time>
      </trkpt>
      <trkpt lat="45.34437" lon="6.15598">
        <ele>1709</ele>
        <time>2016-08-27T12:26:14Z</time>
      </trkpt>
      <trkpt lat="45.34437" lon="6.15595">
        <ele>1710</ele>
        <time>2016-08-27T12:26:19Z</time>
      </trkpt>
      <trkpt lat="45.34437" lon="6.15595">
        <ele>1710</ele>
        <time>2016-08-27T12:26:24Z</time>
      </trkpt>
      <trkpt lat="45.34435" lon="6.15593">
        <ele>1709</ele>
        <time>2016-08-27T12:26:29Z</time>
      </trkpt>
      <trkpt lat="45.3443" lon="6.15589">
        <ele>1708</ele>
        <time>2016-08-27T12:26:34Z</time>
      </trkpt>
      <trkpt lat="45.34425" lon="6.15584">
        <ele>1709</ele>
        <time>2016-08-27T12:26:39Z</time>
      </trkpt>
      <trkpt lat="45.34423" lon="6.15587">
        <ele>1711</ele>
        <time>2016-08-27T12:26:44Z</time>
      </trkpt>
      <trkpt lat="45.34422" lon="6.15589">
        <ele>1711</ele>
        <time>2016-08-27T12:26:49Z</time>
      </trkpt>
      <trkpt lat="45.34422" lon="6.1559">
        <ele>1711</ele>
        <time>2016-08-27T12:26:54Z</time>
      </trkpt>
      <trkpt lat="45.34423" lon="6.1559">
        <ele>1710</ele>
        <time>2016-08-27T12:26:59Z</time>
      </trkpt>
      <trkpt lat="45.34423" lon="6.1559">
        <ele>1710</ele>
        <time>2016-08-27T12:27:04Z</time>
      </trkpt>
      <trkpt lat="45.34422" lon="6.15591">
        <ele>1711</ele>
        <time>2016-08-27T12:27:09Z</time>
      </trkpt>
      <trkpt lat="45.34422" lon="6.15592">
        <ele>1712</ele>
        <time>2016-08-27T12:27:14Z</time>
      </trkpt>
      <trkpt lat="45.3442" lon="6.15595">
        <ele>1714</ele>
        <time>2016-08-27T12:27:19Z</time>
      </trkpt>
      <trkpt lat="45.34418" lon="6.15598">
        <ele>1715</ele>
        <time>2016-08-27T12:27:24Z</time>
      </trkpt>
      <trkpt lat="45.34416" lon="6.15603">
        <ele>1716</ele>
        <time>2016-08-27T12:27:29Z</time>
      </trkpt>
      <trkpt lat="45.34414" lon="6.15607">
        <ele>1717</ele>
        <time>2016-08-27T12:27:34Z</time>
      </trkpt>
      <trkpt lat="45.34411" lon="6.1561">
        <ele>1719</ele>
        <time>2016-08-27T12:27:39Z</time>
      </trkpt>
      <trkpt lat="45.34409" lon="6.15613">
        <ele>1720</ele>
        <time>2016-08-27T12:27:44Z</time>
      </trkpt>
      <trkpt lat="45.34408" lon="6.15618">
        <ele>1722</ele>
        <time>2016-08-27T12:27:49Z</time>
      </trkpt>
      <trkpt lat="45.34405" lon="6.1562">
        <ele>1723</ele>
        <time>2016-08-27T12:27:54Z</time>
      </trkpt>
      <trkpt lat="45.34404" lon="6.15624">
        <ele>1724</ele>
        <time>2016-08-27T12:27:59Z</time>
      </trkpt>
      <trkpt lat="45.34402" lon="6.15625">
        <ele>1725</ele>
        <time>2016-08-27T12:28:04Z</time>
      </trkpt>
      <trkpt lat="45.34399" lon="6.15626">
        <ele>1727</ele>
        <time>2016-08-27T12:28:09Z</time>
      </trkpt>
      <trkpt lat="45.34399" lon="6.15633">
        <ele>1729</ele>
        <time>2016-08-27T12:28:14Z</time>
      </trkpt>
      <trkpt lat="45.34398" lon="6.15638">
        <ele>1730</ele>
        <time>2016-08-27T12:28:19Z</time>
      </trkpt>
      <trkpt lat="45.34398" lon="6.15639">
        <ele>1732</ele>
        <time>2016-08-27T12:28:24Z</time>
      </trkpt>
      <trkpt lat="45.34402" lon="6.15638">
        <ele>1732</ele>
        <time>2016-08-27T12:28:29Z</time>
      </trkpt>
      <trkpt lat="45.34402" lon="6.15636">
        <ele>1728</ele>
        <time>2016-08-27T12:28:34Z</time>
      </trkpt>
      <trkpt lat="45.34399" lon="6.15635">
        <ele>1725</ele>
        <time>2016-08-27T12:28:39Z</time>
      </trkpt>
      <trkpt lat="45.34397" lon="6.15631">
        <ele>1722</ele>
        <time>2016-08-27T12:28:44Z</time>
      </trkpt>
      <trkpt lat="45.34393" lon="6.15634">
        <ele>1720</ele>
        <time>2016-08-27T12:28:49Z</time>
      </trkpt>
      <trkpt lat="45.3439" lon="6.1564">
        <ele>1717</ele>
        <time>2016-08-27T12:28:54Z</time>
      </trkpt>
      <trkpt lat="45.34388" lon="6.15646">
        <ele>1717</ele>
        <time>2016-08-27T12:28:59Z</time>
      </trkpt>
      <trkpt lat="45.34385" lon="6.15651">
        <ele>1718</ele>
        <time>2016-08-27T12:29:04Z</time>
      </trkpt>
      <trkpt lat="45.34382" lon="6.15657">
        <ele>1716</ele>
        <time>2016-08-27T12:29:09Z</time>
      </trkpt>
      <trkpt lat="45.3438" lon="6.15664">
        <ele>1714</ele>
        <time>2016-08-27T12:29:14Z</time>
      </trkpt>
      <trkpt lat="45.34379" lon="6.15668">
        <ele>1710</ele>
        <time>2016-08-27T12:29:19Z</time>
      </trkpt>
      <trkpt lat="45.34378" lon="6.15673">
        <ele>1708</ele>
        <time>2016-08-27T12:29:24Z</time>
      </trkpt>
      <trkpt lat="45.34377" lon="6.15676">
        <ele>1708</ele>
        <time>2016-08-27T12:29:29Z</time>
      </trkpt>
      <trkpt lat="45.34375" lon="6.15681">
        <ele>1705</ele>
        <time>2016-08-27T12:29:34Z</time>
      </trkpt>
      <trkpt lat="45.34374" lon="6.15683">
        <ele>1701</ele>
        <time>2016-08-27T12:29:39Z</time>
      </trkpt>
      <trkpt lat="45.34371" lon="6.15686">
        <ele>1693</ele>
        <time>2016-08-27T12:29:44Z</time>
      </trkpt>
      <trkpt lat="45.34369" lon="6.15688">
        <ele>1688</ele>
        <time>2016-08-27T12:29:49Z</time>
      </trkpt>
      <trkpt lat="45.34367" lon="6.15692">
        <ele>1686</ele>
        <time>2016-08-27T12:29:54Z</time>
      </trkpt>
      <trkpt lat="45.34366" lon="6.15694">
        <ele>1687</ele>
        <time>2016-08-27T12:29:59Z</time>
      </trkpt>
      <trkpt lat="45.34369" lon="6.15698">
        <ele>1689</ele>
        <time>2016-08-27T12:30:04Z</time>
      </trkpt>
      <trkpt lat="45.34372" lon="6.15704">
        <ele>1683</ele>
        <time>2016-08-27T12:30:09Z</time>
      </trkpt>
      <trkpt lat="45.34372" lon="6.15705">
        <ele>1683</ele>
        <time>2016-08-27T12:30:14Z</time>
      </trkpt>
      <trkpt lat="45.34371" lon="6.1571">
        <ele>1676</ele>
        <time>2016-08-27T12:30:19Z</time>
      </trkpt>
      <trkpt lat="45.34374" lon="6.15712">
        <ele>1677</ele>
        <time>2016-08-27T12:30:24Z</time>
      </trkpt>
      <trkpt lat="45.34378" lon="6.15712">
        <ele>1679</ele>
        <time>2016-08-27T12:30:29Z</time>
      </trkpt>
      <trkpt lat="45.3438" lon="6.15715">
        <ele>1681</ele>
        <time>2016-08-27T12:30:34Z</time>
      </trkpt>
      <trkpt lat="45.34382" lon="6.15714">
        <ele>1683</ele>
        <time>2016-08-27T12:30:39Z</time>
      </trkpt>
      <trkpt lat="45.34383" lon="6.15715">
        <ele>1683</ele>
        <time>2016-08-27T12:30:44Z</time>
      </trkpt>
      <trkpt lat="45.34388" lon="6.15717">
        <ele>1691</ele>
        <time>2016-08-27T12:30:49Z</time>
      </trkpt>
      <trkpt lat="45.3439" lon="6.15718">
        <ele>1695</ele>
        <time>2016-08-27T12:30:54Z</time>
      </trkpt>
      <trkpt lat="45.34393" lon="6.15719">
        <ele>1697</ele>
        <time>2016-08-27T12:30:59Z</time>
      </trkpt>
      <trkpt lat="45.34395" lon="6.15723">
        <ele>1697</ele>
        <time>2016-08-27T12:31:04Z</time>
      </trkpt>
      <trkpt lat="45.34396" lon="6.15725">
        <ele>1697</ele>
        <time>2016-08-27T12:31:09Z</time>
      </trkpt>
      <trkpt lat="45.34394" lon="6.15725">
        <ele>1692</ele>
        <time>2016-08-27T12:31:14Z</time>
      </trkpt>
      <trkpt lat="45.34394" lon="6.15725">
        <ele>1691</ele>
        <time>2016-08-27T12:31:19Z</time>
      </trkpt>
      <trkpt lat="45.34394" lon="6.15726">
        <ele>1691</ele>
        <time>2016-08-27T12:31:24Z</time>
      </trkpt>
      <trkpt lat="45.34393" lon="6.15728">
        <ele>1686</ele>
        <time>2016-08-27T12:31:29Z</time>
      </trkpt>
      <trkpt lat="45.34392" lon="6.1573">
        <ele>1683</ele>
        <time>2016-08-27T12:31:34Z</time>
      </trkpt>
      <trkpt lat="45.34392" lon="6.15729">
        <ele>1682</ele>
        <time>2016-08-27T12:31:39Z</time>
      </trkpt>
      <trkpt lat="45.34391" lon="6.15728">
        <ele>1677</ele>
        <time>2016-08-27T12:31:44Z</time>
      </trkpt>
      <trkpt lat="45.34392" lon="6.1573">
        <ele>1682</ele>
        <time>2016-08-27T12:31:49Z</time>
      </trkpt>
      <trkpt lat="45.3439" lon="6.15733">
        <ele>1680</ele>
        <time>2016-08-27T12:31:54Z</time>
      </trkpt>
      <trkpt lat="45.3439" lon="6.15734">
        <ele>1681</ele>
        <time>2016-08-27T12:31:59Z</time>
      </trkpt>
      <trkpt lat="45.34391" lon="6.15734">
        <ele>1684</ele>
        <time>2016-08-27T12:32:04Z</time>
      </trkpt>
      <trkpt lat="45.34391" lon="6.15734">
        <ele>1686</ele>
        <time>2016-08-27T12:32:09Z</time>
      </trkpt>
      <trkpt lat="45.34391" lon="6.15735">
        <ele>1688</ele>
        <time>2016-08-27T12:32:14Z</time>
      </trkpt>
      <trkpt lat="45.34392" lon="6.15735">
        <ele>1689</ele>
        <time>2016-08-27T12:32:19Z</time>
      </trkpt>
      <trkpt lat="45.34393" lon="6.15736">
        <ele>1691</ele>
        <time>2016-08-27T12:32:24Z</time>
      </trkpt>
      <trkpt lat="45.34393" lon="6.15739">
        <ele>1693</ele>
        <time>2016-08-27T12:32:29Z</time>
      </trkpt>
      <trkpt lat="45.34393" lon="6.15739">
        <ele>1692</ele>
        <time>2016-08-27T12:32:34Z</time>
      </trkpt>
      <trkpt lat="45.34394" lon="6.1574">
        <ele>1692</ele>
        <time>2016-08-27T12:32:39Z</time>
      </trkpt>
      <trkpt lat="45.34395" lon="6.15741">
        <ele>1692</ele>
        <time>2016-08-27T12:32:44Z</time>
      </trkpt>
      <trkpt lat="45.34396" lon="6.15741">
        <ele>1691</ele>
        <time>2016-08-27T12:32:49Z</time>
      </trkpt>
      <trkpt lat="45.34396" lon="6.15741">
        <ele>1689</ele>
        <time>2016-08-27T12:32:54Z</time>
      </trkpt>
      <trkpt lat="45.34396" lon="6.1574">
        <ele>1688</ele>
        <time>2016-08-27T12:32:59Z</time>
      </trkpt>
      <trkpt lat="45.34396" lon="6.1574">
        <ele>1687</ele>
        <time>2016-08-27T12:33:04Z</time>
      </trkpt>
      <trkpt lat="45.34396" lon="6.1574">
        <ele>1686</ele>
        <time>2016-08-27T12:33:09Z</time>
      </trkpt>
      <trkpt lat="45.34396" lon="6.15739">
        <ele>1685</ele>
        <time>2016-08-27T12:33:14Z</time>
      </trkpt>
      <trkpt lat="45.34396" lon="6.15739">
        <ele>1685</ele>
        <time>2016-08-27T12:33:19Z</time>
      </trkpt>
      <trkpt lat="45.34397" lon="6.15741">
        <ele>1686</ele>
        <time>2016-08-27T12:33:24Z</time>
      </trkpt>
      <trkpt lat="45.34398" lon="6.15743">
        <ele>1686</ele>
        <time>2016-08-27T12:33:29Z</time>
      </trkpt>
      <trkpt lat="45.34398" lon="6.15743">
        <ele>1686</ele>
        <time>2016-08-27T12:33:34Z</time>
      </trkpt>
      <trkpt lat="45.34399" lon="6.15745">
        <ele>1685</ele>
        <time>2016-08-27T12:33:39Z</time>
      </trkpt>
      <trkpt lat="45.344" lon="6.15745">
        <ele>1686</ele>
        <time>2016-08-27T12:33:44Z</time>
      </trkpt>
      <trkpt lat="45.34401" lon="6.15746">
        <ele>1686</ele>
        <time>2016-08-27T12:33:49Z</time>
      </trkpt>
      <trkpt lat="45.34401" lon="6.15747">
        <ele>1686</ele>
        <time>2016-08-27T12:33:54Z</time>
      </trkpt>
      <trkpt lat="45.34402" lon="6.15747">
        <ele>1686</ele>
        <time>2016-08-27T12:33:59Z</time>
      </trkpt>
      <trkpt lat="45.34402" lon="6.15749">
        <ele>1687</ele>
        <time>2016-08-27T12:34:04Z</time>
      </trkpt>
      <trkpt lat="45.34401" lon="6.15749">
        <ele>1686</ele>
        <time>2016-08-27T12:34:09Z</time>
      </trkpt>
      <trkpt lat="45.34401" lon="6.15749">
        <ele>1687</ele>
        <time>2016-08-27T12:34:14Z</time>
      </trkpt>
      <trkpt lat="45.344" lon="6.1575">
        <ele>1688</ele>
        <time>2016-08-27T12:34:19Z</time>
      </trkpt>
      <trkpt lat="45.34399" lon="6.15751">
        <ele>1688</ele>
        <time>2016-08-27T12:34:24Z</time>
      </trkpt>
      <trkpt lat="45.34399" lon="6.15752">
        <ele>1688</ele>
        <time>2016-08-27T12:34:29Z</time>
      </trkpt>
      <trkpt lat="45.344" lon="6.15753">
        <ele>1688</ele>
        <time>2016-08-27T12:34:34Z</time>
      </trkpt>
      <trkpt lat="45.34399" lon="6.15753">
        <ele>1688</ele>
        <time>2016-08-27T12:34:39Z</time>
      </trkpt>
      <trkpt lat="45.344" lon="6.15754">
        <ele>1688</ele>
        <time>2016-08-27T12:34:44Z</time>
      </trkpt>
      <trkpt lat="45.344" lon="6.15755">
        <ele>1688</ele>
        <time>2016-08-27T12:34:49Z</time>
      </trkpt>
      <trkpt lat="45.344" lon="6.15755">
        <ele>1688</ele>
        <time>2016-08-27T12:34:54Z</time>
      </trkpt>
      <trkpt lat="45.34399" lon="6.15755">
        <ele>1688</ele>
        <time>2016-08-27T12:34:59Z</time>
      </trkpt>
      <trkpt lat="45.34399" lon="6.15756">
        <ele>1689</ele>
        <time>2016-08-27T12:35:04Z</time>
      </trkpt>
      <trkpt lat="45.34399" lon="6.15756">
        <ele>1689</ele>
        <time>2016-08-27T12:35:09Z</time>
      </trkpt>
      <trkpt lat="45.34399" lon="6.15756">
        <ele>1689</ele>
        <time>2016-08-27T12:35:14Z</time>
      </trkpt>
      <trkpt lat="45.34399" lon="6.15756">
        <ele>1689</ele>
        <time>2016-08-27T12:35:19Z</time>
      </trkpt>
      <trkpt lat="45.344" lon="6.15757">
        <ele>1689</ele>
        <time>2016-08-27T12:35:24Z</time>
      </trkpt>
      <trkpt lat="45.344" lon="6.1576">
        <ele>1690</ele>
        <time>2016-08-27T12:35:29Z</time>
      </trkpt>
      <trkpt lat="45.34399" lon="6.1576">
        <ele>1691</ele>
        <time>2016-08-27T12:35:34Z</time>
      </trkpt>
      <trkpt lat="45.34401" lon="6.15759">
        <ele>1691</ele>
        <time>2016-08-27T12:35:39Z</time>
      </trkpt>
      <trkpt lat="45.344" lon="6.1576">
        <ele>1691</ele>
        <time>2016-08-27T12:35:44Z</time>
      </trkpt>
      <trkpt lat="45.344" lon="6.15761">
        <ele>1690</ele>
        <time>2016-08-27T12:35:49Z</time>
      </trkpt>
      <trkpt lat="45.344" lon="6.15762">
        <ele>1691</ele>
        <time>2016-08-27T12:35:54Z</time>
      </trkpt>
      <trkpt lat="45.34399" lon="6.15764">
        <ele>1692</ele>
        <time>2016-08-27T12:35:59Z</time>
      </trkpt>
      <trkpt lat="45.34398" lon="6.15765">
        <ele>1692</ele>
        <time>2016-08-27T12:36:04Z</time>
      </trkpt>
      <trkpt lat="45.34398" lon="6.15764">
        <ele>1692</ele>
        <time>2016-08-27T12:36:09Z</time>
      </trkpt>
      <trkpt lat="45.34399" lon="6.15765">
        <ele>1694</ele>
        <time>2016-08-27T12:36:14Z</time>
      </trkpt>
      <trkpt lat="45.344" lon="6.15765">
        <ele>1693</ele>
        <time>2016-08-27T12:36:19Z</time>
      </trkpt>
      <trkpt lat="45.344" lon="6.15767">
        <ele>1690</ele>
        <time>2016-08-27T12:36:24Z</time>
      </trkpt>
      <trkpt lat="45.34399" lon="6.15769">
        <ele>1690</ele>
        <time>2016-08-27T12:36:29Z</time>
      </trkpt>
      <trkpt lat="45.34399" lon="6.1577">
        <ele>1691</ele>
        <time>2016-08-27T12:36:34Z</time>
      </trkpt>
      <trkpt lat="45.34399" lon="6.1577">
        <ele>1692</ele>
        <time>2016-08-27T12:36:39Z</time>
      </trkpt>
      <trkpt lat="45.34399" lon="6.15771">
        <ele>1692</ele>
        <time>2016-08-27T12:36:44Z</time>
      </trkpt>
      <trkpt lat="45.34398" lon="6.15772">
        <ele>1693</ele>
        <time>2016-08-27T12:36:49Z</time>
      </trkpt>
      <trkpt lat="45.34398" lon="6.15775">
        <ele>1693</ele>
        <time>2016-08-27T12:36:54Z</time>
      </trkpt>
      <trkpt lat="45.34399" lon="6.15778">
        <ele>1692</ele>
        <time>2016-08-27T12:36:59Z</time>
      </trkpt>
      <trkpt lat="45.34398" lon="6.15779">
        <ele>1692</ele>
        <time>2016-08-27T12:37:04Z</time>
      </trkpt>
      <trkpt lat="45.34398" lon="6.1578">
        <ele>1692</ele>
        <time>2016-08-27T12:37:09Z</time>
      </trkpt>
      <trkpt lat="45.34398" lon="6.1578">
        <ele>1693</ele>
        <time>2016-08-27T12:37:14Z</time>
      </trkpt>
      <trkpt lat="45.34397" lon="6.1578">
        <ele>1694</ele>
        <time>2016-08-27T12:37:19Z</time>
      </trkpt>
      <trkpt lat="45.34397" lon="6.15781">
        <ele>1694</ele>
        <time>2016-08-27T12:37:24Z</time>
      </trkpt>
      <trkpt lat="45.34396" lon="6.15782">
        <ele>1695</ele>
        <time>2016-08-27T12:37:29Z</time>
      </trkpt>
      <trkpt lat="45.34396" lon="6.15783">
        <ele>1697</ele>
        <time>2016-08-27T12:37:34Z</time>
      </trkpt>
      <trkpt lat="45.34395" lon="6.15784">
        <ele>1696</ele>
        <time>2016-08-27T12:37:39Z</time>
      </trkpt>
      <trkpt lat="45.34396" lon="6.15782">
        <ele>1697</ele>
        <time>2016-08-27T12:37:44Z</time>
      </trkpt>
      <trkpt lat="45.34398" lon="6.15785">
        <ele>1697</ele>
        <time>2016-08-27T12:37:49Z</time>
      </trkpt>
      <trkpt lat="45.34401" lon="6.15787">
        <ele>1697</ele>
        <time>2016-08-27T12:37:54Z</time>
      </trkpt>
      <trkpt lat="45.34402" lon="6.1579">
        <ele>1697</ele>
        <time>2016-08-27T12:37:59Z</time>
      </trkpt>
      <trkpt lat="45.34403" lon="6.15795">
        <ele>1700</ele>
        <time>2016-08-27T12:38:04Z</time>
      </trkpt>
      <trkpt lat="45.34403" lon="6.158">
        <ele>1701</ele>
        <time>2016-08-27T12:38:09Z</time>
      </trkpt>
      <trkpt lat="45.34404" lon="6.15802">
        <ele>1701</ele>
        <time>2016-08-27T12:38:14Z</time>
      </trkpt>
      <trkpt lat="45.34404" lon="6.15806">
        <ele>1702</ele>
        <time>2016-08-27T12:38:19Z</time>
      </trkpt>
      <trkpt lat="45.34404" lon="6.15805">
        <ele>1702</ele>
        <time>2016-08-27T12:38:24Z</time>
      </trkpt>
      <trkpt lat="45.34406" lon="6.15805">
        <ele>1701</ele>
        <time>2016-08-27T12:38:29Z</time>
      </trkpt>
      <trkpt lat="45.34407" lon="6.15806">
        <ele>1702</ele>
        <time>2016-08-27T12:38:34Z</time>
      </trkpt>
      <trkpt lat="45.34408" lon="6.15806">
        <ele>1702</ele>
        <time>2016-08-27T12:38:39Z</time>
      </trkpt>
      <trkpt lat="45.34408" lon="6.15807">
        <ele>1703</ele>
        <time>2016-08-27T12:38:44Z</time>
      </trkpt>
      <trkpt lat="45.34409" lon="6.15809">
        <ele>1703</ele>
        <time>2016-08-27T12:38:49Z</time>
      </trkpt>
      <trkpt lat="45.34409" lon="6.15806">
        <ele>1703</ele>
        <time>2016-08-27T12:38:54Z</time>
      </trkpt>
      <trkpt lat="45.34409" lon="6.15805">
        <ele>1703</ele>
        <time>2016-08-27T12:38:59Z</time>
      </trkpt>
      <trkpt lat="45.34408" lon="6.15806">
        <ele>1703</ele>
        <time>2016-08-27T12:39:04Z</time>
      </trkpt>
      <trkpt lat="45.34408" lon="6.15809">
        <ele>1703</ele>
        <time>2016-08-27T12:39:09Z</time>
      </trkpt>
      <trkpt lat="45.34408" lon="6.15814">
        <ele>1703</ele>
        <time>2016-08-27T12:39:14Z</time>
      </trkpt>
      <trkpt lat="45.34409" lon="6.15817">
        <ele>1703</ele>
        <time>2016-08-27T12:39:19Z</time>
      </trkpt>
      <trkpt lat="45.34408" lon="6.15816">
        <ele>1702</ele>
        <time>2016-08-27T12:39:24Z</time>
      </trkpt>
      <trkpt lat="45.34408" lon="6.15816">
        <ele>1702</ele>
        <time>2016-08-27T12:39:29Z</time>
      </trkpt>
      <trkpt lat="45.34409" lon="6.15817">
        <ele>1701</ele>
        <time>2016-08-27T12:39:34Z</time>
      </trkpt>
      <trkpt lat="45.34409" lon="6.15817">
        <ele>1700</ele>
        <time>2016-08-27T12:39:39Z</time>
      </trkpt>
      <trkpt lat="45.34411" lon="6.15818">
        <ele>1700</ele>
        <time>2016-08-27T12:39:44Z</time>
      </trkpt>
      <trkpt lat="45.34414" lon="6.15822">
        <ele>1700</ele>
        <time>2016-08-27T12:39:49Z</time>
      </trkpt>
      <trkpt lat="45.34417" lon="6.15823">
        <ele>1700</ele>
        <time>2016-08-27T12:39:54Z</time>
      </trkpt>
      <trkpt lat="45.3442" lon="6.15822">
        <ele>1700</ele>
        <time>2016-08-27T12:39:59Z</time>
      </trkpt>
      <trkpt lat="45.34422" lon="6.15822">
        <ele>1699</ele>
        <time>2016-08-27T12:40:04Z</time>
      </trkpt>
      <trkpt lat="45.34423" lon="6.15822">
        <ele>1699</ele>
        <time>2016-08-27T12:40:09Z</time>
      </trkpt>
      <trkpt lat="45.34427" lon="6.15819">
        <ele>1692</ele>
        <time>2016-08-27T12:46:34Z</time>
      </trkpt>
      <trkpt lat="45.34427" lon="6.15819">
        <ele>1693</ele>
        <time>2016-08-27T12:46:39Z</time>
      </trkpt>
      <trkpt lat="45.34427" lon="6.15819">
        <ele>1694</ele>
        <time>2016-08-27T12:46:44Z</time>
      </trkpt>
      <trkpt lat="45.34428" lon="6.15821">
        <ele>1694</ele>
        <time>2016-08-27T12:46:49Z</time>
      </trkpt>
      <trkpt lat="45.3443" lon="6.15821">
        <ele>1695</ele>
        <time>2016-08-27T12:46:54Z</time>
      </trkpt>
      <trkpt lat="45.34433" lon="6.15821">
        <ele>1696</ele>
        <time>2016-08-27T12:46:59Z</time>
      </trkpt>
      <trkpt lat="45.34433" lon="6.15817">
        <ele>1696</ele>
        <time>2016-08-27T12:47:04Z</time>
      </trkpt>
      <trkpt lat="45.34433" lon="6.15811">
        <ele>1697</ele>
        <time>2016-08-27T12:47:09Z</time>
      </trkpt>
      <trkpt lat="45.34434" lon="6.15809">
        <ele>1697</ele>
        <time>2016-08-27T12:47:14Z</time>
      </trkpt>
      <trkpt lat="45.34435" lon="6.15805">
        <ele>1696</ele>
        <time>2016-08-27T12:47:19Z</time>
      </trkpt>
      <trkpt lat="45.34436" lon="6.15802">
        <ele>1695</ele>
        <time>2016-08-27T12:47:24Z</time>
      </trkpt>
      <trkpt lat="45.34439" lon="6.15799">
        <ele>1695</ele>
        <time>2016-08-27T12:47:29Z</time>
      </trkpt>
      <trkpt lat="45.3444" lon="6.15798">
        <ele>1695</ele>
        <time>2016-08-27T12:47:34Z</time>
      </trkpt>
      <trkpt lat="45.34441" lon="6.15802">
        <ele>1694</ele>
        <time>2016-08-27T12:47:39Z</time>
      </trkpt>
      <trkpt lat="45.34444" lon="6.15806">
        <ele>1693</ele>
        <time>2016-08-27T12:47:44Z</time>
      </trkpt>
      <trkpt lat="45.34447" lon="6.15808">
        <ele>1693</ele>
        <time>2016-08-27T12:47:49Z</time>
      </trkpt>
      <trkpt lat="45.3445" lon="6.15809">
        <ele>1692</ele>
        <time>2016-08-27T12:47:54Z</time>
      </trkpt>
      <trkpt lat="45.34453" lon="6.15808">
        <ele>1691</ele>
        <time>2016-08-27T12:47:59Z</time>
      </trkpt>
      <trkpt lat="45.34454" lon="6.15802">
        <ele>1690</ele>
        <time>2016-08-27T12:48:04Z</time>
      </trkpt>
      <trkpt lat="45.34458" lon="6.15801">
        <ele>1690</ele>
        <time>2016-08-27T12:48:09Z</time>
      </trkpt>
      <trkpt lat="45.34457" lon="6.15797">
        <ele>1688</ele>
        <time>2016-08-27T12:48:14Z</time>
      </trkpt>
      <trkpt lat="45.34457" lon="6.15792">
        <ele>1688</ele>
        <time>2016-08-27T12:48:19Z</time>
      </trkpt>
      <trkpt lat="45.3446" lon="6.1579">
        <ele>1687</ele>
        <time>2016-08-27T12:48:24Z</time>
      </trkpt>
      <trkpt lat="45.34463" lon="6.15787">
        <ele>1686</ele>
        <time>2016-08-27T12:48:29Z</time>
      </trkpt>
      <trkpt lat="45.34462" lon="6.15788">
        <ele>1686</ele>
        <time>2016-08-27T12:48:34Z</time>
      </trkpt>
      <trkpt lat="45.34464" lon="6.15787">
        <ele>1685</ele>
        <time>2016-08-27T12:48:39Z</time>
      </trkpt>
      <trkpt lat="45.34466" lon="6.15784">
        <ele>1685</ele>
        <time>2016-08-27T12:48:44Z</time>
      </trkpt>
      <trkpt lat="45.34466" lon="6.15784">
        <ele>1684</ele>
        <time>2016-08-27T12:48:49Z</time>
      </trkpt>
      <trkpt lat="45.34469" lon="6.15781">
        <ele>1684</ele>
        <time>2016-08-27T12:48:54Z</time>
      </trkpt>
      <trkpt lat="45.34473" lon="6.15777">
        <ele>1683</ele>
        <time>2016-08-27T12:48:59Z</time>
      </trkpt>
      <trkpt lat="45.34476" lon="6.15774">
        <ele>1681</ele>
        <time>2016-08-27T12:49:04Z</time>
      </trkpt>
      <trkpt lat="45.34479" lon="6.15771">
        <ele>1681</ele>
        <time>2016-08-27T12:49:09Z</time>
      </trkpt>
      <trkpt lat="45.34482" lon="6.15767">
        <ele>1679</ele>
        <time>2016-08-27T12:49:14Z</time>
      </trkpt>
      <trkpt lat="45.34485" lon="6.15766">
        <ele>1678</ele>
        <time>2016-08-27T12:49:19Z</time>
      </trkpt>
      <trkpt lat="45.34489" lon="6.15765">
        <ele>1677</ele>
        <time>2016-08-27T12:49:24Z</time>
      </trkpt>
      <trkpt lat="45.3449" lon="6.15768">
        <ele>1677</ele>
        <time>2016-08-27T12:49:29Z</time>
      </trkpt>
      <trkpt lat="45.34491" lon="6.15772">
        <ele>1676</ele>
        <time>2016-08-27T12:49:34Z</time>
      </trkpt>
      <trkpt lat="45.34493" lon="6.15773">
        <ele>1675</ele>
        <time>2016-08-27T12:49:39Z</time>
      </trkpt>
      <trkpt lat="45.34496" lon="6.15769">
        <ele>1674</ele>
        <time>2016-08-27T12:49:44Z</time>
      </trkpt>
      <trkpt lat="45.34499" lon="6.15766">
        <ele>1673</ele>
        <time>2016-08-27T12:49:49Z</time>
      </trkpt>
      <trkpt lat="45.345" lon="6.15763">
        <ele>1672</ele>
        <time>2016-08-27T12:49:54Z</time>
      </trkpt>
      <trkpt lat="45.34502" lon="6.15762">
        <ele>1671</ele>
        <time>2016-08-27T12:49:59Z</time>
      </trkpt>
      <trkpt lat="45.34505" lon="6.15761">
        <ele>1670</ele>
        <time>2016-08-27T12:50:04Z</time>
      </trkpt>
      <trkpt lat="45.34509" lon="6.15762">
        <ele>1669</ele>
        <time>2016-08-27T12:50:09Z</time>
      </trkpt>
      <trkpt lat="45.34511" lon="6.1576">
        <ele>1667</ele>
        <time>2016-08-27T12:50:14Z</time>
      </trkpt>
      <trkpt lat="45.34515" lon="6.15761">
        <ele>1666</ele>
        <time>2016-08-27T12:50:19Z</time>
      </trkpt>
      <trkpt lat="45.34516" lon="6.15762">
        <ele>1666</ele>
        <time>2016-08-27T12:50:24Z</time>
      </trkpt>
      <trkpt lat="45.34519" lon="6.15765">
        <ele>1664</ele>
        <time>2016-08-27T12:50:29Z</time>
      </trkpt>
      <trkpt lat="45.34522" lon="6.15767">
        <ele>1663</ele>
        <time>2016-08-27T12:50:34Z</time>
      </trkpt>
      <trkpt lat="45.34524" lon="6.15768">
        <ele>1662</ele>
        <time>2016-08-27T12:50:39Z</time>
      </trkpt>
      <trkpt lat="45.34527" lon="6.15769">
        <ele>1661</ele>
        <time>2016-08-27T12:50:44Z</time>
      </trkpt>
      <trkpt lat="45.34529" lon="6.15774">
        <ele>1661</ele>
        <time>2016-08-27T12:50:49Z</time>
      </trkpt>
      <trkpt lat="45.34532" lon="6.15771">
        <ele>1660</ele>
        <time>2016-08-27T12:50:54Z</time>
      </trkpt>
      <trkpt lat="45.34535" lon="6.15769">
        <ele>1659</ele>
        <time>2016-08-27T12:50:59Z</time>
      </trkpt>
      <trkpt lat="45.34537" lon="6.15773">
        <ele>1657</ele>
        <time>2016-08-27T12:51:04Z</time>
      </trkpt>
      <trkpt lat="45.34539" lon="6.15771">
        <ele>1656</ele>
        <time>2016-08-27T12:51:09Z</time>
      </trkpt>
      <trkpt lat="45.3454" lon="6.15765">
        <ele>1654</ele>
        <time>2016-08-27T12:51:14Z</time>
      </trkpt>
      <trkpt lat="45.34541" lon="6.15759">
        <ele>1653</ele>
        <time>2016-08-27T12:51:19Z</time>
      </trkpt>
      <trkpt lat="45.34543" lon="6.1576">
        <ele>1653</ele>
        <time>2016-08-27T12:51:24Z</time>
      </trkpt>
      <trkpt lat="45.34546" lon="6.15764">
        <ele>1652</ele>
        <time>2016-08-27T12:51:29Z</time>
      </trkpt>
      <trkpt lat="45.34548" lon="6.15771">
        <ele>1650</ele>
        <time>2016-08-27T12:51:34Z</time>
      </trkpt>
      <trkpt lat="45.34548" lon="6.15776">
        <ele>1650</ele>
        <time>2016-08-27T12:51:39Z</time>
      </trkpt>
      <trkpt lat="45.34551" lon="6.15777">
        <ele>1648</ele>
        <time>2016-08-27T12:51:44Z</time>
      </trkpt>
      <trkpt lat="45.34555" lon="6.15779">
        <ele>1647</ele>
        <time>2016-08-27T12:51:49Z</time>
      </trkpt>
      <trkpt lat="45.34559" lon="6.1578">
        <ele>1645</ele>
        <time>2016-08-27T12:51:54Z</time>
      </trkpt>
      <trkpt lat="45.34565" lon="6.1578">
        <ele>1645</ele>
        <time>2016-08-27T12:51:59Z</time>
      </trkpt>
      <trkpt lat="45.34569" lon="6.15783">
        <ele>1644</ele>
        <time>2016-08-27T12:52:04Z</time>
      </trkpt>
      <trkpt lat="45.34573" lon="6.15786">
        <ele>1644</ele>
        <time>2016-08-27T12:52:09Z</time>
      </trkpt>
      <trkpt lat="45.34578" lon="6.1579">
        <ele>1644</ele>
        <time>2016-08-27T12:52:14Z</time>
      </trkpt>
      <trkpt lat="45.34581" lon="6.15793">
        <ele>1643</ele>
        <time>2016-08-27T12:52:19Z</time>
      </trkpt>
      <trkpt lat="45.34584" lon="6.15793">
        <ele>1642</ele>
        <time>2016-08-27T12:52:24Z</time>
      </trkpt>
      <trkpt lat="45.34587" lon="6.15791">
        <ele>1640</ele>
        <time>2016-08-27T12:52:29Z</time>
      </trkpt>
      <trkpt lat="45.34589" lon="6.15788">
        <ele>1640</ele>
        <time>2016-08-27T12:52:34Z</time>
      </trkpt>
      <trkpt lat="45.34593" lon="6.15789">
        <ele>1638</ele>
        <time>2016-08-27T12:52:39Z</time>
      </trkpt>
      <trkpt lat="45.34594" lon="6.15792">
        <ele>1637</ele>
        <time>2016-08-27T12:52:44Z</time>
      </trkpt>
      <trkpt lat="45.34597" lon="6.15793">
        <ele>1636</ele>
        <time>2016-08-27T12:52:49Z</time>
      </trkpt>
      <trkpt lat="45.346" lon="6.15793">
        <ele>1635</ele>
        <time>2016-08-27T12:52:54Z</time>
      </trkpt>
      <trkpt lat="45.34604" lon="6.15796">
        <ele>1633</ele>
        <time>2016-08-27T12:52:59Z</time>
      </trkpt>
      <trkpt lat="45.34609" lon="6.15798">
        <ele>1632</ele>
        <time>2016-08-27T12:53:04Z</time>
      </trkpt>
      <trkpt lat="45.34613" lon="6.158">
        <ele>1631</ele>
        <time>2016-08-27T12:53:09Z</time>
      </trkpt>
      <trkpt lat="45.34617" lon="6.15801">
        <ele>1630</ele>
        <time>2016-08-27T12:53:14Z</time>
      </trkpt>
      <trkpt lat="45.34617" lon="6.15801">
        <ele>1629</ele>
        <time>2016-08-27T12:53:19Z</time>
      </trkpt>
      <trkpt lat="45.34617" lon="6.15801">
        <ele>1628</ele>
        <time>2016-08-27T12:53:24Z</time>
      </trkpt>
      <trkpt lat="45.34617" lon="6.15802">
        <ele>1627</ele>
        <time>2016-08-27T12:53:29Z</time>
      </trkpt>
      <trkpt lat="45.34616" lon="6.15802">
        <ele>1627</ele>
        <time>2016-08-27T12:53:34Z</time>
      </trkpt>
      <trkpt lat="45.34616" lon="6.15801">
        <ele>1628</ele>
        <time>2016-08-27T12:53:39Z</time>
      </trkpt>
      <trkpt lat="45.34617" lon="6.15801">
        <ele>1629</ele>
        <time>2016-08-27T12:53:44Z</time>
      </trkpt>
      <trkpt lat="45.34618" lon="6.15803">
        <ele>1629</ele>
        <time>2016-08-27T12:53:49Z</time>
      </trkpt>
      <trkpt lat="45.34622" lon="6.15806">
        <ele>1629</ele>
        <time>2016-08-27T12:53:54Z</time>
      </trkpt>
      <trkpt lat="45.34625" lon="6.1581">
        <ele>1629</ele>
        <time>2016-08-27T12:53:59Z</time>
      </trkpt>
      <trkpt lat="45.34628" lon="6.15809">
        <ele>1628</ele>
        <time>2016-08-27T12:54:04Z</time>
      </trkpt>
      <trkpt lat="45.34631" lon="6.15809">
        <ele>1628</ele>
        <time>2016-08-27T12:54:09Z</time>
      </trkpt>
      <trkpt lat="45.34635" lon="6.15811">
        <ele>1628</ele>
        <time>2016-08-27T12:54:14Z</time>
      </trkpt>
      <trkpt lat="45.34638" lon="6.1581">
        <ele>1628</ele>
        <time>2016-08-27T12:54:19Z</time>
      </trkpt>
      <trkpt lat="45.3464" lon="6.15809">
        <ele>1628</ele>
        <time>2016-08-27T12:54:24Z</time>
      </trkpt>
      <trkpt lat="45.3464" lon="6.15806">
        <ele>1626</ele>
        <time>2016-08-27T12:54:29Z</time>
      </trkpt>
      <trkpt lat="45.3464" lon="6.15803">
        <ele>1626</ele>
        <time>2016-08-27T12:54:34Z</time>
      </trkpt>
      <trkpt lat="45.34642" lon="6.15805">
        <ele>1626</ele>
        <time>2016-08-27T12:54:39Z</time>
      </trkpt>
      <trkpt lat="45.34646" lon="6.15803">
        <ele>1627</ele>
        <time>2016-08-27T12:54:44Z</time>
      </trkpt>
      <trkpt lat="45.34647" lon="6.15798">
        <ele>1626</ele>
        <time>2016-08-27T12:54:49Z</time>
      </trkpt>
      <trkpt lat="45.34649" lon="6.15794">
        <ele>1626</ele>
        <time>2016-08-27T12:54:54Z</time>
      </trkpt>
      <trkpt lat="45.34651" lon="6.1579">
        <ele>1625</ele>
        <time>2016-08-27T12:54:59Z</time>
      </trkpt>
      <trkpt lat="45.34655" lon="6.15786">
        <ele>1623</ele>
        <time>2016-08-27T12:55:04Z</time>
      </trkpt>
      <trkpt lat="45.34658" lon="6.15785">
        <ele>1622</ele>
        <time>2016-08-27T12:55:09Z</time>
      </trkpt>
      <trkpt lat="45.34661" lon="6.1578">
        <ele>1621</ele>
        <time>2016-08-27T12:55:14Z</time>
      </trkpt>
      <trkpt lat="45.34665" lon="6.15775">
        <ele>1620</ele>
        <time>2016-08-27T12:55:19Z</time>
      </trkpt>
      <trkpt lat="45.34668" lon="6.15774">
        <ele>1621</ele>
        <time>2016-08-27T12:55:24Z</time>
      </trkpt>
      <trkpt lat="45.34671" lon="6.15773">
        <ele>1620</ele>
        <time>2016-08-27T12:55:29Z</time>
      </trkpt>
      <trkpt lat="45.34676" lon="6.15773">
        <ele>1618</ele>
        <time>2016-08-27T12:55:34Z</time>
      </trkpt>
      <trkpt lat="45.34681" lon="6.15774">
        <ele>1616</ele>
        <time>2016-08-27T12:55:39Z</time>
      </trkpt>
      <trkpt lat="45.34686" lon="6.15773">
        <ele>1615</ele>
        <time>2016-08-27T12:55:44Z</time>
      </trkpt>
      <trkpt lat="45.3469" lon="6.15774">
        <ele>1613</ele>
        <time>2016-08-27T12:55:49Z</time>
      </trkpt>
      <trkpt lat="45.34695" lon="6.15774">
        <ele>1612</ele>
        <time>2016-08-27T12:55:54Z</time>
      </trkpt>
      <trkpt lat="45.34699" lon="6.15778">
        <ele>1611</ele>
        <time>2016-08-27T12:55:59Z</time>
      </trkpt>
      <trkpt lat="45.34703" lon="6.15782">
        <ele>1611</ele>
        <time>2016-08-27T12:56:04Z</time>
      </trkpt>
      <trkpt lat="45.34705" lon="6.15786">
        <ele>1610</ele>
        <time>2016-08-27T12:56:09Z</time>
      </trkpt>
      <trkpt lat="45.34707" lon="6.15788">
        <ele>1608</ele>
        <time>2016-08-27T12:56:14Z</time>
      </trkpt>
      <trkpt lat="45.34711" lon="6.15789">
        <ele>1607</ele>
        <time>2016-08-27T12:56:19Z</time>
      </trkpt>
      <trkpt lat="45.34714" lon="6.15793">
        <ele>1606</ele>
        <time>2016-08-27T12:56:24Z</time>
      </trkpt>
      <trkpt lat="45.34715" lon="6.1579">
        <ele>1604</ele>
        <time>2016-08-27T12:56:29Z</time>
      </trkpt>
      <trkpt lat="45.34716" lon="6.15789">
        <ele>1604</ele>
        <time>2016-08-27T12:56:34Z</time>
      </trkpt>
      <trkpt lat="45.34716" lon="6.15789">
        <ele>1604</ele>
        <time>2016-08-27T12:56:39Z</time>
      </trkpt>
      <trkpt lat="45.34717" lon="6.15789">
        <ele>1604</ele>
        <time>2016-08-27T12:56:44Z</time>
      </trkpt>
      <trkpt lat="45.34718" lon="6.15793">
        <ele>1604</ele>
        <time>2016-08-27T12:56:49Z</time>
      </trkpt>
      <trkpt lat="45.3472" lon="6.158">
        <ele>1604</ele>
        <time>2016-08-27T12:56:54Z</time>
      </trkpt>
      <trkpt lat="45.34727" lon="6.15806">
        <ele>1604</ele>
        <time>2016-08-27T12:57:03Z</time>
      </trkpt>
      <trkpt lat="45.3473" lon="6.15809">
        <ele>1606</ele>
        <time>2016-08-27T12:57:08Z</time>
      </trkpt>
      <trkpt lat="45.34735" lon="6.15809">
        <ele>1606</ele>
        <time>2016-08-27T12:57:13Z</time>
      </trkpt>
      <trkpt lat="45.3474" lon="6.15811">
        <ele>1606</ele>
        <time>2016-08-27T12:57:18Z</time>
      </trkpt>
      <trkpt lat="45.34742" lon="6.15812">
        <ele>1605</ele>
        <time>2016-08-27T12:57:23Z</time>
      </trkpt>
      <trkpt lat="45.34742" lon="6.15813">
        <ele>1605</ele>
        <time>2016-08-27T12:57:28Z</time>
      </trkpt>
      <trkpt lat="45.34743" lon="6.15814">
        <ele>1605</ele>
        <time>2016-08-27T12:57:33Z</time>
      </trkpt>
      <trkpt lat="45.34745" lon="6.15815">
        <ele>1606</ele>
        <time>2016-08-27T12:57:38Z</time>
      </trkpt>
      <trkpt lat="45.34749" lon="6.15816">
        <ele>1608</ele>
        <time>2016-08-27T12:57:43Z</time>
      </trkpt>
      <trkpt lat="45.34753" lon="6.1582">
        <ele>1609</ele>
        <time>2016-08-27T12:57:48Z</time>
      </trkpt>
      <trkpt lat="45.34757" lon="6.15821">
        <ele>1609</ele>
        <time>2016-08-27T12:57:53Z</time>
      </trkpt>
      <trkpt lat="45.3476" lon="6.15824">
        <ele>1609</ele>
        <time>2016-08-27T12:57:58Z</time>
      </trkpt>
      <trkpt lat="45.34766" lon="6.15824">
        <ele>1609</ele>
        <time>2016-08-27T12:58:03Z</time>
      </trkpt>
      <trkpt lat="45.3477" lon="6.15827">
        <ele>1608</ele>
        <time>2016-08-27T12:58:08Z</time>
      </trkpt>
      <trkpt lat="45.34773" lon="6.15825">
        <ele>1609</ele>
        <time>2016-08-27T12:58:13Z</time>
      </trkpt>
      <trkpt lat="45.34774" lon="6.15824">
        <ele>1609</ele>
        <time>2016-08-27T12:58:18Z</time>
      </trkpt>
      <trkpt lat="45.34774" lon="6.15823">
        <ele>1609</ele>
        <time>2016-08-27T12:58:23Z</time>
      </trkpt>
      <trkpt lat="45.34773" lon="6.15823">
        <ele>1609</ele>
        <time>2016-08-27T12:58:28Z</time>
      </trkpt>
      <trkpt lat="45.34778" lon="6.15821">
        <ele>1608</ele>
        <time>2016-08-27T12:58:33Z</time>
      </trkpt>
      <trkpt lat="45.34784" lon="6.1582">
        <ele>1608</ele>
        <time>2016-08-27T12:58:38Z</time>
      </trkpt>
      <trkpt lat="45.34787" lon="6.15819">
        <ele>1608</ele>
        <time>2016-08-27T12:58:43Z</time>
      </trkpt>
      <trkpt lat="45.34791" lon="6.15818">
        <ele>1608</ele>
        <time>2016-08-27T12:58:48Z</time>
      </trkpt>
      <trkpt lat="45.34792" lon="6.15815">
        <ele>1608</ele>
        <time>2016-08-27T12:58:53Z</time>
      </trkpt>
      <trkpt lat="45.34793" lon="6.15811">
        <ele>1606</ele>
        <time>2016-08-27T12:58:58Z</time>
      </trkpt>
      <trkpt lat="45.34797" lon="6.15807">
        <ele>1606</ele>
        <time>2016-08-27T12:59:03Z</time>
      </trkpt>
      <trkpt lat="45.348" lon="6.15803">
        <ele>1604</ele>
        <time>2016-08-27T12:59:08Z</time>
      </trkpt>
      <trkpt lat="45.34804" lon="6.15799">
        <ele>1603</ele>
        <time>2016-08-27T12:59:13Z</time>
      </trkpt>
      <trkpt lat="45.34808" lon="6.15797">
        <ele>1602</ele>
        <time>2016-08-27T12:59:18Z</time>
      </trkpt>
      <trkpt lat="45.34813" lon="6.15792">
        <ele>1601</ele>
        <time>2016-08-27T12:59:23Z</time>
      </trkpt>
      <trkpt lat="45.34815" lon="6.1579">
        <ele>1602</ele>
        <time>2016-08-27T12:59:28Z</time>
      </trkpt>
      <trkpt lat="45.34819" lon="6.15783">
        <ele>1601</ele>
        <time>2016-08-27T12:59:33Z</time>
      </trkpt>
      <trkpt lat="45.34821" lon="6.15777">
        <ele>1602</ele>
        <time>2016-08-27T12:59:38Z</time>
      </trkpt>
      <trkpt lat="45.34825" lon="6.15773">
        <ele>1602</ele>
        <time>2016-08-27T12:59:43Z</time>
      </trkpt>
      <trkpt lat="45.34829" lon="6.15771">
        <ele>1602</ele>
        <time>2016-08-27T12:59:48Z</time>
      </trkpt>
      <trkpt lat="45.34831" lon="6.15769">
        <ele>1603</ele>
        <time>2016-08-27T12:59:53Z</time>
      </trkpt>
      <trkpt lat="45.34834" lon="6.15768">
        <ele>1602</ele>
        <time>2016-08-27T12:59:58Z</time>
      </trkpt>
      <trkpt lat="45.34836" lon="6.15765">
        <ele>1602</ele>
        <time>2016-08-27T13:00:03Z</time>
      </trkpt>
      <trkpt lat="45.34837" lon="6.15763">
        <ele>1602</ele>
        <time>2016-08-27T13:00:08Z</time>
      </trkpt>
      <trkpt lat="45.34837" lon="6.15763">
        <ele>1601</ele>
        <time>2016-08-27T13:00:13Z</time>
      </trkpt>
      <trkpt lat="45.34837" lon="6.15762">
        <ele>1601</ele>
        <time>2016-08-27T13:00:18Z</time>
      </trkpt>
      <trkpt lat="45.34836" lon="6.15762">
        <ele>1600</ele>
        <time>2016-08-27T13:00:23Z</time>
      </trkpt>
      <trkpt lat="45.34839" lon="6.15761">
        <ele>1600</ele>
        <time>2016-08-27T13:00:28Z</time>
      </trkpt>
      <trkpt lat="45.34844" lon="6.15757">
        <ele>1599</ele>
        <time>2016-08-27T13:00:33Z</time>
      </trkpt>
      <trkpt lat="45.3485" lon="6.15754">
        <ele>1599</ele>
        <time>2016-08-27T13:00:38Z</time>
      </trkpt>
      <trkpt lat="45.34853" lon="6.15752">
        <ele>1600</ele>
        <time>2016-08-27T13:00:43Z</time>
      </trkpt>
      <trkpt lat="45.34857" lon="6.15748">
        <ele>1600</ele>
        <time>2016-08-27T13:00:48Z</time>
      </trkpt>
      <trkpt lat="45.34859" lon="6.15746">
        <ele>1599</ele>
        <time>2016-08-27T13:00:53Z</time>
      </trkpt>
      <trkpt lat="45.34858" lon="6.15746">
        <ele>1601</ele>
        <time>2016-08-27T13:00:58Z</time>
      </trkpt>
      <trkpt lat="45.34858" lon="6.15746">
        <ele>1601</ele>
        <time>2016-08-27T13:01:03Z</time>
      </trkpt>
      <trkpt lat="45.34861" lon="6.15744">
        <ele>1601</ele>
        <time>2016-08-27T13:01:08Z</time>
      </trkpt>
      <trkpt lat="45.34867" lon="6.15741">
        <ele>1600</ele>
        <time>2016-08-27T13:01:13Z</time>
      </trkpt>
      <trkpt lat="45.34873" lon="6.15739">
        <ele>1600</ele>
        <time>2016-08-27T13:01:18Z</time>
      </trkpt>
      <trkpt lat="45.34879" lon="6.1574">
        <ele>1599</ele>
        <time>2016-08-27T13:01:23Z</time>
      </trkpt>
      <trkpt lat="45.34884" lon="6.15741">
        <ele>1597</ele>
        <time>2016-08-27T13:01:28Z</time>
      </trkpt>
      <trkpt lat="45.34886" lon="6.15739">
        <ele>1598</ele>
        <time>2016-08-27T13:01:33Z</time>
      </trkpt>
      <trkpt lat="45.34887" lon="6.1574">
        <ele>1597</ele>
        <time>2016-08-27T13:01:38Z</time>
      </trkpt>
      <trkpt lat="45.34888" lon="6.15741">
        <ele>1596</ele>
        <time>2016-08-27T13:01:43Z</time>
      </trkpt>
      <trkpt lat="45.34889" lon="6.15738">
        <ele>1596</ele>
        <time>2016-08-27T13:01:48Z</time>
      </trkpt>
      <trkpt lat="45.34891" lon="6.15738">
        <ele>1596</ele>
        <time>2016-08-27T13:01:53Z</time>
      </trkpt>
      <trkpt lat="45.34896" lon="6.15737">
        <ele>1596</ele>
        <time>2016-08-27T13:01:58Z</time>
      </trkpt>
      <trkpt lat="45.34901" lon="6.15739">
        <ele>1596</ele>
        <time>2016-08-27T13:02:03Z</time>
      </trkpt>
      <trkpt lat="45.34905" lon="6.15739">
        <ele>1596</ele>
        <time>2016-08-27T13:02:08Z</time>
      </trkpt>
      <trkpt lat="45.34908" lon="6.15736">
        <ele>1596</ele>
        <time>2016-08-27T13:02:13Z</time>
      </trkpt>
      <trkpt lat="45.34911" lon="6.15734">
        <ele>1595</ele>
        <time>2016-08-27T13:02:18Z</time>
      </trkpt>
      <trkpt lat="45.34914" lon="6.15732">
        <ele>1595</ele>
        <time>2016-08-27T13:02:23Z</time>
      </trkpt>
      <trkpt lat="45.34916" lon="6.15731">
        <ele>1595</ele>
        <time>2016-08-27T13:02:28Z</time>
      </trkpt>
      <trkpt lat="45.34917" lon="6.15731">
        <ele>1594</ele>
        <time>2016-08-27T13:02:33Z</time>
      </trkpt>
      <trkpt lat="45.34919" lon="6.15732">
        <ele>1593</ele>
        <time>2016-08-27T13:02:38Z</time>
      </trkpt>
      <trkpt lat="45.34925" lon="6.15731">
        <ele>1593</ele>
        <time>2016-08-27T13:02:43Z</time>
      </trkpt>
      <trkpt lat="45.34931" lon="6.1573">
        <ele>1593</ele>
        <time>2016-08-27T13:02:48Z</time>
      </trkpt>
      <trkpt lat="45.34936" lon="6.15729">
        <ele>1594</ele>
        <time>2016-08-27T13:02:53Z</time>
      </trkpt>
      <trkpt lat="45.34942" lon="6.15727">
        <ele>1594</ele>
        <time>2016-08-27T13:02:58Z</time>
      </trkpt>
      <trkpt lat="45.34947" lon="6.15723">
        <ele>1594</ele>
        <time>2016-08-27T13:03:03Z</time>
      </trkpt>
      <trkpt lat="45.34952" lon="6.15718">
        <ele>1594</ele>
        <time>2016-08-27T13:03:08Z</time>
      </trkpt>
      <trkpt lat="45.34956" lon="6.15714">
        <ele>1594</ele>
        <time>2016-08-27T13:03:13Z</time>
      </trkpt>
      <trkpt lat="45.34959" lon="6.15707">
        <ele>1595</ele>
        <time>2016-08-27T13:03:18Z</time>
      </trkpt>
      <trkpt lat="45.34963" lon="6.15702">
        <ele>1595</ele>
        <time>2016-08-27T13:03:23Z</time>
      </trkpt>
      <trkpt lat="45.34967" lon="6.15696">
        <ele>1596</ele>
        <time>2016-08-27T13:03:28Z</time>
      </trkpt>
      <trkpt lat="45.34971" lon="6.15691">
        <ele>1596</ele>
        <time>2016-08-27T13:03:33Z</time>
      </trkpt>
      <trkpt lat="45.34976" lon="6.15685">
        <ele>1596</ele>
        <time>2016-08-27T13:03:38Z</time>
      </trkpt>
      <trkpt lat="45.34982" lon="6.15681">
        <ele>1595</ele>
        <time>2016-08-27T13:03:43Z</time>
      </trkpt>
      <trkpt lat="45.34985" lon="6.15675">
        <ele>1596</ele>
        <time>2016-08-27T13:03:48Z</time>
      </trkpt>
      <trkpt lat="45.34988" lon="6.15666">
        <ele>1596</ele>
        <time>2016-08-27T13:03:53Z</time>
      </trkpt>
      <trkpt lat="45.34988" lon="6.15665">
        <ele>1596</ele>
        <time>2016-08-27T13:03:58Z</time>
      </trkpt>
      <trkpt lat="45.34988" lon="6.15665">
        <ele>1598</ele>
        <time>2016-08-27T13:04:03Z</time>
      </trkpt>
      <trkpt lat="45.34991" lon="6.15659">
        <ele>1598</ele>
        <time>2016-08-27T13:04:08Z</time>
      </trkpt>
      <trkpt lat="45.34995" lon="6.1565">
        <ele>1597</ele>
        <time>2016-08-27T13:04:13Z</time>
      </trkpt>
      <trkpt lat="45.34998" lon="6.15642">
        <ele>1599</ele>
        <time>2016-08-27T13:04:18Z</time>
      </trkpt>
      <trkpt lat="45.35001" lon="6.15638">
        <ele>1599</ele>
        <time>2016-08-27T13:04:23Z</time>
      </trkpt>
      <trkpt lat="45.35004" lon="6.15638">
        <ele>1599</ele>
        <time>2016-08-27T13:04:28Z</time>
      </trkpt>
      <trkpt lat="45.35005" lon="6.15638">
        <ele>1598</ele>
        <time>2016-08-27T13:04:33Z</time>
      </trkpt>
      <trkpt lat="45.35008" lon="6.15636">
        <ele>1598</ele>
        <time>2016-08-27T13:04:38Z</time>
      </trkpt>
      <trkpt lat="45.35013" lon="6.15636">
        <ele>1597</ele>
        <time>2016-08-27T13:04:43Z</time>
      </trkpt>
      <trkpt lat="45.35017" lon="6.15637">
        <ele>1596</ele>
        <time>2016-08-27T13:04:48Z</time>
      </trkpt>
      <trkpt lat="45.35017" lon="6.15638">
        <ele>1595</ele>
        <time>2016-08-27T13:04:53Z</time>
      </trkpt>
      <trkpt lat="45.35019" lon="6.15637">
        <ele>1595</ele>
        <time>2016-08-27T13:04:58Z</time>
      </trkpt>
      <trkpt lat="45.35022" lon="6.15633">
        <ele>1595</ele>
        <time>2016-08-27T13:05:03Z</time>
      </trkpt>
      <trkpt lat="45.35027" lon="6.1563">
        <ele>1596</ele>
        <time>2016-08-27T13:05:08Z</time>
      </trkpt>
      <trkpt lat="45.35032" lon="6.15631">
        <ele>1595</ele>
        <time>2016-08-27T13:05:13Z</time>
      </trkpt>
      <trkpt lat="45.35036" lon="6.15631">
        <ele>1595</ele>
        <time>2016-08-27T13:05:18Z</time>
      </trkpt>
      <trkpt lat="45.3504" lon="6.15631">
        <ele>1594</ele>
        <time>2016-08-27T13:05:23Z</time>
      </trkpt>
      <trkpt lat="45.35043" lon="6.15633">
        <ele>1595</ele>
        <time>2016-08-27T13:05:28Z</time>
      </trkpt>
      <trkpt lat="45.35049" lon="6.15632">
        <ele>1595</ele>
        <time>2016-08-27T13:05:33Z</time>
      </trkpt>
      <trkpt lat="45.35055" lon="6.15631">
        <ele>1594</ele>
        <time>2016-08-27T13:05:38Z</time>
      </trkpt>
      <trkpt lat="45.35059" lon="6.15627">
        <ele>1596</ele>
        <time>2016-08-27T13:05:43Z</time>
      </trkpt>
      <trkpt lat="45.35061" lon="6.15622">
        <ele>1598</ele>
        <time>2016-08-27T13:05:48Z</time>
      </trkpt>
      <trkpt lat="45.35063" lon="6.15615">
        <ele>1600</ele>
        <time>2016-08-27T13:05:53Z</time>
      </trkpt>
      <trkpt lat="45.35064" lon="6.15607">
        <ele>1601</ele>
        <time>2016-08-27T13:05:58Z</time>
      </trkpt>
      <trkpt lat="45.35066" lon="6.15601">
        <ele>1602</ele>
        <time>2016-08-27T13:06:03Z</time>
      </trkpt>
      <trkpt lat="45.35067" lon="6.15595">
        <ele>1603</ele>
        <time>2016-08-27T13:06:08Z</time>
      </trkpt>
      <trkpt lat="45.3507" lon="6.15588">
        <ele>1604</ele>
        <time>2016-08-27T13:06:13Z</time>
      </trkpt>
      <trkpt lat="45.35071" lon="6.15579">
        <ele>1603</ele>
        <time>2016-08-27T13:06:18Z</time>
      </trkpt>
      <trkpt lat="45.35072" lon="6.15572">
        <ele>1601</ele>
        <time>2016-08-27T13:06:23Z</time>
      </trkpt>
      <trkpt lat="45.35073" lon="6.15566">
        <ele>1597</ele>
        <time>2016-08-27T13:06:28Z</time>
      </trkpt>
      <trkpt lat="45.35076" lon="6.1556">
        <ele>1597</ele>
        <time>2016-08-27T13:06:33Z</time>
      </trkpt>
      <trkpt lat="45.35078" lon="6.15559">
        <ele>1596</ele>
        <time>2016-08-27T13:06:38Z</time>
      </trkpt>
      <trkpt lat="45.35082" lon="6.15561">
        <ele>1594</ele>
        <time>2016-08-27T13:06:43Z</time>
      </trkpt>
      <trkpt lat="45.35086" lon="6.15564">
        <ele>1592</ele>
        <time>2016-08-27T13:06:48Z</time>
      </trkpt>
      <trkpt lat="45.35089" lon="6.15566">
        <ele>1590</ele>
        <time>2016-08-27T13:06:53Z</time>
      </trkpt>
      <trkpt lat="45.35094" lon="6.15568">
        <ele>1589</ele>
        <time>2016-08-27T13:06:58Z</time>
      </trkpt>
      <trkpt lat="45.35096" lon="6.1557">
        <ele>1589</ele>
        <time>2016-08-27T13:07:03Z</time>
      </trkpt>
      <trkpt lat="45.35098" lon="6.1557">
        <ele>1591</ele>
        <time>2016-08-27T13:07:08Z</time>
      </trkpt>
      <trkpt lat="45.35103" lon="6.15569">
        <ele>1592</ele>
        <time>2016-08-27T13:07:13Z</time>
      </trkpt>
      <trkpt lat="45.35106" lon="6.15563">
        <ele>1592</ele>
        <time>2016-08-27T13:07:18Z</time>
      </trkpt>
      <trkpt lat="45.35107" lon="6.15557">
        <ele>1591</ele>
        <time>2016-08-27T13:07:23Z</time>
      </trkpt>
      <trkpt lat="45.35109" lon="6.1555">
        <ele>1591</ele>
        <time>2016-08-27T13:07:28Z</time>
      </trkpt>
      <trkpt lat="45.35112" lon="6.15544">
        <ele>1590</ele>
        <time>2016-08-27T13:07:33Z</time>
      </trkpt>
      <trkpt lat="45.35112" lon="6.15537">
        <ele>1589</ele>
        <time>2016-08-27T13:07:38Z</time>
      </trkpt>
      <trkpt lat="45.35112" lon="6.15529">
        <ele>1588</ele>
        <time>2016-08-27T13:07:43Z</time>
      </trkpt>
      <trkpt lat="45.35114" lon="6.15523">
        <ele>1589</ele>
        <time>2016-08-27T13:07:48Z</time>
      </trkpt>
      <trkpt lat="45.35118" lon="6.1552">
        <ele>1590</ele>
        <time>2016-08-27T13:07:53Z</time>
      </trkpt>
      <trkpt lat="45.3512" lon="6.15515">
        <ele>1590</ele>
        <time>2016-08-27T13:07:58Z</time>
      </trkpt>
      <trkpt lat="45.35124" lon="6.15509">
        <ele>1590</ele>
        <time>2016-08-27T13:08:03Z</time>
      </trkpt>
      <trkpt lat="45.35127" lon="6.15505">
        <ele>1590</ele>
        <time>2016-08-27T13:08:08Z</time>
      </trkpt>
      <trkpt lat="45.35129" lon="6.15499">
        <ele>1590</ele>
        <time>2016-08-27T13:08:13Z</time>
      </trkpt>
      <trkpt lat="45.35131" lon="6.15493">
        <ele>1589</ele>
        <time>2016-08-27T13:08:18Z</time>
      </trkpt>
      <trkpt lat="45.35134" lon="6.15488">
        <ele>1588</ele>
        <time>2016-08-27T13:08:23Z</time>
      </trkpt>
      <trkpt lat="45.35139" lon="6.15483">
        <ele>1588</ele>
        <time>2016-08-27T13:08:28Z</time>
      </trkpt>
      <trkpt lat="45.35143" lon="6.15477">
        <ele>1587</ele>
        <time>2016-08-27T13:08:33Z</time>
      </trkpt>
      <trkpt lat="45.35146" lon="6.15474">
        <ele>1585</ele>
        <time>2016-08-27T13:08:38Z</time>
      </trkpt>
      <trkpt lat="45.35149" lon="6.15468">
        <ele>1584</ele>
        <time>2016-08-27T13:08:43Z</time>
      </trkpt>
      <trkpt lat="45.35151" lon="6.15462">
        <ele>1583</ele>
        <time>2016-08-27T13:08:48Z</time>
      </trkpt>
      <trkpt lat="45.35156" lon="6.15456">
        <ele>1583</ele>
        <time>2016-08-27T13:08:53Z</time>
      </trkpt>
      <trkpt lat="45.35158" lon="6.15449">
        <ele>1583</ele>
        <time>2016-08-27T13:08:58Z</time>
      </trkpt>
      <trkpt lat="45.35161" lon="6.15444">
        <ele>1583</ele>
        <time>2016-08-27T13:09:03Z</time>
      </trkpt>
      <trkpt lat="45.35167" lon="6.1544">
        <ele>1584</ele>
        <time>2016-08-27T13:09:08Z</time>
      </trkpt>
      <trkpt lat="45.35171" lon="6.15436">
        <ele>1584</ele>
        <time>2016-08-27T13:09:13Z</time>
      </trkpt>
      <trkpt lat="45.35173" lon="6.1543">
        <ele>1583</ele>
        <time>2016-08-27T13:09:18Z</time>
      </trkpt>
      <trkpt lat="45.35177" lon="6.15424">
        <ele>1585</ele>
        <time>2016-08-27T13:09:23Z</time>
      </trkpt>
      <trkpt lat="45.35183" lon="6.1542">
        <ele>1586</ele>
        <time>2016-08-27T13:09:28Z</time>
      </trkpt>
      <trkpt lat="45.35187" lon="6.15416">
        <ele>1587</ele>
        <time>2016-08-27T13:09:33Z</time>
      </trkpt>
      <trkpt lat="45.35193" lon="6.15413">
        <ele>1588</ele>
        <time>2016-08-27T13:09:38Z</time>
      </trkpt>
      <trkpt lat="45.35195" lon="6.15409">
        <ele>1591</ele>
        <time>2016-08-27T13:09:43Z</time>
      </trkpt>
      <trkpt lat="45.35198" lon="6.15403">
        <ele>1593</ele>
        <time>2016-08-27T13:09:48Z</time>
      </trkpt>
      <trkpt lat="45.35199" lon="6.15398">
        <ele>1598</ele>
        <time>2016-08-27T13:09:53Z</time>
      </trkpt>
      <trkpt lat="45.35201" lon="6.15392">
        <ele>1601</ele>
        <time>2016-08-27T13:09:58Z</time>
      </trkpt>
      <trkpt lat="45.35205" lon="6.15387">
        <ele>1603</ele>
        <time>2016-08-27T13:10:03Z</time>
      </trkpt>
      <trkpt lat="45.35209" lon="6.15384">
        <ele>1602</ele>
        <time>2016-08-27T13:10:08Z</time>
      </trkpt>
      <trkpt lat="45.35214" lon="6.15379">
        <ele>1603</ele>
        <time>2016-08-27T13:10:13Z</time>
      </trkpt>
      <trkpt lat="45.35216" lon="6.15374">
        <ele>1603</ele>
        <time>2016-08-27T13:10:18Z</time>
      </trkpt>
      <trkpt lat="45.3522" lon="6.1537">
        <ele>1603</ele>
        <time>2016-08-27T13:10:23Z</time>
      </trkpt>
      <trkpt lat="45.35224" lon="6.15365">
        <ele>1605</ele>
        <time>2016-08-27T13:10:28Z</time>
      </trkpt>
      <trkpt lat="45.35229" lon="6.1536">
        <ele>1606</ele>
        <time>2016-08-27T13:10:33Z</time>
      </trkpt>
      <trkpt lat="45.35233" lon="6.15357">
        <ele>1604</ele>
        <time>2016-08-27T13:10:38Z</time>
      </trkpt>
      <trkpt lat="45.35238" lon="6.15355">
        <ele>1603</ele>
        <time>2016-08-27T13:10:43Z</time>
      </trkpt>
      <trkpt lat="45.35241" lon="6.15353">
        <ele>1601</ele>
        <time>2016-08-27T13:10:48Z</time>
      </trkpt>
      <trkpt lat="45.35245" lon="6.15352">
        <ele>1600</ele>
        <time>2016-08-27T13:10:53Z</time>
      </trkpt>
      <trkpt lat="45.35248" lon="6.1535">
        <ele>1598</ele>
        <time>2016-08-27T13:10:58Z</time>
      </trkpt>
      <trkpt lat="45.35252" lon="6.1535">
        <ele>1598</ele>
        <time>2016-08-27T13:11:03Z</time>
      </trkpt>
      <trkpt lat="45.35253" lon="6.15346">
        <ele>1597</ele>
        <time>2016-08-27T13:11:08Z</time>
      </trkpt>
      <trkpt lat="45.35254" lon="6.15341">
        <ele>1600</ele>
        <time>2016-08-27T13:11:13Z</time>
      </trkpt>
      <trkpt lat="45.35255" lon="6.15339">
        <ele>1599</ele>
        <time>2016-08-27T13:11:18Z</time>
      </trkpt>
      <trkpt lat="45.35258" lon="6.15337">
        <ele>1598</ele>
        <time>2016-08-27T13:11:23Z</time>
      </trkpt>
      <trkpt lat="45.3526" lon="6.15335">
        <ele>1597</ele>
        <time>2016-08-27T13:11:28Z</time>
      </trkpt>
      <trkpt lat="45.35262" lon="6.15333">
        <ele>1595</ele>
        <time>2016-08-27T13:11:33Z</time>
      </trkpt>
      <trkpt lat="45.35267" lon="6.1533">
        <ele>1596</ele>
        <time>2016-08-27T13:11:38Z</time>
      </trkpt>
      <trkpt lat="45.35271" lon="6.1533">
        <ele>1594</ele>
        <time>2016-08-27T13:11:43Z</time>
      </trkpt>
      <trkpt lat="45.35274" lon="6.15329">
        <ele>1592</ele>
        <time>2016-08-27T13:11:48Z</time>
      </trkpt>
      <trkpt lat="45.35275" lon="6.1533">
        <ele>1589</ele>
        <time>2016-08-27T13:11:53Z</time>
      </trkpt>
      <trkpt lat="45.35275" lon="6.15329">
        <ele>1586</ele>
        <time>2016-08-27T13:11:58Z</time>
      </trkpt>
      <trkpt lat="45.35275" lon="6.15325">
        <ele>1587</ele>
        <time>2016-08-27T13:12:03Z</time>
      </trkpt>
      <trkpt lat="45.35275" lon="6.15323">
        <ele>1587</ele>
        <time>2016-08-27T13:12:08Z</time>
      </trkpt>
      <trkpt lat="45.3528" lon="6.15321">
        <ele>1589</ele>
        <time>2016-08-27T13:12:13Z</time>
      </trkpt>
      <trkpt lat="45.35282" lon="6.15317">
        <ele>1592</ele>
        <time>2016-08-27T13:12:18Z</time>
      </trkpt>
      <trkpt lat="45.35286" lon="6.15314">
        <ele>1594</ele>
        <time>2016-08-27T13:12:23Z</time>
      </trkpt>
      <trkpt lat="45.35289" lon="6.15313">
        <ele>1593</ele>
        <time>2016-08-27T13:12:28Z</time>
      </trkpt>
      <trkpt lat="45.35291" lon="6.15309">
        <ele>1592</ele>
        <time>2016-08-27T13:12:33Z</time>
      </trkpt>
      <trkpt lat="45.35294" lon="6.15306">
        <ele>1592</ele>
        <time>2016-08-27T13:12:38Z</time>
      </trkpt>
      <trkpt lat="45.35299" lon="6.15304">
        <ele>1591</ele>
        <time>2016-08-27T13:12:43Z</time>
      </trkpt>
      <trkpt lat="45.35303" lon="6.15303">
        <ele>1589</ele>
        <time>2016-08-27T13:12:48Z</time>
      </trkpt>
      <trkpt lat="45.35309" lon="6.15301">
        <ele>1588</ele>
        <time>2016-08-27T13:12:53Z</time>
      </trkpt>
      <trkpt lat="45.35314" lon="6.153">
        <ele>1586</ele>
        <time>2016-08-27T13:12:58Z</time>
      </trkpt>
      <trkpt lat="45.35322" lon="6.153">
        <ele>1587</ele>
        <time>2016-08-27T13:13:03Z</time>
      </trkpt>
      <trkpt lat="45.35328" lon="6.15299">
        <ele>1585</ele>
        <time>2016-08-27T13:13:08Z</time>
      </trkpt>
      <trkpt lat="45.35333" lon="6.15298">
        <ele>1585</ele>
        <time>2016-08-27T13:13:13Z</time>
      </trkpt>
      <trkpt lat="45.35337" lon="6.153">
        <ele>1582</ele>
        <time>2016-08-27T13:13:18Z</time>
      </trkpt>
      <trkpt lat="45.35342" lon="6.15297">
        <ele>1582</ele>
        <time>2016-08-27T13:13:23Z</time>
      </trkpt>
      <trkpt lat="45.35347" lon="6.15295">
        <ele>1582</ele>
        <time>2016-08-27T13:13:28Z</time>
      </trkpt>
      <trkpt lat="45.35352" lon="6.15291">
        <ele>1582</ele>
        <time>2016-08-27T13:13:33Z</time>
      </trkpt>
      <trkpt lat="45.35354" lon="6.15289">
        <ele>1582</ele>
        <time>2016-08-27T13:13:38Z</time>
      </trkpt>
      <trkpt lat="45.35354" lon="6.15287">
        <ele>1580</ele>
        <time>2016-08-27T13:13:43Z</time>
      </trkpt>
      <trkpt lat="45.35356" lon="6.15286">
        <ele>1578</ele>
        <time>2016-08-27T13:13:48Z</time>
      </trkpt>
      <trkpt lat="45.35357" lon="6.15282">
        <ele>1576</ele>
        <time>2016-08-27T13:13:53Z</time>
      </trkpt>
      <trkpt lat="45.35361" lon="6.1528">
        <ele>1575</ele>
        <time>2016-08-27T13:13:58Z</time>
      </trkpt>
      <trkpt lat="45.35363" lon="6.15278">
        <ele>1575</ele>
        <time>2016-08-27T13:14:03Z</time>
      </trkpt>
      <trkpt lat="45.35366" lon="6.15276">
        <ele>1575</ele>
        <time>2016-08-27T13:14:08Z</time>
      </trkpt>
      <trkpt lat="45.3537" lon="6.15277">
        <ele>1575</ele>
        <time>2016-08-27T13:14:13Z</time>
      </trkpt>
      <trkpt lat="45.3537" lon="6.15276">
        <ele>1573</ele>
        <time>2016-08-27T13:14:18Z</time>
      </trkpt>
      <trkpt lat="45.35367" lon="6.15271">
        <ele>1571</ele>
        <time>2016-08-27T13:14:23Z</time>
      </trkpt>
      <trkpt lat="45.35367" lon="6.15267">
        <ele>1572</ele>
        <time>2016-08-27T13:14:28Z</time>
      </trkpt>
      <trkpt lat="45.35367" lon="6.15263">
        <ele>1572</ele>
        <time>2016-08-27T13:14:33Z</time>
      </trkpt>
      <trkpt lat="45.3537" lon="6.15261">
        <ele>1572</ele>
        <time>2016-08-27T13:14:38Z</time>
      </trkpt>
      <trkpt lat="45.35375" lon="6.15261">
        <ele>1571</ele>
        <time>2016-08-27T13:14:43Z</time>
      </trkpt>
      <trkpt lat="45.35378" lon="6.1526">
        <ele>1570</ele>
        <time>2016-08-27T13:14:48Z</time>
      </trkpt>
      <trkpt lat="45.35384" lon="6.15257">
        <ele>1570</ele>
        <time>2016-08-27T13:14:53Z</time>
      </trkpt>
      <trkpt lat="45.35386" lon="6.15253">
        <ele>1567</ele>
        <time>2016-08-27T13:14:58Z</time>
      </trkpt>
      <trkpt lat="45.35386" lon="6.15248">
        <ele>1563</ele>
        <time>2016-08-27T13:15:03Z</time>
      </trkpt>
      <trkpt lat="45.35389" lon="6.15245">
        <ele>1562</ele>
        <time>2016-08-27T13:15:08Z</time>
      </trkpt>
      <trkpt lat="45.35391" lon="6.15239">
        <ele>1562</ele>
        <time>2016-08-27T13:15:13Z</time>
      </trkpt>
      <trkpt lat="45.35393" lon="6.15234">
        <ele>1560</ele>
        <time>2016-08-27T13:15:18Z</time>
      </trkpt>
      <trkpt lat="45.35399" lon="6.15231">
        <ele>1560</ele>
        <time>2016-08-27T13:15:23Z</time>
      </trkpt>
      <trkpt lat="45.35402" lon="6.15223">
        <ele>1562</ele>
        <time>2016-08-27T13:15:28Z</time>
      </trkpt>
      <trkpt lat="45.35406" lon="6.15221">
        <ele>1561</ele>
        <time>2016-08-27T13:15:33Z</time>
      </trkpt>
      <trkpt lat="45.35411" lon="6.15215">
        <ele>1561</ele>
        <time>2016-08-27T13:15:38Z</time>
      </trkpt>
      <trkpt lat="45.35416" lon="6.15215">
        <ele>1559</ele>
        <time>2016-08-27T13:15:43Z</time>
      </trkpt>
      <trkpt lat="45.35421" lon="6.15215">
        <ele>1560</ele>
        <time>2016-08-27T13:15:48Z</time>
      </trkpt>
      <trkpt lat="45.35425" lon="6.15216">
        <ele>1559</ele>
        <time>2016-08-27T13:15:53Z</time>
      </trkpt>
      <trkpt lat="45.35428" lon="6.15211">
        <ele>1562</ele>
        <time>2016-08-27T13:15:58Z</time>
      </trkpt>
      <trkpt lat="45.35432" lon="6.15211">
        <ele>1563</ele>
        <time>2016-08-27T13:16:03Z</time>
      </trkpt>
      <trkpt lat="45.35437" lon="6.15214">
        <ele>1563</ele>
        <time>2016-08-27T13:16:08Z</time>
      </trkpt>
      <trkpt lat="45.35442" lon="6.15218">
        <ele>1561</ele>
        <time>2016-08-27T13:16:13Z</time>
      </trkpt>
      <trkpt lat="45.35444" lon="6.15217">
        <ele>1561</ele>
        <time>2016-08-27T13:16:18Z</time>
      </trkpt>
      <trkpt lat="45.35447" lon="6.15218">
        <ele>1559</ele>
        <time>2016-08-27T13:16:23Z</time>
      </trkpt>
      <trkpt lat="45.35452" lon="6.15224">
        <ele>1556</ele>
        <time>2016-08-27T13:16:28Z</time>
      </trkpt>
      <trkpt lat="45.35457" lon="6.15231">
        <ele>1554</ele>
        <time>2016-08-27T13:16:33Z</time>
      </trkpt>
      <trkpt lat="45.3546" lon="6.15233">
        <ele>1552</ele>
        <time>2016-08-27T13:16:38Z</time>
      </trkpt>
      <trkpt lat="45.35462" lon="6.15234">
        <ele>1552</ele>
        <time>2016-08-27T13:16:43Z</time>
      </trkpt>
      <trkpt lat="45.35467" lon="6.15238">
        <ele>1552</ele>
        <time>2016-08-27T13:16:48Z</time>
      </trkpt>
      <trkpt lat="45.35473" lon="6.15242">
        <ele>1551</ele>
        <time>2016-08-27T13:16:53Z</time>
      </trkpt>
      <trkpt lat="45.35478" lon="6.15247">
        <ele>1550</ele>
        <time>2016-08-27T13:16:58Z</time>
      </trkpt>
      <trkpt lat="45.35481" lon="6.15251">
        <ele>1549</ele>
        <time>2016-08-27T13:17:03Z</time>
      </trkpt>
      <trkpt lat="45.35484" lon="6.15251">
        <ele>1548</ele>
        <time>2016-08-27T13:17:08Z</time>
      </trkpt>
      <trkpt lat="45.35486" lon="6.1525">
        <ele>1548</ele>
        <time>2016-08-27T13:17:13Z</time>
      </trkpt>
      <trkpt lat="45.35485" lon="6.1525">
        <ele>1547</ele>
        <time>2016-08-27T13:17:18Z</time>
      </trkpt>
      <trkpt lat="45.3549" lon="6.15254">
        <ele>1546</ele>
        <time>2016-08-27T13:17:23Z</time>
      </trkpt>
      <trkpt lat="45.35491" lon="6.15255">
        <ele>1543</ele>
        <time>2016-08-27T13:17:28Z</time>
      </trkpt>
      <trkpt lat="45.35496" lon="6.15257">
        <ele>1540</ele>
        <time>2016-08-27T13:17:33Z</time>
      </trkpt>
      <trkpt lat="45.35501" lon="6.15261">
        <ele>1538</ele>
        <time>2016-08-27T13:17:38Z</time>
      </trkpt>
      <trkpt lat="45.35503" lon="6.1526">
        <ele>1535</ele>
        <time>2016-08-27T13:17:43Z</time>
      </trkpt>
      <trkpt lat="45.35505" lon="6.1526">
        <ele>1534</ele>
        <time>2016-08-27T13:17:48Z</time>
      </trkpt>
      <trkpt lat="45.35504" lon="6.1526">
        <ele>1532</ele>
        <time>2016-08-27T13:17:53Z</time>
      </trkpt>
      <trkpt lat="45.35505" lon="6.15258">
        <ele>1530</ele>
        <time>2016-08-27T13:17:58Z</time>
      </trkpt>
      <trkpt lat="45.35507" lon="6.15256">
        <ele>1530</ele>
        <time>2016-08-27T13:18:03Z</time>
      </trkpt>
      <trkpt lat="45.35508" lon="6.15254">
        <ele>1528</ele>
        <time>2016-08-27T13:18:08Z</time>
      </trkpt>
      <trkpt lat="45.35512" lon="6.15251">
        <ele>1528</ele>
        <time>2016-08-27T13:18:13Z</time>
      </trkpt>
      <trkpt lat="45.35513" lon="6.1525">
        <ele>1528</ele>
        <time>2016-08-27T13:18:18Z</time>
      </trkpt>
      <trkpt lat="45.35513" lon="6.15247">
        <ele>1526</ele>
        <time>2016-08-27T13:18:23Z</time>
      </trkpt>
      <trkpt lat="45.35514" lon="6.15246">
        <ele>1524</ele>
        <time>2016-08-27T13:18:28Z</time>
      </trkpt>
      <trkpt lat="45.35509" lon="6.15244">
        <ele>1522</ele>
        <time>2016-08-27T13:18:33Z</time>
      </trkpt>
      <trkpt lat="45.35506" lon="6.15239">
        <ele>1521</ele>
        <time>2016-08-27T13:18:38Z</time>
      </trkpt>
      <trkpt lat="45.35507" lon="6.15235">
        <ele>1521</ele>
        <time>2016-08-27T13:18:43Z</time>
      </trkpt>
      <trkpt lat="45.35504" lon="6.15229">
        <ele>1521</ele>
        <time>2016-08-27T13:18:48Z</time>
      </trkpt>
      <trkpt lat="45.35505" lon="6.15231">
        <ele>1521</ele>
        <time>2016-08-27T13:18:53Z</time>
      </trkpt>
      <trkpt lat="45.35506" lon="6.15235">
        <ele>1515</ele>
        <time>2016-08-27T13:18:58Z</time>
      </trkpt>
      <trkpt lat="45.35508" lon="6.15236">
        <ele>1513</ele>
        <time>2016-08-27T13:19:03Z</time>
      </trkpt>
      <trkpt lat="45.35511" lon="6.15236">
        <ele>1511</ele>
        <time>2016-08-27T13:19:08Z</time>
      </trkpt>
      <trkpt lat="45.35514" lon="6.15235">
        <ele>1509</ele>
        <time>2016-08-27T13:19:13Z</time>
      </trkpt>
      <trkpt lat="45.35513" lon="6.1523">
        <ele>1508</ele>
        <time>2016-08-27T13:19:18Z</time>
      </trkpt>
      <trkpt lat="45.35512" lon="6.15228">
        <ele>1507</ele>
        <time>2016-08-27T13:19:23Z</time>
      </trkpt>
      <trkpt lat="45.35513" lon="6.15226">
        <ele>1506</ele>
        <time>2016-08-27T13:19:28Z</time>
      </trkpt>
      <trkpt lat="45.35513" lon="6.15224">
        <ele>1504</ele>
        <time>2016-08-27T13:19:33Z</time>
      </trkpt>
      <trkpt lat="45.35513" lon="6.15221">
        <ele>1503</ele>
        <time>2016-08-27T13:19:38Z</time>
      </trkpt>
      <trkpt lat="45.35515" lon="6.15217">
        <ele>1504</ele>
        <time>2016-08-27T13:19:43Z</time>
      </trkpt>
      <trkpt lat="45.35514" lon="6.15214">
        <ele>1502</ele>
        <time>2016-08-27T13:19:48Z</time>
      </trkpt>
      <trkpt lat="45.35516" lon="6.15216">
        <ele>1501</ele>
        <time>2016-08-27T13:19:53Z</time>
      </trkpt>
      <trkpt lat="45.35518" lon="6.15212">
        <ele>1504</ele>
        <time>2016-08-27T13:19:58Z</time>
      </trkpt>
      <trkpt lat="45.35516" lon="6.1521">
        <ele>1504</ele>
        <time>2016-08-27T13:20:03Z</time>
      </trkpt>
      <trkpt lat="45.35518" lon="6.15207">
        <ele>1504</ele>
        <time>2016-08-27T13:20:08Z</time>
      </trkpt>
      <trkpt lat="45.35519" lon="6.15203">
        <ele>1505</ele>
        <time>2016-08-27T13:20:13Z</time>
      </trkpt>
      <trkpt lat="45.35519" lon="6.15201">
        <ele>1503</ele>
        <time>2016-08-27T13:20:18Z</time>
      </trkpt>
      <trkpt lat="45.35519" lon="6.15198">
        <ele>1501</ele>
        <time>2016-08-27T13:20:23Z</time>
      </trkpt>
      <trkpt lat="45.3552" lon="6.15196">
        <ele>1500</ele>
        <time>2016-08-27T13:20:28Z</time>
      </trkpt>
      <trkpt lat="45.35519" lon="6.15195">
        <ele>1497</ele>
        <time>2016-08-27T13:20:33Z</time>
      </trkpt>
      <trkpt lat="45.35519" lon="6.15192">
        <ele>1496</ele>
        <time>2016-08-27T13:20:38Z</time>
      </trkpt>
      <trkpt lat="45.35521" lon="6.15191">
        <ele>1499</ele>
        <time>2016-08-27T13:20:43Z</time>
      </trkpt>
      <trkpt lat="45.35526" lon="6.15192">
        <ele>1497</ele>
        <time>2016-08-27T13:20:48Z</time>
      </trkpt>
      <trkpt lat="45.35528" lon="6.15187">
        <ele>1500</ele>
        <time>2016-08-27T13:20:53Z</time>
      </trkpt>
      <trkpt lat="45.35529" lon="6.15183">
        <ele>1501</ele>
        <time>2016-08-27T13:20:58Z</time>
      </trkpt>
      <trkpt lat="45.35529" lon="6.1518">
        <ele>1500</ele>
        <time>2016-08-27T13:21:03Z</time>
      </trkpt>
      <trkpt lat="45.35527" lon="6.15175">
        <ele>1500</ele>
        <time>2016-08-27T13:21:08Z</time>
      </trkpt>
      <trkpt lat="45.35524" lon="6.15171">
        <ele>1498</ele>
        <time>2016-08-27T13:21:13Z</time>
      </trkpt>
      <trkpt lat="45.35522" lon="6.15166">
        <ele>1499</ele>
        <time>2016-08-27T13:21:18Z</time>
      </trkpt>
      <trkpt lat="45.35523" lon="6.15166">
        <ele>1497</ele>
        <time>2016-08-27T13:21:23Z</time>
      </trkpt>
      <trkpt lat="45.35523" lon="6.15164">
        <ele>1496</ele>
        <time>2016-08-27T13:21:28Z</time>
      </trkpt>
      <trkpt lat="45.35525" lon="6.15166">
        <ele>1489</ele>
        <time>2016-08-27T13:21:33Z</time>
      </trkpt>
      <trkpt lat="45.35528" lon="6.15166">
        <ele>1487</ele>
        <time>2016-08-27T13:21:38Z</time>
      </trkpt>
      <trkpt lat="45.35529" lon="6.15162">
        <ele>1485</ele>
        <time>2016-08-27T13:21:43Z</time>
      </trkpt>
      <trkpt lat="45.35532" lon="6.15161">
        <ele>1485</ele>
        <time>2016-08-27T13:21:48Z</time>
      </trkpt>
      <trkpt lat="45.35531" lon="6.1516">
        <ele>1485</ele>
        <time>2016-08-27T13:21:53Z</time>
      </trkpt>
      <trkpt lat="45.3553" lon="6.15155">
        <ele>1487</ele>
        <time>2016-08-27T13:21:58Z</time>
      </trkpt>
      <trkpt lat="45.35528" lon="6.15152">
        <ele>1490</ele>
        <time>2016-08-27T13:22:03Z</time>
      </trkpt>
      <trkpt lat="45.35527" lon="6.15148">
        <ele>1492</ele>
        <time>2016-08-27T13:22:08Z</time>
      </trkpt>
      <trkpt lat="45.35526" lon="6.15147">
        <ele>1494</ele>
        <time>2016-08-27T13:22:13Z</time>
      </trkpt>
      <trkpt lat="45.35527" lon="6.15144">
        <ele>1493</ele>
        <time>2016-08-27T13:22:18Z</time>
      </trkpt>
      <trkpt lat="45.35529" lon="6.15147">
        <ele>1486</ele>
        <time>2016-08-27T13:22:23Z</time>
      </trkpt>
      <trkpt lat="45.3553" lon="6.15147">
        <ele>1485</ele>
        <time>2016-08-27T13:22:28Z</time>
      </trkpt>
      <trkpt lat="45.35531" lon="6.15146">
        <ele>1485</ele>
        <time>2016-08-27T13:22:33Z</time>
      </trkpt>
      <trkpt lat="45.35536" lon="6.15148">
        <ele>1480</ele>
        <time>2016-08-27T13:22:38Z</time>
      </trkpt>
      <trkpt lat="45.3554" lon="6.15149">
        <ele>1477</ele>
        <time>2016-08-27T13:22:43Z</time>
      </trkpt>
      <trkpt lat="45.35545" lon="6.1515">
        <ele>1475</ele>
        <time>2016-08-27T13:22:48Z</time>
      </trkpt>
      <trkpt lat="45.35549" lon="6.15153">
        <ele>1471</ele>
        <time>2016-08-27T13:22:53Z</time>
      </trkpt>
      <trkpt lat="45.35553" lon="6.15155">
        <ele>1469</ele>
        <time>2016-08-27T13:22:58Z</time>
      </trkpt>
      <trkpt lat="45.35558" lon="6.15155">
        <ele>1469</ele>
        <time>2016-08-27T13:23:03Z</time>
      </trkpt>
      <trkpt lat="45.35561" lon="6.15154">
        <ele>1468</ele>
        <time>2016-08-27T13:23:08Z</time>
      </trkpt>
      <trkpt lat="45.35565" lon="6.15154">
        <ele>1469</ele>
        <time>2016-08-27T13:23:13Z</time>
      </trkpt>
      <trkpt lat="45.35567" lon="6.15153">
        <ele>1469</ele>
        <time>2016-08-27T13:23:18Z</time>
      </trkpt>
      <trkpt lat="45.35569" lon="6.15152">
        <ele>1470</ele>
        <time>2016-08-27T13:23:23Z</time>
      </trkpt>
      <trkpt lat="45.35571" lon="6.15151">
        <ele>1470</ele>
        <time>2016-08-27T13:23:28Z</time>
      </trkpt>
      <trkpt lat="45.35574" lon="6.15149">
        <ele>1470</ele>
        <time>2016-08-27T13:23:33Z</time>
      </trkpt>
      <trkpt lat="45.35576" lon="6.15149">
        <ele>1470</ele>
        <time>2016-08-27T13:23:38Z</time>
      </trkpt>
      <trkpt lat="45.35581" lon="6.15148">
        <ele>1470</ele>
        <time>2016-08-27T13:23:43Z</time>
      </trkpt>
      <trkpt lat="45.35583" lon="6.15147">
        <ele>1466</ele>
        <time>2016-08-27T13:23:48Z</time>
      </trkpt>
      <trkpt lat="45.35586" lon="6.15142">
        <ele>1467</ele>
        <time>2016-08-27T13:23:53Z</time>
      </trkpt>
      <trkpt lat="45.35585" lon="6.15139">
        <ele>1466</ele>
        <time>2016-08-27T13:23:58Z</time>
      </trkpt>
      <trkpt lat="45.35585" lon="6.15139">
        <ele>1463</ele>
        <time>2016-08-27T13:24:03Z</time>
      </trkpt>
      <trkpt lat="45.35588" lon="6.15141">
        <ele>1460</ele>
        <time>2016-08-27T13:24:08Z</time>
      </trkpt>
      <trkpt lat="45.35591" lon="6.15143">
        <ele>1457</ele>
        <time>2016-08-27T13:24:13Z</time>
      </trkpt>
      <trkpt lat="45.35593" lon="6.1514">
        <ele>1456</ele>
        <time>2016-08-27T13:24:18Z</time>
      </trkpt>
      <trkpt lat="45.35597" lon="6.15135">
        <ele>1456</ele>
        <time>2016-08-27T13:24:23Z</time>
      </trkpt>
      <trkpt lat="45.35599" lon="6.15131">
        <ele>1457</ele>
        <time>2016-08-27T13:24:28Z</time>
      </trkpt>
      <trkpt lat="45.356" lon="6.15125">
        <ele>1460</ele>
        <time>2016-08-27T13:24:33Z</time>
      </trkpt>
      <trkpt lat="45.35603" lon="6.15121">
        <ele>1460</ele>
        <time>2016-08-27T13:24:38Z</time>
      </trkpt>
      <trkpt lat="45.35606" lon="6.15117">
        <ele>1460</ele>
        <time>2016-08-27T13:24:43Z</time>
      </trkpt>
      <trkpt lat="45.35607" lon="6.15117">
        <ele>1456</ele>
        <time>2016-08-27T13:24:48Z</time>
      </trkpt>
      <trkpt lat="45.35611" lon="6.15111">
        <ele>1457</ele>
        <time>2016-08-27T13:24:53Z</time>
      </trkpt>
      <trkpt lat="45.35615" lon="6.15109">
        <ele>1458</ele>
        <time>2016-08-27T13:24:58Z</time>
      </trkpt>
      <trkpt lat="45.35614" lon="6.15105">
        <ele>1459</ele>
        <time>2016-08-27T13:25:03Z</time>
      </trkpt>
      <trkpt lat="45.35615" lon="6.151">
        <ele>1460</ele>
        <time>2016-08-27T13:25:08Z</time>
      </trkpt>
      <trkpt lat="45.35617" lon="6.15094">
        <ele>1456</ele>
        <time>2016-08-27T13:25:13Z</time>
      </trkpt>
      <trkpt lat="45.35621" lon="6.15091">
        <ele>1450</ele>
        <time>2016-08-27T13:25:18Z</time>
      </trkpt>
      <trkpt lat="45.35626" lon="6.15088">
        <ele>1448</ele>
        <time>2016-08-27T13:25:23Z</time>
      </trkpt>
      <trkpt lat="45.35631" lon="6.15085">
        <ele>1447</ele>
        <time>2016-08-27T13:25:28Z</time>
      </trkpt>
      <trkpt lat="45.35637" lon="6.15081">
        <ele>1448</ele>
        <time>2016-08-27T13:25:33Z</time>
      </trkpt>
      <trkpt lat="45.35639" lon="6.15077">
        <ele>1448</ele>
        <time>2016-08-27T13:25:38Z</time>
      </trkpt>
      <trkpt lat="45.35642" lon="6.15074">
        <ele>1450</ele>
        <time>2016-08-27T13:25:43Z</time>
      </trkpt>
      <trkpt lat="45.35644" lon="6.1507">
        <ele>1450</ele>
        <time>2016-08-27T13:25:48Z</time>
      </trkpt>
      <trkpt lat="45.35649" lon="6.15065">
        <ele>1451</ele>
        <time>2016-08-27T13:25:53Z</time>
      </trkpt>
      <trkpt lat="45.35653" lon="6.15062">
        <ele>1452</ele>
        <time>2016-08-27T13:25:58Z</time>
      </trkpt>
      <trkpt lat="45.35656" lon="6.15058">
        <ele>1450</ele>
        <time>2016-08-27T13:26:03Z</time>
      </trkpt>
      <trkpt lat="45.35661" lon="6.15053">
        <ele>1448</ele>
        <time>2016-08-27T13:26:08Z</time>
      </trkpt>
      <trkpt lat="45.35665" lon="6.15048">
        <ele>1449</ele>
        <time>2016-08-27T13:26:13Z</time>
      </trkpt>
      <trkpt lat="45.35668" lon="6.15046">
        <ele>1449</ele>
        <time>2016-08-27T13:26:18Z</time>
      </trkpt>
      <trkpt lat="45.35673" lon="6.15043">
        <ele>1445</ele>
        <time>2016-08-27T13:26:23Z</time>
      </trkpt>
      <trkpt lat="45.35679" lon="6.15037">
        <ele>1442</ele>
        <time>2016-08-27T13:26:28Z</time>
      </trkpt>
      <trkpt lat="45.35684" lon="6.15035">
        <ele>1437</ele>
        <time>2016-08-27T13:26:33Z</time>
      </trkpt>
      <trkpt lat="45.3569" lon="6.1503">
        <ele>1435</ele>
        <time>2016-08-27T13:26:38Z</time>
      </trkpt>
      <trkpt lat="45.35692" lon="6.15025">
        <ele>1432</ele>
        <time>2016-08-27T13:26:43Z</time>
      </trkpt>
      <trkpt lat="45.35694" lon="6.15024">
        <ele>1430</ele>
        <time>2016-08-27T13:26:48Z</time>
      </trkpt>
      <trkpt lat="45.35693" lon="6.15023">
        <ele>1429</ele>
        <time>2016-08-27T13:26:53Z</time>
      </trkpt>
      <trkpt lat="45.35689" lon="6.15023">
        <ele>1430</ele>
        <time>2016-08-27T13:26:58Z</time>
      </trkpt>
      <trkpt lat="45.35688" lon="6.15022">
        <ele>1428</ele>
        <time>2016-08-27T13:27:03Z</time>
      </trkpt>
      <trkpt lat="45.35688" lon="6.15024">
        <ele>1429</ele>
        <time>2016-08-27T13:27:08Z</time>
      </trkpt>
      <trkpt lat="45.35686" lon="6.15022">
        <ele>1431</ele>
        <time>2016-08-27T13:27:13Z</time>
      </trkpt>
      <trkpt lat="45.35683" lon="6.15022">
        <ele>1427</ele>
        <time>2016-08-27T13:27:18Z</time>
      </trkpt>
      <trkpt lat="45.3568" lon="6.15024">
        <ele>1423</ele>
        <time>2016-08-27T13:27:23Z</time>
      </trkpt>
      <trkpt lat="45.35679" lon="6.15021">
        <ele>1422</ele>
        <time>2016-08-27T13:27:28Z</time>
      </trkpt>
      <trkpt lat="45.35675" lon="6.15015">
        <ele>1427</ele>
        <time>2016-08-27T13:27:33Z</time>
      </trkpt>
      <trkpt lat="45.35679" lon="6.15011">
        <ele>1428</ele>
        <time>2016-08-27T13:27:38Z</time>
      </trkpt>
      <trkpt lat="45.35681" lon="6.15009">
        <ele>1427</ele>
        <time>2016-08-27T13:27:43Z</time>
      </trkpt>
      <trkpt lat="45.35682" lon="6.15005">
        <ele>1427</ele>
        <time>2016-08-27T13:27:48Z</time>
      </trkpt>
      <trkpt lat="45.35685" lon="6.15005">
        <ele>1422</ele>
        <time>2016-08-27T13:27:53Z</time>
      </trkpt>
      <trkpt lat="45.35689" lon="6.15002">
        <ele>1420</ele>
        <time>2016-08-27T13:27:58Z</time>
      </trkpt>
      <trkpt lat="45.35691" lon="6.15">
        <ele>1422</ele>
        <time>2016-08-27T13:28:03Z</time>
      </trkpt>
      <trkpt lat="45.35692" lon="6.14999">
        <ele>1419</ele>
        <time>2016-08-27T13:28:08Z</time>
      </trkpt>
      <trkpt lat="45.35693" lon="6.14998">
        <ele>1415</ele>
        <time>2016-08-27T13:28:13Z</time>
      </trkpt>
      <trkpt lat="45.35698" lon="6.14998">
        <ele>1410</ele>
        <time>2016-08-27T13:28:18Z</time>
      </trkpt>
      <trkpt lat="45.35701" lon="6.14998">
        <ele>1410</ele>
        <time>2016-08-27T13:28:23Z</time>
      </trkpt>
      <trkpt lat="45.35705" lon="6.14998">
        <ele>1406</ele>
        <time>2016-08-27T13:28:28Z</time>
      </trkpt>
      <trkpt lat="45.35709" lon="6.14998">
        <ele>1404</ele>
        <time>2016-08-27T13:28:33Z</time>
      </trkpt>
      <trkpt lat="45.35711" lon="6.14996">
        <ele>1403</ele>
        <time>2016-08-27T13:28:38Z</time>
      </trkpt>
      <trkpt lat="45.35716" lon="6.14995">
        <ele>1403</ele>
        <time>2016-08-27T13:28:43Z</time>
      </trkpt>
      <trkpt lat="45.35721" lon="6.14992">
        <ele>1404</ele>
        <time>2016-08-27T13:28:48Z</time>
      </trkpt>
      <trkpt lat="45.35723" lon="6.14989">
        <ele>1403</ele>
        <time>2016-08-27T13:28:53Z</time>
      </trkpt>
      <trkpt lat="45.35727" lon="6.14988">
        <ele>1401</ele>
        <time>2016-08-27T13:28:58Z</time>
      </trkpt>
      <trkpt lat="45.35728" lon="6.14982">
        <ele>1404</ele>
        <time>2016-08-27T13:29:03Z</time>
      </trkpt>
      <trkpt lat="45.35727" lon="6.14976">
        <ele>1410</ele>
        <time>2016-08-27T13:29:08Z</time>
      </trkpt>
      <trkpt lat="45.35729" lon="6.14976">
        <ele>1410</ele>
        <time>2016-08-27T13:29:13Z</time>
      </trkpt>
      <trkpt lat="45.35726" lon="6.14972">
        <ele>1411</ele>
        <time>2016-08-27T13:29:18Z</time>
      </trkpt>
      <trkpt lat="45.35726" lon="6.1497">
        <ele>1409</ele>
        <time>2016-08-27T13:29:23Z</time>
      </trkpt>
      <trkpt lat="45.3573" lon="6.14971">
        <ele>1402</ele>
        <time>2016-08-27T13:29:28Z</time>
      </trkpt>
      <trkpt lat="45.35732" lon="6.14971">
        <ele>1397</ele>
        <time>2016-08-27T13:29:33Z</time>
      </trkpt>
      <trkpt lat="45.35735" lon="6.14969">
        <ele>1395</ele>
        <time>2016-08-27T13:29:38Z</time>
      </trkpt>
      <trkpt lat="45.35739" lon="6.14967">
        <ele>1394</ele>
        <time>2016-08-27T13:29:43Z</time>
      </trkpt>
      <trkpt lat="45.3574" lon="6.14964">
        <ele>1392</ele>
        <time>2016-08-27T13:29:48Z</time>
      </trkpt>
      <trkpt lat="45.35744" lon="6.14961">
        <ele>1389</ele>
        <time>2016-08-27T13:29:53Z</time>
      </trkpt>
      <trkpt lat="45.35749" lon="6.14962">
        <ele>1387</ele>
        <time>2016-08-27T13:29:58Z</time>
      </trkpt>
      <trkpt lat="45.35755" lon="6.14961">
        <ele>1389</ele>
        <time>2016-08-27T13:30:03Z</time>
      </trkpt>
      <trkpt lat="45.35758" lon="6.1496">
        <ele>1387</ele>
        <time>2016-08-27T13:30:08Z</time>
      </trkpt>
      <trkpt lat="45.35764" lon="6.14957">
        <ele>1393</ele>
        <time>2016-08-27T13:30:13Z</time>
      </trkpt>
      <trkpt lat="45.35766" lon="6.14954">
        <ele>1390</ele>
        <time>2016-08-27T13:30:18Z</time>
      </trkpt>
      <trkpt lat="45.35766" lon="6.14951">
        <ele>1389</ele>
        <time>2016-08-27T13:30:23Z</time>
      </trkpt>
      <trkpt lat="45.35766" lon="6.14947">
        <ele>1390</ele>
        <time>2016-08-27T13:30:28Z</time>
      </trkpt>
      <trkpt lat="45.35768" lon="6.14942">
        <ele>1395</ele>
        <time>2016-08-27T13:30:33Z</time>
      </trkpt>
      <trkpt lat="45.35769" lon="6.14939">
        <ele>1396</ele>
        <time>2016-08-27T13:30:38Z</time>
      </trkpt>
      <trkpt lat="45.35772" lon="6.14937">
        <ele>1395</ele>
        <time>2016-08-27T13:30:43Z</time>
      </trkpt>
      <trkpt lat="45.35771" lon="6.14933">
        <ele>1392</ele>
        <time>2016-08-27T13:30:48Z</time>
      </trkpt>
      <trkpt lat="45.35771" lon="6.14933">
        <ele>1385</ele>
        <time>2016-08-27T13:30:53Z</time>
      </trkpt>
      <trkpt lat="45.3577" lon="6.14927">
        <ele>1381</ele>
        <time>2016-08-27T13:30:58Z</time>
      </trkpt>
      <trkpt lat="45.35767" lon="6.14924">
        <ele>1382</ele>
        <time>2016-08-27T13:31:03Z</time>
      </trkpt>
      <trkpt lat="45.35761" lon="6.14921">
        <ele>1381</ele>
        <time>2016-08-27T13:31:08Z</time>
      </trkpt>
      <trkpt lat="45.3576" lon="6.14918">
        <ele>1374</ele>
        <time>2016-08-27T13:31:13Z</time>
      </trkpt>
      <trkpt lat="45.35761" lon="6.14914">
        <ele>1372</ele>
        <time>2016-08-27T13:31:18Z</time>
      </trkpt>
      <trkpt lat="45.35759" lon="6.14911">
        <ele>1373</ele>
        <time>2016-08-27T13:31:23Z</time>
      </trkpt>
      <trkpt lat="45.35763" lon="6.14911">
        <ele>1372</ele>
        <time>2016-08-27T13:31:28Z</time>
      </trkpt>
      <trkpt lat="45.35765" lon="6.14906">
        <ele>1375</ele>
        <time>2016-08-27T13:31:33Z</time>
      </trkpt>
      <trkpt lat="45.3577" lon="6.14905">
        <ele>1370</ele>
        <time>2016-08-27T13:31:38Z</time>
      </trkpt>
      <trkpt lat="45.35772" lon="6.14902">
        <ele>1366</ele>
        <time>2016-08-27T13:31:43Z</time>
      </trkpt>
      <trkpt lat="45.35775" lon="6.14899">
        <ele>1363</ele>
        <time>2016-08-27T13:31:48Z</time>
      </trkpt>
      <trkpt lat="45.35777" lon="6.14897">
        <ele>1359</ele>
        <time>2016-08-27T13:31:53Z</time>
      </trkpt>
      <trkpt lat="45.35775" lon="6.14895">
        <ele>1359</ele>
        <time>2016-08-27T13:31:58Z</time>
      </trkpt>
      <trkpt lat="45.35779" lon="6.14893">
        <ele>1358</ele>
        <time>2016-08-27T13:32:03Z</time>
      </trkpt>
      <trkpt lat="45.35781" lon="6.14895">
        <ele>1354</ele>
        <time>2016-08-27T13:32:08Z</time>
      </trkpt>
      <trkpt lat="45.35785" lon="6.14895">
        <ele>1357</ele>
        <time>2016-08-27T13:32:13Z</time>
      </trkpt>
      <trkpt lat="45.3579" lon="6.14892">
        <ele>1360</ele>
        <time>2016-08-27T13:32:18Z</time>
      </trkpt>
      <trkpt lat="45.35794" lon="6.14888">
        <ele>1361</ele>
        <time>2016-08-27T13:32:23Z</time>
      </trkpt>
      <trkpt lat="45.35802" lon="6.14886">
        <ele>1367</ele>
        <time>2016-08-27T13:32:28Z</time>
      </trkpt>
      <trkpt lat="45.35808" lon="6.14883">
        <ele>1372</ele>
        <time>2016-08-27T13:32:33Z</time>
      </trkpt>
      <trkpt lat="45.35812" lon="6.14878">
        <ele>1381</ele>
        <time>2016-08-27T13:32:38Z</time>
      </trkpt>
      <trkpt lat="45.35816" lon="6.14873">
        <ele>1381</ele>
        <time>2016-08-27T13:32:43Z</time>
      </trkpt>
      <trkpt lat="45.3582" lon="6.14868">
        <ele>1383</ele>
        <time>2016-08-27T13:32:48Z</time>
      </trkpt>
      <trkpt lat="45.35822" lon="6.14867">
        <ele>1378</ele>
        <time>2016-08-27T13:32:53Z</time>
      </trkpt>
      <trkpt lat="45.35822" lon="6.14863">
        <ele>1376</ele>
        <time>2016-08-27T13:32:58Z</time>
      </trkpt>
      <trkpt lat="45.35825" lon="6.14857">
        <ele>1377</ele>
        <time>2016-08-27T13:33:03Z</time>
      </trkpt>
      <trkpt lat="45.35827" lon="6.14851">
        <ele>1377</ele>
        <time>2016-08-27T13:33:08Z</time>
      </trkpt>
      <trkpt lat="45.35825" lon="6.14845">
        <ele>1377</ele>
        <time>2016-08-27T13:33:13Z</time>
      </trkpt>
      <trkpt lat="45.35822" lon="6.14839">
        <ele>1370</ele>
        <time>2016-08-27T13:33:18Z</time>
      </trkpt>
      <trkpt lat="45.35822" lon="6.14834">
        <ele>1364</ele>
        <time>2016-08-27T13:33:23Z</time>
      </trkpt>
      <trkpt lat="45.35822" lon="6.14831">
        <ele>1359</ele>
        <time>2016-08-27T13:33:28Z</time>
      </trkpt>
      <trkpt lat="45.35818" lon="6.14828">
        <ele>1356</ele>
        <time>2016-08-27T13:33:33Z</time>
      </trkpt>
      <trkpt lat="45.35816" lon="6.14826">
        <ele>1351</ele>
        <time>2016-08-27T13:33:38Z</time>
      </trkpt>
      <trkpt lat="45.35815" lon="6.14823">
        <ele>1347</ele>
        <time>2016-08-27T13:33:43Z</time>
      </trkpt>
      <trkpt lat="45.35811" lon="6.14819">
        <ele>1345</ele>
        <time>2016-08-27T13:33:48Z</time>
      </trkpt>
      <trkpt lat="45.35809" lon="6.14813">
        <ele>1345</ele>
        <time>2016-08-27T13:33:53Z</time>
      </trkpt>
      <trkpt lat="45.3581" lon="6.1481">
        <ele>1343</ele>
        <time>2016-08-27T13:33:58Z</time>
      </trkpt>
      <trkpt lat="45.3581" lon="6.1481">
        <ele>1319.990356</ele>
        <time>2016-08-27T13:33:58Z</time>
      </trkpt>
      <trkpt lat="45.35806" lon="6.14805">
        <ele>1318.652222</ele>
        <time>2016-08-27T13:34:03Z</time>
      </trkpt>
      <trkpt lat="45.35805" lon="6.148">
        <ele>1317.541504</ele>
        <time>2016-08-27T13:34:08Z</time>
      </trkpt>
      <trkpt lat="45.35803" lon="6.14794">
        <ele>1316.00061</ele>
        <time>2016-08-27T13:34:13Z</time>
      </trkpt>
      <trkpt lat="45.35796" lon="6.14789">
        <ele>1314.401245</ele>
        <time>2016-08-27T13:34:18Z</time>
      </trkpt>
      <trkpt lat="45.35798" lon="6.14784">
        <ele>1313.400757</ele>
        <time>2016-08-27T13:34:23Z</time>
      </trkpt>
      <trkpt lat="45.35799" lon="6.1478">
        <ele>1312.61145</ele>
        <time>2016-08-27T13:34:28Z</time>
      </trkpt>
      <trkpt lat="45.35798" lon="6.14777">
        <ele>1312.052734</ele>
        <time>2016-08-27T13:34:33Z</time>
      </trkpt>
      <trkpt lat="45.35796" lon="6.14774">
        <ele>1311.009155</ele>
        <time>2016-08-27T13:34:38Z</time>
      </trkpt>
      <trkpt lat="45.35798" lon="6.14767">
        <ele>1309.684937</ele>
        <time>2016-08-27T13:34:43Z</time>
      </trkpt>
      <trkpt lat="45.35799" lon="6.14762">
        <ele>1308.768311</ele>
        <time>2016-08-27T13:34:48Z</time>
      </trkpt>
      <trkpt lat="45.35801" lon="6.14757">
        <ele>1307.846436</ele>
        <time>2016-08-27T13:34:53Z</time>
      </trkpt>
      <trkpt lat="45.358" lon="6.14751">
        <ele>1306.706055</ele>
        <time>2016-08-27T13:34:58Z</time>
      </trkpt>
      <trkpt lat="45.35799" lon="6.14745">
        <ele>1305.396729</ele>
        <time>2016-08-27T13:35:03Z</time>
      </trkpt>
      <trkpt lat="45.35799" lon="6.14739">
        <ele>1304.161743</ele>
        <time>2016-08-27T13:35:08Z</time>
      </trkpt>
      <trkpt lat="45.35797" lon="6.14734">
        <ele>1302.861206</ele>
        <time>2016-08-27T13:35:13Z</time>
      </trkpt>
      <trkpt lat="45.35796" lon="6.14726">
        <ele>1301.350586</ele>
        <time>2016-08-27T13:35:18Z</time>
      </trkpt>
      <trkpt lat="45.35795" lon="6.1472">
        <ele>1300.034302</ele>
        <time>2016-08-27T13:35:23Z</time>
      </trkpt>
      <trkpt lat="45.35791" lon="6.14716">
        <ele>1298.880981</ele>
        <time>2016-08-27T13:35:28Z</time>
      </trkpt>
      <trkpt lat="45.3579" lon="6.1471">
        <ele>1297.665771</ele>
        <time>2016-08-27T13:35:33Z</time>
      </trkpt>
      <trkpt lat="45.35792" lon="6.14706">
        <ele>1296.950806</ele>
        <time>2016-08-27T13:35:38Z</time>
      </trkpt>
      <trkpt lat="45.35793" lon="6.147">
        <ele>1295.945801</ele>
        <time>2016-08-27T13:35:43Z</time>
      </trkpt>
      <trkpt lat="45.35798" lon="6.14696">
        <ele>1295.66626</ele>
        <time>2016-08-27T13:35:48Z</time>
      </trkpt>
      <trkpt lat="45.358" lon="6.14692">
        <ele>1295.077271</ele>
        <time>2016-08-27T13:35:53Z</time>
      </trkpt>
      <trkpt lat="45.35796" lon="6.1469">
        <ele>1294.302856</ele>
        <time>2016-08-27T13:35:58Z</time>
      </trkpt>
      <trkpt lat="45.35788" lon="6.14688">
        <ele>1293.468994</ele>
        <time>2016-08-27T13:36:03Z</time>
      </trkpt>
      <trkpt lat="45.35779" lon="6.14687">
        <ele>1293.265137</ele>
        <time>2016-08-27T13:36:08Z</time>
      </trkpt>
      <trkpt lat="45.35772" lon="6.14687">
        <ele>1293.282227</ele>
        <time>2016-08-27T13:36:13Z</time>
      </trkpt>
      <trkpt lat="45.35765" lon="6.14687">
        <ele>1293.098999</ele>
        <time>2016-08-27T13:36:18Z</time>
      </trkpt>
      <trkpt lat="45.35755" lon="6.14686">
        <ele>1292.869873</ele>
        <time>2016-08-27T13:36:23Z</time>
      </trkpt>
      <trkpt lat="45.35749" lon="6.14688">
        <ele>1293.107788</ele>
        <time>2016-08-27T13:36:28Z</time>
      </trkpt>
      <trkpt lat="45.35744" lon="6.14691">
        <ele>1293.89502</ele>
        <time>2016-08-27T13:36:33Z</time>
      </trkpt>
      <trkpt lat="45.35739" lon="6.14695">
        <ele>1295.049438</ele>
        <time>2016-08-27T13:36:38Z</time>
      </trkpt>
      <trkpt lat="45.35733" lon="6.14698">
        <ele>1296.106201</ele>
        <time>2016-08-27T13:36:43Z</time>
      </trkpt>
      <trkpt lat="45.35726" lon="6.14697">
        <ele>1296.727173</ele>
        <time>2016-08-27T13:36:48Z</time>
      </trkpt>
      <trkpt lat="45.3573" lon="6.14701">
        <ele>1296.946655</ele>
        <time>2016-08-27T13:36:53Z</time>
      </trkpt>
      <trkpt lat="45.35731" lon="6.14701">
        <ele>1296.765503</ele>
        <time>2016-08-27T13:36:58Z</time>
      </trkpt>
      <trkpt lat="45.3573" lon="6.14702">
        <ele>1297.090576</ele>
        <time>2016-08-27T13:37:03Z</time>
      </trkpt>
      <trkpt lat="45.35724" lon="6.14702">
        <ele>1297.552979</ele>
        <time>2016-08-27T13:37:08Z</time>
      </trkpt>
      <trkpt lat="45.35718" lon="6.14705">
        <ele>1298.431519</ele>
        <time>2016-08-27T13:37:13Z</time>
      </trkpt>
      <trkpt lat="45.35714" lon="6.14705">
        <ele>1298.838013</ele>
        <time>2016-08-27T13:37:18Z</time>
      </trkpt>
      <trkpt lat="45.35709" lon="6.14701">
        <ele>1298.858765</ele>
        <time>2016-08-27T13:37:23Z</time>
      </trkpt>
      <trkpt lat="45.35708" lon="6.14701">
        <ele>1298.982422</ele>
        <time>2016-08-27T13:37:28Z</time>
      </trkpt>
      <trkpt lat="45.35707" lon="6.147">
        <ele>1298.910278</ele>
        <time>2016-08-27T13:37:33Z</time>
      </trkpt>
      <trkpt lat="45.35707" lon="6.14699">
        <ele>1298.809204</ele>
        <time>2016-08-27T13:37:38Z</time>
      </trkpt>
      <trkpt lat="45.35706" lon="6.14696">
        <ele>1298.577759</ele>
        <time>2016-08-27T13:37:43Z</time>
      </trkpt>
      <trkpt lat="45.35705" lon="6.14694">
        <ele>1298.546631</ele>
        <time>2016-08-27T13:37:48Z</time>
      </trkpt>
      <trkpt lat="45.35702" lon="6.14691">
        <ele>1298.536011</ele>
        <time>2016-08-27T13:37:53Z</time>
      </trkpt>
      <trkpt lat="45.35701" lon="6.14689">
        <ele>1298.5177</ele>
        <time>2016-08-27T13:37:58Z</time>
      </trkpt>
      <trkpt lat="45.35701" lon="6.14687">
        <ele>1298.411499</ele>
        <time>2016-08-27T13:38:03Z</time>
      </trkpt>
      <trkpt lat="45.35701" lon="6.14686">
        <ele>1298.231323</ele>
        <time>2016-08-27T13:38:08Z</time>
      </trkpt>
      <trkpt lat="45.35705" lon="6.14686">
        <ele>1297.809326</ele>
        <time>2016-08-27T13:38:13Z</time>
      </trkpt>
      <trkpt lat="45.35705" lon="6.14686">
        <ele>1297.753174</ele>
        <time>2016-08-27T13:38:18Z</time>
      </trkpt>
      <trkpt lat="45.35705" lon="6.14685">
        <ele>1297.703247</ele>
        <time>2016-08-27T13:38:23Z</time>
      </trkpt>
      <trkpt lat="45.35704" lon="6.14684">
        <ele>1297.76709</ele>
        <time>2016-08-27T13:38:28Z</time>
      </trkpt>
      <trkpt lat="45.35702" lon="6.14683">
        <ele>1297.964722</ele>
        <time>2016-08-27T13:38:33Z</time>
      </trkpt>
      <trkpt lat="45.35701" lon="6.14682">
        <ele>1298.23999</ele>
        <time>2016-08-27T13:38:38Z</time>
      </trkpt>
      <trkpt lat="45.35701" lon="6.14682">
        <ele>1298.156006</ele>
        <time>2016-08-27T13:38:43Z</time>
      </trkpt>
      <trkpt lat="45.357" lon="6.14681">
        <ele>1298.505981</ele>
        <time>2016-08-27T13:38:48Z</time>
      </trkpt>
      <trkpt lat="45.35698" lon="6.1468">
        <ele>1298.810425</ele>
        <time>2016-08-27T13:38:53Z</time>
      </trkpt>
      <trkpt lat="45.35698" lon="6.1468">
        <ele>1298.895508</ele>
        <time>2016-08-27T13:38:58Z</time>
      </trkpt>
      <trkpt lat="45.35698" lon="6.1468">
        <ele>1299.009521</ele>
        <time>2016-08-27T13:39:03Z</time>
      </trkpt>
      <trkpt lat="45.35697" lon="6.1468">
        <ele>1299.179565</ele>
        <time>2016-08-27T13:39:08Z</time>
      </trkpt>
      <trkpt lat="45.35696" lon="6.1468">
        <ele>1299.321777</ele>
        <time>2016-08-27T13:39:13Z</time>
      </trkpt>
      <trkpt lat="45.35696" lon="6.1468">
        <ele>1299.491821</ele>
        <time>2016-08-27T13:39:18Z</time>
      </trkpt>
      <trkpt lat="45.35695" lon="6.1468">
        <ele>1299.577148</ele>
        <time>2016-08-27T13:39:23Z</time>
      </trkpt>
      <trkpt lat="45.35695" lon="6.1468">
        <ele>1299.689819</ele>
        <time>2016-08-27T13:39:28Z</time>
      </trkpt>
      <trkpt lat="45.35695" lon="6.14679">
        <ele>1299.771606</ele>
        <time>2016-08-27T13:39:33Z</time>
      </trkpt>
      <trkpt lat="45.35695" lon="6.14673">
        <ele>1299.726196</ele>
        <time>2016-08-27T13:39:38Z</time>
      </trkpt>
      <trkpt lat="45.35696" lon="6.1467">
        <ele>1299.351196</ele>
        <time>2016-08-27T13:39:43Z</time>
      </trkpt>
      <trkpt lat="45.35701" lon="6.14667">
        <ele>1298.165283</ele>
        <time>2016-08-27T13:39:48Z</time>
      </trkpt>
      <trkpt lat="45.35702" lon="6.14665">
        <ele>1297.823853</ele>
        <time>2016-08-27T13:39:53Z</time>
      </trkpt>
      <trkpt lat="45.35701" lon="6.1466">
        <ele>1298.032959</ele>
        <time>2016-08-27T13:41:13Z</time>
      </trkpt>
      <trkpt lat="45.35704" lon="6.14656">
        <ele>1297.379639</ele>
        <time>2016-08-27T13:41:18Z</time>
      </trkpt>
      <trkpt lat="45.35707" lon="6.14651">
        <ele>1296.776611</ele>
        <time>2016-08-27T13:41:23Z</time>
      </trkpt>
      <trkpt lat="45.35708" lon="6.14645">
        <ele>1296.360352</ele>
        <time>2016-08-27T13:41:28Z</time>
      </trkpt>
      <trkpt lat="45.3571" lon="6.14639">
        <ele>1295.835449</ele>
        <time>2016-08-27T13:41:33Z</time>
      </trkpt>
      <trkpt lat="45.35712" lon="6.14633">
        <ele>1295.361694</ele>
        <time>2016-08-27T13:41:38Z</time>
      </trkpt>
      <trkpt lat="45.35714" lon="6.14626">
        <ele>1294.786133</ele>
        <time>2016-08-27T13:41:43Z</time>
      </trkpt>
      <trkpt lat="45.35715" lon="6.1462">
        <ele>1294.440063</ele>
        <time>2016-08-27T13:41:48Z</time>
      </trkpt>
      <trkpt lat="45.35717" lon="6.14614">
        <ele>1294.32251</ele>
        <time>2016-08-27T13:41:53Z</time>
      </trkpt>
      <trkpt lat="45.35718" lon="6.14608">
        <ele>1294.311646</ele>
        <time>2016-08-27T13:41:58Z</time>
      </trkpt>
      <trkpt lat="45.35719" lon="6.14601">
        <ele>1294.343994</ele>
        <time>2016-08-27T13:42:03Z</time>
      </trkpt>
      <trkpt lat="45.3572" lon="6.14595">
        <ele>1294.51062</ele>
        <time>2016-08-27T13:42:08Z</time>
      </trkpt>
      <trkpt lat="45.35721" lon="6.14589">
        <ele>1294.495483</ele>
        <time>2016-08-27T13:42:13Z</time>
      </trkpt>
      <trkpt lat="45.35729" lon="6.14574">
        <ele>1292.598999</ele>
        <time>2016-08-27T13:42:24Z</time>
      </trkpt>
      <trkpt lat="45.35729" lon="6.14567">
        <ele>1292.991943</ele>
        <time>2016-08-27T13:42:29Z</time>
      </trkpt>
      <trkpt lat="45.35728" lon="6.1456">
        <ele>1293.736938</ele>
        <time>2016-08-27T13:42:34Z</time>
      </trkpt>
      <trkpt lat="45.35728" lon="6.14554">
        <ele>1294.560913</ele>
        <time>2016-08-27T13:42:39Z</time>
      </trkpt>
      <trkpt lat="45.35728" lon="6.14547">
        <ele>1295.421997</ele>
        <time>2016-08-27T13:42:44Z</time>
      </trkpt>
      <trkpt lat="45.35729" lon="6.14541">
        <ele>1296.130371</ele>
        <time>2016-08-27T13:42:49Z</time>
      </trkpt>
      <trkpt lat="45.3573" lon="6.14534">
        <ele>1296.786865</ele>
        <time>2016-08-27T13:42:54Z</time>
      </trkpt>
      <trkpt lat="45.35731" lon="6.14528">
        <ele>1297.370972</ele>
        <time>2016-08-27T13:42:59Z</time>
      </trkpt>
      <trkpt lat="45.35732" lon="6.14522">
        <ele>1297.948975</ele>
        <time>2016-08-27T13:43:04Z</time>
      </trkpt>
      <trkpt lat="45.35732" lon="6.14515">
        <ele>1298.907837</ele>
        <time>2016-08-27T13:43:09Z</time>
      </trkpt>
      <trkpt lat="45.35733" lon="6.14509">
        <ele>1299.521362</ele>
        <time>2016-08-27T13:43:14Z</time>
      </trkpt>
      <trkpt lat="45.35735" lon="6.14503">
        <ele>1299.629639</ele>
        <time>2016-08-27T13:43:19Z</time>
      </trkpt>
      <trkpt lat="45.35738" lon="6.14498">
        <ele>1299.094971</ele>
        <time>2016-08-27T13:43:24Z</time>
      </trkpt>
      <trkpt lat="45.3574" lon="6.14493">
        <ele>1299.340698</ele>
        <time>2016-08-27T13:43:29Z</time>
      </trkpt>
      <trkpt lat="45.35744" lon="6.14487">
        <ele>1299.737671</ele>
        <time>2016-08-27T13:43:34Z</time>
      </trkpt>
      <trkpt lat="45.3575" lon="6.14485">
        <ele>1298.192505</ele>
        <time>2016-08-27T13:43:39Z</time>
      </trkpt>
      <trkpt lat="45.35756" lon="6.14483">
        <ele>1296.786255</ele>
        <time>2016-08-27T13:43:44Z</time>
      </trkpt>
      <trkpt lat="45.35761" lon="6.1448">
        <ele>1296.086548</ele>
        <time>2016-08-27T13:43:49Z</time>
      </trkpt>
      <trkpt lat="45.35766" lon="6.14477">
        <ele>1295.193237</ele>
        <time>2016-08-27T13:43:54Z</time>
      </trkpt>
      <trkpt lat="45.3577" lon="6.14472">
        <ele>1295.467529</ele>
        <time>2016-08-27T13:43:59Z</time>
      </trkpt>
      <trkpt lat="45.35774" lon="6.14468">
        <ele>1295.316528</ele>
        <time>2016-08-27T13:44:04Z</time>
      </trkpt>
      <trkpt lat="45.35776" lon="6.14462">
        <ele>1296.71875</ele>
        <time>2016-08-27T13:44:09Z</time>
      </trkpt>
      <trkpt lat="45.35775" lon="6.14454">
        <ele>1299.285645</ele>
        <time>2016-08-27T13:44:14Z</time>
      </trkpt>
      <trkpt lat="45.35778" lon="6.14449">
        <ele>1299.671631</ele>
        <time>2016-08-27T13:44:19Z</time>
      </trkpt>
      <trkpt lat="45.35778" lon="6.14442">
        <ele>1301.892578</ele>
        <time>2016-08-27T13:44:24Z</time>
      </trkpt>
      <trkpt lat="45.35779" lon="6.14435">
        <ele>1303.90686</ele>
        <time>2016-08-27T13:44:29Z</time>
      </trkpt>
      <trkpt lat="45.35781" lon="6.14429">
        <ele>1304.882446</ele>
        <time>2016-08-27T13:44:34Z</time>
      </trkpt>
      <trkpt lat="45.35783" lon="6.14425">
        <ele>1305.780029</ele>
        <time>2016-08-27T13:44:39Z</time>
      </trkpt>
      <trkpt lat="45.35784" lon="6.14419">
        <ele>1307.584961</ele>
        <time>2016-08-27T13:44:44Z</time>
      </trkpt>
      <trkpt lat="45.35786" lon="6.14413">
        <ele>1308.994995</ele>
        <time>2016-08-27T13:44:49Z</time>
      </trkpt>
      <trkpt lat="45.35788" lon="6.14409">
        <ele>1309.324951</ele>
        <time>2016-08-27T13:44:54Z</time>
      </trkpt>
      <trkpt lat="45.35791" lon="6.14404">
        <ele>1310.099976</ele>
        <time>2016-08-27T13:44:59Z</time>
      </trkpt>
      <trkpt lat="45.35794" lon="6.14401">
        <ele>1310.130005</ele>
        <time>2016-08-27T13:45:04Z</time>
      </trkpt>
      <trkpt lat="45.35795" lon="6.14398">
        <ele>1311.027466</ele>
        <time>2016-08-27T13:45:09Z</time>
      </trkpt>
      <trkpt lat="45.35797" lon="6.14395">
        <ele>1310.897461</ele>
        <time>2016-08-27T13:45:14Z</time>
      </trkpt>
      <trkpt lat="45.35801" lon="6.14391">
        <ele>1310.8125</ele>
        <time>2016-08-27T13:45:19Z</time>
      </trkpt>
      <trkpt lat="45.35803" lon="6.14386">
        <ele>1311.847534</ele>
        <time>2016-08-27T13:45:24Z</time>
      </trkpt>
      <trkpt lat="45.35803" lon="6.14382">
        <ele>1313.329956</ele>
        <time>2016-08-27T13:45:29Z</time>
      </trkpt>
      <trkpt lat="45.35809" lon="6.1438">
        <ele>1311.640015</ele>
        <time>2016-08-27T13:45:34Z</time>
      </trkpt>
      <trkpt lat="45.35814" lon="6.14379">
        <ele>1310.347534</ele>
        <time>2016-08-27T13:45:39Z</time>
      </trkpt>
      <trkpt lat="45.35819" lon="6.14376">
        <ele>1309.890015</ele>
        <time>2016-08-27T13:45:44Z</time>
      </trkpt>
      <trkpt lat="45.35822" lon="6.14374">
        <ele>1309.422485</ele>
        <time>2016-08-27T13:45:49Z</time>
      </trkpt>
      <trkpt lat="45.35824" lon="6.14374">
        <ele>1308.982544</ele>
        <time>2016-08-27T13:45:54Z</time>
      </trkpt>
      <trkpt lat="45.35823" lon="6.14371">
        <ele>1310.304321</ele>
        <time>2016-08-27T13:45:59Z</time>
      </trkpt>
      <trkpt lat="45.35824" lon="6.14364">
        <ele>1312.68457</ele>
        <time>2016-08-27T13:46:04Z</time>
      </trkpt>
      <trkpt lat="45.35825" lon="6.14359">
        <ele>1314.199585</ele>
        <time>2016-08-27T13:46:09Z</time>
      </trkpt>
      <trkpt lat="45.35825" lon="6.14354">
        <ele>1316.025391</ele>
        <time>2016-08-27T13:46:14Z</time>
      </trkpt>
      <trkpt lat="45.35827" lon="6.1435">
        <ele>1317.033325</ele>
        <time>2016-08-27T13:46:19Z</time>
      </trkpt>
      <trkpt lat="45.35829" lon="6.14344">
        <ele>1318.878052</ele>
        <time>2016-08-27T13:46:24Z</time>
      </trkpt>
      <trkpt lat="45.35824" lon="6.14337">
        <ele>1323.40979</ele>
        <time>2016-08-27T13:46:29Z</time>
      </trkpt>
      <trkpt lat="45.35822" lon="6.14331">
        <ele>1326.038696</ele>
        <time>2016-08-27T13:46:34Z</time>
      </trkpt>
      <trkpt lat="45.35824" lon="6.14326">
        <ele>1327.758301</ele>
        <time>2016-08-27T13:46:39Z</time>
      </trkpt>
      <trkpt lat="45.35826" lon="6.14321">
        <ele>1328.843628</ele>
        <time>2016-08-27T13:46:44Z</time>
      </trkpt>
      <trkpt lat="45.35829" lon="6.14317">
        <ele>1329.702759</ele>
        <time>2016-08-27T13:46:49Z</time>
      </trkpt>
      <trkpt lat="45.35832" lon="6.14313">
        <ele>1330.357178</ele>
        <time>2016-08-27T13:46:54Z</time>
      </trkpt>
      <trkpt lat="45.35836" lon="6.14308">
        <ele>1330.924927</ele>
        <time>2016-08-27T13:46:59Z</time>
      </trkpt>
      <trkpt lat="45.3584" lon="6.14305">
        <ele>1331.356689</ele>
        <time>2016-08-27T13:47:04Z</time>
      </trkpt>
      <trkpt lat="45.35843" lon="6.14303">
        <ele>1330.825562</ele>
        <time>2016-08-27T13:47:09Z</time>
      </trkpt>
      <trkpt lat="45.35848" lon="6.14301">
        <ele>1330.774902</ele>
        <time>2016-08-27T13:47:14Z</time>
      </trkpt>
      <trkpt lat="45.35852" lon="6.14297">
        <ele>1331.449951</ele>
        <time>2016-08-27T13:47:19Z</time>
      </trkpt>
      <trkpt lat="45.35857" lon="6.14294">
        <ele>1331.762451</ele>
        <time>2016-08-27T13:47:24Z</time>
      </trkpt>
      <trkpt lat="45.35862" lon="6.14292">
        <ele>1332.087524</ele>
        <time>2016-08-27T13:47:29Z</time>
      </trkpt>
      <trkpt lat="45.35866" lon="6.14289">
        <ele>1332.724976</ele>
        <time>2016-08-27T13:47:34Z</time>
      </trkpt>
      <trkpt lat="45.35871" lon="6.14288">
        <ele>1332.362427</ele>
        <time>2016-08-27T13:47:39Z</time>
      </trkpt>
      <trkpt lat="45.35875" lon="6.14284">
        <ele>1333.224976</ele>
        <time>2016-08-27T13:47:44Z</time>
      </trkpt>
      <trkpt lat="45.35879" lon="6.1428">
        <ele>1334.324951</ele>
        <time>2016-08-27T13:47:49Z</time>
      </trkpt>
      <trkpt lat="45.35883" lon="6.14276">
        <ele>1335.675049</ele>
        <time>2016-08-27T13:47:54Z</time>
      </trkpt>
      <trkpt lat="45.35888" lon="6.14274">
        <ele>1335.787476</ele>
        <time>2016-08-27T13:47:59Z</time>
      </trkpt>
      <trkpt lat="45.35892" lon="6.14273">
        <ele>1335.4375</ele>
        <time>2016-08-27T13:48:04Z</time>
      </trkpt>
      <trkpt lat="45.35899" lon="6.1427">
        <ele>1335.348755</ele>
        <time>2016-08-27T13:48:09Z</time>
      </trkpt>
      <trkpt lat="45.35903" lon="6.14266">
        <ele>1336.685913</ele>
        <time>2016-08-27T13:48:14Z</time>
      </trkpt>
      <trkpt lat="45.35907" lon="6.14261">
        <ele>1338.367432</ele>
        <time>2016-08-27T13:48:19Z</time>
      </trkpt>
      <trkpt lat="45.35911" lon="6.14257">
        <ele>1339.446777</ele>
        <time>2016-08-27T13:48:24Z</time>
      </trkpt>
      <trkpt lat="45.35915" lon="6.14252">
        <ele>1341.184937</ele>
        <time>2016-08-27T13:48:29Z</time>
      </trkpt>
      <trkpt lat="45.3592" lon="6.14247">
        <ele>1342.280396</ele>
        <time>2016-08-27T13:48:34Z</time>
      </trkpt>
      <trkpt lat="45.35925" lon="6.14243">
        <ele>1342.858521</ele>
        <time>2016-08-27T13:48:39Z</time>
      </trkpt>
      <trkpt lat="45.3593" lon="6.14239">
        <ele>1343.208984</ele>
        <time>2016-08-27T13:48:44Z</time>
      </trkpt>
      <trkpt lat="45.35935" lon="6.14234">
        <ele>1343.614746</ele>
        <time>2016-08-27T13:48:49Z</time>
      </trkpt>
      <trkpt lat="45.35938" lon="6.1423">
        <ele>1343.999512</ele>
        <time>2016-08-27T13:48:54Z</time>
      </trkpt>
      <trkpt lat="45.35943" lon="6.14229">
        <ele>1343.522095</ele>
        <time>2016-08-27T13:48:59Z</time>
      </trkpt>
      <trkpt lat="45.35948" lon="6.14229">
        <ele>1342.272705</ele>
        <time>2016-08-27T13:49:04Z</time>
      </trkpt>
      <trkpt lat="45.35952" lon="6.14228">
        <ele>1341.282349</ele>
        <time>2016-08-27T13:49:09Z</time>
      </trkpt>
      <trkpt lat="45.35956" lon="6.14227">
        <ele>1340.541382</ele>
        <time>2016-08-27T13:49:14Z</time>
      </trkpt>
      <trkpt lat="45.35959" lon="6.14223">
        <ele>1340.84021</ele>
        <time>2016-08-27T13:49:19Z</time>
      </trkpt>
      <trkpt lat="45.35962" lon="6.1422">
        <ele>1340.776245</ele>
        <time>2016-08-27T13:49:24Z</time>
      </trkpt>
      <trkpt lat="45.35965" lon="6.14213">
        <ele>1341.623413</ele>
        <time>2016-08-27T13:49:29Z</time>
      </trkpt>
      <trkpt lat="45.35968" lon="6.14204">
        <ele>1342.705322</ele>
        <time>2016-08-27T13:49:34Z</time>
      </trkpt>
      <trkpt lat="45.35971" lon="6.14197">
        <ele>1343.553345</ele>
        <time>2016-08-27T13:49:39Z</time>
      </trkpt>
      <trkpt lat="45.35973" lon="6.14189">
        <ele>1344.323364</ele>
        <time>2016-08-27T13:49:44Z</time>
      </trkpt>
      <trkpt lat="45.35974" lon="6.14181">
        <ele>1344.362549</ele>
        <time>2016-08-27T13:49:49Z</time>
      </trkpt>
      <trkpt lat="45.35975" lon="6.14174">
        <ele>1344.443604</ele>
        <time>2016-08-27T13:49:54Z</time>
      </trkpt>
      <trkpt lat="45.35976" lon="6.14166">
        <ele>1344.77771</ele>
        <time>2016-08-27T13:49:59Z</time>
      </trkpt>
      <trkpt lat="45.35977" lon="6.1416">
        <ele>1344.858887</ele>
        <time>2016-08-27T13:50:04Z</time>
      </trkpt>
      <trkpt lat="45.35978" lon="6.14154">
        <ele>1345.015503</ele>
        <time>2016-08-27T13:50:09Z</time>
      </trkpt>
      <trkpt lat="45.35978" lon="6.14153">
        <ele>1344.816772</ele>
        <time>2016-08-27T13:50:14Z</time>
      </trkpt>
      <trkpt lat="45.35978" lon="6.14152">
        <ele>1345.192017</ele>
        <time>2016-08-27T13:50:19Z</time>
      </trkpt>
      <trkpt lat="45.35978" lon="6.1415">
        <ele>1345.263306</ele>
        <time>2016-08-27T13:50:24Z</time>
      </trkpt>
      <trkpt lat="45.35978" lon="6.14149">
        <ele>1345.115234</ele>
        <time>2016-08-27T13:50:29Z</time>
      </trkpt>
      <trkpt lat="45.35978" lon="6.14149">
        <ele>1345.115234</ele>
        <time>2016-08-27T13:50:34Z</time>
      </trkpt>
      <trkpt lat="45.35978" lon="6.14148">
        <ele>1345.451294</ele>
        <time>2016-08-27T13:50:39Z</time>
      </trkpt>
      <trkpt lat="45.35978" lon="6.14145">
        <ele>1345.407593</ele>
        <time>2016-08-27T13:50:44Z</time>
      </trkpt>
      <trkpt lat="45.35979" lon="6.14139">
        <ele>1345.48938</ele>
        <time>2016-08-27T13:50:49Z</time>
      </trkpt>
      <trkpt lat="45.3598" lon="6.14133">
        <ele>1345.430542</ele>
        <time>2016-08-27T13:50:54Z</time>
      </trkpt>
      <trkpt lat="45.3598" lon="6.14127">
        <ele>1345.429443</ele>
        <time>2016-08-27T13:50:59Z</time>
      </trkpt>
      <trkpt lat="45.35981" lon="6.14121">
        <ele>1345.36731</ele>
        <time>2016-08-27T13:51:04Z</time>
      </trkpt>
      <trkpt lat="45.3598" lon="6.14113">
        <ele>1345.934692</ele>
        <time>2016-08-27T13:51:09Z</time>
      </trkpt>
      <trkpt lat="45.3598" lon="6.14109">
        <ele>1346.266724</ele>
        <time>2016-08-27T13:51:14Z</time>
      </trkpt>
      <trkpt lat="45.35978" lon="6.14101">
        <ele>1347.483643</ele>
        <time>2016-08-27T13:51:19Z</time>
      </trkpt>
      <trkpt lat="45.35976" lon="6.14094">
        <ele>1349.36792</ele>
        <time>2016-08-27T13:51:24Z</time>
      </trkpt>
      <trkpt lat="45.35974" lon="6.14088">
        <ele>1350.926392</ele>
        <time>2016-08-27T13:51:29Z</time>
      </trkpt>
      <trkpt lat="45.35973" lon="6.14081">
        <ele>1351.851807</ele>
        <time>2016-08-27T13:51:34Z</time>
      </trkpt>
      <trkpt lat="45.35972" lon="6.14078">
        <ele>1352.276367</ele>
        <time>2016-08-27T13:51:39Z</time>
      </trkpt>
      <trkpt lat="45.35971" lon="6.14077">
        <ele>1353.104858</ele>
        <time>2016-08-27T13:51:44Z</time>
      </trkpt>
      <trkpt lat="45.35968" lon="6.14072">
        <ele>1355.067505</ele>
        <time>2016-08-27T13:51:49Z</time>
      </trkpt>
      <trkpt lat="45.35967" lon="6.14067">
        <ele>1356.315186</ele>
        <time>2016-08-27T13:51:54Z</time>
      </trkpt>
      <trkpt lat="45.35966" lon="6.14061">
        <ele>1357.539063</ele>
        <time>2016-08-27T13:51:59Z</time>
      </trkpt>
      <trkpt lat="45.35965" lon="6.14055">
        <ele>1358.740112</ele>
        <time>2016-08-27T13:52:04Z</time>
      </trkpt>
      <trkpt lat="45.35963" lon="6.14048">
        <ele>1361.064819</ele>
        <time>2016-08-27T13:52:09Z</time>
      </trkpt>
      <trkpt lat="45.35962" lon="6.14042">
        <ele>1362.325195</ele>
        <time>2016-08-27T13:52:14Z</time>
      </trkpt>
      <trkpt lat="45.35962" lon="6.14037">
        <ele>1362.85791</ele>
        <time>2016-08-27T13:52:19Z</time>
      </trkpt>
      <trkpt lat="45.35962" lon="6.14033">
        <ele>1363.582397</ele>
        <time>2016-08-27T13:52:24Z</time>
      </trkpt>
      <trkpt lat="45.35961" lon="6.14027">
        <ele>1364.672119</ele>
        <time>2016-08-27T13:52:29Z</time>
      </trkpt>
      <trkpt lat="45.35961" lon="6.14021">
        <ele>1365.050903</ele>
        <time>2016-08-27T13:52:34Z</time>
      </trkpt>
      <trkpt lat="45.35961" lon="6.14015">
        <ele>1365.760254</ele>
        <time>2016-08-27T13:52:39Z</time>
      </trkpt>
      <trkpt lat="45.35961" lon="6.14009">
        <ele>1366.409058</ele>
        <time>2016-08-27T13:52:44Z</time>
      </trkpt>
      <trkpt lat="45.35962" lon="6.14005">
        <ele>1366.449463</ele>
        <time>2016-08-27T13:52:49Z</time>
      </trkpt>
      <trkpt lat="45.35962" lon="6.14004">
        <ele>1366.618774</ele>
        <time>2016-08-27T13:52:54Z</time>
      </trkpt>
      <trkpt lat="45.35962" lon="6.14">
        <ele>1366.666382</ele>
        <time>2016-08-27T13:52:59Z</time>
      </trkpt>
      <trkpt lat="45.35964" lon="6.13996">
        <ele>1367.305298</ele>
        <time>2016-08-27T13:53:04Z</time>
      </trkpt>
      <trkpt lat="45.35964" lon="6.13995">
        <ele>1367.555908</ele>
        <time>2016-08-27T13:53:09Z</time>
      </trkpt>
      <trkpt lat="45.35966" lon="6.13994">
        <ele>1366.569458</ele>
        <time>2016-08-27T13:53:14Z</time>
      </trkpt>
      <trkpt lat="45.35968" lon="6.13991">
        <ele>1366.475708</ele>
        <time>2016-08-27T13:53:19Z</time>
      </trkpt>
      <trkpt lat="45.35971" lon="6.13989">
        <ele>1365.785645</ele>
        <time>2016-08-27T13:53:24Z</time>
      </trkpt>
      <trkpt lat="45.35973" lon="6.13986">
        <ele>1365.193237</ele>
        <time>2016-08-27T13:53:29Z</time>
      </trkpt>
      <trkpt lat="45.35976" lon="6.13984">
        <ele>1364.661377</ele>
        <time>2016-08-27T13:53:34Z</time>
      </trkpt>
      <trkpt lat="45.3598" lon="6.13979">
        <ele>1364.486328</ele>
        <time>2016-08-27T13:53:39Z</time>
      </trkpt>
      <trkpt lat="45.3598" lon="6.13975">
        <ele>1365.740112</ele>
        <time>2016-08-27T13:53:44Z</time>
      </trkpt>
      <trkpt lat="45.35983" lon="6.13971">
        <ele>1365.918335</ele>
        <time>2016-08-27T13:53:49Z</time>
      </trkpt>
      <trkpt lat="45.35986" lon="6.13969">
        <ele>1364.963135</ele>
        <time>2016-08-27T13:53:54Z</time>
      </trkpt>
      <trkpt lat="45.3599" lon="6.13964">
        <ele>1365.213257</ele>
        <time>2016-08-27T13:53:59Z</time>
      </trkpt>
      <trkpt lat="45.35994" lon="6.13961">
        <ele>1364.581421</ele>
        <time>2016-08-27T13:54:04Z</time>
      </trkpt>
      <trkpt lat="45.35997" lon="6.13954">
        <ele>1365.992554</ele>
        <time>2016-08-27T13:54:09Z</time>
      </trkpt>
      <trkpt lat="45.36002" lon="6.13948">
        <ele>1366.870728</ele>
        <time>2016-08-27T13:54:14Z</time>
      </trkpt>
      <trkpt lat="45.36005" lon="6.13943">
        <ele>1367.846924</ele>
        <time>2016-08-27T13:54:19Z</time>
      </trkpt>
      <trkpt lat="45.36007" lon="6.13939">
        <ele>1369.053223</ele>
        <time>2016-08-27T13:54:24Z</time>
      </trkpt>
      <trkpt lat="45.36009" lon="6.13933">
        <ele>1370.825562</ele>
        <time>2016-08-27T13:54:29Z</time>
      </trkpt>
      <trkpt lat="45.36013" lon="6.1393">
        <ele>1370.435303</ele>
        <time>2016-08-27T13:54:34Z</time>
      </trkpt>
      <trkpt lat="45.36016" lon="6.13927">
        <ele>1370.630249</ele>
        <time>2016-08-27T13:54:39Z</time>
      </trkpt>
      <trkpt lat="45.36019" lon="6.1392">
        <ele>1372.152222</ele>
        <time>2016-08-27T13:54:44Z</time>
      </trkpt>
      <trkpt lat="45.36021" lon="6.13914">
        <ele>1373.805176</ele>
        <time>2016-08-27T13:54:49Z</time>
      </trkpt>
      <trkpt lat="45.36023" lon="6.13908">
        <ele>1375.434692</ele>
        <time>2016-08-27T13:54:54Z</time>
      </trkpt>
      <trkpt lat="45.36025" lon="6.13902">
        <ele>1376.921143</ele>
        <time>2016-08-27T13:54:59Z</time>
      </trkpt>
      <trkpt lat="45.36027" lon="6.13895">
        <ele>1378.623169</ele>
        <time>2016-08-27T13:55:04Z</time>
      </trkpt>
      <trkpt lat="45.36029" lon="6.13889">
        <ele>1380.17627</ele>
        <time>2016-08-27T13:55:09Z</time>
      </trkpt>
      <trkpt lat="45.3603" lon="6.13886">
        <ele>1380.581787</ele>
        <time>2016-08-27T13:55:14Z</time>
      </trkpt>
      <trkpt lat="45.36033" lon="6.1388">
        <ele>1381.829834</ele>
        <time>2016-08-27T13:55:19Z</time>
      </trkpt>
      <trkpt lat="45.36034" lon="6.13874">
        <ele>1383.256714</ele>
        <time>2016-08-27T13:55:24Z</time>
      </trkpt>
      <trkpt lat="45.36037" lon="6.13868">
        <ele>1384.01062</ele>
        <time>2016-08-27T13:55:29Z</time>
      </trkpt>
      <trkpt lat="45.36039" lon="6.13863">
        <ele>1384.786865</ele>
        <time>2016-08-27T13:55:34Z</time>
      </trkpt>
      <trkpt lat="45.36041" lon="6.13857">
        <ele>1385.4823</ele>
        <time>2016-08-27T13:55:39Z</time>
      </trkpt>
      <trkpt lat="45.36043" lon="6.13851">
        <ele>1386.63147</ele>
        <time>2016-08-27T13:55:44Z</time>
      </trkpt>
      <trkpt lat="45.36045" lon="6.13844">
        <ele>1387.998169</ele>
        <time>2016-08-27T13:55:49Z</time>
      </trkpt>
      <trkpt lat="45.36047" lon="6.13836">
        <ele>1389.172485</ele>
        <time>2016-08-27T13:55:54Z</time>
      </trkpt>
      <trkpt lat="45.36049" lon="6.13829">
        <ele>1390.359985</ele>
        <time>2016-08-27T13:55:59Z</time>
      </trkpt>
      <trkpt lat="45.36051" lon="6.13823">
        <ele>1391.459961</ele>
        <time>2016-08-27T13:56:04Z</time>
      </trkpt>
      <trkpt lat="45.36054" lon="6.13817">
        <ele>1391.982422</ele>
        <time>2016-08-27T13:56:09Z</time>
      </trkpt>
      <trkpt lat="45.36055" lon="6.13811">
        <ele>1393.268921</ele>
        <time>2016-08-27T13:56:14Z</time>
      </trkpt>
      <trkpt lat="45.36057" lon="6.13807">
        <ele>1394.088989</ele>
        <time>2016-08-27T13:56:19Z</time>
      </trkpt>
      <trkpt lat="45.36058" lon="6.13804">
        <ele>1394.391357</ele>
        <time>2016-08-27T13:56:24Z</time>
      </trkpt>
      <trkpt lat="45.36059" lon="6.13804">
        <ele>1394.241211</ele>
        <time>2016-08-27T13:56:29Z</time>
      </trkpt>
      <trkpt lat="45.36059" lon="6.13803">
        <ele>1394.50708</ele>
        <time>2016-08-27T13:56:34Z</time>
      </trkpt>
      <trkpt lat="45.36059" lon="6.13802">
        <ele>1394.918579</ele>
        <time>2016-08-27T13:56:39Z</time>
      </trkpt>
      <trkpt lat="45.3606" lon="6.13797">
        <ele>1396.234131</ele>
        <time>2016-08-27T13:56:44Z</time>
      </trkpt>
      <trkpt lat="45.36063" lon="6.13793">
        <ele>1396.707153</ele>
        <time>2016-08-27T13:56:49Z</time>
      </trkpt>
      <trkpt lat="45.36065" lon="6.13788">
        <ele>1397.78894</ele>
        <time>2016-08-27T13:56:54Z</time>
      </trkpt>
      <trkpt lat="45.36068" lon="6.13786">
        <ele>1397.626953</ele>
        <time>2016-08-27T13:56:59Z</time>
      </trkpt>
      <trkpt lat="45.36072" lon="6.13783">
        <ele>1397.494385</ele>
        <time>2016-08-27T13:57:04Z</time>
      </trkpt>
      <trkpt lat="45.36073" lon="6.13781">
        <ele>1398.019531</ele>
        <time>2016-08-27T13:57:09Z</time>
      </trkpt>
      <trkpt lat="45.36076" lon="6.13779">
        <ele>1397.850586</ele>
        <time>2016-08-27T13:57:14Z</time>
      </trkpt>
      <trkpt lat="45.36079" lon="6.13776">
        <ele>1398.257446</ele>
        <time>2016-08-27T13:57:19Z</time>
      </trkpt>
      <trkpt lat="45.36082" lon="6.13772">
        <ele>1399.48938</ele>
        <time>2016-08-27T13:57:24Z</time>
      </trkpt>
      <trkpt lat="45.36086" lon="6.13767">
        <ele>1400.344238</ele>
        <time>2016-08-27T13:57:29Z</time>
      </trkpt>
      <trkpt lat="45.3609" lon="6.13765">
        <ele>1400.218994</ele>
        <time>2016-08-27T13:57:34Z</time>
      </trkpt>
      <trkpt lat="45.36095" lon="6.13764">
        <ele>1399.669312</ele>
        <time>2016-08-27T13:57:39Z</time>
      </trkpt>
      <trkpt lat="45.361" lon="6.13764">
        <ele>1398.231323</ele>
        <time>2016-08-27T13:57:44Z</time>
      </trkpt>
      <trkpt lat="45.36103" lon="6.13765">
        <ele>1396.706665</ele>
        <time>2016-08-27T13:57:49Z</time>
      </trkpt>
      <trkpt lat="45.36105" lon="6.1376">
        <ele>1398.627563</ele>
        <time>2016-08-27T13:57:54Z</time>
      </trkpt>
      <trkpt lat="45.36106" lon="6.13757">
        <ele>1399.807861</ele>
        <time>2016-08-27T13:57:59Z</time>
      </trkpt>
      <trkpt lat="45.36112" lon="6.13757">
        <ele>1398.388306</ele>
        <time>2016-08-27T13:58:04Z</time>
      </trkpt>
      <trkpt lat="45.36117" lon="6.13755">
        <ele>1397.963257</ele>
        <time>2016-08-27T13:58:09Z</time>
      </trkpt>
      <trkpt lat="45.36122" lon="6.13752">
        <ele>1398.295044</ele>
        <time>2016-08-27T13:58:14Z</time>
      </trkpt>
      <trkpt lat="45.36127" lon="6.13749">
        <ele>1398.202637</ele>
        <time>2016-08-27T13:58:19Z</time>
      </trkpt>
      <trkpt lat="45.36132" lon="6.13745">
        <ele>1398.984741</ele>
        <time>2016-08-27T13:58:24Z</time>
      </trkpt>
      <trkpt lat="45.36136" lon="6.13741">
        <ele>1399.75647</ele>
        <time>2016-08-27T13:58:29Z</time>
      </trkpt>
      <trkpt lat="45.36142" lon="6.13738">
        <ele>1399.776245</ele>
        <time>2016-08-27T13:58:34Z</time>
      </trkpt>
      <trkpt lat="45.36146" lon="6.13736">
        <ele>1399.638794</ele>
        <time>2016-08-27T13:58:39Z</time>
      </trkpt>
      <trkpt lat="45.36149" lon="6.13734">
        <ele>1399.902466</ele>
        <time>2016-08-27T13:58:44Z</time>
      </trkpt>
      <trkpt lat="45.36155" lon="6.13732">
        <ele>1399.913696</ele>
        <time>2016-08-27T13:58:49Z</time>
      </trkpt>
      <trkpt lat="45.36161" lon="6.1373">
        <ele>1399.653809</ele>
        <time>2016-08-27T13:58:54Z</time>
      </trkpt>
      <trkpt lat="45.36166" lon="6.13724">
        <ele>1401.133789</ele>
        <time>2016-08-27T13:58:59Z</time>
      </trkpt>
      <trkpt lat="45.36172" lon="6.1372">
        <ele>1402.007446</ele>
        <time>2016-08-27T13:59:04Z</time>
      </trkpt>
      <trkpt lat="45.36177" lon="6.13713">
        <ele>1403.778809</ele>
        <time>2016-08-27T13:59:09Z</time>
      </trkpt>
      <trkpt lat="45.36182" lon="6.13708">
        <ele>1404.90625</ele>
        <time>2016-08-27T13:59:14Z</time>
      </trkpt>
      <trkpt lat="45.36188" lon="6.13706">
        <ele>1404.623291</ele>
        <time>2016-08-27T13:59:19Z</time>
      </trkpt>
      <trkpt lat="45.36193" lon="6.13705">
        <ele>1404.006348</ele>
        <time>2016-08-27T13:59:24Z</time>
      </trkpt>
      <trkpt lat="45.36198" lon="6.13703">
        <ele>1403.761841</ele>
        <time>2016-08-27T13:59:29Z</time>
      </trkpt>
      <trkpt lat="45.36203" lon="6.13697">
        <ele>1405.075439</ele>
        <time>2016-08-27T13:59:34Z</time>
      </trkpt>
      <trkpt lat="45.36207" lon="6.13693">
        <ele>1405.98938</ele>
        <time>2016-08-27T13:59:39Z</time>
      </trkpt>
      <trkpt lat="45.36212" lon="6.13687">
        <ele>1407.045532</ele>
        <time>2016-08-27T13:59:44Z</time>
      </trkpt>
      <trkpt lat="45.36217" lon="6.13682">
        <ele>1407.833862</ele>
        <time>2016-08-27T13:59:49Z</time>
      </trkpt>
      <trkpt lat="45.36222" lon="6.13677">
        <ele>1408.32666</ele>
        <time>2016-08-27T13:59:54Z</time>
      </trkpt>
      <trkpt lat="45.36226" lon="6.13674">
        <ele>1408.192749</ele>
        <time>2016-08-27T13:59:59Z</time>
      </trkpt>
      <trkpt lat="45.36231" lon="6.13672">
        <ele>1407.907715</ele>
        <time>2016-08-27T14:00:04Z</time>
      </trkpt>
      <trkpt lat="45.36236" lon="6.13672">
        <ele>1406.674561</ele>
        <time>2016-08-27T14:00:09Z</time>
      </trkpt>
      <trkpt lat="45.36239" lon="6.13669">
        <ele>1406.771729</ele>
        <time>2016-08-27T14:00:14Z</time>
      </trkpt>
      <trkpt lat="45.36244" lon="6.13664">
        <ele>1407.387085</ele>
        <time>2016-08-27T14:00:19Z</time>
      </trkpt>
      <trkpt lat="45.36248" lon="6.1366">
        <ele>1407.634521</ele>
        <time>2016-08-27T14:00:24Z</time>
      </trkpt>
      <trkpt lat="45.36253" lon="6.13656">
        <ele>1408.003418</ele>
        <time>2016-08-27T14:00:29Z</time>
      </trkpt>
      <trkpt lat="45.36258" lon="6.13652">
        <ele>1408.302979</ele>
        <time>2016-08-27T14:00:34Z</time>
      </trkpt>
      <trkpt lat="45.36262" lon="6.13645">
        <ele>1410.13147</ele>
        <time>2016-08-27T14:00:39Z</time>
      </trkpt>
      <trkpt lat="45.36267" lon="6.13639">
        <ele>1411.206787</ele>
        <time>2016-08-27T14:00:44Z</time>
      </trkpt>
      <trkpt lat="45.36272" lon="6.13632">
        <ele>1411.840698</ele>
        <time>2016-08-27T14:00:49Z</time>
      </trkpt>
      <trkpt lat="45.36275" lon="6.13621">
        <ele>1413.359131</ele>
        <time>2016-08-27T14:00:54Z</time>
      </trkpt>
      <trkpt lat="45.36279" lon="6.13612">
        <ele>1414.320923</ele>
        <time>2016-08-27T14:00:59Z</time>
      </trkpt>
      <trkpt lat="45.36282" lon="6.13605">
        <ele>1415.257813</ele>
        <time>2016-08-27T14:01:04Z</time>
      </trkpt>
      <trkpt lat="45.36285" lon="6.13598">
        <ele>1416.329712</ele>
        <time>2016-08-27T14:01:09Z</time>
      </trkpt>
      <trkpt lat="45.36289" lon="6.13591">
        <ele>1417.332153</ele>
        <time>2016-08-27T14:01:14Z</time>
      </trkpt>
      <trkpt lat="45.36292" lon="6.13584">
        <ele>1418.563721</ele>
        <time>2016-08-27T14:01:19Z</time>
      </trkpt>
      <trkpt lat="45.36294" lon="6.13576">
        <ele>1419.920654</ele>
        <time>2016-08-27T14:01:24Z</time>
      </trkpt>
      <trkpt lat="45.36297" lon="6.13568">
        <ele>1421.328247</ele>
        <time>2016-08-27T14:01:29Z</time>
      </trkpt>
      <trkpt lat="45.36298" lon="6.13561">
        <ele>1422.823364</ele>
        <time>2016-08-27T14:01:34Z</time>
      </trkpt>
      <trkpt lat="45.363" lon="6.13553">
        <ele>1424.199097</ele>
        <time>2016-08-27T14:01:39Z</time>
      </trkpt>
      <trkpt lat="45.36302" lon="6.13545">
        <ele>1425.737427</ele>
        <time>2016-08-27T14:01:44Z</time>
      </trkpt>
      <trkpt lat="45.36305" lon="6.13537">
        <ele>1427.272339</ele>
        <time>2016-08-27T14:01:49Z</time>
      </trkpt>
      <trkpt lat="45.36308" lon="6.1353">
        <ele>1428.407104</ele>
        <time>2016-08-27T14:01:54Z</time>
      </trkpt>
      <trkpt lat="45.36311" lon="6.13524">
        <ele>1429.25415</ele>
        <time>2016-08-27T14:01:59Z</time>
      </trkpt>
      <trkpt lat="45.36313" lon="6.13518">
        <ele>1430.446533</ele>
        <time>2016-08-27T14:02:04Z</time>
      </trkpt>
      <trkpt lat="45.36312" lon="6.13513">
        <ele>1431.513306</ele>
        <time>2016-08-27T14:02:09Z</time>
      </trkpt>
      <trkpt lat="45.36311" lon="6.13512">
        <ele>1431.900391</ele>
        <time>2016-08-27T14:02:14Z</time>
      </trkpt>
      <trkpt lat="45.36312" lon="6.13514">
        <ele>1431.473511</ele>
        <time>2016-08-27T14:02:19Z</time>
      </trkpt>
      <trkpt lat="45.36312" lon="6.13514">
        <ele>1431.342407</ele>
        <time>2016-08-27T14:02:24Z</time>
      </trkpt>
      <trkpt lat="45.36311" lon="6.13513">
        <ele>1431.71582</ele>
        <time>2016-08-27T14:02:29Z</time>
      </trkpt>
      <trkpt lat="45.36308" lon="6.13513">
        <ele>1432.107178</ele>
        <time>2016-08-27T14:02:34Z</time>
      </trkpt>
      <trkpt lat="45.36303" lon="6.13513">
        <ele>1432.523193</ele>
        <time>2016-08-27T14:02:39Z</time>
      </trkpt>
      <trkpt lat="45.36299" lon="6.13515">
        <ele>1432.535767</ele>
        <time>2016-08-27T14:02:44Z</time>
      </trkpt>
      <trkpt lat="45.36294" lon="6.13515">
        <ele>1432.908325</ele>
        <time>2016-08-27T14:02:49Z</time>
      </trkpt>
      <trkpt lat="45.36289" lon="6.13518">
        <ele>1432.739624</ele>
        <time>2016-08-27T14:02:54Z</time>
      </trkpt>
      <trkpt lat="45.36284" lon="6.1352">
        <ele>1432.889526</ele>
        <time>2016-08-27T14:02:59Z</time>
      </trkpt>
      <trkpt lat="45.36279" lon="6.1352">
        <ele>1433.608521</ele>
        <time>2016-08-27T14:03:04Z</time>
      </trkpt>
      <trkpt lat="45.36273" lon="6.13519">
        <ele>1434.465088</ele>
        <time>2016-08-27T14:03:09Z</time>
      </trkpt>
      <trkpt lat="45.36267" lon="6.13519">
        <ele>1435.238892</ele>
        <time>2016-08-27T14:03:14Z</time>
      </trkpt>
      <trkpt lat="45.36263" lon="6.13518">
        <ele>1436.071289</ele>
        <time>2016-08-27T14:03:19Z</time>
      </trkpt>
      <trkpt lat="45.36258" lon="6.13515">
        <ele>1437.128174</ele>
        <time>2016-08-27T14:03:24Z</time>
      </trkpt>
      <trkpt lat="45.36253" lon="6.13513">
        <ele>1438.174683</ele>
        <time>2016-08-27T14:03:29Z</time>
      </trkpt>
      <trkpt lat="45.36245" lon="6.1351">
        <ele>1439.610474</ele>
        <time>2016-08-27T14:03:34Z</time>
      </trkpt>
      <trkpt lat="45.36239" lon="6.1351">
        <ele>1440.511963</ele>
        <time>2016-08-27T14:03:39Z</time>
      </trkpt>
      <trkpt lat="45.36234" lon="6.13512">
        <ele>1441.300537</ele>
        <time>2016-08-27T14:03:44Z</time>
      </trkpt>
      <trkpt lat="45.36228" lon="6.13515">
        <ele>1442.504395</ele>
        <time>2016-08-27T14:03:49Z</time>
      </trkpt>
      <trkpt lat="45.36225" lon="6.13522">
        <ele>1442.342896</ele>
        <time>2016-08-27T14:03:54Z</time>
      </trkpt>
      <trkpt lat="45.36224" lon="6.13529">
        <ele>1441.754517</ele>
        <time>2016-08-27T14:03:59Z</time>
      </trkpt>
      <trkpt lat="45.36222" lon="6.13537">
        <ele>1441.119263</ele>
        <time>2016-08-27T14:04:04Z</time>
      </trkpt>
      <trkpt lat="45.36221" lon="6.13545">
        <ele>1440.453125</ele>
        <time>2016-08-27T14:04:09Z</time>
      </trkpt>
      <trkpt lat="45.36218" lon="6.13553">
        <ele>1440.291138</ele>
        <time>2016-08-27T14:04:14Z</time>
      </trkpt>
      <trkpt lat="45.36216" lon="6.1356">
        <ele>1439.791382</ele>
        <time>2016-08-27T14:04:19Z</time>
      </trkpt>
      <trkpt lat="45.36212" lon="6.13567">
        <ele>1440.178101</ele>
        <time>2016-08-27T14:04:24Z</time>
      </trkpt>
      <trkpt lat="45.36207" lon="6.13572">
        <ele>1440.86377</ele>
        <time>2016-08-27T14:04:29Z</time>
      </trkpt>
      <trkpt lat="45.36202" lon="6.13575">
        <ele>1441.938721</ele>
        <time>2016-08-27T14:04:34Z</time>
      </trkpt>
      <trkpt lat="45.36196" lon="6.13579">
        <ele>1443.074951</ele>
        <time>2016-08-27T14:04:39Z</time>
      </trkpt>
      <trkpt lat="45.36193" lon="6.13581">
        <ele>1443.907471</ele>
        <time>2016-08-27T14:04:44Z</time>
      </trkpt>
      <trkpt lat="45.36187" lon="6.13583">
        <ele>1445.140137</ele>
        <time>2016-08-27T14:04:49Z</time>
      </trkpt>
      <trkpt lat="45.36181" lon="6.13585">
        <ele>1446.074951</ele>
        <time>2016-08-27T14:04:54Z</time>
      </trkpt>
      <trkpt lat="45.36175" lon="6.13585">
        <ele>1447.126343</ele>
        <time>2016-08-27T14:04:59Z</time>
      </trkpt>
      <trkpt lat="45.36169" lon="6.13586">
        <ele>1448.310913</ele>
        <time>2016-08-27T14:05:04Z</time>
      </trkpt>
      <trkpt lat="45.36162" lon="6.13587">
        <ele>1449.563232</ele>
        <time>2016-08-27T14:05:09Z</time>
      </trkpt>
      <trkpt lat="45.36155" lon="6.13588">
        <ele>1450.827881</ele>
        <time>2016-08-27T14:05:14Z</time>
      </trkpt>
      <trkpt lat="45.36148" lon="6.1359">
        <ele>1451.874023</ele>
        <time>2016-08-27T14:05:19Z</time>
      </trkpt>
      <trkpt lat="45.36142" lon="6.13592">
        <ele>1452.452515</ele>
        <time>2016-08-27T14:05:24Z</time>
      </trkpt>
      <trkpt lat="45.36137" lon="6.13594">
        <ele>1452.557495</ele>
        <time>2016-08-27T14:05:29Z</time>
      </trkpt>
      <trkpt lat="45.36132" lon="6.13595">
        <ele>1453.1875</ele>
        <time>2016-08-27T14:05:34Z</time>
      </trkpt>
      <trkpt lat="45.36127" lon="6.13594">
        <ele>1454.079956</ele>
        <time>2016-08-27T14:05:39Z</time>
      </trkpt>
      <trkpt lat="45.36123" lon="6.1359">
        <ele>1455.567505</ele>
        <time>2016-08-27T14:05:44Z</time>
      </trkpt>
      <trkpt lat="45.36121" lon="6.13585">
        <ele>1456.897461</ele>
        <time>2016-08-27T14:05:49Z</time>
      </trkpt>
      <trkpt lat="45.36125" lon="6.13581">
        <ele>1457.282471</ele>
        <time>2016-08-27T14:05:54Z</time>
      </trkpt>
      <trkpt lat="45.3613" lon="6.13579">
        <ele>1457.07251</ele>
        <time>2016-08-27T14:05:59Z</time>
      </trkpt>
      <trkpt lat="45.36135" lon="6.13577">
        <ele>1456.810059</ele>
        <time>2016-08-27T14:06:04Z</time>
      </trkpt>
      <trkpt lat="45.36139" lon="6.13574">
        <ele>1456.827515</ele>
        <time>2016-08-27T14:06:09Z</time>
      </trkpt>
      <trkpt lat="45.36144" lon="6.13571">
        <ele>1456.949951</ele>
        <time>2016-08-27T14:06:14Z</time>
      </trkpt>
      <trkpt lat="45.36147" lon="6.13567">
        <ele>1457.217651</ele>
        <time>2016-08-27T14:06:19Z</time>
      </trkpt>
      <trkpt lat="45.3615" lon="6.13562">
        <ele>1457.395508</ele>
        <time>2016-08-27T14:06:24Z</time>
      </trkpt>
      <trkpt lat="45.36153" lon="6.13557">
        <ele>1457.555664</ele>
        <time>2016-08-27T14:06:29Z</time>
      </trkpt>
      <trkpt lat="45.36157" lon="6.13551">
        <ele>1457.681763</ele>
        <time>2016-08-27T14:06:34Z</time>
      </trkpt>
      <trkpt lat="45.36159" lon="6.13546">
        <ele>1458.01416</ele>
        <time>2016-08-27T14:06:39Z</time>
      </trkpt>
      <trkpt lat="45.36162" lon="6.1354">
        <ele>1458.265015</ele>
        <time>2016-08-27T14:06:44Z</time>
      </trkpt>
      <trkpt lat="45.36163" lon="6.13533">
        <ele>1458.725952</ele>
        <time>2016-08-27T14:06:49Z</time>
      </trkpt>
      <trkpt lat="45.36165" lon="6.13527">
        <ele>1459.451538</ele>
        <time>2016-08-27T14:06:54Z</time>
      </trkpt>
      <trkpt lat="45.36166" lon="6.13519">
        <ele>1460.265137</ele>
        <time>2016-08-27T14:06:59Z</time>
      </trkpt>
      <trkpt lat="45.36167" lon="6.13513">
        <ele>1460.967773</ele>
        <time>2016-08-27T14:07:04Z</time>
      </trkpt>
      <trkpt lat="45.36168" lon="6.13507">
        <ele>1461.58728</ele>
        <time>2016-08-27T14:07:09Z</time>
      </trkpt>
      <trkpt lat="45.36168" lon="6.135">
        <ele>1462.696899</ele>
        <time>2016-08-27T14:07:14Z</time>
      </trkpt>
      <trkpt lat="45.36169" lon="6.13493">
        <ele>1464.266968</ele>
        <time>2016-08-27T14:07:19Z</time>
      </trkpt>
      <trkpt lat="45.3617" lon="6.13484">
        <ele>1466.122437</ele>
        <time>2016-08-27T14:07:24Z</time>
      </trkpt>
      <trkpt lat="45.36171" lon="6.13476">
        <ele>1467.87085</ele>
        <time>2016-08-27T14:07:29Z</time>
      </trkpt>
      <trkpt lat="45.36172" lon="6.13468">
        <ele>1469.522705</ele>
        <time>2016-08-27T14:07:34Z</time>
      </trkpt>
      <trkpt lat="45.36173" lon="6.13461">
        <ele>1470.967285</ele>
        <time>2016-08-27T14:07:39Z</time>
      </trkpt>
      <trkpt lat="45.36173" lon="6.13455">
        <ele>1472.224976</ele>
        <time>2016-08-27T14:07:44Z</time>
      </trkpt>
      <trkpt lat="45.36174" lon="6.1345">
        <ele>1473.168457</ele>
        <time>2016-08-27T14:07:49Z</time>
      </trkpt>
      <trkpt lat="45.36178" lon="6.13445">
        <ele>1473.62207</ele>
        <time>2016-08-27T14:07:54Z</time>
      </trkpt>
      <trkpt lat="45.36181" lon="6.13438">
        <ele>1474.468872</ele>
        <time>2016-08-27T14:07:59Z</time>
      </trkpt>
      <trkpt lat="45.36183" lon="6.13435">
        <ele>1474.728271</ele>
        <time>2016-08-27T14:08:04Z</time>
      </trkpt>
      <trkpt lat="45.36187" lon="6.13432">
        <ele>1474.529663</ele>
        <time>2016-08-27T14:08:09Z</time>
      </trkpt>
      <trkpt lat="45.3619" lon="6.13431">
        <ele>1474.027588</ele>
        <time>2016-08-27T14:08:14Z</time>
      </trkpt>
      <trkpt lat="45.36194" lon="6.13428">
        <ele>1473.914917</ele>
        <time>2016-08-27T14:08:19Z</time>
      </trkpt>
      <trkpt lat="45.36198" lon="6.13424">
        <ele>1474.703369</ele>
        <time>2016-08-27T14:08:24Z</time>
      </trkpt>
      <trkpt lat="45.36204" lon="6.13421">
        <ele>1474.927124</ele>
        <time>2016-08-27T14:08:29Z</time>
      </trkpt>
      <trkpt lat="45.36209" lon="6.13418">
        <ele>1475.636597</ele>
        <time>2016-08-27T14:08:34Z</time>
      </trkpt>
      <trkpt lat="45.36214" lon="6.13415">
        <ele>1476.001099</ele>
        <time>2016-08-27T14:08:39Z</time>
      </trkpt>
      <trkpt lat="45.36218" lon="6.13412">
        <ele>1476.662598</ele>
        <time>2016-08-27T14:08:44Z</time>
      </trkpt>
      <trkpt lat="45.36223" lon="6.13412">
        <ele>1476.096313</ele>
        <time>2016-08-27T14:08:49Z</time>
      </trkpt>
      <trkpt lat="45.36228" lon="6.13409">
        <ele>1476.715698</ele>
        <time>2016-08-27T14:08:54Z</time>
      </trkpt>
      <trkpt lat="45.36233" lon="6.13407">
        <ele>1476.859985</ele>
        <time>2016-08-27T14:08:59Z</time>
      </trkpt>
      <trkpt lat="45.36237" lon="6.13404">
        <ele>1477.438721</ele>
        <time>2016-08-27T14:09:04Z</time>
      </trkpt>
      <trkpt lat="45.3624" lon="6.13401">
        <ele>1478.102051</ele>
        <time>2016-08-27T14:09:09Z</time>
      </trkpt>
      <trkpt lat="45.36242" lon="6.13399">
        <ele>1478.594971</ele>
        <time>2016-08-27T14:09:14Z</time>
      </trkpt>
      <trkpt lat="45.36242" lon="6.13397">
        <ele>1479.404175</ele>
        <time>2016-08-27T14:09:19Z</time>
      </trkpt>
      <trkpt lat="45.36243" lon="6.13395">
        <ele>1479.878906</ele>
        <time>2016-08-27T14:09:24Z</time>
      </trkpt>
      <trkpt lat="45.36247" lon="6.13394">
        <ele>1479.639771</ele>
        <time>2016-08-27T14:09:29Z</time>
      </trkpt>
      <trkpt lat="45.36253" lon="6.13394">
        <ele>1479.210205</ele>
        <time>2016-08-27T14:09:34Z</time>
      </trkpt>
      <trkpt lat="45.36259" lon="6.13392">
        <ele>1478.970215</ele>
        <time>2016-08-27T14:09:39Z</time>
      </trkpt>
      <trkpt lat="45.36263" lon="6.13389">
        <ele>1479.515503</ele>
        <time>2016-08-27T14:09:44Z</time>
      </trkpt>
      <trkpt lat="45.36269" lon="6.13387">
        <ele>1479.81543</ele>
        <time>2016-08-27T14:09:49Z</time>
      </trkpt>
      <trkpt lat="45.36273" lon="6.13384">
        <ele>1480.218262</ele>
        <time>2016-08-27T14:09:54Z</time>
      </trkpt>
      <trkpt lat="45.36278" lon="6.13381">
        <ele>1480.465698</ele>
        <time>2016-08-27T14:09:59Z</time>
      </trkpt>
      <trkpt lat="45.36282" lon="6.13379">
        <ele>1480.526001</ele>
        <time>2016-08-27T14:10:04Z</time>
      </trkpt>
      <trkpt lat="45.36287" lon="6.13374">
        <ele>1481.09729</ele>
        <time>2016-08-27T14:10:09Z</time>
      </trkpt>
      <trkpt lat="45.36291" lon="6.13371">
        <ele>1481.225098</ele>
        <time>2016-08-27T14:10:14Z</time>
      </trkpt>
      <trkpt lat="45.36295" lon="6.13365">
        <ele>1481.901733</ele>
        <time>2016-08-27T14:10:19Z</time>
      </trkpt>
      <trkpt lat="45.36297" lon="6.13363">
        <ele>1482.039673</ele>
        <time>2016-08-27T14:10:24Z</time>
      </trkpt>
      <trkpt lat="45.36301" lon="6.1336">
        <ele>1482.16748</ele>
        <time>2016-08-27T14:10:29Z</time>
      </trkpt>
      <trkpt lat="45.36306" lon="6.13357">
        <ele>1482.435547</ele>
        <time>2016-08-27T14:10:34Z</time>
      </trkpt>
      <trkpt lat="45.3631" lon="6.13352">
        <ele>1482.995361</ele>
        <time>2016-08-27T14:10:39Z</time>
      </trkpt>
      <trkpt lat="45.36314" lon="6.13347">
        <ele>1483.701538</ele>
        <time>2016-08-27T14:10:44Z</time>
      </trkpt>
      <trkpt lat="45.36316" lon="6.1334">
        <ele>1485.285889</ele>
        <time>2016-08-27T14:10:49Z</time>
      </trkpt>
      <trkpt lat="45.36319" lon="6.13335">
        <ele>1486.323853</ele>
        <time>2016-08-27T14:10:54Z</time>
      </trkpt>
      <trkpt lat="45.36321" lon="6.13328">
        <ele>1487.804199</ele>
        <time>2016-08-27T14:10:59Z</time>
      </trkpt>
      <trkpt lat="45.36323" lon="6.13322">
        <ele>1489.233154</ele>
        <time>2016-08-27T14:11:04Z</time>
      </trkpt>
      <trkpt lat="45.36322" lon="6.13314">
        <ele>1490.959106</ele>
        <time>2016-08-27T14:11:09Z</time>
      </trkpt>
      <trkpt lat="45.36321" lon="6.13308">
        <ele>1492.34375</ele>
        <time>2016-08-27T14:11:14Z</time>
      </trkpt>
      <trkpt lat="45.3632" lon="6.13301">
        <ele>1493.760498</ele>
        <time>2016-08-27T14:11:19Z</time>
      </trkpt>
      <trkpt lat="45.36319" lon="6.13294">
        <ele>1495.316162</ele>
        <time>2016-08-27T14:11:24Z</time>
      </trkpt>
      <trkpt lat="45.36319" lon="6.13291">
        <ele>1495.886841</ele>
        <time>2016-08-27T14:11:29Z</time>
      </trkpt>
      <trkpt lat="45.36319" lon="6.1329">
        <ele>1496.070435</ele>
        <time>2016-08-27T14:11:34Z</time>
      </trkpt>
      <trkpt lat="45.3632" lon="6.13289">
        <ele>1496.22644</ele>
        <time>2016-08-27T14:11:39Z</time>
      </trkpt>
      <trkpt lat="45.36321" lon="6.13288">
        <ele>1496.509766</ele>
        <time>2016-08-27T14:11:44Z</time>
      </trkpt>
      <trkpt lat="45.3632" lon="6.13286">
        <ele>1496.951538</ele>
        <time>2016-08-27T14:11:49Z</time>
      </trkpt>
      <trkpt lat="45.36319" lon="6.1328">
        <ele>1498.216064</ele>
        <time>2016-08-27T14:11:54Z</time>
      </trkpt>
      <trkpt lat="45.36318" lon="6.13277">
        <ele>1498.836182</ele>
        <time>2016-08-27T14:11:59Z</time>
      </trkpt>
      <trkpt lat="45.36317" lon="6.13274">
        <ele>1499.490845</ele>
        <time>2016-08-27T14:12:04Z</time>
      </trkpt>
      <trkpt lat="45.36316" lon="6.13272">
        <ele>1499.948364</ele>
        <time>2016-08-27T14:12:09Z</time>
      </trkpt>
      <trkpt lat="45.36315" lon="6.13269">
        <ele>1500.610474</ele>
        <time>2016-08-27T14:12:14Z</time>
      </trkpt>
      <trkpt lat="45.36312" lon="6.13266">
        <ele>1501.41687</ele>
        <time>2016-08-27T14:12:19Z</time>
      </trkpt>
      <trkpt lat="45.36313" lon="6.1326">
        <ele>1502.500366</ele>
        <time>2016-08-27T14:12:24Z</time>
      </trkpt>
      <trkpt lat="45.36316" lon="6.13256">
        <ele>1503.204834</ele>
        <time>2016-08-27T14:12:29Z</time>
      </trkpt>
      <trkpt lat="45.36317" lon="6.13256">
        <ele>1503.276367</ele>
        <time>2016-08-27T14:12:34Z</time>
      </trkpt>
      <trkpt lat="45.36318" lon="6.13254">
        <ele>1503.851074</ele>
        <time>2016-08-27T14:12:39Z</time>
      </trkpt>
      <trkpt lat="45.36321" lon="6.13254">
        <ele>1503.673218</ele>
        <time>2016-08-27T14:12:44Z</time>
      </trkpt>
      <trkpt lat="45.36321" lon="6.13255">
        <ele>1503.415405</ele>
        <time>2016-08-27T14:12:49Z</time>
      </trkpt>
      <trkpt lat="45.36323" lon="6.13257">
        <ele>1502.84082</ele>
        <time>2016-08-27T14:12:54Z</time>
      </trkpt>
      <trkpt lat="45.36324" lon="6.13255">
        <ele>1503.499023</ele>
        <time>2016-08-27T14:12:59Z</time>
      </trkpt>
      <trkpt lat="45.36327" lon="6.13254">
        <ele>1503.593628</ele>
        <time>2016-08-27T14:13:04Z</time>
      </trkpt>
      <trkpt lat="45.36331" lon="6.13255">
        <ele>1503.145752</ele>
        <time>2016-08-27T14:13:09Z</time>
      </trkpt>
      <trkpt lat="45.36333" lon="6.13254">
        <ele>1503.564575</ele>
        <time>2016-08-27T14:13:14Z</time>
      </trkpt>
      <trkpt lat="45.36336" lon="6.13252">
        <ele>1504.023438</ele>
        <time>2016-08-27T14:13:19Z</time>
      </trkpt>
      <trkpt lat="45.36343" lon="6.13256">
        <ele>1502.451538</ele>
        <time>2016-08-27T14:13:24Z</time>
      </trkpt>
      <trkpt lat="45.36348" lon="6.13256">
        <ele>1501.960449</ele>
        <time>2016-08-27T14:13:29Z</time>
      </trkpt>
      <trkpt lat="45.36353" lon="6.13256">
        <ele>1501.587036</ele>
        <time>2016-08-27T14:13:34Z</time>
      </trkpt>
      <trkpt lat="45.3636" lon="6.13256">
        <ele>1501.346069</ele>
        <time>2016-08-27T14:13:39Z</time>
      </trkpt>
      <trkpt lat="45.36363" lon="6.1325">
        <ele>1502.953613</ele>
        <time>2016-08-27T14:13:44Z</time>
      </trkpt>
      <trkpt lat="45.3636" lon="6.13245">
        <ele>1504.685669</ele>
        <time>2016-08-27T14:13:49Z</time>
      </trkpt>
      <trkpt lat="45.36356" lon="6.13242">
        <ele>1505.964111</ele>
        <time>2016-08-27T14:13:54Z</time>
      </trkpt>
      <trkpt lat="45.36351" lon="6.13239">
        <ele>1507.216919</ele>
        <time>2016-08-27T14:13:59Z</time>
      </trkpt>
      <trkpt lat="45.36347" lon="6.13236">
        <ele>1508.134033</ele>
        <time>2016-08-27T14:14:04Z</time>
      </trkpt>
      <trkpt lat="45.36343" lon="6.13234">
        <ele>1509.192383</ele>
        <time>2016-08-27T14:14:09Z</time>
      </trkpt>
      <trkpt lat="45.36339" lon="6.13231">
        <ele>1510.187988</ele>
        <time>2016-08-27T14:14:14Z</time>
      </trkpt>
      <trkpt lat="45.36334" lon="6.1323">
        <ele>1510.769043</ele>
        <time>2016-08-27T14:14:19Z</time>
      </trkpt>
      <trkpt lat="45.36328" lon="6.13229">
        <ele>1511.169312</ele>
        <time>2016-08-27T14:14:24Z</time>
      </trkpt>
      <trkpt lat="45.36324" lon="6.13228">
        <ele>1511.459595</ele>
        <time>2016-08-27T14:14:29Z</time>
      </trkpt>
      <trkpt lat="45.36318" lon="6.13228">
        <ele>1511.553223</ele>
        <time>2016-08-27T14:14:34Z</time>
      </trkpt>
      <trkpt lat="45.36312" lon="6.13229">
        <ele>1511.252808</ele>
        <time>2016-08-27T14:14:39Z</time>
      </trkpt>
      <trkpt lat="45.36305" lon="6.13231">
        <ele>1510.731934</ele>
        <time>2016-08-27T14:14:44Z</time>
      </trkpt>
      <trkpt lat="45.363" lon="6.13235">
        <ele>1509.744751</ele>
        <time>2016-08-27T14:14:49Z</time>
      </trkpt>
      <trkpt lat="45.36295" lon="6.13237">
        <ele>1509.14978</ele>
        <time>2016-08-27T14:14:54Z</time>
      </trkpt>
      <trkpt lat="45.3629" lon="6.13238">
        <ele>1509.034302</ele>
        <time>2016-08-27T14:14:59Z</time>
      </trkpt>
      <trkpt lat="45.36286" lon="6.1324">
        <ele>1508.952637</ele>
        <time>2016-08-27T14:15:04Z</time>
      </trkpt>
      <trkpt lat="45.36281" lon="6.13243">
        <ele>1508.371338</ele>
        <time>2016-08-27T14:15:09Z</time>
      </trkpt>
      <trkpt lat="45.36276" lon="6.13248">
        <ele>1507.362305</ele>
        <time>2016-08-27T14:15:14Z</time>
      </trkpt>
      <trkpt lat="45.36269" lon="6.13251">
        <ele>1506.943726</ele>
        <time>2016-08-27T14:15:19Z</time>
      </trkpt>
      <trkpt lat="45.36263" lon="6.13254">
        <ele>1506.613159</ele>
        <time>2016-08-27T14:15:24Z</time>
      </trkpt>
      <trkpt lat="45.36257" lon="6.13257">
        <ele>1506.382324</ele>
        <time>2016-08-27T14:15:29Z</time>
      </trkpt>
      <trkpt lat="45.36248" lon="6.13259">
        <ele>1506.791748</ele>
        <time>2016-08-27T14:15:34Z</time>
      </trkpt>
      <trkpt lat="45.36242" lon="6.13261">
        <ele>1507.550537</ele>
        <time>2016-08-27T14:15:39Z</time>
      </trkpt>
      <trkpt lat="45.36236" lon="6.13263">
        <ele>1508.423584</ele>
        <time>2016-08-27T14:15:44Z</time>
      </trkpt>
      <trkpt lat="45.36231" lon="6.13265">
        <ele>1509.348022</ele>
        <time>2016-08-27T14:15:49Z</time>
      </trkpt>
      <trkpt lat="45.36226" lon="6.13261">
        <ele>1510.925537</ele>
        <time>2016-08-27T14:15:54Z</time>
      </trkpt>
      <trkpt lat="45.36224" lon="6.13255">
        <ele>1512.814941</ele>
        <time>2016-08-27T14:15:59Z</time>
      </trkpt>
      <trkpt lat="45.36223" lon="6.13246">
        <ele>1515.240601</ele>
        <time>2016-08-27T14:16:04Z</time>
      </trkpt>
      <trkpt lat="45.36224" lon="6.13238">
        <ele>1517.765381</ele>
        <time>2016-08-27T14:16:09Z</time>
      </trkpt>
      <trkpt lat="45.36227" lon="6.13231">
        <ele>1519.674438</ele>
        <time>2016-08-27T14:16:14Z</time>
      </trkpt>
      <trkpt lat="45.36231" lon="6.13226">
        <ele>1520.004028</ele>
        <time>2016-08-27T14:16:19Z</time>
      </trkpt>
      <trkpt lat="45.36236" lon="6.13223">
        <ele>1519.731934</ele>
        <time>2016-08-27T14:16:24Z</time>
      </trkpt>
      <trkpt lat="45.3624" lon="6.13223">
        <ele>1518.843506</ele>
        <time>2016-08-27T14:16:29Z</time>
      </trkpt>
      <trkpt lat="45.3624" lon="6.13225">
        <ele>1518.131592</ele>
        <time>2016-08-27T14:16:34Z</time>
      </trkpt>
      <trkpt lat="45.36239" lon="6.13225">
        <ele>1518.184814</ele>
        <time>2016-08-27T14:16:39Z</time>
      </trkpt>
      <trkpt lat="45.3624" lon="6.13226">
        <ele>1517.878906</ele>
        <time>2016-08-27T14:16:44Z</time>
      </trkpt>
      <trkpt lat="45.3624" lon="6.13224">
        <ele>1518.499756</ele>
        <time>2016-08-27T14:16:49Z</time>
      </trkpt>
      <trkpt lat="45.3624" lon="6.13223">
        <ele>1518.696167</ele>
        <time>2016-08-27T14:16:54Z</time>
      </trkpt>
      <trkpt lat="45.3624" lon="6.13223">
        <ele>1518.74707</ele>
        <time>2016-08-27T14:16:59Z</time>
      </trkpt>
      <trkpt lat="45.3624" lon="6.13222">
        <ele>1519.098022</ele>
        <time>2016-08-27T14:17:04Z</time>
      </trkpt>
      <trkpt lat="45.3624" lon="6.13221">
        <ele>1519.343262</ele>
        <time>2016-08-27T14:17:09Z</time>
      </trkpt>
      <trkpt lat="45.36241" lon="6.13221">
        <ele>1519.238647</ele>
        <time>2016-08-27T14:17:14Z</time>
      </trkpt>
      <trkpt lat="45.36241" lon="6.1322">
        <ele>1519.36084</ele>
        <time>2016-08-27T14:17:19Z</time>
      </trkpt>
      <trkpt lat="45.3624" lon="6.1322">
        <ele>1519.564453</ele>
        <time>2016-08-27T14:17:24Z</time>
      </trkpt>
      <trkpt lat="45.36242" lon="6.1322">
        <ele>1519.263062</ele>
        <time>2016-08-27T14:17:29Z</time>
      </trkpt>
      <trkpt lat="45.36245" lon="6.13219">
        <ele>1518.516602</ele>
        <time>2016-08-27T14:17:34Z</time>
      </trkpt>
      <trkpt lat="45.3625" lon="6.13217">
        <ele>1518.542725</ele>
        <time>2016-08-27T14:17:39Z</time>
      </trkpt>
      <trkpt lat="45.36253" lon="6.13216">
        <ele>1518.508179</ele>
        <time>2016-08-27T14:17:44Z</time>
      </trkpt>
      <trkpt lat="45.36259" lon="6.13215">
        <ele>1518.273926</ele>
        <time>2016-08-27T14:17:49Z</time>
      </trkpt>
      <trkpt lat="45.36265" lon="6.13215">
        <ele>1517.954834</ele>
        <time>2016-08-27T14:17:54Z</time>
      </trkpt>
      <trkpt lat="45.36269" lon="6.13214">
        <ele>1517.793823</ele>
        <time>2016-08-27T14:17:59Z</time>
      </trkpt>
      <trkpt lat="45.36274" lon="6.13214">
        <ele>1517.44519</ele>
        <time>2016-08-27T14:18:04Z</time>
      </trkpt>
      <trkpt lat="45.36279" lon="6.13209">
        <ele>1518.491821</ele>
        <time>2016-08-27T14:18:09Z</time>
      </trkpt>
      <trkpt lat="45.36282" lon="6.13206">
        <ele>1519.094971</ele>
        <time>2016-08-27T14:18:14Z</time>
      </trkpt>
      <trkpt lat="45.36286" lon="6.13202">
        <ele>1519.880737</ele>
        <time>2016-08-27T14:18:19Z</time>
      </trkpt>
      <trkpt lat="45.3629" lon="6.13199">
        <ele>1520.350098</ele>
        <time>2016-08-27T14:18:24Z</time>
      </trkpt>
      <trkpt lat="45.36293" lon="6.13196">
        <ele>1520.999512</ele>
        <time>2016-08-27T14:18:29Z</time>
      </trkpt>
      <trkpt lat="45.36298" lon="6.13191">
        <ele>1522.692261</ele>
        <time>2016-08-27T14:18:34Z</time>
      </trkpt>
      <trkpt lat="45.36301" lon="6.13188">
        <ele>1524.138428</ele>
        <time>2016-08-27T14:18:39Z</time>
      </trkpt>
      <trkpt lat="45.36304" lon="6.13185">
        <ele>1525.821167</ele>
        <time>2016-08-27T14:18:44Z</time>
      </trkpt>
      <trkpt lat="45.36307" lon="6.13182">
        <ele>1527.701782</ele>
        <time>2016-08-27T14:18:49Z</time>
      </trkpt>
      <trkpt lat="45.3631" lon="6.13175">
        <ele>1531.113037</ele>
        <time>2016-08-27T14:18:54Z</time>
      </trkpt>
      <trkpt lat="45.36313" lon="6.13169">
        <ele>1534.300781</ele>
        <time>2016-08-27T14:18:59Z</time>
      </trkpt>
      <trkpt lat="45.36316" lon="6.13167">
        <ele>1535.16748</ele>
        <time>2016-08-27T14:19:04Z</time>
      </trkpt>
      <trkpt lat="45.36319" lon="6.13164">
        <ele>1537.012085</ele>
        <time>2016-08-27T14:19:09Z</time>
      </trkpt>
      <trkpt lat="45.36322" lon="6.13161">
        <ele>1538.440796</ele>
        <time>2016-08-27T14:19:14Z</time>
      </trkpt>
      <trkpt lat="45.36326" lon="6.1316">
        <ele>1538.934326</ele>
        <time>2016-08-27T14:19:19Z</time>
      </trkpt>
      <trkpt lat="45.36329" lon="6.1316">
        <ele>1538.647095</ele>
        <time>2016-08-27T14:19:24Z</time>
      </trkpt>
      <trkpt lat="45.36332" lon="6.1316">
        <ele>1538.526855</ele>
        <time>2016-08-27T14:19:29Z</time>
      </trkpt>
      <trkpt lat="45.36334" lon="6.13156">
        <ele>1540.947632</ele>
        <time>2016-08-27T14:19:34Z</time>
      </trkpt>
      <trkpt lat="45.36337" lon="6.13155">
        <ele>1541.261108</ele>
        <time>2016-08-27T14:19:39Z</time>
      </trkpt>
      <trkpt lat="45.36339" lon="6.13154">
        <ele>1541.891479</ele>
        <time>2016-08-27T14:19:44Z</time>
      </trkpt>
      <trkpt lat="45.36343" lon="6.13153">
        <ele>1541.984985</ele>
        <time>2016-08-27T14:19:49Z</time>
      </trkpt>
      <trkpt lat="45.36348" lon="6.13154">
        <ele>1541.599976</ele>
        <time>2016-08-27T14:19:54Z</time>
      </trkpt>
      <trkpt lat="45.36354" lon="6.13154">
        <ele>1541.724976</ele>
        <time>2016-08-27T14:19:59Z</time>
      </trkpt>
      <trkpt lat="45.36359" lon="6.13153">
        <ele>1542.185059</ele>
        <time>2016-08-27T14:20:04Z</time>
      </trkpt>
      <trkpt lat="45.36363" lon="6.13151">
        <ele>1543.160034</ele>
        <time>2016-08-27T14:20:09Z</time>
      </trkpt>
      <trkpt lat="45.36367" lon="6.13148">
        <ele>1544.515015</ele>
        <time>2016-08-27T14:20:14Z</time>
      </trkpt>
      <trkpt lat="45.36371" lon="6.13145">
        <ele>1545.98999</ele>
        <time>2016-08-27T14:20:19Z</time>
      </trkpt>
      <trkpt lat="45.36375" lon="6.13144">
        <ele>1546.550049</ele>
        <time>2016-08-27T14:20:24Z</time>
      </trkpt>
      <trkpt lat="45.36378" lon="6.13146">
        <ele>1545.27002</ele>
        <time>2016-08-27T14:20:29Z</time>
      </trkpt>
      <trkpt lat="45.36383" lon="6.13147">
        <ele>1544.88501</ele>
        <time>2016-08-27T14:20:34Z</time>
      </trkpt>
      <trkpt lat="45.36387" lon="6.13145">
        <ele>1545.599976</ele>
        <time>2016-08-27T14:20:39Z</time>
      </trkpt>
      <trkpt lat="45.36393" lon="6.13144">
        <ele>1546.560059</ele>
        <time>2016-08-27T14:20:44Z</time>
      </trkpt>
      <trkpt lat="45.36396" lon="6.13141">
        <ele>1547.920044</ele>
        <time>2016-08-27T14:20:49Z</time>
      </trkpt>
      <trkpt lat="45.36398" lon="6.13139">
        <ele>1549.040039</ele>
        <time>2016-08-27T14:20:54Z</time>
      </trkpt>
      <trkpt lat="45.36399" lon="6.13138">
        <ele>1549.599976</ele>
        <time>2016-08-27T14:20:59Z</time>
      </trkpt>
      <trkpt lat="45.36402" lon="6.13138">
        <ele>1549.640015</ele>
        <time>2016-08-27T14:21:04Z</time>
      </trkpt>
      <trkpt lat="45.36407" lon="6.13141">
        <ele>1548.599976</ele>
        <time>2016-08-27T14:21:09Z</time>
      </trkpt>
      <trkpt lat="45.36411" lon="6.13144">
        <ele>1547.359985</ele>
        <time>2016-08-27T14:21:14Z</time>
      </trkpt>
      <trkpt lat="45.36416" lon="6.13145">
        <ele>1546.839966</ele>
        <time>2016-08-27T14:21:19Z</time>
      </trkpt>
      <trkpt lat="45.36421" lon="6.13145">
        <ele>1547</ele>
        <time>2016-08-27T14:21:24Z</time>
      </trkpt>
      <trkpt lat="45.36425" lon="6.13145">
        <ele>1547.079956</ele>
        <time>2016-08-27T14:21:29Z</time>
      </trkpt>
      <trkpt lat="45.36429" lon="6.13144">
        <ele>1547.52002</ele>
        <time>2016-08-27T14:21:34Z</time>
      </trkpt>
      <trkpt lat="45.36432" lon="6.13144">
        <ele>1547.953247</ele>
        <time>2016-08-27T14:21:39Z</time>
      </trkpt>
      <trkpt lat="45.36437" lon="6.13142">
        <ele>1548.697266</ele>
        <time>2016-08-27T14:21:44Z</time>
      </trkpt>
      <trkpt lat="45.36443" lon="6.13142">
        <ele>1548.94043</ele>
        <time>2016-08-27T14:21:49Z</time>
      </trkpt>
      <trkpt lat="45.36448" lon="6.13144">
        <ele>1548.28833</ele>
        <time>2016-08-27T14:21:54Z</time>
      </trkpt>
      <trkpt lat="45.36454" lon="6.13145">
        <ele>1547.722046</ele>
        <time>2016-08-27T14:21:59Z</time>
      </trkpt>
      <trkpt lat="45.36458" lon="6.13145">
        <ele>1547.838135</ele>
        <time>2016-08-27T14:22:04Z</time>
      </trkpt>
      <trkpt lat="45.36462" lon="6.13142">
        <ele>1549.030884</ele>
        <time>2016-08-27T14:22:09Z</time>
      </trkpt>
      <trkpt lat="45.36465" lon="6.1314">
        <ele>1550.367798</ele>
        <time>2016-08-27T14:22:14Z</time>
      </trkpt>
      <trkpt lat="45.36467" lon="6.13136">
        <ele>1551.650024</ele>
        <time>2016-08-27T14:22:19Z</time>
      </trkpt>
      <trkpt lat="45.3647" lon="6.13131">
        <ele>1553.264648</ele>
        <time>2016-08-27T14:22:24Z</time>
      </trkpt>
      <trkpt lat="45.36472" lon="6.13126">
        <ele>1554.947998</ele>
        <time>2016-08-27T14:22:29Z</time>
      </trkpt>
      <trkpt lat="45.36474" lon="6.13121">
        <ele>1556.647949</ele>
        <time>2016-08-27T14:22:34Z</time>
      </trkpt>
      <trkpt lat="45.36477" lon="6.13116">
        <ele>1558.316895</ele>
        <time>2016-08-27T14:22:39Z</time>
      </trkpt>
      <trkpt lat="45.36479" lon="6.1311">
        <ele>1559.720459</ele>
        <time>2016-08-27T14:22:44Z</time>
      </trkpt>
      <trkpt lat="45.36481" lon="6.13104">
        <ele>1561.035156</ele>
        <time>2016-08-27T14:22:49Z</time>
      </trkpt>
      <trkpt lat="45.36483" lon="6.13098">
        <ele>1562.619873</ele>
        <time>2016-08-27T14:22:54Z</time>
      </trkpt>
      <trkpt lat="45.36484" lon="6.13091">
        <ele>1564.430298</ele>
        <time>2016-08-27T14:22:59Z</time>
      </trkpt>
      <trkpt lat="45.36486" lon="6.13085">
        <ele>1566.02771</ele>
        <time>2016-08-27T14:23:04Z</time>
      </trkpt>
      <trkpt lat="45.36488" lon="6.13078">
        <ele>1568.002075</ele>
        <time>2016-08-27T14:23:09Z</time>
      </trkpt>
      <trkpt lat="45.36489" lon="6.13072">
        <ele>1568.42981</ele>
        <time>2016-08-27T14:23:14Z</time>
      </trkpt>
      <trkpt lat="45.36491" lon="6.13066">
        <ele>1568.467651</ele>
        <time>2016-08-27T14:23:19Z</time>
      </trkpt>
      <trkpt lat="45.36493" lon="6.1306">
        <ele>1568.576538</ele>
        <time>2016-08-27T14:23:24Z</time>
      </trkpt>
      <trkpt lat="45.36494" lon="6.13055">
        <ele>1568.71167</ele>
        <time>2016-08-27T14:23:29Z</time>
      </trkpt>
      <trkpt lat="45.36493" lon="6.13047">
        <ele>1569.891113</ele>
        <time>2016-08-27T14:23:34Z</time>
      </trkpt>
      <trkpt lat="45.36492" lon="6.1304">
        <ele>1571.162842</ele>
        <time>2016-08-27T14:23:39Z</time>
      </trkpt>
      <trkpt lat="45.36492" lon="6.13034">
        <ele>1571.865967</ele>
        <time>2016-08-27T14:23:44Z</time>
      </trkpt>
      <trkpt lat="45.36491" lon="6.13026">
        <ele>1573.574219</ele>
        <time>2016-08-27T14:23:49Z</time>
      </trkpt>
      <trkpt lat="45.3649" lon="6.13018">
        <ele>1574.816895</ele>
        <time>2016-08-27T14:23:54Z</time>
      </trkpt>
      <trkpt lat="45.3649" lon="6.1301">
        <ele>1575.882568</ele>
        <time>2016-08-27T14:23:59Z</time>
      </trkpt>
      <trkpt lat="45.3649" lon="6.13003">
        <ele>1577.045288</ele>
        <time>2016-08-27T14:24:04Z</time>
      </trkpt>
      <trkpt lat="45.3649" lon="6.12996">
        <ele>1578.181641</ele>
        <time>2016-08-27T14:24:09Z</time>
      </trkpt>
      <trkpt lat="45.36488" lon="6.12989">
        <ele>1579.730713</ele>
        <time>2016-08-27T14:24:14Z</time>
      </trkpt>
      <trkpt lat="45.36488" lon="6.12984">
        <ele>1580.957886</ele>
        <time>2016-08-27T14:24:19Z</time>
      </trkpt>
      <trkpt lat="45.36485" lon="6.1298">
        <ele>1582.770142</ele>
        <time>2016-08-27T14:24:24Z</time>
      </trkpt>
      <trkpt lat="45.36482" lon="6.12978">
        <ele>1585.008667</ele>
        <time>2016-08-27T14:24:29Z</time>
      </trkpt>
      <trkpt lat="45.36479" lon="6.12976">
        <ele>1586.843994</ele>
        <time>2016-08-27T14:24:34Z</time>
      </trkpt>
      <trkpt lat="45.36477" lon="6.12977">
        <ele>1587.334351</ele>
        <time>2016-08-27T14:24:39Z</time>
      </trkpt>
      <trkpt lat="45.36475" lon="6.12979">
        <ele>1587.878174</ele>
        <time>2016-08-27T14:24:44Z</time>
      </trkpt>
      <trkpt lat="45.36472" lon="6.12982">
        <ele>1588.237305</ele>
        <time>2016-08-27T14:24:49Z</time>
      </trkpt>
      <trkpt lat="45.36469" lon="6.12984">
        <ele>1588.860352</ele>
        <time>2016-08-27T14:24:54Z</time>
      </trkpt>
      <trkpt lat="45.36465" lon="6.12985">
        <ele>1590.110229</ele>
        <time>2016-08-27T14:24:59Z</time>
      </trkpt>
      <trkpt lat="45.36461" lon="6.12986">
        <ele>1591.196411</ele>
        <time>2016-08-27T14:25:04Z</time>
      </trkpt>
      <trkpt lat="45.36456" lon="6.12987">
        <ele>1592.615845</ele>
        <time>2016-08-27T14:25:09Z</time>
      </trkpt>
      <trkpt lat="45.36452" lon="6.12987">
        <ele>1593.950317</ele>
        <time>2016-08-27T14:25:14Z</time>
      </trkpt>
      <trkpt lat="45.36448" lon="6.12988">
        <ele>1595.009277</ele>
        <time>2016-08-27T14:25:19Z</time>
      </trkpt>
      <trkpt lat="45.36444" lon="6.12988">
        <ele>1596.331543</ele>
        <time>2016-08-27T14:25:24Z</time>
      </trkpt>
      <trkpt lat="45.3644" lon="6.12988">
        <ele>1597.231079</ele>
        <time>2016-08-27T14:25:29Z</time>
      </trkpt>
      <trkpt lat="45.36436" lon="6.12988">
        <ele>1598.738159</ele>
        <time>2016-08-27T14:25:34Z</time>
      </trkpt>
      <trkpt lat="45.36432" lon="6.12988">
        <ele>1599.247559</ele>
        <time>2016-08-27T14:25:39Z</time>
      </trkpt>
      <trkpt lat="45.36428" lon="6.12989">
        <ele>1599.475708</ele>
        <time>2016-08-27T14:25:44Z</time>
      </trkpt>
      <trkpt lat="45.36422" lon="6.12991">
        <ele>1599.772461</ele>
        <time>2016-08-27T14:25:49Z</time>
      </trkpt>
      <trkpt lat="45.36418" lon="6.12992">
        <ele>1599.98645</ele>
        <time>2016-08-27T14:25:54Z</time>
      </trkpt>
      <trkpt lat="45.36413" lon="6.12993">
        <ele>1600.322632</ele>
        <time>2016-08-27T14:25:59Z</time>
      </trkpt>
      <trkpt lat="45.36409" lon="6.12995">
        <ele>1600.358887</ele>
        <time>2016-08-27T14:26:04Z</time>
      </trkpt>
      <trkpt lat="45.36405" lon="6.12995">
        <ele>1600.724731</ele>
        <time>2016-08-27T14:26:09Z</time>
      </trkpt>
      <trkpt lat="45.36401" lon="6.12996">
        <ele>1600.899414</ele>
        <time>2016-08-27T14:26:14Z</time>
      </trkpt>
      <trkpt lat="45.36399" lon="6.12996">
        <ele>1601.255615</ele>
        <time>2016-08-27T14:26:19Z</time>
      </trkpt>
      <trkpt lat="45.36395" lon="6.12995">
        <ele>1601.893066</ele>
        <time>2016-08-27T14:26:24Z</time>
      </trkpt>
      <trkpt lat="45.3639" lon="6.12996">
        <ele>1602.388184</ele>
        <time>2016-08-27T14:26:29Z</time>
      </trkpt>
      <trkpt lat="45.36384" lon="6.12995">
        <ele>1602.940918</ele>
        <time>2016-08-27T14:26:34Z</time>
      </trkpt>
      <trkpt lat="45.36379" lon="6.12994">
        <ele>1603.647827</ele>
        <time>2016-08-27T14:26:39Z</time>
      </trkpt>
      <trkpt lat="45.36374" lon="6.12993">
        <ele>1604.370361</ele>
        <time>2016-08-27T14:26:44Z</time>
      </trkpt>
      <trkpt lat="45.36369" lon="6.12993">
        <ele>1604.660645</ele>
        <time>2016-08-27T14:26:49Z</time>
      </trkpt>
      <trkpt lat="45.36364" lon="6.12992">
        <ele>1605.581909</ele>
        <time>2016-08-27T14:26:54Z</time>
      </trkpt>
      <trkpt lat="45.36359" lon="6.1299">
        <ele>1606.631836</ele>
        <time>2016-08-27T14:26:59Z</time>
      </trkpt>
      <trkpt lat="45.36354" lon="6.12988">
        <ele>1607.530273</ele>
        <time>2016-08-27T14:27:04Z</time>
      </trkpt>
      <trkpt lat="45.36349" lon="6.12988">
        <ele>1608.113159</ele>
        <time>2016-08-27T14:27:09Z</time>
      </trkpt>
      <trkpt lat="45.36344" lon="6.12988">
        <ele>1608.43396</ele>
        <time>2016-08-27T14:27:14Z</time>
      </trkpt>
      <trkpt lat="45.36341" lon="6.12988">
        <ele>1608.873413</ele>
        <time>2016-08-27T14:27:19Z</time>
      </trkpt>
      <trkpt lat="45.36336" lon="6.12986">
        <ele>1609.807251</ele>
        <time>2016-08-27T14:27:24Z</time>
      </trkpt>
      <trkpt lat="45.36331" lon="6.12985">
        <ele>1610.860596</ele>
        <time>2016-08-27T14:27:29Z</time>
      </trkpt>
      <trkpt lat="45.36327" lon="6.12982">
        <ele>1612.219482</ele>
        <time>2016-08-27T14:27:34Z</time>
      </trkpt>
      <trkpt lat="45.36322" lon="6.1298">
        <ele>1613.661987</ele>
        <time>2016-08-27T14:27:39Z</time>
      </trkpt>
      <trkpt lat="45.36319" lon="6.12978">
        <ele>1614.84314</ele>
        <time>2016-08-27T14:27:44Z</time>
      </trkpt>
      <trkpt lat="45.36314" lon="6.12977">
        <ele>1615.805542</ele>
        <time>2016-08-27T14:27:49Z</time>
      </trkpt>
      <trkpt lat="45.3631" lon="6.12976">
        <ele>1616.523438</ele>
        <time>2016-08-27T14:27:54Z</time>
      </trkpt>
      <trkpt lat="45.36305" lon="6.12976">
        <ele>1617.358765</ele>
        <time>2016-08-27T14:27:59Z</time>
      </trkpt>
      <trkpt lat="45.36299" lon="6.12974">
        <ele>1618.586548</ele>
        <time>2016-08-27T14:28:04Z</time>
      </trkpt>
      <trkpt lat="45.36295" lon="6.12972">
        <ele>1620.366089</ele>
        <time>2016-08-27T14:28:09Z</time>
      </trkpt>
      <trkpt lat="45.36291" lon="6.12968">
        <ele>1622.511841</ele>
        <time>2016-08-27T14:28:14Z</time>
      </trkpt>
      <trkpt lat="45.36287" lon="6.12969">
        <ele>1622.678345</ele>
        <time>2016-08-27T14:28:19Z</time>
      </trkpt>
      <trkpt lat="45.36287" lon="6.12969">
        <ele>1622.678345</ele>
        <time>2016-08-27T14:28:24Z</time>
      </trkpt>
      <trkpt lat="45.36289" lon="6.12968">
        <ele>1622.922607</ele>
        <time>2016-08-27T14:28:29Z</time>
      </trkpt>
      <trkpt lat="45.36293" lon="6.12965">
        <ele>1623.541504</ele>
        <time>2016-08-27T14:28:34Z</time>
      </trkpt>
      <trkpt lat="45.36297" lon="6.12963">
        <ele>1623.521729</ele>
        <time>2016-08-27T14:28:39Z</time>
      </trkpt>
      <trkpt lat="45.36301" lon="6.12964">
        <ele>1622.401001</ele>
        <time>2016-08-27T14:28:44Z</time>
      </trkpt>
      <trkpt lat="45.36305" lon="6.12964">
        <ele>1621.964355</ele>
        <time>2016-08-27T14:28:49Z</time>
      </trkpt>
      <trkpt lat="45.36309" lon="6.12964">
        <ele>1621.37085</ele>
        <time>2016-08-27T14:28:54Z</time>
      </trkpt>
      <trkpt lat="45.36313" lon="6.12964">
        <ele>1620.755859</ele>
        <time>2016-08-27T14:28:59Z</time>
      </trkpt>
      <trkpt lat="45.36318" lon="6.12963">
        <ele>1620.526611</ele>
        <time>2016-08-27T14:29:04Z</time>
      </trkpt>
      <trkpt lat="45.36322" lon="6.12962">
        <ele>1620.300903</ele>
        <time>2016-08-27T14:29:09Z</time>
      </trkpt>
      <trkpt lat="45.36327" lon="6.12962">
        <ele>1619.728638</ele>
        <time>2016-08-27T14:29:14Z</time>
      </trkpt>
      <trkpt lat="45.36331" lon="6.12959">
        <ele>1620.033691</ele>
        <time>2016-08-27T14:29:19Z</time>
      </trkpt>
      <trkpt lat="45.36334" lon="6.12955">
        <ele>1620.902344</ele>
        <time>2016-08-27T14:29:24Z</time>
      </trkpt>
      <trkpt lat="45.36337" lon="6.12952">
        <ele>1621.691895</ele>
        <time>2016-08-27T14:29:29Z</time>
      </trkpt>
      <trkpt lat="45.3634" lon="6.12947">
        <ele>1622.802002</ele>
        <time>2016-08-27T14:29:34Z</time>
      </trkpt>
      <trkpt lat="45.36343" lon="6.12943">
        <ele>1623.765137</ele>
        <time>2016-08-27T14:29:39Z</time>
      </trkpt>
      <trkpt lat="45.36346" lon="6.12938">
        <ele>1624.785522</ele>
        <time>2016-08-27T14:29:44Z</time>
      </trkpt>
      <trkpt lat="45.36349" lon="6.12933">
        <ele>1626.200195</ele>
        <time>2016-08-27T14:29:49Z</time>
      </trkpt>
      <trkpt lat="45.36352" lon="6.12929">
        <ele>1627.064697</ele>
        <time>2016-08-27T14:29:54Z</time>
      </trkpt>
      <trkpt lat="45.36355" lon="6.12925">
        <ele>1627.821289</ele>
        <time>2016-08-27T14:29:59Z</time>
      </trkpt>
      <trkpt lat="45.36359" lon="6.12921">
        <ele>1628.723389</ele>
        <time>2016-08-27T14:30:04Z</time>
      </trkpt>
      <trkpt lat="45.36363" lon="6.12917">
        <ele>1629.480347</ele>
        <time>2016-08-27T14:30:09Z</time>
      </trkpt>
      <trkpt lat="45.36366" lon="6.1291">
        <ele>1630.90332</ele>
        <time>2016-08-27T14:30:14Z</time>
      </trkpt>
      <trkpt lat="45.36369" lon="6.12905">
        <ele>1632.16333</ele>
        <time>2016-08-27T14:30:19Z</time>
      </trkpt>
      <trkpt lat="45.36372" lon="6.12901">
        <ele>1633.054565</ele>
        <time>2016-08-27T14:30:24Z</time>
      </trkpt>
      <trkpt lat="45.36375" lon="6.12896">
        <ele>1633.884033</ele>
        <time>2016-08-27T14:30:29Z</time>
      </trkpt>
      <trkpt lat="45.36379" lon="6.12891">
        <ele>1634.931274</ele>
        <time>2016-08-27T14:30:34Z</time>
      </trkpt>
      <trkpt lat="45.36382" lon="6.12887">
        <ele>1635.668091</ele>
        <time>2016-08-27T14:30:39Z</time>
      </trkpt>
      <trkpt lat="45.36386" lon="6.12882">
        <ele>1636.685791</ele>
        <time>2016-08-27T14:30:44Z</time>
      </trkpt>
      <trkpt lat="45.3639" lon="6.12879">
        <ele>1636.932007</ele>
        <time>2016-08-27T14:30:49Z</time>
      </trkpt>
      <trkpt lat="45.36393" lon="6.12875">
        <ele>1637.251831</ele>
        <time>2016-08-27T14:30:54Z</time>
      </trkpt>
      <trkpt lat="45.36397" lon="6.12871">
        <ele>1637.405884</ele>
        <time>2016-08-27T14:30:59Z</time>
      </trkpt>
      <trkpt lat="45.364" lon="6.12865">
        <ele>1637.761597</ele>
        <time>2016-08-27T14:31:04Z</time>
      </trkpt>
      <trkpt lat="45.36404" lon="6.1286">
        <ele>1637.95105</ele>
        <time>2016-08-27T14:31:09Z</time>
      </trkpt>
      <trkpt lat="45.36408" lon="6.12855">
        <ele>1637.848145</ele>
        <time>2016-08-27T14:31:14Z</time>
      </trkpt>
      <trkpt lat="45.36411" lon="6.1285">
        <ele>1637.93335</ele>
        <time>2016-08-27T14:31:19Z</time>
      </trkpt>
      <trkpt lat="45.36414" lon="6.12845">
        <ele>1638.35144</ele>
        <time>2016-08-27T14:31:24Z</time>
      </trkpt>
      <trkpt lat="45.36415" lon="6.12839">
        <ele>1639.03064</ele>
        <time>2016-08-27T14:31:29Z</time>
      </trkpt>
      <trkpt lat="45.36417" lon="6.12834">
        <ele>1639.370728</ele>
        <time>2016-08-27T14:31:34Z</time>
      </trkpt>
      <trkpt lat="45.36418" lon="6.12828">
        <ele>1640.018311</ele>
        <time>2016-08-27T14:31:39Z</time>
      </trkpt>
      <trkpt lat="45.3642" lon="6.12822">
        <ele>1640.654175</ele>
        <time>2016-08-27T14:31:44Z</time>
      </trkpt>
      <trkpt lat="45.36421" lon="6.12815">
        <ele>1641.208252</ele>
        <time>2016-08-27T14:31:49Z</time>
      </trkpt>
      <trkpt lat="45.36422" lon="6.12809">
        <ele>1641.85498</ele>
        <time>2016-08-27T14:31:54Z</time>
      </trkpt>
      <trkpt lat="45.36422" lon="6.12802">
        <ele>1643.244995</ele>
        <time>2016-08-27T14:31:59Z</time>
      </trkpt>
      <trkpt lat="45.36422" lon="6.12796">
        <ele>1644.26416</ele>
        <time>2016-08-27T14:32:04Z</time>
      </trkpt>
      <trkpt lat="45.36422" lon="6.1279">
        <ele>1645.272705</ele>
        <time>2016-08-27T14:32:09Z</time>
      </trkpt>
      <trkpt lat="45.36421" lon="6.12785">
        <ele>1646.671997</ele>
        <time>2016-08-27T14:32:14Z</time>
      </trkpt>
      <trkpt lat="45.36418" lon="6.1278">
        <ele>1648.410156</ele>
        <time>2016-08-27T14:32:19Z</time>
      </trkpt>
      <trkpt lat="45.36415" lon="6.12777">
        <ele>1650.251465</ele>
        <time>2016-08-27T14:32:24Z</time>
      </trkpt>
      <trkpt lat="45.36413" lon="6.12772">
        <ele>1652.025879</ele>
        <time>2016-08-27T14:32:29Z</time>
      </trkpt>
      <trkpt lat="45.36412" lon="6.12766">
        <ele>1653.463257</ele>
        <time>2016-08-27T14:32:34Z</time>
      </trkpt>
      <trkpt lat="45.3641" lon="6.12761">
        <ele>1655.219849</ele>
        <time>2016-08-27T14:32:39Z</time>
      </trkpt>
      <trkpt lat="45.36409" lon="6.12756">
        <ele>1656.802734</ele>
        <time>2016-08-27T14:32:44Z</time>
      </trkpt>
      <trkpt lat="45.36406" lon="6.12751">
        <ele>1658.472412</ele>
        <time>2016-08-27T14:32:49Z</time>
      </trkpt>
      <trkpt lat="45.36406" lon="6.12746">
        <ele>1659.263306</ele>
        <time>2016-08-27T14:32:54Z</time>
      </trkpt>
      <trkpt lat="45.36404" lon="6.12741">
        <ele>1660.338257</ele>
        <time>2016-08-27T14:32:59Z</time>
      </trkpt>
      <trkpt lat="45.36403" lon="6.12736">
        <ele>1661.45813</ele>
        <time>2016-08-27T14:33:04Z</time>
      </trkpt>
      <trkpt lat="45.36401" lon="6.12731">
        <ele>1662.443115</ele>
        <time>2016-08-27T14:33:09Z</time>
      </trkpt>
      <trkpt lat="45.364" lon="6.12726">
        <ele>1663.594604</ele>
        <time>2016-08-27T14:33:14Z</time>
      </trkpt>
      <trkpt lat="45.36398" lon="6.12721">
        <ele>1664.892334</ele>
        <time>2016-08-27T14:33:19Z</time>
      </trkpt>
      <trkpt lat="45.36397" lon="6.12716">
        <ele>1666.152222</ele>
        <time>2016-08-27T14:33:24Z</time>
      </trkpt>
      <trkpt lat="45.36396" lon="6.1271">
        <ele>1667.482788</ele>
        <time>2016-08-27T14:33:29Z</time>
      </trkpt>
      <trkpt lat="45.36395" lon="6.12704">
        <ele>1668.917603</ele>
        <time>2016-08-27T14:33:34Z</time>
      </trkpt>
      <trkpt lat="45.36394" lon="6.12698">
        <ele>1670.382446</ele>
        <time>2016-08-27T14:33:39Z</time>
      </trkpt>
      <trkpt lat="45.36393" lon="6.12692">
        <ele>1671.636108</ele>
        <time>2016-08-27T14:33:44Z</time>
      </trkpt>
      <trkpt lat="45.36393" lon="6.12686">
        <ele>1672.303711</ele>
        <time>2016-08-27T14:33:49Z</time>
      </trkpt>
      <trkpt lat="45.36393" lon="6.1268">
        <ele>1672.943359</ele>
        <time>2016-08-27T14:33:54Z</time>
      </trkpt>
      <trkpt lat="45.36393" lon="6.12674">
        <ele>1673.040649</ele>
        <time>2016-08-27T14:33:59Z</time>
      </trkpt>
      <trkpt lat="45.36393" lon="6.12669">
        <ele>1673.201172</ele>
        <time>2016-08-27T14:34:04Z</time>
      </trkpt>
      <trkpt lat="45.36393" lon="6.12663">
        <ele>1673.612549</ele>
        <time>2016-08-27T14:34:09Z</time>
      </trkpt>
      <trkpt lat="45.36393" lon="6.12657">
        <ele>1674.010498</ele>
        <time>2016-08-27T14:34:14Z</time>
      </trkpt>
      <trkpt lat="45.36394" lon="6.12651">
        <ele>1674.122192</ele>
        <time>2016-08-27T14:34:19Z</time>
      </trkpt>
      <trkpt lat="45.36394" lon="6.12645">
        <ele>1674.52063</ele>
        <time>2016-08-27T14:34:24Z</time>
      </trkpt>
      <trkpt lat="45.36393" lon="6.1264">
        <ele>1675.299438</ele>
        <time>2016-08-27T14:34:29Z</time>
      </trkpt>
      <trkpt lat="45.36392" lon="6.12634">
        <ele>1676.50708</ele>
        <time>2016-08-27T14:34:34Z</time>
      </trkpt>
      <trkpt lat="45.3639" lon="6.12628">
        <ele>1677.920898</ele>
        <time>2016-08-27T14:34:39Z</time>
      </trkpt>
      <trkpt lat="45.36388" lon="6.12622">
        <ele>1679.268188</ele>
        <time>2016-08-27T14:34:44Z</time>
      </trkpt>
      <trkpt lat="45.36386" lon="6.12616">
        <ele>1680.557129</ele>
        <time>2016-08-27T14:34:49Z</time>
      </trkpt>
      <trkpt lat="45.36385" lon="6.12609">
        <ele>1681.353027</ele>
        <time>2016-08-27T14:34:54Z</time>
      </trkpt>
      <trkpt lat="45.36385" lon="6.12603">
        <ele>1681.721313</ele>
        <time>2016-08-27T14:34:59Z</time>
      </trkpt>
      <trkpt lat="45.36387" lon="6.12597">
        <ele>1681.51709</ele>
        <time>2016-08-27T14:35:04Z</time>
      </trkpt>
      <trkpt lat="45.36387" lon="6.12591">
        <ele>1681.725952</ele>
        <time>2016-08-27T14:35:09Z</time>
      </trkpt>
      <trkpt lat="45.36388" lon="6.12586">
        <ele>1681.720337</ele>
        <time>2016-08-27T14:35:14Z</time>
      </trkpt>
      <trkpt lat="45.36389" lon="6.1258">
        <ele>1681.527588</ele>
        <time>2016-08-27T14:35:19Z</time>
      </trkpt>
      <trkpt lat="45.3639" lon="6.12574">
        <ele>1681.481812</ele>
        <time>2016-08-27T14:35:24Z</time>
      </trkpt>
      <trkpt lat="45.36392" lon="6.12568">
        <ele>1681.406372</ele>
        <time>2016-08-27T14:35:29Z</time>
      </trkpt>
      <trkpt lat="45.36368" lon="6.1255">
        <ele>1689.858887</ele>
        <time>2016-08-27T14:38:58Z</time>
      </trkpt>
      <trkpt lat="45.36352" lon="6.12561">
        <ele>1692.112427</ele>
        <time>2016-08-27T14:39:03Z</time>
      </trkpt>
      <trkpt lat="45.36347" lon="6.1257">
        <ele>1692.84082</ele>
        <time>2016-08-27T14:39:08Z</time>
      </trkpt>
      <trkpt lat="45.36343" lon="6.12577">
        <ele>1693.583618</ele>
        <time>2016-08-27T14:39:13Z</time>
      </trkpt>
      <trkpt lat="45.36341" lon="6.12584">
        <ele>1694.328003</ele>
        <time>2016-08-27T14:39:18Z</time>
      </trkpt>
      <trkpt lat="45.36338" lon="6.1259">
        <ele>1695.136719</ele>
        <time>2016-08-27T14:39:23Z</time>
      </trkpt>
      <trkpt lat="45.36334" lon="6.12597">
        <ele>1696.070435</ele>
        <time>2016-08-27T14:39:28Z</time>
      </trkpt>
      <trkpt lat="45.3633" lon="6.12601">
        <ele>1696.776001</ele>
        <time>2016-08-27T14:39:33Z</time>
      </trkpt>
      <trkpt lat="45.36326" lon="6.12605">
        <ele>1697.620605</ele>
        <time>2016-08-27T14:39:38Z</time>
      </trkpt>
      <trkpt lat="45.36322" lon="6.1261">
        <ele>1698.703369</ele>
        <time>2016-08-27T14:39:43Z</time>
      </trkpt>
      <trkpt lat="45.36318" lon="6.12615">
        <ele>1699.785278</ele>
        <time>2016-08-27T14:39:48Z</time>
      </trkpt>
      <trkpt lat="45.36315" lon="6.12621">
        <ele>1700.865845</ele>
        <time>2016-08-27T14:39:53Z</time>
      </trkpt>
      <trkpt lat="45.36313" lon="6.12627">
        <ele>1701.48938</ele>
        <time>2016-08-27T14:39:58Z</time>
      </trkpt>
      <trkpt lat="45.36311" lon="6.12634">
        <ele>1701.832764</ele>
        <time>2016-08-27T14:40:03Z</time>
      </trkpt>
      <trkpt lat="45.3631" lon="6.12637">
        <ele>1702.046143</ele>
        <time>2016-08-27T14:40:08Z</time>
      </trkpt>
      <trkpt lat="45.3631" lon="6.12639">
        <ele>1702.11438</ele>
        <time>2016-08-27T14:40:13Z</time>
      </trkpt>
      <trkpt lat="45.36311" lon="6.12639">
        <ele>1702.240723</ele>
        <time>2016-08-27T14:40:18Z</time>
      </trkpt>
      <trkpt lat="45.36311" lon="6.1264">
        <ele>1702.343506</ele>
        <time>2016-08-27T14:40:23Z</time>
      </trkpt>
      <trkpt lat="45.36312" lon="6.12641">
        <ele>1702.420898</ele>
        <time>2016-08-27T14:40:28Z</time>
      </trkpt>
      <trkpt lat="45.36312" lon="6.12641">
        <ele>1702.420898</ele>
        <time>2016-08-27T14:40:33Z</time>
      </trkpt>
      <trkpt lat="45.36311" lon="6.12642">
        <ele>1702.413574</ele>
        <time>2016-08-27T14:40:38Z</time>
      </trkpt>
      <trkpt lat="45.36308" lon="6.12645">
        <ele>1702.380859</ele>
        <time>2016-08-27T14:40:43Z</time>
      </trkpt>
      <trkpt lat="45.36305" lon="6.1265">
        <ele>1702.514893</ele>
        <time>2016-08-27T14:40:48Z</time>
      </trkpt>
      <trkpt lat="45.36302" lon="6.12656">
        <ele>1702.639404</ele>
        <time>2016-08-27T14:40:53Z</time>
      </trkpt>
      <trkpt lat="45.36298" lon="6.12659">
        <ele>1702.621826</ele>
        <time>2016-08-27T14:40:58Z</time>
      </trkpt>
      <trkpt lat="45.36295" lon="6.12664">
        <ele>1702.715576</ele>
        <time>2016-08-27T14:41:03Z</time>
      </trkpt>
      <trkpt lat="45.36291" lon="6.12668">
        <ele>1702.734619</ele>
        <time>2016-08-27T14:41:08Z</time>
      </trkpt>
      <trkpt lat="45.36289" lon="6.12672">
        <ele>1702.876709</ele>
        <time>2016-08-27T14:41:13Z</time>
      </trkpt>
      <trkpt lat="45.36285" lon="6.12676">
        <ele>1702.98938</ele>
        <time>2016-08-27T14:41:18Z</time>
      </trkpt>
      <trkpt lat="45.36281" lon="6.12681">
        <ele>1702.945313</ele>
        <time>2016-08-27T14:41:23Z</time>
      </trkpt>
      <trkpt lat="45.36277" lon="6.12685">
        <ele>1702.419556</ele>
        <time>2016-08-27T14:41:28Z</time>
      </trkpt>
      <trkpt lat="45.36273" lon="6.12688">
        <ele>1701.966309</ele>
        <time>2016-08-27T14:41:33Z</time>
      </trkpt>
      <trkpt lat="45.36269" lon="6.12691">
        <ele>1701.619141</ele>
        <time>2016-08-27T14:41:38Z</time>
      </trkpt>
      <trkpt lat="45.36266" lon="6.12693">
        <ele>1701.38562</ele>
        <time>2016-08-27T14:41:43Z</time>
      </trkpt>
      <trkpt lat="45.36266" lon="6.12694">
        <ele>1701.303345</ele>
        <time>2016-08-27T14:41:48Z</time>
      </trkpt>
      <trkpt lat="45.36266" lon="6.12694">
        <ele>1701.326416</ele>
        <time>2016-08-27T14:41:53Z</time>
      </trkpt>
      <trkpt lat="45.36263" lon="6.12697">
        <ele>1701.213257</ele>
        <time>2016-08-27T14:41:58Z</time>
      </trkpt>
      <trkpt lat="45.36259" lon="6.127">
        <ele>1701.177002</ele>
        <time>2016-08-27T14:42:03Z</time>
      </trkpt>
      <trkpt lat="45.36255" lon="6.12703">
        <ele>1701.186646</ele>
        <time>2016-08-27T14:42:08Z</time>
      </trkpt>
      <trkpt lat="45.36251" lon="6.12707">
        <ele>1701.295044</ele>
        <time>2016-08-27T14:42:13Z</time>
      </trkpt>
      <trkpt lat="45.36248" lon="6.12711">
        <ele>1701.398682</ele>
        <time>2016-08-27T14:42:18Z</time>
      </trkpt>
      <trkpt lat="45.36245" lon="6.12715">
        <ele>1701.544678</ele>
        <time>2016-08-27T14:42:23Z</time>
      </trkpt>
      <trkpt lat="45.36243" lon="6.1272">
        <ele>1701.713013</ele>
        <time>2016-08-27T14:42:28Z</time>
      </trkpt>
      <trkpt lat="45.3624" lon="6.12724">
        <ele>1702.016235</ele>
        <time>2016-08-27T14:42:33Z</time>
      </trkpt>
      <trkpt lat="45.36236" lon="6.12728">
        <ele>1702.479614</ele>
        <time>2016-08-27T14:42:38Z</time>
      </trkpt>
      <trkpt lat="45.36231" lon="6.12732">
        <ele>1703.066895</ele>
        <time>2016-08-27T14:42:43Z</time>
      </trkpt>
      <trkpt lat="45.36227" lon="6.12734">
        <ele>1703.65625</ele>
        <time>2016-08-27T14:42:48Z</time>
      </trkpt>
      <trkpt lat="45.36221" lon="6.12736">
        <ele>1704.392822</ele>
        <time>2016-08-27T14:42:53Z</time>
      </trkpt>
      <trkpt lat="45.36217" lon="6.12738">
        <ele>1704.849365</ele>
        <time>2016-08-27T14:42:58Z</time>
      </trkpt>
      <trkpt lat="45.36213" lon="6.1274">
        <ele>1704.870239</ele>
        <time>2016-08-27T14:43:03Z</time>
      </trkpt>
      <trkpt lat="45.36208" lon="6.12742">
        <ele>1704.478271</ele>
        <time>2016-08-27T14:43:08Z</time>
      </trkpt>
      <trkpt lat="45.36203" lon="6.12744">
        <ele>1704.191406</ele>
        <time>2016-08-27T14:43:13Z</time>
      </trkpt>
      <trkpt lat="45.36198" lon="6.12746">
        <ele>1703.986816</ele>
        <time>2016-08-27T14:43:18Z</time>
      </trkpt>
      <trkpt lat="45.36194" lon="6.12749">
        <ele>1703.859863</ele>
        <time>2016-08-27T14:43:23Z</time>
      </trkpt>
      <trkpt lat="45.36189" lon="6.12751">
        <ele>1703.812744</ele>
        <time>2016-08-27T14:43:28Z</time>
      </trkpt>
      <trkpt lat="45.36184" lon="6.12754">
        <ele>1703.844238</ele>
        <time>2016-08-27T14:43:33Z</time>
      </trkpt>
      <trkpt lat="45.36182" lon="6.12756">
        <ele>1703.90625</ele>
        <time>2016-08-27T14:43:38Z</time>
      </trkpt>
      <trkpt lat="45.36176" lon="6.12756">
        <ele>1704.139038</ele>
        <time>2016-08-27T14:43:43Z</time>
      </trkpt>
      <trkpt lat="45.36171" lon="6.12755">
        <ele>1704.368774</ele>
        <time>2016-08-27T14:43:48Z</time>
      </trkpt>
      <trkpt lat="45.36165" lon="6.12754">
        <ele>1704.540283</ele>
        <time>2016-08-27T14:43:53Z</time>
      </trkpt>
      <trkpt lat="45.3616" lon="6.12754">
        <ele>1704.714722</ele>
        <time>2016-08-27T14:43:58Z</time>
      </trkpt>
      <trkpt lat="45.36155" lon="6.12755">
        <ele>1704.929688</ele>
        <time>2016-08-27T14:44:03Z</time>
      </trkpt>
      <trkpt lat="45.36151" lon="6.12756">
        <ele>1705.121948</ele>
        <time>2016-08-27T14:44:08Z</time>
      </trkpt>
      <trkpt lat="45.36147" lon="6.12758">
        <ele>1705.366699</ele>
        <time>2016-08-27T14:44:13Z</time>
      </trkpt>
      <trkpt lat="45.36141" lon="6.12758">
        <ele>1705.670654</ele>
        <time>2016-08-27T14:44:18Z</time>
      </trkpt>
      <trkpt lat="45.36139" lon="6.12759">
        <ele>1705.879028</ele>
        <time>2016-08-27T14:44:23Z</time>
      </trkpt>
      <trkpt lat="45.36134" lon="6.12761">
        <ele>1706.191895</ele>
        <time>2016-08-27T14:44:28Z</time>
      </trkpt>
      <trkpt lat="45.36129" lon="6.12763">
        <ele>1706.682129</ele>
        <time>2016-08-27T14:44:33Z</time>
      </trkpt>
      <trkpt lat="45.36125" lon="6.12765">
        <ele>1707.246826</ele>
        <time>2016-08-27T14:44:38Z</time>
      </trkpt>
      <trkpt lat="45.36121" lon="6.12766">
        <ele>1707.977661</ele>
        <time>2016-08-27T14:44:43Z</time>
      </trkpt>
      <trkpt lat="45.36118" lon="6.12767">
        <ele>1708.577515</ele>
        <time>2016-08-27T14:44:48Z</time>
      </trkpt>
      <trkpt lat="45.36114" lon="6.12768">
        <ele>1709.32312</ele>
        <time>2016-08-27T14:44:53Z</time>
      </trkpt>
      <trkpt lat="45.36109" lon="6.12767">
        <ele>1710.006836</ele>
        <time>2016-08-27T14:44:58Z</time>
      </trkpt>
      <trkpt lat="45.36107" lon="6.12765">
        <ele>1710.077393</ele>
        <time>2016-08-27T14:45:03Z</time>
      </trkpt>
      <trkpt lat="45.36104" lon="6.12764">
        <ele>1710.390991</ele>
        <time>2016-08-27T14:45:08Z</time>
      </trkpt>
      <trkpt lat="45.361" lon="6.12764">
        <ele>1711.013794</ele>
        <time>2016-08-27T14:45:13Z</time>
      </trkpt>
      <trkpt lat="45.36092" lon="6.12761">
        <ele>1711.82605</ele>
        <time>2016-08-27T14:45:18Z</time>
      </trkpt>
      <trkpt lat="45.36084" lon="6.1276">
        <ele>1712.875488</ele>
        <time>2016-08-27T14:45:23Z</time>
      </trkpt>
      <trkpt lat="45.36079" lon="6.1276">
        <ele>1713.430664</ele>
        <time>2016-08-27T14:45:28Z</time>
      </trkpt>
      <trkpt lat="45.36073" lon="6.12758">
        <ele>1713.911743</ele>
        <time>2016-08-27T14:45:33Z</time>
      </trkpt>
      <trkpt lat="45.36069" lon="6.12758">
        <ele>1714.422241</ele>
        <time>2016-08-27T14:45:38Z</time>
      </trkpt>
      <trkpt lat="45.36065" lon="6.12759">
        <ele>1715.106567</ele>
        <time>2016-08-27T14:45:43Z</time>
      </trkpt>
      <trkpt lat="45.36061" lon="6.1276">
        <ele>1715.650879</ele>
        <time>2016-08-27T14:45:48Z</time>
      </trkpt>
      <trkpt lat="45.36058" lon="6.1276">
        <ele>1716.164551</ele>
        <time>2016-08-27T14:45:53Z</time>
      </trkpt>
      <trkpt lat="45.36053" lon="6.12764">
        <ele>1717.395752</ele>
        <time>2016-08-27T14:45:58Z</time>
      </trkpt>
      <trkpt lat="45.36049" lon="6.12766">
        <ele>1718.458374</ele>
        <time>2016-08-27T14:46:03Z</time>
      </trkpt>
      <trkpt lat="45.36046" lon="6.12768">
        <ele>1719.222168</ele>
        <time>2016-08-27T14:46:08Z</time>
      </trkpt>
      <trkpt lat="45.36042" lon="6.1277">
        <ele>1720.031982</ele>
        <time>2016-08-27T14:46:13Z</time>
      </trkpt>
      <trkpt lat="45.36038" lon="6.12772">
        <ele>1720.978394</ele>
        <time>2016-08-27T14:46:18Z</time>
      </trkpt>
      <trkpt lat="45.36032" lon="6.12772">
        <ele>1721.542358</ele>
        <time>2016-08-27T14:46:23Z</time>
      </trkpt>
      <trkpt lat="45.3603" lon="6.12779">
        <ele>1723.064575</ele>
        <time>2016-08-27T14:46:28Z</time>
      </trkpt>
      <trkpt lat="45.36023" lon="6.1278">
        <ele>1723.892456</ele>
        <time>2016-08-27T14:46:33Z</time>
      </trkpt>
      <trkpt lat="45.36018" lon="6.1278">
        <ele>1724.322754</ele>
        <time>2016-08-27T14:46:38Z</time>
      </trkpt>
      <trkpt lat="45.36013" lon="6.12781">
        <ele>1724.984253</ele>
        <time>2016-08-27T14:46:43Z</time>
      </trkpt>
      <trkpt lat="45.36009" lon="6.12783">
        <ele>1726.048096</ele>
        <time>2016-08-27T14:46:48Z</time>
      </trkpt>
      <trkpt lat="45.36004" lon="6.12784">
        <ele>1726.686157</ele>
        <time>2016-08-27T14:46:53Z</time>
      </trkpt>
      <trkpt lat="45.36001" lon="6.12788">
        <ele>1727.947632</ele>
        <time>2016-08-27T14:46:58Z</time>
      </trkpt>
      <trkpt lat="45.35998" lon="6.12794">
        <ele>1728.657593</ele>
        <time>2016-08-27T14:47:03Z</time>
      </trkpt>
      <trkpt lat="45.35993" lon="6.128">
        <ele>1729.571655</ele>
        <time>2016-08-27T14:47:08Z</time>
      </trkpt>
      <trkpt lat="45.35988" lon="6.12806">
        <ele>1729.859009</ele>
        <time>2016-08-27T14:47:13Z</time>
      </trkpt>
      <trkpt lat="45.35984" lon="6.1281">
        <ele>1729.658081</ele>
        <time>2016-08-27T14:47:18Z</time>
      </trkpt>
      <trkpt lat="45.3598" lon="6.12816">
        <ele>1729.733643</ele>
        <time>2016-08-27T14:47:23Z</time>
      </trkpt>
      <trkpt lat="45.35976" lon="6.12822">
        <ele>1729.973145</ele>
        <time>2016-08-27T14:47:28Z</time>
      </trkpt>
      <trkpt lat="45.35973" lon="6.12827">
        <ele>1730.140503</ele>
        <time>2016-08-27T14:47:33Z</time>
      </trkpt>
      <trkpt lat="45.3597" lon="6.12831">
        <ele>1730.347168</ele>
        <time>2016-08-27T14:47:38Z</time>
      </trkpt>
      <trkpt lat="45.35966" lon="6.12837">
        <ele>1730.671997</ele>
        <time>2016-08-27T14:47:43Z</time>
      </trkpt>
      <trkpt lat="45.35962" lon="6.12843">
        <ele>1731.018799</ele>
        <time>2016-08-27T14:47:48Z</time>
      </trkpt>
      <trkpt lat="45.35957" lon="6.1285">
        <ele>1731.566406</ele>
        <time>2016-08-27T14:47:53Z</time>
      </trkpt>
      <trkpt lat="45.35954" lon="6.12856">
        <ele>1730.835693</ele>
        <time>2016-08-27T14:47:58Z</time>
      </trkpt>
      <trkpt lat="45.35949" lon="6.12862">
        <ele>1730.235718</ele>
        <time>2016-08-27T14:48:03Z</time>
      </trkpt>
      <trkpt lat="45.35945" lon="6.12868">
        <ele>1729.78125</ele>
        <time>2016-08-27T14:48:08Z</time>
      </trkpt>
      <trkpt lat="45.35941" lon="6.12875">
        <ele>1728.898438</ele>
        <time>2016-08-27T14:48:13Z</time>
      </trkpt>
      <trkpt lat="45.35937" lon="6.12881">
        <ele>1727.725464</ele>
        <time>2016-08-27T14:48:18Z</time>
      </trkpt>
      <trkpt lat="45.35933" lon="6.12886">
        <ele>1726.93689</ele>
        <time>2016-08-27T14:48:23Z</time>
      </trkpt>
      <trkpt lat="45.35929" lon="6.12892">
        <ele>1726.205444</ele>
        <time>2016-08-27T14:48:28Z</time>
      </trkpt>
      <trkpt lat="45.35925" lon="6.12897">
        <ele>1725.72644</ele>
        <time>2016-08-27T14:48:33Z</time>
      </trkpt>
      <trkpt lat="45.3592" lon="6.12902">
        <ele>1725.286255</ele>
        <time>2016-08-27T14:48:38Z</time>
      </trkpt>
      <trkpt lat="45.35916" lon="6.12909">
        <ele>1725.177246</ele>
        <time>2016-08-27T14:48:43Z</time>
      </trkpt>
      <trkpt lat="45.35912" lon="6.12916">
        <ele>1724.921753</ele>
        <time>2016-08-27T14:48:48Z</time>
      </trkpt>
      <trkpt lat="45.35909" lon="6.12923">
        <ele>1724.709351</ele>
        <time>2016-08-27T14:48:53Z</time>
      </trkpt>
      <trkpt lat="45.35905" lon="6.12929">
        <ele>1724.653442</ele>
        <time>2016-08-27T14:48:58Z</time>
      </trkpt>
      <trkpt lat="45.35902" lon="6.12936">
        <ele>1724.731567</ele>
        <time>2016-08-27T14:49:03Z</time>
      </trkpt>
      <trkpt lat="45.359" lon="6.12944">
        <ele>1724.902222</ele>
        <time>2016-08-27T14:49:08Z</time>
      </trkpt>
      <trkpt lat="45.35898" lon="6.12951">
        <ele>1725.19812</ele>
        <time>2016-08-27T14:49:13Z</time>
      </trkpt>
      <trkpt lat="45.35896" lon="6.12959">
        <ele>1725.534912</ele>
        <time>2016-08-27T14:49:18Z</time>
      </trkpt>
      <trkpt lat="45.35894" lon="6.12966">
        <ele>1725.611694</ele>
        <time>2016-08-27T14:49:23Z</time>
      </trkpt>
      <trkpt lat="45.35891" lon="6.12973">
        <ele>1725.527344</ele>
        <time>2016-08-27T14:49:28Z</time>
      </trkpt>
      <trkpt lat="45.35888" lon="6.12979">
        <ele>1724.887085</ele>
        <time>2016-08-27T14:49:33Z</time>
      </trkpt>
      <trkpt lat="45.35884" lon="6.12984">
        <ele>1724.348022</ele>
        <time>2016-08-27T14:49:38Z</time>
      </trkpt>
      <trkpt lat="45.3588" lon="6.1299">
        <ele>1723.915161</ele>
        <time>2016-08-27T14:49:43Z</time>
      </trkpt>
      <trkpt lat="45.35877" lon="6.12994">
        <ele>1723.662231</ele>
        <time>2016-08-27T14:49:48Z</time>
      </trkpt>
      <trkpt lat="45.35873" lon="6.12999">
        <ele>1723.524048</ele>
        <time>2016-08-27T14:49:53Z</time>
      </trkpt>
      <trkpt lat="45.3587" lon="6.13004">
        <ele>1723.505859</ele>
        <time>2016-08-27T14:49:58Z</time>
      </trkpt>
      <trkpt lat="45.35865" lon="6.13009">
        <ele>1723.633301</ele>
        <time>2016-08-27T14:50:03Z</time>
      </trkpt>
      <trkpt lat="45.35862" lon="6.13014">
        <ele>1723.879883</ele>
        <time>2016-08-27T14:50:08Z</time>
      </trkpt>
      <trkpt lat="45.35858" lon="6.13019">
        <ele>1724.251099</ele>
        <time>2016-08-27T14:50:13Z</time>
      </trkpt>
      <trkpt lat="45.35855" lon="6.13024">
        <ele>1724.697021</ele>
        <time>2016-08-27T14:50:18Z</time>
      </trkpt>
      <trkpt lat="45.35852" lon="6.13029">
        <ele>1725.258545</ele>
        <time>2016-08-27T14:50:23Z</time>
      </trkpt>
      <trkpt lat="45.3585" lon="6.13036">
        <ele>1725.67688</ele>
        <time>2016-08-27T14:50:28Z</time>
      </trkpt>
      <trkpt lat="45.35848" lon="6.13041">
        <ele>1725.613525</ele>
        <time>2016-08-27T14:50:33Z</time>
      </trkpt>
      <trkpt lat="45.35845" lon="6.13045">
        <ele>1725.227539</ele>
        <time>2016-08-27T14:50:38Z</time>
      </trkpt>
      <trkpt lat="45.35843" lon="6.13047">
        <ele>1724.904297</ele>
        <time>2016-08-27T14:50:43Z</time>
      </trkpt>
      <trkpt lat="45.35839" lon="6.13052">
        <ele>1724.55603</ele>
        <time>2016-08-27T14:50:48Z</time>
      </trkpt>
      <trkpt lat="45.35837" lon="6.13054">
        <ele>1724.451782</ele>
        <time>2016-08-27T14:50:53Z</time>
      </trkpt>
      <trkpt lat="45.35835" lon="6.13057">
        <ele>1724.388916</ele>
        <time>2016-08-27T14:50:58Z</time>
      </trkpt>
      <trkpt lat="45.3583" lon="6.13061">
        <ele>1724.35791</ele>
        <time>2016-08-27T14:51:03Z</time>
      </trkpt>
      <trkpt lat="45.35826" lon="6.13063">
        <ele>1724.434204</ele>
        <time>2016-08-27T14:51:08Z</time>
      </trkpt>
      <trkpt lat="45.35822" lon="6.13066">
        <ele>1724.66333</ele>
        <time>2016-08-27T14:51:13Z</time>
      </trkpt>
      <trkpt lat="45.35818" lon="6.13068">
        <ele>1724.93457</ele>
        <time>2016-08-27T14:51:18Z</time>
      </trkpt>
      <trkpt lat="45.35813" lon="6.13069">
        <ele>1725.143799</ele>
        <time>2016-08-27T14:51:23Z</time>
      </trkpt>
      <trkpt lat="45.35809" lon="6.1307">
        <ele>1725.397949</ele>
        <time>2016-08-27T14:51:28Z</time>
      </trkpt>
      <trkpt lat="45.35805" lon="6.13071">
        <ele>1725.781128</ele>
        <time>2016-08-27T14:51:33Z</time>
      </trkpt>
      <trkpt lat="45.358" lon="6.13072">
        <ele>1725.910522</ele>
        <time>2016-08-27T14:51:38Z</time>
      </trkpt>
      <trkpt lat="45.35796" lon="6.13073">
        <ele>1725.313599</ele>
        <time>2016-08-27T14:51:43Z</time>
      </trkpt>
      <trkpt lat="45.35793" lon="6.13072">
        <ele>1724.677734</ele>
        <time>2016-08-27T14:51:48Z</time>
      </trkpt>
      <trkpt lat="45.35788" lon="6.13073">
        <ele>1724.044922</ele>
        <time>2016-08-27T14:51:53Z</time>
      </trkpt>
      <trkpt lat="45.35784" lon="6.13074">
        <ele>1723.448853</ele>
        <time>2016-08-27T14:51:58Z</time>
      </trkpt>
      <trkpt lat="45.3578" lon="6.13074">
        <ele>1722.728882</ele>
        <time>2016-08-27T14:52:03Z</time>
      </trkpt>
      <trkpt lat="45.35775" lon="6.13074">
        <ele>1721.973022</ele>
        <time>2016-08-27T14:52:08Z</time>
      </trkpt>
      <trkpt lat="45.35769" lon="6.13075">
        <ele>1721.328857</ele>
        <time>2016-08-27T14:52:13Z</time>
      </trkpt>
      <trkpt lat="45.35764" lon="6.13077">
        <ele>1720.989258</ele>
        <time>2016-08-27T14:52:18Z</time>
      </trkpt>
      <trkpt lat="45.35759" lon="6.13079">
        <ele>1720.747925</ele>
        <time>2016-08-27T14:52:23Z</time>
      </trkpt>
      <trkpt lat="45.35754" lon="6.13082">
        <ele>1720.744995</ele>
        <time>2016-08-27T14:52:28Z</time>
      </trkpt>
      <trkpt lat="45.35749" lon="6.13085">
        <ele>1720.435059</ele>
        <time>2016-08-27T14:52:33Z</time>
      </trkpt>
      <trkpt lat="45.35744" lon="6.13088">
        <ele>1720.160034</ele>
        <time>2016-08-27T14:52:38Z</time>
      </trkpt>
      <trkpt lat="45.35738" lon="6.13091">
        <ele>1719.795898</ele>
        <time>2016-08-27T14:52:43Z</time>
      </trkpt>
      <trkpt lat="45.35733" lon="6.13095">
        <ele>1719.536621</ele>
        <time>2016-08-27T14:52:48Z</time>
      </trkpt>
      <trkpt lat="45.35728" lon="6.13098">
        <ele>1719.03186</ele>
        <time>2016-08-27T14:52:53Z</time>
      </trkpt>
      <trkpt lat="45.35724" lon="6.13103">
        <ele>1719.195801</ele>
        <time>2016-08-27T14:52:58Z</time>
      </trkpt>
      <trkpt lat="45.35718" lon="6.13106">
        <ele>1719.036255</ele>
        <time>2016-08-27T14:53:03Z</time>
      </trkpt>
      <trkpt lat="45.35714" lon="6.13112">
        <ele>1719.733276</ele>
        <time>2016-08-27T14:53:08Z</time>
      </trkpt>
      <trkpt lat="45.3571" lon="6.13117">
        <ele>1720.071655</ele>
        <time>2016-08-27T14:53:13Z</time>
      </trkpt>
      <trkpt lat="45.35709" lon="6.13118">
        <ele>1720.245605</ele>
        <time>2016-08-27T14:53:18Z</time>
      </trkpt>
      <trkpt lat="45.35708" lon="6.1312">
        <ele>1720.496826</ele>
        <time>2016-08-27T14:53:23Z</time>
      </trkpt>
      <trkpt lat="45.35708" lon="6.13121">
        <ele>1720.861084</ele>
        <time>2016-08-27T14:53:28Z</time>
      </trkpt>
      <trkpt lat="45.35706" lon="6.13123">
        <ele>1720.932251</ele>
        <time>2016-08-27T14:53:33Z</time>
      </trkpt>
      <trkpt lat="45.35704" lon="6.13123">
        <ele>1720.702026</ele>
        <time>2016-08-27T14:53:38Z</time>
      </trkpt>
      <trkpt lat="45.357" lon="6.13128">
        <ele>1721.280518</ele>
        <time>2016-08-27T14:53:43Z</time>
      </trkpt>
      <trkpt lat="45.35696" lon="6.13134">
        <ele>1721.970825</ele>
        <time>2016-08-27T14:53:48Z</time>
      </trkpt>
      <trkpt lat="45.35692" lon="6.13139">
        <ele>1722.775757</ele>
        <time>2016-08-27T14:53:53Z</time>
      </trkpt>
      <trkpt lat="45.35687" lon="6.13145">
        <ele>1723.529053</ele>
        <time>2016-08-27T14:53:58Z</time>
      </trkpt>
      <trkpt lat="45.35682" lon="6.1315">
        <ele>1724.131104</ele>
        <time>2016-08-27T14:54:03Z</time>
      </trkpt>
      <trkpt lat="45.35677" lon="6.13155">
        <ele>1724.537476</ele>
        <time>2016-08-27T14:54:08Z</time>
      </trkpt>
      <trkpt lat="45.35674" lon="6.1316">
        <ele>1725.109497</ele>
        <time>2016-08-27T14:54:13Z</time>
      </trkpt>
      <trkpt lat="45.35669" lon="6.13163">
        <ele>1725.470215</ele>
        <time>2016-08-27T14:54:18Z</time>
      </trkpt>
      <trkpt lat="45.35665" lon="6.13166">
        <ele>1725.69397</ele>
        <time>2016-08-27T14:54:23Z</time>
      </trkpt>
      <trkpt lat="45.35662" lon="6.13169">
        <ele>1726.354004</ele>
        <time>2016-08-27T14:54:28Z</time>
      </trkpt>
      <trkpt lat="45.35661" lon="6.13169">
        <ele>1726.542603</ele>
        <time>2016-08-27T14:54:33Z</time>
      </trkpt>
      <trkpt lat="45.35659" lon="6.13171">
        <ele>1727.069336</ele>
        <time>2016-08-27T14:54:38Z</time>
      </trkpt>
      <trkpt lat="45.35656" lon="6.13173">
        <ele>1727.800293</ele>
        <time>2016-08-27T14:54:43Z</time>
      </trkpt>
      <trkpt lat="45.35653" lon="6.13173">
        <ele>1728.055664</ele>
        <time>2016-08-27T14:54:48Z</time>
      </trkpt>
      <trkpt lat="45.35647" lon="6.13175">
        <ele>1729.177856</ele>
        <time>2016-08-27T14:54:53Z</time>
      </trkpt>
      <trkpt lat="45.35642" lon="6.13177">
        <ele>1730.24707</ele>
        <time>2016-08-27T14:54:58Z</time>
      </trkpt>
      <trkpt lat="45.35636" lon="6.13178">
        <ele>1730.953125</ele>
        <time>2016-08-27T14:55:03Z</time>
      </trkpt>
      <trkpt lat="45.35632" lon="6.13179">
        <ele>1731.773193</ele>
        <time>2016-08-27T14:55:08Z</time>
      </trkpt>
      <trkpt lat="45.35626" lon="6.13181">
        <ele>1732.661987</ele>
        <time>2016-08-27T14:55:13Z</time>
      </trkpt>
      <trkpt lat="45.35621" lon="6.13183">
        <ele>1733.974487</ele>
        <time>2016-08-27T14:55:18Z</time>
      </trkpt>
      <trkpt lat="45.3562" lon="6.13186">
        <ele>1735.106445</ele>
        <time>2016-08-27T14:55:23Z</time>
      </trkpt>
      <trkpt lat="45.35618" lon="6.13188">
        <ele>1735.930786</ele>
        <time>2016-08-27T14:55:28Z</time>
      </trkpt>
      <trkpt lat="45.35613" lon="6.13188">
        <ele>1736.649048</ele>
        <time>2016-08-27T14:55:33Z</time>
      </trkpt>
      <trkpt lat="45.35609" lon="6.13186">
        <ele>1736.960815</ele>
        <time>2016-08-27T14:55:38Z</time>
      </trkpt>
      <trkpt lat="45.35603" lon="6.13186">
        <ele>1737.927979</ele>
        <time>2016-08-27T14:55:43Z</time>
      </trkpt>
      <trkpt lat="45.35598" lon="6.13187">
        <ele>1739.273315</ele>
        <time>2016-08-27T14:55:48Z</time>
      </trkpt>
      <trkpt lat="45.35463" lon="6.1309">
        <ele>1738.150024</ele>
        <time>2016-08-27T14:58:47Z</time>
      </trkpt>
      <trkpt lat="45.3528" lon="6.13031">
        <ele>1728.71167</ele>
        <time>2016-08-27T15:01:39Z</time>
      </trkpt>
      <trkpt lat="45.35272" lon="6.13037">
        <ele>1729.012207</ele>
        <time>2016-08-27T15:02:29Z</time>
      </trkpt>
      <trkpt lat="45.35262" lon="6.13045">
        <ele>1729.194946</ele>
        <time>2016-08-27T15:03:00Z</time>
      </trkpt>
      <trkpt lat="45.35222" lon="6.13074">
        <ele>1723.864502</ele>
        <time>2016-08-27T15:03:47Z</time>
      </trkpt>
      <trkpt lat="45.35193" lon="6.13089">
        <ele>1718.347168</ele>
        <time>2016-08-27T15:04:24Z</time>
      </trkpt>
      <trkpt lat="45.35128" lon="6.13121">
        <ele>1703.115967</ele>
        <time>2016-08-27T15:05:32Z</time>
      </trkpt>
      <trkpt lat="45.35084" lon="6.13156">
        <ele>1698.561279</ele>
        <time>2016-08-27T15:06:24Z</time>
      </trkpt>
      <trkpt lat="45.35055" lon="6.13178">
        <ele>1694.867554</ele>
        <time>2016-08-27T15:06:49Z</time>
      </trkpt>
      <trkpt lat="45.35035" lon="6.13179">
        <ele>1687.757446</ele>
        <time>2016-08-27T15:07:12Z</time>
      </trkpt>
      <trkpt lat="45.35029" lon="6.13186">
        <ele>1687.419922</ele>
        <time>2016-08-27T15:07:24Z</time>
      </trkpt>
      <trkpt lat="45.35015" lon="6.13202">
        <ele>1688.178223</ele>
        <time>2016-08-27T15:07:46Z</time>
      </trkpt>
      <trkpt lat="45.35006" lon="6.13203">
        <ele>1685.651367</ele>
        <time>2016-08-27T15:08:00Z</time>
      </trkpt>
      <trkpt lat="45.34981" lon="6.13208">
        <ele>1679.276245</ele>
        <time>2016-08-27T15:08:38Z</time>
      </trkpt>
      <trkpt lat="45.34969" lon="6.13203">
        <ele>1675.305054</ele>
        <time>2016-08-27T15:08:50Z</time>
      </trkpt>
      <trkpt lat="45.34949" lon="6.13196">
        <ele>1668.412476</ele>
        <time>2016-08-27T15:09:19Z</time>
      </trkpt>
      <trkpt lat="45.34942" lon="6.13194">
        <ele>1666.278809</ele>
        <time>2016-08-27T15:09:26Z</time>
      </trkpt>
      <trkpt lat="45.3491" lon="6.132">
        <ele>1661.2948</ele>
        <time>2016-08-27T15:10:01Z</time>
      </trkpt>
      <trkpt lat="45.34831" lon="6.13241">
        <ele>1655.808716</ele>
        <time>2016-08-27T15:11:24Z</time>
      </trkpt>
      <trkpt lat="45.3477" lon="6.13258">
        <ele>1648.378052</ele>
        <time>2016-08-27T15:12:24Z</time>
      </trkpt>
      <trkpt lat="45.34688" lon="6.13307">
        <ele>1644.880249</ele>
        <time>2016-08-27T15:14:02Z</time>
      </trkpt>
      <trkpt lat="45.346" lon="6.13279">
        <ele>1622.399658</ele>
        <time>2016-08-27T15:15:36Z</time>
      </trkpt>
      <trkpt lat="45.34549" lon="6.13264">
        <ele>1611.200806</ele>
        <time>2016-08-27T15:16:20Z</time>
      </trkpt>
      <trkpt lat="45.34511" lon="6.13244">
        <ele>1602.98938</ele>
        <time>2016-08-27T15:17:05Z</time>
      </trkpt>
      <trkpt lat="45.34441" lon="6.13203">
        <ele>1591.215698</ele>
        <time>2016-08-27T15:18:25Z</time>
      </trkpt>
      <trkpt lat="45.34409" lon="6.13194">
        <ele>1585.711548</ele>
        <time>2016-08-27T15:19:23Z</time>
      </trkpt>
      <trkpt lat="45.34396" lon="6.13188">
        <ele>1582.89856</ele>
        <time>2016-08-27T15:19:50Z</time>
      </trkpt>
      <trkpt lat="45.3438" lon="6.13176">
        <ele>1578.311768</ele>
        <time>2016-08-27T15:29:28Z</time>
      </trkpt>
      <trkpt lat="45.3438" lon="6.13176">
        <ele>1578.251343</ele>
        <time>2016-08-27T15:29:33Z</time>
      </trkpt>
      <trkpt lat="45.34383" lon="6.13171">
        <ele>1577.278564</ele>
        <time>2016-08-27T15:29:38Z</time>
      </trkpt>
      <trkpt lat="45.34385" lon="6.13166">
        <ele>1576.153442</ele>
        <time>2016-08-27T15:29:43Z</time>
      </trkpt>
      <trkpt lat="45.34388" lon="6.13161">
        <ele>1574.929932</ele>
        <time>2016-08-27T15:29:48Z</time>
      </trkpt>
      <trkpt lat="45.34391" lon="6.13156">
        <ele>1573.866699</ele>
        <time>2016-08-27T15:29:53Z</time>
      </trkpt>
      <trkpt lat="45.34393" lon="6.1315">
        <ele>1572.581299</ele>
        <time>2016-08-27T15:29:58Z</time>
      </trkpt>
      <trkpt lat="45.34396" lon="6.13145">
        <ele>1571.348877</ele>
        <time>2016-08-27T15:30:03Z</time>
      </trkpt>
      <trkpt lat="45.34399" lon="6.13139">
        <ele>1569.864014</ele>
        <time>2016-08-27T15:30:08Z</time>
      </trkpt>
      <trkpt lat="45.34402" lon="6.13132">
        <ele>1568.345947</ele>
        <time>2016-08-27T15:30:13Z</time>
      </trkpt>
      <trkpt lat="45.34402" lon="6.13131">
        <ele>1568.112793</ele>
        <time>2016-08-27T15:30:18Z</time>
      </trkpt>
      <trkpt lat="45.34404" lon="6.13128">
        <ele>1567.397705</ele>
        <time>2016-08-27T15:30:23Z</time>
      </trkpt>
      <trkpt lat="45.34407" lon="6.13124">
        <ele>1566.587769</ele>
        <time>2016-08-27T15:30:28Z</time>
      </trkpt>
      <trkpt lat="45.34409" lon="6.13122">
        <ele>1566.130737</ele>
        <time>2016-08-27T15:30:33Z</time>
      </trkpt>
      <trkpt lat="45.34411" lon="6.13119">
        <ele>1565.541626</ele>
        <time>2016-08-27T15:30:38Z</time>
      </trkpt>
      <trkpt lat="45.34412" lon="6.13117">
        <ele>1565.018066</ele>
        <time>2016-08-27T15:30:43Z</time>
      </trkpt>
      <trkpt lat="45.34414" lon="6.13113">
        <ele>1564.263184</ele>
        <time>2016-08-27T15:30:48Z</time>
      </trkpt>
      <trkpt lat="45.34416" lon="6.13111">
        <ele>1563.730591</ele>
        <time>2016-08-27T15:30:53Z</time>
      </trkpt>
      <trkpt lat="45.34417" lon="6.13107">
        <ele>1562.97522</ele>
        <time>2016-08-27T15:30:58Z</time>
      </trkpt>
      <trkpt lat="45.34419" lon="6.13105">
        <ele>1562.669312</ele>
        <time>2016-08-27T15:31:03Z</time>
      </trkpt>
      <trkpt lat="45.3442" lon="6.13102">
        <ele>1561.99707</ele>
        <time>2016-08-27T15:31:08Z</time>
      </trkpt>
      <trkpt lat="45.34424" lon="6.13102">
        <ele>1562.044556</ele>
        <time>2016-08-27T15:31:13Z</time>
      </trkpt>
      <trkpt lat="45.34426" lon="6.13099">
        <ele>1561.490723</ele>
        <time>2016-08-27T15:31:18Z</time>
      </trkpt>
      <trkpt lat="45.34429" lon="6.13095">
        <ele>1560.839844</ele>
        <time>2016-08-27T15:31:23Z</time>
      </trkpt>
      <trkpt lat="45.34431" lon="6.13091">
        <ele>1560.099365</ele>
        <time>2016-08-27T15:31:28Z</time>
      </trkpt>
      <trkpt lat="45.34431" lon="6.13089">
        <ele>1559.470215</ele>
        <time>2016-08-27T15:31:33Z</time>
      </trkpt>
      <trkpt lat="45.34433" lon="6.13085">
        <ele>1558.764526</ele>
        <time>2016-08-27T15:31:38Z</time>
      </trkpt>
      <trkpt lat="45.34434" lon="6.13078">
        <ele>1557.17627</ele>
        <time>2016-08-27T15:31:43Z</time>
      </trkpt>
      <trkpt lat="45.34436" lon="6.1307">
        <ele>1555.632813</ele>
        <time>2016-08-27T15:31:48Z</time>
      </trkpt>
      <trkpt lat="45.34438" lon="6.13068">
        <ele>1555.309814</ele>
        <time>2016-08-27T15:31:53Z</time>
      </trkpt>
      <trkpt lat="45.3444" lon="6.13064">
        <ele>1554.65918</ele>
        <time>2016-08-27T15:31:58Z</time>
      </trkpt>
      <trkpt lat="45.3444" lon="6.1306">
        <ele>1554.019409</ele>
        <time>2016-08-27T15:32:03Z</time>
      </trkpt>
      <trkpt lat="45.34441" lon="6.13058">
        <ele>1553.673584</ele>
        <time>2016-08-27T15:32:08Z</time>
      </trkpt>
      <trkpt lat="45.34441" lon="6.13054">
        <ele>1553.033691</ele>
        <time>2016-08-27T15:32:13Z</time>
      </trkpt>
      <trkpt lat="45.3444" lon="6.1305">
        <ele>1552.328125</ele>
        <time>2016-08-27T15:32:18Z</time>
      </trkpt>
      <trkpt lat="45.34441" lon="6.13046">
        <ele>1551.755371</ele>
        <time>2016-08-27T15:32:23Z</time>
      </trkpt>
      <trkpt lat="45.34441" lon="6.13039">
        <ele>1550.625122</ele>
        <time>2016-08-27T15:32:28Z</time>
      </trkpt>
      <trkpt lat="45.3444" lon="6.13033">
        <ele>1549.539795</ele>
        <time>2016-08-27T15:32:33Z</time>
      </trkpt>
      <trkpt lat="45.3444" lon="6.13028">
        <ele>1548.574463</ele>
        <time>2016-08-27T15:32:38Z</time>
      </trkpt>
      <trkpt lat="45.34441" lon="6.13021">
        <ele>1547.649048</ele>
        <time>2016-08-27T15:32:43Z</time>
      </trkpt>
      <trkpt lat="45.3444" lon="6.13014">
        <ele>1546.319702</ele>
        <time>2016-08-27T15:32:48Z</time>
      </trkpt>
      <trkpt lat="45.34436" lon="6.13004">
        <ele>1544.277954</ele>
        <time>2016-08-27T15:32:53Z</time>
      </trkpt>
      <trkpt lat="45.34438" lon="6.12998">
        <ele>1543.609253</ele>
        <time>2016-08-27T15:32:58Z</time>
      </trkpt>
      <trkpt lat="45.34441" lon="6.1299">
        <ele>1542.839966</ele>
        <time>2016-08-27T15:33:03Z</time>
      </trkpt>
      <trkpt lat="45.3444" lon="6.12982">
        <ele>1541.65271</ele>
        <time>2016-08-27T15:33:08Z</time>
      </trkpt>
      <trkpt lat="45.34439" lon="6.12978">
        <ele>1540.905518</ele>
        <time>2016-08-27T15:33:13Z</time>
      </trkpt>
      <trkpt lat="45.34441" lon="6.12974">
        <ele>1540.684937</ele>
        <time>2016-08-27T15:33:18Z</time>
      </trkpt>
      <trkpt lat="45.34441" lon="6.12968">
        <ele>1539.864746</ele>
        <time>2016-08-27T15:33:23Z</time>
      </trkpt>
      <trkpt lat="45.34443" lon="6.12962">
        <ele>1539.238159</ele>
        <time>2016-08-27T15:33:28Z</time>
      </trkpt>
      <trkpt lat="45.34444" lon="6.12957">
        <ele>1538.860229</ele>
        <time>2016-08-27T15:33:33Z</time>
      </trkpt>
      <trkpt lat="45.34446" lon="6.1295">
        <ele>1538.195557</ele>
        <time>2016-08-27T15:33:38Z</time>
      </trkpt>
      <trkpt lat="45.3445" lon="6.12943">
        <ele>1537.755859</ele>
        <time>2016-08-27T15:33:43Z</time>
      </trkpt>
      <trkpt lat="45.34453" lon="6.12937">
        <ele>1537.431396</ele>
        <time>2016-08-27T15:33:48Z</time>
      </trkpt>
      <trkpt lat="45.34456" lon="6.12932">
        <ele>1537.341675</ele>
        <time>2016-08-27T15:33:53Z</time>
      </trkpt>
      <trkpt lat="45.34458" lon="6.12929">
        <ele>1537.030273</ele>
        <time>2016-08-27T15:33:58Z</time>
      </trkpt>
      <trkpt lat="45.34462" lon="6.12923">
        <ele>1536.776978</ele>
        <time>2016-08-27T15:34:03Z</time>
      </trkpt>
      <trkpt lat="45.34467" lon="6.12918">
        <ele>1536.548706</ele>
        <time>2016-08-27T15:34:08Z</time>
      </trkpt>
      <trkpt lat="45.3447" lon="6.12915">
        <ele>1536.560547</ele>
        <time>2016-08-27T15:34:13Z</time>
      </trkpt>
      <trkpt lat="45.34474" lon="6.12912">
        <ele>1536.555542</ele>
        <time>2016-08-27T15:34:18Z</time>
      </trkpt>
      <trkpt lat="45.34478" lon="6.1291">
        <ele>1536.609985</ele>
        <time>2016-08-27T15:34:23Z</time>
      </trkpt>
      <trkpt lat="45.34481" lon="6.12908">
        <ele>1536.657959</ele>
        <time>2016-08-27T15:34:28Z</time>
      </trkpt>
      <trkpt lat="45.34486" lon="6.12904">
        <ele>1536.528809</ele>
        <time>2016-08-27T15:34:33Z</time>
      </trkpt>
      <trkpt lat="45.34489" lon="6.12898">
        <ele>1535.94812</ele>
        <time>2016-08-27T15:34:38Z</time>
      </trkpt>
      <trkpt lat="45.34494" lon="6.12891">
        <ele>1535.270264</ele>
        <time>2016-08-27T15:34:43Z</time>
      </trkpt>
      <trkpt lat="45.34497" lon="6.12884">
        <ele>1534.583008</ele>
        <time>2016-08-27T15:34:48Z</time>
      </trkpt>
      <trkpt lat="45.34497" lon="6.12877">
        <ele>1533.469971</ele>
        <time>2016-08-27T15:34:53Z</time>
      </trkpt>
      <trkpt lat="45.34497" lon="6.12872">
        <ele>1531.925049</ele>
        <time>2016-08-27T15:34:58Z</time>
      </trkpt>
      <trkpt lat="45.345" lon="6.12866">
        <ele>1529.944946</ele>
        <time>2016-08-27T15:35:03Z</time>
      </trkpt>
      <trkpt lat="45.34504" lon="6.1286">
        <ele>1528.319336</ele>
        <time>2016-08-27T15:35:08Z</time>
      </trkpt>
      <trkpt lat="45.34506" lon="6.12855">
        <ele>1526.977539</ele>
        <time>2016-08-27T15:35:13Z</time>
      </trkpt>
      <trkpt lat="45.34509" lon="6.1285">
        <ele>1525.72998</ele>
        <time>2016-08-27T15:35:18Z</time>
      </trkpt>
      <trkpt lat="45.34514" lon="6.12848">
        <ele>1525.196655</ele>
        <time>2016-08-27T15:35:23Z</time>
      </trkpt>
      <trkpt lat="45.34518" lon="6.12845">
        <ele>1524.748047</ele>
        <time>2016-08-27T15:35:28Z</time>
      </trkpt>
      <trkpt lat="45.3452" lon="6.12843">
        <ele>1524.011963</ele>
        <time>2016-08-27T15:35:33Z</time>
      </trkpt>
      <trkpt lat="45.34523" lon="6.12839">
        <ele>1522.840576</ele>
        <time>2016-08-27T15:35:38Z</time>
      </trkpt>
      <trkpt lat="45.34525" lon="6.12836">
        <ele>1522.058472</ele>
        <time>2016-08-27T15:35:43Z</time>
      </trkpt>
      <trkpt lat="45.34528" lon="6.12831">
        <ele>1520.548096</ele>
        <time>2016-08-27T15:35:48Z</time>
      </trkpt>
      <trkpt lat="45.34531" lon="6.12826">
        <ele>1519.203491</ele>
        <time>2016-08-27T15:35:53Z</time>
      </trkpt>
      <trkpt lat="45.34532" lon="6.12823">
        <ele>1518.063599</ele>
        <time>2016-08-27T15:35:58Z</time>
      </trkpt>
      <trkpt lat="45.34535" lon="6.12819">
        <ele>1516.935913</ele>
        <time>2016-08-27T15:36:03Z</time>
      </trkpt>
      <trkpt lat="45.34538" lon="6.12816">
        <ele>1516.062378</ele>
        <time>2016-08-27T15:36:08Z</time>
      </trkpt>
      <trkpt lat="45.34541" lon="6.12813">
        <ele>1514.61792</ele>
        <time>2016-08-27T15:36:13Z</time>
      </trkpt>
      <trkpt lat="45.34544" lon="6.1281">
        <ele>1513.242676</ele>
        <time>2016-08-27T15:36:18Z</time>
      </trkpt>
      <trkpt lat="45.34548" lon="6.12808">
        <ele>1512.332275</ele>
        <time>2016-08-27T15:36:23Z</time>
      </trkpt>
      <trkpt lat="45.3455" lon="6.12804">
        <ele>1510.756592</ele>
        <time>2016-08-27T15:36:28Z</time>
      </trkpt>
      <trkpt lat="45.34554" lon="6.12801">
        <ele>1509.806641</ele>
        <time>2016-08-27T15:36:33Z</time>
      </trkpt>
      <trkpt lat="45.34557" lon="6.12797">
        <ele>1508.244751</ele>
        <time>2016-08-27T15:36:38Z</time>
      </trkpt>
      <trkpt lat="45.34562" lon="6.12794">
        <ele>1507.474854</ele>
        <time>2016-08-27T15:36:43Z</time>
      </trkpt>
      <trkpt lat="45.34566" lon="6.12789">
        <ele>1505.534302</ele>
        <time>2016-08-27T15:36:48Z</time>
      </trkpt>
      <trkpt lat="45.34569" lon="6.12783">
        <ele>1503.030029</ele>
        <time>2016-08-27T15:36:53Z</time>
      </trkpt>
      <trkpt lat="45.34574" lon="6.1278">
        <ele>1502.647827</ele>
        <time>2016-08-27T15:36:58Z</time>
      </trkpt>
      <trkpt lat="45.34579" lon="6.12778">
        <ele>1502.446045</ele>
        <time>2016-08-27T15:37:03Z</time>
      </trkpt>
      <trkpt lat="45.34583" lon="6.12775">
        <ele>1501.846924</ele>
        <time>2016-08-27T15:37:08Z</time>
      </trkpt>
      <trkpt lat="45.34585" lon="6.12768">
        <ele>1499.111084</ele>
        <time>2016-08-27T15:37:13Z</time>
      </trkpt>
      <trkpt lat="45.34586" lon="6.12764">
        <ele>1497.296143</ele>
        <time>2016-08-27T15:37:18Z</time>
      </trkpt>
      <trkpt lat="45.34588" lon="6.12759">
        <ele>1495.529053</ele>
        <time>2016-08-27T15:37:23Z</time>
      </trkpt>
      <trkpt lat="45.34589" lon="6.12755">
        <ele>1493.591064</ele>
        <time>2016-08-27T15:37:28Z</time>
      </trkpt>
      <trkpt lat="45.34591" lon="6.1275">
        <ele>1491.791382</ele>
        <time>2016-08-27T15:37:33Z</time>
      </trkpt>
      <trkpt lat="45.3459" lon="6.12747">
        <ele>1490.307007</ele>
        <time>2016-08-27T15:37:38Z</time>
      </trkpt>
      <trkpt lat="45.34588" lon="6.12746">
        <ele>1489.492188</ele>
        <time>2016-08-27T15:37:43Z</time>
      </trkpt>
      <trkpt lat="45.34584" lon="6.12745">
        <ele>1488.18457</ele>
        <time>2016-08-27T15:37:48Z</time>
      </trkpt>
      <trkpt lat="45.34581" lon="6.12744">
        <ele>1487.386963</ele>
        <time>2016-08-27T15:37:53Z</time>
      </trkpt>
      <trkpt lat="45.34577" lon="6.12742">
        <ele>1485.81543</ele>
        <time>2016-08-27T15:37:58Z</time>
      </trkpt>
      <trkpt lat="45.34574" lon="6.12741">
        <ele>1484.525635</ele>
        <time>2016-08-27T15:38:03Z</time>
      </trkpt>
      <trkpt lat="45.3457" lon="6.1274">
        <ele>1483.258667</ele>
        <time>2016-08-27T15:38:08Z</time>
      </trkpt>
      <trkpt lat="45.34568" lon="6.12737">
        <ele>1481.800293</ele>
        <time>2016-08-27T15:38:13Z</time>
      </trkpt>
      <trkpt lat="45.34564" lon="6.12736">
        <ele>1480.532349</ele>
        <time>2016-08-27T15:38:18Z</time>
      </trkpt>
      <trkpt lat="45.3456" lon="6.12733">
        <ele>1478.155518</ele>
        <time>2016-08-27T15:38:23Z</time>
      </trkpt>
      <trkpt lat="45.34557" lon="6.1273">
        <ele>1476.240356</ele>
        <time>2016-08-27T15:38:28Z</time>
      </trkpt>
      <trkpt lat="45.34554" lon="6.1273">
        <ele>1475.472412</ele>
        <time>2016-08-27T15:38:33Z</time>
      </trkpt>
      <trkpt lat="45.34551" lon="6.12729">
        <ele>1474.509644</ele>
        <time>2016-08-27T15:38:38Z</time>
      </trkpt>
      <trkpt lat="45.34548" lon="6.12727">
        <ele>1473.608398</ele>
        <time>2016-08-27T15:38:43Z</time>
      </trkpt>
      <trkpt lat="45.34543" lon="6.12727">
        <ele>1472.851074</ele>
        <time>2016-08-27T15:38:48Z</time>
      </trkpt>
      <trkpt lat="45.34538" lon="6.12725">
        <ele>1471.595337</ele>
        <time>2016-08-27T15:38:53Z</time>
      </trkpt>
      <trkpt lat="45.34538" lon="6.12724">
        <ele>1471.255493</ele>
        <time>2016-08-27T15:38:58Z</time>
      </trkpt>
      <trkpt lat="45.34535" lon="6.12723">
        <ele>1470.574585</ele>
        <time>2016-08-27T15:39:03Z</time>
      </trkpt>
      <trkpt lat="45.34531" lon="6.1272">
        <ele>1468.447754</ele>
        <time>2016-08-27T15:39:08Z</time>
      </trkpt>
      <trkpt lat="45.34531" lon="6.12719">
        <ele>1467.832886</ele>
        <time>2016-08-27T15:39:13Z</time>
      </trkpt>
      <trkpt lat="45.34531" lon="6.12717">
        <ele>1466.934692</ele>
        <time>2016-08-27T15:39:18Z</time>
      </trkpt>
      <trkpt lat="45.34531" lon="6.12716">
        <ele>1466.485352</ele>
        <time>2016-08-27T15:39:23Z</time>
      </trkpt>
      <trkpt lat="45.34531" lon="6.12715">
        <ele>1466.335571</ele>
        <time>2016-08-27T15:39:28Z</time>
      </trkpt>
      <trkpt lat="45.34534" lon="6.12714">
        <ele>1466.204346</ele>
        <time>2016-08-27T15:39:33Z</time>
      </trkpt>
      <trkpt lat="45.34536" lon="6.12714">
        <ele>1466.082886</ele>
        <time>2016-08-27T15:39:38Z</time>
      </trkpt>
      <trkpt lat="45.34539" lon="6.12711">
        <ele>1465.107178</ele>
        <time>2016-08-27T15:39:43Z</time>
      </trkpt>
      <trkpt lat="45.34541" lon="6.12707">
        <ele>1463.300659</ele>
        <time>2016-08-27T15:39:48Z</time>
      </trkpt>
      <trkpt lat="45.34542" lon="6.12703">
        <ele>1461.629395</ele>
        <time>2016-08-27T15:39:53Z</time>
      </trkpt>
      <trkpt lat="45.34546" lon="6.12698">
        <ele>1459.923828</ele>
        <time>2016-08-27T15:39:58Z</time>
      </trkpt>
      <trkpt lat="45.34548" lon="6.12693">
        <ele>1457.882202</ele>
        <time>2016-08-27T15:40:03Z</time>
      </trkpt>
      <trkpt lat="45.34551" lon="6.1269">
        <ele>1456.980347</ele>
        <time>2016-08-27T15:40:08Z</time>
      </trkpt>
      <trkpt lat="45.34554" lon="6.12684">
        <ele>1454.772339</ele>
        <time>2016-08-27T15:40:13Z</time>
      </trkpt>
      <trkpt lat="45.34556" lon="6.12678">
        <ele>1452.635376</ele>
        <time>2016-08-27T15:40:18Z</time>
      </trkpt>
      <trkpt lat="45.34558" lon="6.12677">
        <ele>1452.527832</ele>
        <time>2016-08-27T15:40:23Z</time>
      </trkpt>
      <trkpt lat="45.3456" lon="6.12678">
        <ele>1453.299316</ele>
        <time>2016-08-27T15:40:28Z</time>
      </trkpt>
      <trkpt lat="45.34561" lon="6.12677">
        <ele>1453.122681</ele>
        <time>2016-08-27T15:40:33Z</time>
      </trkpt>
      <trkpt lat="45.34563" lon="6.12674">
        <ele>1452.149414</ele>
        <time>2016-08-27T15:40:38Z</time>
      </trkpt>
      <trkpt lat="45.34564" lon="6.12669">
        <ele>1450.39502</ele>
        <time>2016-08-27T15:40:43Z</time>
      </trkpt>
      <trkpt lat="45.34565" lon="6.12666">
        <ele>1449.027588</ele>
        <time>2016-08-27T15:40:48Z</time>
      </trkpt>
      <trkpt lat="45.34566" lon="6.12664">
        <ele>1448.542358</ele>
        <time>2016-08-27T15:40:53Z</time>
      </trkpt>
      <trkpt lat="45.34563" lon="6.12661">
        <ele>1446.81189</ele>
        <time>2016-08-27T15:40:58Z</time>
      </trkpt>
      <trkpt lat="45.34561" lon="6.12658">
        <ele>1444.871704</ele>
        <time>2016-08-27T15:41:03Z</time>
      </trkpt>
      <trkpt lat="45.34556" lon="6.12655">
        <ele>1443.049561</ele>
        <time>2016-08-27T15:41:08Z</time>
      </trkpt>
      <trkpt lat="45.34552" lon="6.12654">
        <ele>1442.087158</ele>
        <time>2016-08-27T15:41:13Z</time>
      </trkpt>
      <trkpt lat="45.34547" lon="6.12652">
        <ele>1440.740601</ele>
        <time>2016-08-27T15:41:18Z</time>
      </trkpt>
      <trkpt lat="45.34543" lon="6.12649">
        <ele>1439.296021</ele>
        <time>2016-08-27T15:41:23Z</time>
      </trkpt>
      <trkpt lat="45.34539" lon="6.12647">
        <ele>1437.781006</ele>
        <time>2016-08-27T15:41:28Z</time>
      </trkpt>
      <trkpt lat="45.34537" lon="6.12643">
        <ele>1436.154175</ele>
        <time>2016-08-27T15:41:33Z</time>
      </trkpt>
      <trkpt lat="45.3454" lon="6.1264">
        <ele>1435.06897</ele>
        <time>2016-08-27T15:41:38Z</time>
      </trkpt>
      <trkpt lat="45.34541" lon="6.12635">
        <ele>1433.494385</ele>
        <time>2016-08-27T15:41:43Z</time>
      </trkpt>
      <trkpt lat="45.34538" lon="6.12631">
        <ele>1431.551514</ele>
        <time>2016-08-27T15:41:48Z</time>
      </trkpt>
      <trkpt lat="45.34536" lon="6.12627">
        <ele>1429.72937</ele>
        <time>2016-08-27T15:41:53Z</time>
      </trkpt>
      <trkpt lat="45.34534" lon="6.12622">
        <ele>1427.704712</ele>
        <time>2016-08-27T15:41:58Z</time>
      </trkpt>
      <trkpt lat="45.34533" lon="6.12618">
        <ele>1426.245239</ele>
        <time>2016-08-27T15:42:03Z</time>
      </trkpt>
      <trkpt lat="45.34533" lon="6.12614">
        <ele>1424.887939</ele>
        <time>2016-08-27T15:42:08Z</time>
      </trkpt>
      <trkpt lat="45.34535" lon="6.1261">
        <ele>1423.539063</ele>
        <time>2016-08-27T15:42:13Z</time>
      </trkpt>
      <trkpt lat="45.34536" lon="6.12603">
        <ele>1421.564331</ele>
        <time>2016-08-27T15:42:18Z</time>
      </trkpt>
      <trkpt lat="45.34539" lon="6.12598">
        <ele>1419.958496</ele>
        <time>2016-08-27T15:42:23Z</time>
      </trkpt>
      <trkpt lat="45.34539" lon="6.12593">
        <ele>1418.352051</ele>
        <time>2016-08-27T15:42:28Z</time>
      </trkpt>
      <trkpt lat="45.34541" lon="6.12589">
        <ele>1417.333496</ele>
        <time>2016-08-27T15:42:33Z</time>
      </trkpt>
      <trkpt lat="45.34545" lon="6.12586">
        <ele>1416.701904</ele>
        <time>2016-08-27T15:42:38Z</time>
      </trkpt>
      <trkpt lat="45.34548" lon="6.12582">
        <ele>1415.382324</ele>
        <time>2016-08-27T15:42:43Z</time>
      </trkpt>
      <trkpt lat="45.34551" lon="6.12578">
        <ele>1414.389771</ele>
        <time>2016-08-27T15:42:48Z</time>
      </trkpt>
      <trkpt lat="45.34554" lon="6.12576">
        <ele>1414.002075</ele>
        <time>2016-08-27T15:42:53Z</time>
      </trkpt>
      <trkpt lat="45.34558" lon="6.12571">
        <ele>1412.927002</ele>
        <time>2016-08-27T15:42:58Z</time>
      </trkpt>
      <trkpt lat="45.34563" lon="6.12568">
        <ele>1412.19458</ele>
        <time>2016-08-27T15:43:03Z</time>
      </trkpt>
      <trkpt lat="45.34567" lon="6.12564">
        <ele>1411.399658</ele>
        <time>2016-08-27T15:43:08Z</time>
      </trkpt>
      <trkpt lat="45.34572" lon="6.12561">
        <ele>1410.55542</ele>
        <time>2016-08-27T15:43:13Z</time>
      </trkpt>
      <trkpt lat="45.34578" lon="6.12557">
        <ele>1409.664673</ele>
        <time>2016-08-27T15:43:18Z</time>
      </trkpt>
      <trkpt lat="45.34584" lon="6.12554">
        <ele>1408.867188</ele>
        <time>2016-08-27T15:43:23Z</time>
      </trkpt>
      <trkpt lat="45.34589" lon="6.12552">
        <ele>1408.553345</ele>
        <time>2016-08-27T15:43:28Z</time>
      </trkpt>
      <trkpt lat="45.34589" lon="6.12548">
        <ele>1407.006958</ele>
        <time>2016-08-27T15:43:33Z</time>
      </trkpt>
      <trkpt lat="45.34587" lon="6.12544">
        <ele>1405.267944</ele>
        <time>2016-08-27T15:43:38Z</time>
      </trkpt>
      <trkpt lat="45.34584" lon="6.12539">
        <ele>1403.088623</ele>
        <time>2016-08-27T15:43:43Z</time>
      </trkpt>
      <trkpt lat="45.34581" lon="6.12534">
        <ele>1401.076538</ele>
        <time>2016-08-27T15:43:48Z</time>
      </trkpt>
      <trkpt lat="45.34576" lon="6.12531">
        <ele>1399.436157</ele>
        <time>2016-08-27T15:43:53Z</time>
      </trkpt>
      <trkpt lat="45.34572" lon="6.12529">
        <ele>1397.986206</ele>
        <time>2016-08-27T15:43:58Z</time>
      </trkpt>
      <trkpt lat="45.34567" lon="6.12527">
        <ele>1396.738647</ele>
        <time>2016-08-27T15:44:03Z</time>
      </trkpt>
      <trkpt lat="45.34562" lon="6.12523">
        <ele>1395.00708</ele>
        <time>2016-08-27T15:44:08Z</time>
      </trkpt>
      <trkpt lat="45.34558" lon="6.12519">
        <ele>1392.732422</ele>
        <time>2016-08-27T15:44:13Z</time>
      </trkpt>
      <trkpt lat="45.34556" lon="6.12519">
        <ele>1392.505981</ele>
        <time>2016-08-27T15:44:18Z</time>
      </trkpt>
      <trkpt lat="45.34554" lon="6.12517">
        <ele>1391.100342</ele>
        <time>2016-08-27T15:44:23Z</time>
      </trkpt>
      <trkpt lat="45.34549" lon="6.12516">
        <ele>1390.185303</ele>
        <time>2016-08-27T15:44:28Z</time>
      </trkpt>
      <trkpt lat="45.34547" lon="6.12518">
        <ele>1390.825562</ele>
        <time>2016-08-27T15:44:33Z</time>
      </trkpt>
      <trkpt lat="45.34543" lon="6.12515">
        <ele>1388.792969</ele>
        <time>2016-08-27T15:44:38Z</time>
      </trkpt>
      <trkpt lat="45.34539" lon="6.12513">
        <ele>1387.306519</ele>
        <time>2016-08-27T15:44:43Z</time>
      </trkpt>
      <trkpt lat="45.34535" lon="6.12509">
        <ele>1385.087158</ele>
        <time>2016-08-27T15:44:48Z</time>
      </trkpt>
      <trkpt lat="45.3453" lon="6.12508">
        <ele>1384.05127</ele>
        <time>2016-08-27T15:44:53Z</time>
      </trkpt>
      <trkpt lat="45.34526" lon="6.12507">
        <ele>1382.908203</ele>
        <time>2016-08-27T15:44:58Z</time>
      </trkpt>
      <trkpt lat="45.34522" lon="6.12509">
        <ele>1382.812134</ele>
        <time>2016-08-27T15:45:03Z</time>
      </trkpt>
      <trkpt lat="45.34517" lon="6.12509">
        <ele>1381.963745</ele>
        <time>2016-08-27T15:45:08Z</time>
      </trkpt>
      <trkpt lat="45.34513" lon="6.12507">
        <ele>1380.71936</ele>
        <time>2016-08-27T15:45:13Z</time>
      </trkpt>
      <trkpt lat="45.34509" lon="6.12503">
        <ele>1378.152466</ele>
        <time>2016-08-27T15:45:18Z</time>
      </trkpt>
      <trkpt lat="45.34506" lon="6.12501">
        <ele>1376.585449</ele>
        <time>2016-08-27T15:45:23Z</time>
      </trkpt>
      <trkpt lat="45.34502" lon="6.12501">
        <ele>1376.071045</ele>
        <time>2016-08-27T15:45:28Z</time>
      </trkpt>
      <trkpt lat="45.34497" lon="6.12505">
        <ele>1376.686401</ele>
        <time>2016-08-27T15:45:33Z</time>
      </trkpt>
      <trkpt lat="45.34492" lon="6.12503">
        <ele>1375.173096</ele>
        <time>2016-08-27T15:45:38Z</time>
      </trkpt>
      <trkpt lat="45.34489" lon="6.12503">
        <ele>1374.549438</ele>
        <time>2016-08-27T15:45:43Z</time>
      </trkpt>
      <trkpt lat="45.34489" lon="6.12501">
        <ele>1373.449097</ele>
        <time>2016-08-27T15:45:48Z</time>
      </trkpt>
      <trkpt lat="45.34489" lon="6.125">
        <ele>1372.889404</ele>
        <time>2016-08-27T15:45:53Z</time>
      </trkpt>
      <trkpt lat="45.34489" lon="6.12496">
        <ele>1371.414551</ele>
        <time>2016-08-27T15:45:58Z</time>
      </trkpt>
      <trkpt lat="45.34491" lon="6.12493">
        <ele>1370.199585</ele>
        <time>2016-08-27T15:46:03Z</time>
      </trkpt>
      <trkpt lat="45.34492" lon="6.12487">
        <ele>1368.15918</ele>
        <time>2016-08-27T15:46:08Z</time>
      </trkpt>
      <trkpt lat="45.34493" lon="6.12483">
        <ele>1366.939453</ele>
        <time>2016-08-27T15:46:13Z</time>
      </trkpt>
      <trkpt lat="45.34494" lon="6.12479">
        <ele>1365.53479</ele>
        <time>2016-08-27T15:46:18Z</time>
      </trkpt>
      <trkpt lat="45.34497" lon="6.12475">
        <ele>1364.543579</ele>
        <time>2016-08-27T15:46:23Z</time>
      </trkpt>
      <trkpt lat="45.34501" lon="6.12473">
        <ele>1364.409424</ele>
        <time>2016-08-27T15:46:28Z</time>
      </trkpt>
      <trkpt lat="45.345" lon="6.12473">
        <ele>1364.371948</ele>
        <time>2016-08-27T15:46:33Z</time>
      </trkpt>
      <trkpt lat="45.34501" lon="6.1247">
        <ele>1363.284058</ele>
        <time>2016-08-27T15:46:38Z</time>
      </trkpt>
      <trkpt lat="45.34502" lon="6.12467">
        <ele>1362.247314</ele>
        <time>2016-08-27T15:46:43Z</time>
      </trkpt>
      <trkpt lat="45.34501" lon="6.12464">
        <ele>1360.90564</ele>
        <time>2016-08-27T15:46:48Z</time>
      </trkpt>
      <trkpt lat="45.34499" lon="6.12463">
        <ele>1360.51709</ele>
        <time>2016-08-27T15:46:53Z</time>
      </trkpt>
      <trkpt lat="45.34499" lon="6.12464">
        <ele>1360.678345</ele>
        <time>2016-08-27T15:46:58Z</time>
      </trkpt>
      <trkpt lat="45.34498" lon="6.12462">
        <ele>1359.85376</ele>
        <time>2016-08-27T15:47:03Z</time>
      </trkpt>
      <trkpt lat="45.34497" lon="6.12462">
        <ele>1359.506348</ele>
        <time>2016-08-27T15:47:08Z</time>
      </trkpt>
      <trkpt lat="45.34496" lon="6.12462">
        <ele>1359.645386</ele>
        <time>2016-08-27T15:47:13Z</time>
      </trkpt>
      <trkpt lat="45.34496" lon="6.12462">
        <ele>1359.463623</ele>
        <time>2016-08-27T15:47:18Z</time>
      </trkpt>
      <trkpt lat="45.34494" lon="6.12456">
        <ele>1357.038086</ele>
        <time>2016-08-27T15:47:23Z</time>
      </trkpt>
      <trkpt lat="45.34493" lon="6.12453">
        <ele>1355.668091</ele>
        <time>2016-08-27T15:47:28Z</time>
      </trkpt>
      <trkpt lat="45.3449" lon="6.1245">
        <ele>1354.147705</ele>
        <time>2016-08-27T15:47:33Z</time>
      </trkpt>
      <trkpt lat="45.34486" lon="6.12448">
        <ele>1352.560181</ele>
        <time>2016-08-27T15:47:38Z</time>
      </trkpt>
      <trkpt lat="45.34481" lon="6.12447">
        <ele>1351.443359</ele>
        <time>2016-08-27T15:47:43Z</time>
      </trkpt>
      <trkpt lat="45.34475" lon="6.12445">
        <ele>1350.006348</ele>
        <time>2016-08-27T15:47:48Z</time>
      </trkpt>
      <trkpt lat="45.34469" lon="6.12444">
        <ele>1348.599976</ele>
        <time>2016-08-27T15:47:53Z</time>
      </trkpt>
      <trkpt lat="45.34463" lon="6.12446">
        <ele>1347.810059</ele>
        <time>2016-08-27T15:47:58Z</time>
      </trkpt>
      <trkpt lat="45.34458" lon="6.1245">
        <ele>1347.945679</ele>
        <time>2016-08-27T15:48:03Z</time>
      </trkpt>
      <trkpt lat="45.34455" lon="6.12449">
        <ele>1346.800171</ele>
        <time>2016-08-27T15:48:08Z</time>
      </trkpt>
      <trkpt lat="45.34451" lon="6.12449">
        <ele>1345.701904</ele>
        <time>2016-08-27T15:48:13Z</time>
      </trkpt>
      <trkpt lat="45.34447" lon="6.1245">
        <ele>1344.998047</ele>
        <time>2016-08-27T15:48:18Z</time>
      </trkpt>
      <trkpt lat="45.34443" lon="6.12453">
        <ele>1345.435303</ele>
        <time>2016-08-27T15:48:23Z</time>
      </trkpt>
      <trkpt lat="45.34437" lon="6.12458">
        <ele>1345.196167</ele>
        <time>2016-08-27T15:48:28Z</time>
      </trkpt>
      <trkpt lat="45.34431" lon="6.12463">
        <ele>1345.246704</ele>
        <time>2016-08-27T15:48:33Z</time>
      </trkpt>
      <trkpt lat="45.34427" lon="6.12468">
        <ele>1345.557373</ele>
        <time>2016-08-27T15:48:38Z</time>
      </trkpt>
      <trkpt lat="45.34424" lon="6.12472">
        <ele>1346.066284</ele>
        <time>2016-08-27T15:48:43Z</time>
      </trkpt>
      <trkpt lat="45.34417" lon="6.12469">
        <ele>1343.61377</ele>
        <time>2016-08-27T15:48:48Z</time>
      </trkpt>
      <trkpt lat="45.34414" lon="6.12467">
        <ele>1341.811279</ele>
        <time>2016-08-27T15:48:53Z</time>
      </trkpt>
      <trkpt lat="45.34412" lon="6.12466">
        <ele>1341.263794</ele>
        <time>2016-08-27T15:48:58Z</time>
      </trkpt>
      <trkpt lat="45.34409" lon="6.12466">
        <ele>1340.25</ele>
        <time>2016-08-27T15:49:03Z</time>
      </trkpt>
      <trkpt lat="45.34404" lon="6.12465">
        <ele>1338.547485</ele>
        <time>2016-08-27T15:49:08Z</time>
      </trkpt>
      <trkpt lat="45.34398" lon="6.12464">
        <ele>1336.546265</ele>
        <time>2016-08-27T15:49:13Z</time>
      </trkpt>
      <trkpt lat="45.34393" lon="6.12461">
        <ele>1334.501221</ele>
        <time>2016-08-27T15:49:18Z</time>
      </trkpt>
      <trkpt lat="45.34388" lon="6.12459">
        <ele>1332.587524</ele>
        <time>2016-08-27T15:49:23Z</time>
      </trkpt>
      <trkpt lat="45.34385" lon="6.12456">
        <ele>1330.692505</ele>
        <time>2016-08-27T15:49:28Z</time>
      </trkpt>
      <trkpt lat="45.34385" lon="6.12453">
        <ele>1329.710083</ele>
        <time>2016-08-27T15:49:33Z</time>
      </trkpt>
      <trkpt lat="45.34385" lon="6.12449">
        <ele>1328.584961</ele>
        <time>2016-08-27T15:49:38Z</time>
      </trkpt>
      <trkpt lat="45.34385" lon="6.12445">
        <ele>1327.412476</ele>
        <time>2016-08-27T15:49:43Z</time>
      </trkpt>
      <trkpt lat="45.34384" lon="6.1244">
        <ele>1325.857422</ele>
        <time>2016-08-27T15:49:48Z</time>
      </trkpt>
      <trkpt lat="45.34384" lon="6.12434">
        <ele>1323.963745</ele>
        <time>2016-08-27T15:49:53Z</time>
      </trkpt>
      <trkpt lat="45.34381" lon="6.12431">
        <ele>1322.291626</ele>
        <time>2016-08-27T15:49:58Z</time>
      </trkpt>
      <trkpt lat="45.34377" lon="6.1243">
        <ele>1320.625732</ele>
        <time>2016-08-27T15:50:03Z</time>
      </trkpt>
      <trkpt lat="45.34375" lon="6.12429">
        <ele>1319.949829</ele>
        <time>2016-08-27T15:50:08Z</time>
      </trkpt>
      <trkpt lat="45.34375" lon="6.12429">
        <ele>1319.99646</ele>
        <time>2016-08-27T15:50:13Z</time>
      </trkpt>
      <trkpt lat="45.34374" lon="6.12429">
        <ele>1319.705688</ele>
        <time>2016-08-27T15:50:18Z</time>
      </trkpt>
      <trkpt lat="45.34374" lon="6.1243">
        <ele>1319.993652</ele>
        <time>2016-08-27T15:50:23Z</time>
      </trkpt>
      <trkpt lat="45.34373" lon="6.12429">
        <ele>1319.494385</ele>
        <time>2016-08-27T15:50:28Z</time>
      </trkpt>
      <trkpt lat="45.34372" lon="6.12428">
        <ele>1318.894043</ele>
        <time>2016-08-27T15:50:33Z</time>
      </trkpt>
      <trkpt lat="45.34372" lon="6.12428">
        <ele>1319.124512</ele>
        <time>2016-08-27T15:50:38Z</time>
      </trkpt>
      <trkpt lat="45.34374" lon="6.12431">
        <ele>1320.157471</ele>
        <time>2016-08-27T15:50:43Z</time>
      </trkpt>
      <trkpt lat="45.34374" lon="6.12431">
        <ele>1320.157471</ele>
        <time>2016-08-27T15:50:48Z</time>
      </trkpt>
      <trkpt lat="45.34373" lon="6.1243">
        <ele>1319.680054</ele>
        <time>2016-08-27T15:50:53Z</time>
      </trkpt>
      <trkpt lat="45.34371" lon="6.12429">
        <ele>1319.02832</ele>
        <time>2016-08-27T15:50:58Z</time>
      </trkpt>
      <trkpt lat="45.34367" lon="6.12426">
        <ele>1317.225708</ele>
        <time>2016-08-27T15:51:03Z</time>
      </trkpt>
      <trkpt lat="45.34365" lon="6.12424">
        <ele>1315.98877</ele>
        <time>2016-08-27T15:51:08Z</time>
      </trkpt>
      <trkpt lat="45.34363" lon="6.12422">
        <ele>1314.841064</ele>
        <time>2016-08-27T15:51:13Z</time>
      </trkpt>
      <trkpt lat="45.34356" lon="6.12422">
        <ele>1313.351074</ele>
        <time>2016-08-27T15:51:18Z</time>
      </trkpt>
      <trkpt lat="45.34351" lon="6.12421">
        <ele>1311.641846</ele>
        <time>2016-08-27T15:51:23Z</time>
      </trkpt>
      <trkpt lat="45.34348" lon="6.1242">
        <ele>1310.400024</ele>
        <time>2016-08-27T15:51:28Z</time>
      </trkpt>
      <trkpt lat="45.34344" lon="6.12417">
        <ele>1308.719971</ele>
        <time>2016-08-27T15:51:33Z</time>
      </trkpt>
      <trkpt lat="45.34339" lon="6.12418">
        <ele>1307.67749</ele>
        <time>2016-08-27T15:51:38Z</time>
      </trkpt>
      <trkpt lat="45.34334" lon="6.12417">
        <ele>1306.32373</ele>
        <time>2016-08-27T15:51:43Z</time>
      </trkpt>
      <trkpt lat="45.34329" lon="6.12421">
        <ele>1306.292236</ele>
        <time>2016-08-27T15:51:48Z</time>
      </trkpt>
      <trkpt lat="45.34326" lon="6.12421">
        <ele>1305.345703</ele>
        <time>2016-08-27T15:51:53Z</time>
      </trkpt>
      <trkpt lat="45.3432" lon="6.12417">
        <ele>1302.832886</ele>
        <time>2016-08-27T15:51:58Z</time>
      </trkpt>
      <trkpt lat="45.34314" lon="6.12417">
        <ele>1301.401855</ele>
        <time>2016-08-27T15:52:03Z</time>
      </trkpt>
      <trkpt lat="45.34306" lon="6.12417">
        <ele>1299.494019</ele>
        <time>2016-08-27T15:52:08Z</time>
      </trkpt>
      <trkpt lat="45.34301" lon="6.12417">
        <ele>1298.014893</ele>
        <time>2016-08-27T15:52:13Z</time>
      </trkpt>
      <trkpt lat="45.34298" lon="6.12412">
        <ele>1296.218994</ele>
        <time>2016-08-27T15:52:18Z</time>
      </trkpt>
      <trkpt lat="45.34295" lon="6.12408">
        <ele>1294.528687</ele>
        <time>2016-08-27T15:52:23Z</time>
      </trkpt>
      <trkpt lat="45.34292" lon="6.12404">
        <ele>1292.596924</ele>
        <time>2016-08-27T15:52:28Z</time>
      </trkpt>
      <trkpt lat="45.34287" lon="6.12401">
        <ele>1290.423828</ele>
        <time>2016-08-27T15:52:33Z</time>
      </trkpt>
      <trkpt lat="45.34282" lon="6.12401">
        <ele>1289.168457</ele>
        <time>2016-08-27T15:52:38Z</time>
      </trkpt>
      <trkpt lat="45.34277" lon="6.12404">
        <ele>1288.150024</ele>
        <time>2016-08-27T15:52:43Z</time>
      </trkpt>
      <trkpt lat="45.34275" lon="6.12406">
        <ele>1287.760376</ele>
        <time>2016-08-27T15:52:48Z</time>
      </trkpt>
      <trkpt lat="45.34271" lon="6.1241">
        <ele>1287.141479</ele>
        <time>2016-08-27T15:52:53Z</time>
      </trkpt>
      <trkpt lat="45.34264" lon="6.12412">
        <ele>1285.182617</ele>
        <time>2016-08-27T15:52:58Z</time>
      </trkpt>
      <trkpt lat="45.34259" lon="6.12417">
        <ele>1284.604004</ele>
        <time>2016-08-27T15:53:03Z</time>
      </trkpt>
      <trkpt lat="45.34253" lon="6.12421">
        <ele>1283.807983</ele>
        <time>2016-08-27T15:53:08Z</time>
      </trkpt>
      <trkpt lat="45.34247" lon="6.1242">
        <ele>1281.48584</ele>
        <time>2016-08-27T15:53:13Z</time>
      </trkpt>
      <trkpt lat="45.34242" lon="6.12418">
        <ele>1280.033081</ele>
        <time>2016-08-27T15:53:18Z</time>
      </trkpt>
      <trkpt lat="45.34235" lon="6.12418">
        <ele>1278.620483</ele>
        <time>2016-08-27T15:53:23Z</time>
      </trkpt>
      <trkpt lat="45.34227" lon="6.1242">
        <ele>1277.400879</ele>
        <time>2016-08-27T15:53:28Z</time>
      </trkpt>
      <trkpt lat="45.34222" lon="6.12422">
        <ele>1276.996338</ele>
        <time>2016-08-27T15:53:33Z</time>
      </trkpt>
      <trkpt lat="45.34215" lon="6.12426">
        <ele>1276.605469</ele>
        <time>2016-08-27T15:53:38Z</time>
      </trkpt>
      <trkpt lat="45.3421" lon="6.12428">
        <ele>1275.932007</ele>
        <time>2016-08-27T15:53:43Z</time>
      </trkpt>
      <trkpt lat="45.34202" lon="6.12431">
        <ele>1275.150146</ele>
        <time>2016-08-27T15:53:48Z</time>
      </trkpt>
      <trkpt lat="45.34197" lon="6.12433">
        <ele>1275.178223</ele>
        <time>2016-08-27T15:53:53Z</time>
      </trkpt>
      <trkpt lat="45.34193" lon="6.12434">
        <ele>1274.871216</ele>
        <time>2016-08-27T15:53:58Z</time>
      </trkpt>
      <trkpt lat="45.34186" lon="6.12435">
        <ele>1274.35144</ele>
        <time>2016-08-27T15:54:03Z</time>
      </trkpt>
      <trkpt lat="45.34181" lon="6.12434">
        <ele>1273.257446</ele>
        <time>2016-08-27T15:54:08Z</time>
      </trkpt>
      <trkpt lat="45.34175" lon="6.12438">
        <ele>1273.63855</ele>
        <time>2016-08-27T15:54:13Z</time>
      </trkpt>
      <trkpt lat="45.34169" lon="6.1244">
        <ele>1273.256958</ele>
        <time>2016-08-27T15:54:18Z</time>
      </trkpt>
      <trkpt lat="45.34164" lon="6.12437">
        <ele>1272.003418</ele>
        <time>2016-08-27T15:54:23Z</time>
      </trkpt>
      <trkpt lat="45.34161" lon="6.12434">
        <ele>1270.943359</ele>
        <time>2016-08-27T15:54:28Z</time>
      </trkpt>
      <trkpt lat="45.34156" lon="6.12427">
        <ele>1268.975098</ele>
        <time>2016-08-27T15:54:33Z</time>
      </trkpt>
      <trkpt lat="45.3415" lon="6.12424">
        <ele>1268.165649</ele>
        <time>2016-08-27T15:54:38Z</time>
      </trkpt>
      <trkpt lat="45.34147" lon="6.12422">
        <ele>1267.684448</ele>
        <time>2016-08-27T15:54:43Z</time>
      </trkpt>
      <trkpt lat="45.3414" lon="6.12418">
        <ele>1266.637817</ele>
        <time>2016-08-27T15:54:48Z</time>
      </trkpt>
      <trkpt lat="45.34134" lon="6.12416">
        <ele>1266.086426</ele>
        <time>2016-08-27T15:54:53Z</time>
      </trkpt>
      <trkpt lat="45.34128" lon="6.12416">
        <ele>1265.889282</ele>
        <time>2016-08-27T15:54:58Z</time>
      </trkpt>
      <trkpt lat="45.34122" lon="6.12415">
        <ele>1265.708008</ele>
        <time>2016-08-27T15:55:03Z</time>
      </trkpt>
      <trkpt lat="45.34116" lon="6.12414">
        <ele>1265.215576</ele>
        <time>2016-08-27T15:55:08Z</time>
      </trkpt>
      <trkpt lat="45.34109" lon="6.12414">
        <ele>1265.084961</ele>
        <time>2016-08-27T15:55:13Z</time>
      </trkpt>
      <trkpt lat="45.34103" lon="6.12414">
        <ele>1265.142212</ele>
        <time>2016-08-27T15:55:18Z</time>
      </trkpt>
      <trkpt lat="45.34097" lon="6.12417">
        <ele>1265.904053</ele>
        <time>2016-08-27T15:55:23Z</time>
      </trkpt>
      <trkpt lat="45.34092" lon="6.12416">
        <ele>1265.784546</ele>
        <time>2016-08-27T15:55:28Z</time>
      </trkpt>
      <trkpt lat="45.34086" lon="6.12417">
        <ele>1266.275024</ele>
        <time>2016-08-27T15:55:33Z</time>
      </trkpt>
      <trkpt lat="45.34081" lon="6.12417">
        <ele>1266.183716</ele>
        <time>2016-08-27T15:55:38Z</time>
      </trkpt>
      <trkpt lat="45.34077" lon="6.12411">
        <ele>1264.690796</ele>
        <time>2016-08-27T15:55:43Z</time>
      </trkpt>
      <trkpt lat="45.34073" lon="6.12408">
        <ele>1263.848633</ele>
        <time>2016-08-27T15:55:48Z</time>
      </trkpt>
      <trkpt lat="45.3407" lon="6.12407">
        <ele>1263.594482</ele>
        <time>2016-08-27T15:55:53Z</time>
      </trkpt>
      <trkpt lat="45.34062" lon="6.12404">
        <ele>1262.885132</ele>
        <time>2016-08-27T15:55:58Z</time>
      </trkpt>
      <trkpt lat="45.34059" lon="6.12405">
        <ele>1263.005737</ele>
        <time>2016-08-27T15:56:03Z</time>
      </trkpt>
      <trkpt lat="45.34057" lon="6.12401">
        <ele>1261.950317</ele>
        <time>2016-08-27T15:56:08Z</time>
      </trkpt>
      <trkpt lat="45.34049" lon="6.12398">
        <ele>1261.191528</ele>
        <time>2016-08-27T15:56:13Z</time>
      </trkpt>
      <trkpt lat="45.34044" lon="6.12396">
        <ele>1260.598389</ele>
        <time>2016-08-27T15:56:18Z</time>
      </trkpt>
      <trkpt lat="45.34036" lon="6.12395">
        <ele>1260.327271</ele>
        <time>2016-08-27T15:56:23Z</time>
      </trkpt>
      <trkpt lat="45.34026" lon="6.12396">
        <ele>1260.592285</ele>
        <time>2016-08-27T15:56:28Z</time>
      </trkpt>
      <trkpt lat="45.34018" lon="6.12398">
        <ele>1261.107544</ele>
        <time>2016-08-27T15:56:33Z</time>
      </trkpt>
      <trkpt lat="45.3401" lon="6.12399">
        <ele>1261.23877</ele>
        <time>2016-08-27T15:56:38Z</time>
      </trkpt>
      <trkpt lat="45.34002" lon="6.12399">
        <ele>1261.132568</ele>
        <time>2016-08-27T15:56:43Z</time>
      </trkpt>
      <trkpt lat="45.33994" lon="6.124">
        <ele>1261.616211</ele>
        <time>2016-08-27T15:56:48Z</time>
      </trkpt>
      <trkpt lat="45.33988" lon="6.124">
        <ele>1261.494995</ele>
        <time>2016-08-27T15:56:53Z</time>
      </trkpt>
      <trkpt lat="45.33987" lon="6.124">
        <ele>1261.380005</ele>
        <time>2016-08-27T15:56:58Z</time>
      </trkpt>
      <trkpt lat="45.33985" lon="6.124">
        <ele>1261.42749</ele>
        <time>2016-08-27T15:57:03Z</time>
      </trkpt>
      <trkpt lat="45.33979" lon="6.124">
        <ele>1261.471191</ele>
        <time>2016-08-27T15:57:08Z</time>
      </trkpt>
      <trkpt lat="45.33975" lon="6.12397">
        <ele>1260.39502</ele>
        <time>2016-08-27T15:57:13Z</time>
      </trkpt>
      <trkpt lat="45.33967" lon="6.12396">
        <ele>1260.165039</ele>
        <time>2016-08-27T15:57:18Z</time>
      </trkpt>
      <trkpt lat="45.33962" lon="6.12396">
        <ele>1259.819946</ele>
        <time>2016-08-27T15:57:23Z</time>
      </trkpt>
      <trkpt lat="45.33958" lon="6.12398">
        <ele>1260.481201</ele>
        <time>2016-08-27T15:57:28Z</time>
      </trkpt>
      <trkpt lat="45.33953" lon="6.12398">
        <ele>1260.308716</ele>
        <time>2016-08-27T15:57:33Z</time>
      </trkpt>
      <trkpt lat="45.33946" lon="6.12397">
        <ele>1259.805054</ele>
        <time>2016-08-27T15:57:38Z</time>
      </trkpt>
      <trkpt lat="45.3394" lon="6.12397">
        <ele>1259.705078</ele>
        <time>2016-08-27T15:57:43Z</time>
      </trkpt>
      <trkpt lat="45.33934" lon="6.12396">
        <ele>1259.344971</ele>
        <time>2016-08-27T15:57:48Z</time>
      </trkpt>
      <trkpt lat="45.33928" lon="6.12393">
        <ele>1258.096191</ele>
        <time>2016-08-27T15:57:53Z</time>
      </trkpt>
      <trkpt lat="45.33924" lon="6.12391">
        <ele>1257.071411</ele>
        <time>2016-08-27T15:57:58Z</time>
      </trkpt>
      <trkpt lat="45.33923" lon="6.12391">
        <ele>1256.946899</ele>
        <time>2016-08-27T15:58:03Z</time>
      </trkpt>
      <trkpt lat="45.3392" lon="6.12389">
        <ele>1256.314209</ele>
        <time>2016-08-27T15:58:08Z</time>
      </trkpt>
      <trkpt lat="45.33916" lon="6.12387">
        <ele>1255.253174</ele>
        <time>2016-08-27T15:58:13Z</time>
      </trkpt>
      <trkpt lat="45.33912" lon="6.12383">
        <ele>1253.695435</ele>
        <time>2016-08-27T15:58:18Z</time>
      </trkpt>
      <trkpt lat="45.33911" lon="6.12375">
        <ele>1251.196777</ele>
        <time>2016-08-27T15:58:23Z</time>
      </trkpt>
      <trkpt lat="45.33908" lon="6.1237">
        <ele>1249.258057</ele>
        <time>2016-08-27T15:58:28Z</time>
      </trkpt>
      <trkpt lat="45.33902" lon="6.12366">
        <ele>1247.608276</ele>
        <time>2016-08-27T15:58:33Z</time>
      </trkpt>
      <trkpt lat="45.33897" lon="6.12363">
        <ele>1246.130249</ele>
        <time>2016-08-27T15:58:38Z</time>
      </trkpt>
      <trkpt lat="45.33893" lon="6.1236">
        <ele>1244.790161</ele>
        <time>2016-08-27T15:58:43Z</time>
      </trkpt>
      <trkpt lat="45.33886" lon="6.12358">
        <ele>1243.402588</ele>
        <time>2016-08-27T15:58:48Z</time>
      </trkpt>
      <trkpt lat="45.3388" lon="6.12355">
        <ele>1241.747925</ele>
        <time>2016-08-27T15:58:53Z</time>
      </trkpt>
      <trkpt lat="45.33873" lon="6.12353">
        <ele>1240.664551</ele>
        <time>2016-08-27T15:58:58Z</time>
      </trkpt>
      <trkpt lat="45.33868" lon="6.12352">
        <ele>1239.716675</ele>
        <time>2016-08-27T15:59:03Z</time>
      </trkpt>
      <trkpt lat="45.33862" lon="6.1235">
        <ele>1238.466797</ele>
        <time>2016-08-27T15:59:08Z</time>
      </trkpt>
      <trkpt lat="45.33856" lon="6.12354">
        <ele>1239.102783</ele>
        <time>2016-08-27T15:59:13Z</time>
      </trkpt>
      <trkpt lat="45.33851" lon="6.12353">
        <ele>1238.250488</ele>
        <time>2016-08-27T15:59:18Z</time>
      </trkpt>
      <trkpt lat="45.33846" lon="6.12353">
        <ele>1237.72522</ele>
        <time>2016-08-27T15:59:23Z</time>
      </trkpt>
      <trkpt lat="45.3384" lon="6.12355">
        <ele>1237.81543</ele>
        <time>2016-08-27T15:59:28Z</time>
      </trkpt>
      <trkpt lat="45.33837" lon="6.12353">
        <ele>1236.802734</ele>
        <time>2016-08-27T15:59:33Z</time>
      </trkpt>
      <trkpt lat="45.33833" lon="6.12354">
        <ele>1236.69043</ele>
        <time>2016-08-27T15:59:38Z</time>
      </trkpt>
      <trkpt lat="45.33828" lon="6.12354">
        <ele>1235.827271</ele>
        <time>2016-08-27T15:59:43Z</time>
      </trkpt>
      <trkpt lat="45.33822" lon="6.12353">
        <ele>1234.716797</ele>
        <time>2016-08-27T15:59:48Z</time>
      </trkpt>
      <trkpt lat="45.33817" lon="6.1235">
        <ele>1233.484009</ele>
        <time>2016-08-27T15:59:53Z</time>
      </trkpt>
      <trkpt lat="45.33812" lon="6.12351">
        <ele>1232.844482</ele>
        <time>2016-08-27T15:59:58Z</time>
      </trkpt>
      <trkpt lat="45.33808" lon="6.12349">
        <ele>1231.71106</ele>
        <time>2016-08-27T16:00:03Z</time>
      </trkpt>
      <trkpt lat="45.33804" lon="6.12342">
        <ele>1229.063354</ele>
        <time>2016-08-27T16:00:08Z</time>
      </trkpt>
      <trkpt lat="45.33801" lon="6.12339">
        <ele>1227.767334</ele>
        <time>2016-08-27T16:00:13Z</time>
      </trkpt>
      <trkpt lat="45.33798" lon="6.12334">
        <ele>1225.821289</ele>
        <time>2016-08-27T16:00:18Z</time>
      </trkpt>
      <trkpt lat="45.33793" lon="6.12333">
        <ele>1224.927734</ele>
        <time>2016-08-27T16:00:23Z</time>
      </trkpt>
      <trkpt lat="45.33791" lon="6.12327">
        <ele>1223.044189</ele>
        <time>2016-08-27T16:00:28Z</time>
      </trkpt>
      <trkpt lat="45.33786" lon="6.12323">
        <ele>1221.149658</ele>
        <time>2016-08-27T16:00:33Z</time>
      </trkpt>
      <trkpt lat="45.33778" lon="6.1232">
        <ele>1219.878784</ele>
        <time>2016-08-27T16:00:38Z</time>
      </trkpt>
      <trkpt lat="45.33772" lon="6.12316">
        <ele>1218.208008</ele>
        <time>2016-08-27T16:00:43Z</time>
      </trkpt>
      <trkpt lat="45.33768" lon="6.12309">
        <ele>1215.709351</ele>
        <time>2016-08-27T16:00:48Z</time>
      </trkpt>
      <trkpt lat="45.33764" lon="6.12305">
        <ele>1214.138184</ele>
        <time>2016-08-27T16:00:53Z</time>
      </trkpt>
      <trkpt lat="45.33762" lon="6.123">
        <ele>1212.7052</ele>
        <time>2016-08-27T16:00:58Z</time>
      </trkpt>
      <trkpt lat="45.33754" lon="6.12297">
        <ele>1211.271729</ele>
        <time>2016-08-27T16:01:03Z</time>
      </trkpt>
      <trkpt lat="45.33745" lon="6.12296">
        <ele>1210.384399</ele>
        <time>2016-08-27T16:01:08Z</time>
      </trkpt>
      <trkpt lat="45.33739" lon="6.12293">
        <ele>1209.199707</ele>
        <time>2016-08-27T16:01:13Z</time>
      </trkpt>
      <trkpt lat="45.33733" lon="6.12289">
        <ele>1207.724854</ele>
        <time>2016-08-27T16:01:18Z</time>
      </trkpt>
      <trkpt lat="45.33729" lon="6.12284">
        <ele>1206.261597</ele>
        <time>2016-08-27T16:01:23Z</time>
      </trkpt>
      <trkpt lat="45.33724" lon="6.1228">
        <ele>1204.907715</ele>
        <time>2016-08-27T16:01:28Z</time>
      </trkpt>
      <trkpt lat="45.33718" lon="6.12278">
        <ele>1204.098999</ele>
        <time>2016-08-27T16:01:33Z</time>
      </trkpt>
      <trkpt lat="45.33713" lon="6.12275">
        <ele>1203.047729</ele>
        <time>2016-08-27T16:01:38Z</time>
      </trkpt>
      <trkpt lat="45.33707" lon="6.12273">
        <ele>1202.04126</ele>
        <time>2016-08-27T16:01:43Z</time>
      </trkpt>
      <trkpt lat="45.337" lon="6.12272">
        <ele>1201.424805</ele>
        <time>2016-08-27T16:01:48Z</time>
      </trkpt>
      <trkpt lat="45.33693" lon="6.12271">
        <ele>1200.720093</ele>
        <time>2016-08-27T16:01:53Z</time>
      </trkpt>
      <trkpt lat="45.33685" lon="6.12273">
        <ele>1200.523926</ele>
        <time>2016-08-27T16:01:58Z</time>
      </trkpt>
      <trkpt lat="45.33678" lon="6.12273">
        <ele>1200.179199</ele>
        <time>2016-08-27T16:02:03Z</time>
      </trkpt>
      <trkpt lat="45.33671" lon="6.12272">
        <ele>1199.514771</ele>
        <time>2016-08-27T16:02:08Z</time>
      </trkpt>
      <trkpt lat="45.33664" lon="6.1227">
        <ele>1198.463379</ele>
        <time>2016-08-27T16:02:13Z</time>
      </trkpt>
      <trkpt lat="45.3366" lon="6.1227">
        <ele>1197.956543</ele>
        <time>2016-08-27T16:02:18Z</time>
      </trkpt>
      <trkpt lat="45.33655" lon="6.12271">
        <ele>1197.887329</ele>
        <time>2016-08-27T16:02:23Z</time>
      </trkpt>
      <trkpt lat="45.33651" lon="6.12274">
        <ele>1198.215698</ele>
        <time>2016-08-27T16:02:28Z</time>
      </trkpt>
      <trkpt lat="45.3365" lon="6.12275">
        <ele>1198.450439</ele>
        <time>2016-08-27T16:02:33Z</time>
      </trkpt>
      <trkpt lat="45.3365" lon="6.12276">
        <ele>1198.607422</ele>
        <time>2016-08-27T16:02:38Z</time>
      </trkpt>
      <trkpt lat="45.3365" lon="6.12277">
        <ele>1198.783447</ele>
        <time>2016-08-27T16:02:43Z</time>
      </trkpt>
      <trkpt lat="45.3365" lon="6.12277">
        <ele>1198.91272</ele>
        <time>2016-08-27T16:02:48Z</time>
      </trkpt>
      <trkpt lat="45.33648" lon="6.12279">
        <ele>1199.341064</ele>
        <time>2016-08-27T16:02:53Z</time>
      </trkpt>
      <trkpt lat="45.33648" lon="6.12279">
        <ele>1199.255615</ele>
        <time>2016-08-27T16:02:58Z</time>
      </trkpt>
      <trkpt lat="45.33648" lon="6.12279">
        <ele>1199.230347</ele>
        <time>2016-08-27T16:03:03Z</time>
      </trkpt>
      <trkpt lat="45.33645" lon="6.12277">
        <ele>1198.506836</ele>
        <time>2016-08-27T16:03:08Z</time>
      </trkpt>
      <trkpt lat="45.33644" lon="6.12277">
        <ele>1198.290527</ele>
        <time>2016-08-27T16:03:13Z</time>
      </trkpt>
      <trkpt lat="45.33643" lon="6.12277">
        <ele>1198.390747</ele>
        <time>2016-08-27T16:03:18Z</time>
      </trkpt>
      <trkpt lat="45.33639" lon="6.12278">
        <ele>1198.142944</ele>
        <time>2016-08-27T16:03:23Z</time>
      </trkpt>
      <trkpt lat="45.33637" lon="6.12281">
        <ele>1198.620972</ele>
        <time>2016-08-27T16:03:28Z</time>
      </trkpt>
      <trkpt lat="45.33633" lon="6.12283">
        <ele>1198.830688</ele>
        <time>2016-08-27T16:03:33Z</time>
      </trkpt>
      <trkpt lat="45.33632" lon="6.12283">
        <ele>1198.69873</ele>
        <time>2016-08-27T16:03:38Z</time>
      </trkpt>
      <trkpt lat="45.3363" lon="6.12284">
        <ele>1198.730103</ele>
        <time>2016-08-27T16:03:43Z</time>
      </trkpt>
      <trkpt lat="45.33629" lon="6.12282">
        <ele>1198.061401</ele>
        <time>2016-08-27T16:03:48Z</time>
      </trkpt>
      <trkpt lat="45.33629" lon="6.12281">
        <ele>1197.889893</ele>
        <time>2016-08-27T16:03:53Z</time>
      </trkpt>
      <trkpt lat="45.33629" lon="6.1228">
        <ele>1197.654175</ele>
        <time>2016-08-27T16:03:58Z</time>
      </trkpt>
      <trkpt lat="45.33629" lon="6.1228">
        <ele>1197.567261</ele>
        <time>2016-08-27T16:04:03Z</time>
      </trkpt>
      <trkpt lat="45.33625" lon="6.12283">
        <ele>1197.941162</ele>
        <time>2016-08-27T16:04:08Z</time>
      </trkpt>
      <trkpt lat="45.33621" lon="6.12285">
        <ele>1197.731079</ele>
        <time>2016-08-27T16:04:13Z</time>
      </trkpt>
      <trkpt lat="45.33617" lon="6.12289">
        <ele>1197.696045</ele>
        <time>2016-08-27T16:04:18Z</time>
      </trkpt>
      <trkpt lat="45.33616" lon="6.12296">
        <ele>1199.163208</ele>
        <time>2016-08-27T16:04:23Z</time>
      </trkpt>
      <trkpt lat="45.33614" lon="6.12304">
        <ele>1200.873291</ele>
        <time>2016-08-27T16:04:28Z</time>
      </trkpt>
      <trkpt lat="45.33613" lon="6.12308">
        <ele>1201.287476</ele>
        <time>2016-08-27T16:04:33Z</time>
      </trkpt>
      <trkpt lat="45.33609" lon="6.12311">
        <ele>1200.548706</ele>
        <time>2016-08-27T16:04:38Z</time>
      </trkpt>
      <trkpt lat="45.33607" lon="6.12316">
        <ele>1200.526245</ele>
        <time>2016-08-27T16:04:43Z</time>
      </trkpt>
      <trkpt lat="45.33606" lon="6.12318">
        <ele>1200.359985</ele>
        <time>2016-08-27T16:04:48Z</time>
      </trkpt>
      <trkpt lat="45.33605" lon="6.12319">
        <ele>1200.153809</ele>
        <time>2016-08-27T16:04:53Z</time>
      </trkpt>
      <trkpt lat="45.33605" lon="6.12319">
        <ele>1200.221191</ele>
        <time>2016-08-27T16:04:58Z</time>
      </trkpt>
      <trkpt lat="45.33606" lon="6.12321">
        <ele>1200.703735</ele>
        <time>2016-08-27T16:05:03Z</time>
      </trkpt>
      <trkpt lat="45.33606" lon="6.12322">
        <ele>1201.118774</ele>
        <time>2016-08-27T16:05:08Z</time>
      </trkpt>
      <trkpt lat="45.33608" lon="6.12322">
        <ele>1201.757446</ele>
        <time>2016-08-27T16:05:13Z</time>
      </trkpt>
      <trkpt lat="45.33609" lon="6.12322">
        <ele>1202.101196</ele>
        <time>2016-08-27T16:05:18Z</time>
      </trkpt>
      <trkpt lat="45.33608" lon="6.12322">
        <ele>1201.569946</ele>
        <time>2016-08-27T16:05:23Z</time>
      </trkpt>
      <trkpt lat="45.33606" lon="6.12326">
        <ele>1201.675049</ele>
        <time>2016-08-27T16:05:28Z</time>
      </trkpt>
      <trkpt lat="45.33603" lon="6.12326">
        <ele>1200.599976</ele>
        <time>2016-08-27T16:05:33Z</time>
      </trkpt>
      <trkpt lat="45.336" lon="6.12329">
        <ele>1200.02124</ele>
        <time>2016-08-27T16:05:38Z</time>
      </trkpt>
      <trkpt lat="45.33597" lon="6.12333">
        <ele>1199.566284</ele>
        <time>2016-08-27T16:05:43Z</time>
      </trkpt>
      <trkpt lat="45.33596" lon="6.12336">
        <ele>1199.66748</ele>
        <time>2016-08-27T16:05:48Z</time>
      </trkpt>
      <trkpt lat="45.33592" lon="6.12339">
        <ele>1198.951294</ele>
        <time>2016-08-27T16:05:53Z</time>
      </trkpt>
      <trkpt lat="45.33587" lon="6.12343">
        <ele>1197.651245</ele>
        <time>2016-08-27T16:05:58Z</time>
      </trkpt>
      <trkpt lat="45.33582" lon="6.12344">
        <ele>1195.939941</ele>
        <time>2016-08-27T16:06:03Z</time>
      </trkpt>
      <trkpt lat="45.3358" lon="6.12338">
        <ele>1194.586304</ele>
        <time>2016-08-27T16:06:08Z</time>
      </trkpt>
      <trkpt lat="45.33576" lon="6.12334">
        <ele>1192.594971</ele>
        <time>2016-08-27T16:06:13Z</time>
      </trkpt>
      <trkpt lat="45.3357" lon="6.12333">
        <ele>1190.440063</ele>
        <time>2016-08-27T16:06:18Z</time>
      </trkpt>
      <trkpt lat="45.33564" lon="6.12334">
        <ele>1188.204468</ele>
        <time>2016-08-27T16:06:23Z</time>
      </trkpt>
      <trkpt lat="45.33558" lon="6.12333">
        <ele>1186.355591</ele>
        <time>2016-08-27T16:06:28Z</time>
      </trkpt>
      <trkpt lat="45.33553" lon="6.12334">
        <ele>1184.631592</ele>
        <time>2016-08-27T16:06:33Z</time>
      </trkpt>
      <trkpt lat="45.33548" lon="6.12333">
        <ele>1182.840332</ele>
        <time>2016-08-27T16:06:38Z</time>
      </trkpt>
      <trkpt lat="45.33544" lon="6.12332">
        <ele>1181.125732</ele>
        <time>2016-08-27T16:06:43Z</time>
      </trkpt>
      <trkpt lat="45.3354" lon="6.12331">
        <ele>1179.307983</ele>
        <time>2016-08-27T16:06:48Z</time>
      </trkpt>
      <trkpt lat="45.33535" lon="6.12329">
        <ele>1177.600586</ele>
        <time>2016-08-27T16:06:53Z</time>
      </trkpt>
      <trkpt lat="45.33531" lon="6.12328">
        <ele>1175.736572</ele>
        <time>2016-08-27T16:06:58Z</time>
      </trkpt>
      <trkpt lat="45.33528" lon="6.12324">
        <ele>1174.385132</ele>
        <time>2016-08-27T16:07:03Z</time>
      </trkpt>
      <trkpt lat="45.33526" lon="6.12319">
        <ele>1173.051514</ele>
        <time>2016-08-27T16:07:08Z</time>
      </trkpt>
      <trkpt lat="45.33523" lon="6.12314">
        <ele>1171.563354</ele>
        <time>2016-08-27T16:07:13Z</time>
      </trkpt>
      <trkpt lat="45.33521" lon="6.12309">
        <ele>1170.071655</ele>
        <time>2016-08-27T16:07:18Z</time>
      </trkpt>
      <trkpt lat="45.33518" lon="6.12304">
        <ele>1168.547241</ele>
        <time>2016-08-27T16:07:23Z</time>
      </trkpt>
      <trkpt lat="45.33516" lon="6.12299">
        <ele>1167.099976</ele>
        <time>2016-08-27T16:07:28Z</time>
      </trkpt>
      <trkpt lat="45.33514" lon="6.12293">
        <ele>1165.494385</ele>
        <time>2016-08-27T16:07:33Z</time>
      </trkpt>
      <trkpt lat="45.33512" lon="6.12287">
        <ele>1163.731934</ele>
        <time>2016-08-27T16:07:38Z</time>
      </trkpt>
      <trkpt lat="45.33511" lon="6.12282">
        <ele>1162.184814</ele>
        <time>2016-08-27T16:07:43Z</time>
      </trkpt>
      <trkpt lat="45.33509" lon="6.12277">
        <ele>1160.610718</ele>
        <time>2016-08-27T16:07:48Z</time>
      </trkpt>
      <trkpt lat="45.33507" lon="6.12272">
        <ele>1159.229492</ele>
        <time>2016-08-27T16:07:53Z</time>
      </trkpt>
      <trkpt lat="45.33506" lon="6.12267">
        <ele>1157.855835</ele>
        <time>2016-08-27T16:07:58Z</time>
      </trkpt>
      <trkpt lat="45.33506" lon="6.12262">
        <ele>1156.604492</ele>
        <time>2016-08-27T16:08:03Z</time>
      </trkpt>
      <trkpt lat="45.33505" lon="6.12256">
        <ele>1154.812134</ele>
        <time>2016-08-27T16:08:08Z</time>
      </trkpt>
      <trkpt lat="45.33504" lon="6.12251">
        <ele>1153.534546</ele>
        <time>2016-08-27T16:08:13Z</time>
      </trkpt>
      <trkpt lat="45.33503" lon="6.12245">
        <ele>1151.821899</ele>
        <time>2016-08-27T16:08:18Z</time>
      </trkpt>
      <trkpt lat="45.33503" lon="6.12238">
        <ele>1150.086182</ele>
        <time>2016-08-27T16:08:23Z</time>
      </trkpt>
      <trkpt lat="45.33502" lon="6.12232">
        <ele>1148.347534</ele>
        <time>2016-08-27T16:08:28Z</time>
      </trkpt>
      <trkpt lat="45.33501" lon="6.12226">
        <ele>1146.827515</ele>
        <time>2016-08-27T16:08:33Z</time>
      </trkpt>
      <trkpt lat="45.335" lon="6.1222">
        <ele>1145.280029</ele>
        <time>2016-08-27T16:08:38Z</time>
      </trkpt>
      <trkpt lat="45.33499" lon="6.12213">
        <ele>1143.545044</ele>
        <time>2016-08-27T16:08:43Z</time>
      </trkpt>
      <trkpt lat="45.335" lon="6.12207">
        <ele>1142.432495</ele>
        <time>2016-08-27T16:08:48Z</time>
      </trkpt>
      <trkpt lat="45.33501" lon="6.12201">
        <ele>1141.244995</ele>
        <time>2016-08-27T16:08:53Z</time>
      </trkpt>
      <trkpt lat="45.33501" lon="6.12196">
        <ele>1140.022461</ele>
        <time>2016-08-27T16:08:58Z</time>
      </trkpt>
      <trkpt lat="45.33502" lon="6.12191">
        <ele>1139.030029</ele>
        <time>2016-08-27T16:09:03Z</time>
      </trkpt>
      <trkpt lat="45.33502" lon="6.12184">
        <ele>1137.502563</ele>
        <time>2016-08-27T16:09:08Z</time>
      </trkpt>
      <trkpt lat="45.33503" lon="6.12177">
        <ele>1135.92749</ele>
        <time>2016-08-27T16:09:13Z</time>
      </trkpt>
      <trkpt lat="45.33503" lon="6.1217">
        <ele>1134.595947</ele>
        <time>2016-08-27T16:09:18Z</time>
      </trkpt>
      <trkpt lat="45.33504" lon="6.12163">
        <ele>1133.158325</ele>
        <time>2016-08-27T16:09:23Z</time>
      </trkpt>
      <trkpt lat="45.33505" lon="6.12157">
        <ele>1131.619507</ele>
        <time>2016-08-27T16:09:28Z</time>
      </trkpt>
      <trkpt lat="45.33505" lon="6.12151">
        <ele>1130.395508</ele>
        <time>2016-08-27T16:09:33Z</time>
      </trkpt>
      <trkpt lat="45.33506" lon="6.12147">
        <ele>1129.452271</ele>
        <time>2016-08-27T16:09:38Z</time>
      </trkpt>
      <trkpt lat="45.33507" lon="6.1214">
        <ele>1128.07251</ele>
        <time>2016-08-27T16:09:43Z</time>
      </trkpt>
      <trkpt lat="45.33508" lon="6.12134">
        <ele>1126.654541</ele>
        <time>2016-08-27T16:09:48Z</time>
      </trkpt>
      <trkpt lat="45.33509" lon="6.12127">
        <ele>1125.199463</ele>
        <time>2016-08-27T16:09:53Z</time>
      </trkpt>
      <trkpt lat="45.3351" lon="6.12121">
        <ele>1123.859009</ele>
        <time>2016-08-27T16:09:58Z</time>
      </trkpt>
      <trkpt lat="45.33511" lon="6.12114">
        <ele>1122.279663</ele>
        <time>2016-08-27T16:10:03Z</time>
      </trkpt>
      <trkpt lat="45.33511" lon="6.12107">
        <ele>1120.60376</ele>
        <time>2016-08-27T16:10:08Z</time>
      </trkpt>
      <trkpt lat="45.33511" lon="6.121">
        <ele>1118.549927</ele>
        <time>2016-08-27T16:10:13Z</time>
      </trkpt>
      <trkpt lat="45.33511" lon="6.12093">
        <ele>1116.329956</ele>
        <time>2016-08-27T16:10:18Z</time>
      </trkpt>
      <trkpt lat="45.33511" lon="6.12086">
        <ele>1114.400024</ele>
        <time>2016-08-27T16:10:23Z</time>
      </trkpt>
      <trkpt lat="45.33511" lon="6.12079">
        <ele>1112.293701</ele>
        <time>2016-08-27T16:10:28Z</time>
      </trkpt>
      <trkpt lat="45.33511" lon="6.12072">
        <ele>1110.151245</ele>
        <time>2016-08-27T16:10:33Z</time>
      </trkpt>
      <trkpt lat="45.3351" lon="6.12066">
        <ele>1107.974976</ele>
        <time>2016-08-27T16:10:38Z</time>
      </trkpt>
      <trkpt lat="45.3351" lon="6.12058">
        <ele>1105.655029</ele>
        <time>2016-08-27T16:10:43Z</time>
      </trkpt>
      <trkpt lat="45.33509" lon="6.12051">
        <ele>1103.266235</ele>
        <time>2016-08-27T16:10:48Z</time>
      </trkpt>
      <trkpt lat="45.33508" lon="6.12043">
        <ele>1100.904297</ele>
        <time>2016-08-27T16:10:53Z</time>
      </trkpt>
      <trkpt lat="45.3351" lon="6.12037">
        <ele>1099.786377</ele>
        <time>2016-08-27T16:10:58Z</time>
      </trkpt>
      <trkpt lat="45.33513" lon="6.12031">
        <ele>1098.757935</ele>
        <time>2016-08-27T16:11:03Z</time>
      </trkpt>
      <trkpt lat="45.33516" lon="6.12026">
        <ele>1098.150391</ele>
        <time>2016-08-27T16:11:08Z</time>
      </trkpt>
      <trkpt lat="45.33521" lon="6.12022">
        <ele>1097.954102</ele>
        <time>2016-08-27T16:11:13Z</time>
      </trkpt>
      <trkpt lat="45.33526" lon="6.12019">
        <ele>1098.279663</ele>
        <time>2016-08-27T16:11:18Z</time>
      </trkpt>
      <trkpt lat="45.33531" lon="6.12018">
        <ele>1098.565674</ele>
        <time>2016-08-27T16:11:23Z</time>
      </trkpt>
      <trkpt lat="45.33536" lon="6.12016">
        <ele>1099.043091</ele>
        <time>2016-08-27T16:11:28Z</time>
      </trkpt>
      <trkpt lat="45.33539" lon="6.12012">
        <ele>1098.763672</ele>
        <time>2016-08-27T16:11:33Z</time>
      </trkpt>
      <trkpt lat="45.33537" lon="6.12007">
        <ele>1097.248047</ele>
        <time>2016-08-27T16:11:38Z</time>
      </trkpt>
      <trkpt lat="45.33536" lon="6.12005">
        <ele>1096.798096</ele>
        <time>2016-08-27T16:11:43Z</time>
      </trkpt>
      <trkpt lat="45.33532" lon="6.12001">
        <ele>1095.261841</ele>
        <time>2016-08-27T16:11:48Z</time>
      </trkpt>
      <trkpt lat="45.33527" lon="6.11995">
        <ele>1093.188965</ele>
        <time>2016-08-27T16:11:53Z</time>
      </trkpt>
      <trkpt lat="45.33522" lon="6.11991">
        <ele>1091.295532</ele>
        <time>2016-08-27T16:11:58Z</time>
      </trkpt>
      <trkpt lat="45.33521" lon="6.11989">
        <ele>1090.625732</ele>
        <time>2016-08-27T16:12:03Z</time>
      </trkpt>
      <trkpt lat="45.33521" lon="6.11989">
        <ele>1090.59082</ele>
        <time>2016-08-27T16:12:08Z</time>
      </trkpt>
      <trkpt lat="45.33521" lon="6.11989">
        <ele>1090.538452</ele>
        <time>2016-08-27T16:12:13Z</time>
      </trkpt>
      <trkpt lat="45.33521" lon="6.11989">
        <ele>1090.569214</ele>
        <time>2016-08-27T16:12:18Z</time>
      </trkpt>
      <trkpt lat="45.33521" lon="6.11989">
        <ele>1090.512451</ele>
        <time>2016-08-27T16:12:23Z</time>
      </trkpt>
      <trkpt lat="45.33521" lon="6.11988">
        <ele>1090.477661</ele>
        <time>2016-08-27T16:12:28Z</time>
      </trkpt>
      <trkpt lat="45.33521" lon="6.11989">
        <ele>1090.512451</ele>
        <time>2016-08-27T16:12:33Z</time>
      </trkpt>
      <trkpt lat="45.33518" lon="6.1199">
        <ele>1090.300659</ele>
        <time>2016-08-27T16:12:38Z</time>
      </trkpt>
      <trkpt lat="45.33512" lon="6.11991">
        <ele>1089.548096</ele>
        <time>2016-08-27T16:12:43Z</time>
      </trkpt>
      <trkpt lat="45.33507" lon="6.11992">
        <ele>1088.913452</ele>
        <time>2016-08-27T16:12:48Z</time>
      </trkpt>
      <trkpt lat="45.33508" lon="6.11988">
        <ele>1088.084351</ele>
        <time>2016-08-27T16:12:53Z</time>
      </trkpt>
      <trkpt lat="45.33513" lon="6.11983">
        <ele>1087.953979</ele>
        <time>2016-08-27T16:12:58Z</time>
      </trkpt>
      <trkpt lat="45.33518" lon="6.11979">
        <ele>1087.996216</ele>
        <time>2016-08-27T16:13:03Z</time>
      </trkpt>
      <trkpt lat="45.33522" lon="6.11977">
        <ele>1088.511719</ele>
        <time>2016-08-27T16:13:08Z</time>
      </trkpt>
      <trkpt lat="45.33526" lon="6.11975">
        <ele>1088.937256</ele>
        <time>2016-08-27T16:13:13Z</time>
      </trkpt>
      <trkpt lat="45.33529" lon="6.11971">
        <ele>1088.967529</ele>
        <time>2016-08-27T16:13:18Z</time>
      </trkpt>
      <trkpt lat="45.33532" lon="6.11965">
        <ele>1088.884399</ele>
        <time>2016-08-27T16:13:23Z</time>
      </trkpt>
      <trkpt lat="45.33531" lon="6.1196">
        <ele>1088.049438</ele>
        <time>2016-08-27T16:13:28Z</time>
      </trkpt>
      <trkpt lat="45.33531" lon="6.11958">
        <ele>1087.763794</ele>
        <time>2016-08-27T16:13:33Z</time>
      </trkpt>
      <trkpt lat="45.33531" lon="6.11958">
        <ele>1087.789673</ele>
        <time>2016-08-27T16:13:38Z</time>
      </trkpt>
      <trkpt lat="45.33531" lon="6.11958">
        <ele>1087.88147</ele>
        <time>2016-08-27T16:13:43Z</time>
      </trkpt>
    </trkseg>
  </trk>
</gpx>